<?xml version="1.0" encoding="UTF-8" standalone="no" ?>
<gpx xmlns="http://www.topografix.com/GPX/1/1" xmlns:xsi="http://www.w3.org/2001/XMLSchema-instance" xsi:schemaLocation="http://www.topografix.com/GPX/1/1 http://www.topografix.com/GPX/1/1/gpx.xsd" version="1.1" creator="VisuGPX - https://www.visugpx.com">
  <metadata>
    <name>Sorede-Raho-Passa</name>
  </metadata>
  <trk>
    <name><![CDATA[Sorede-Raho-Passa]]></name>
    <trkseg>
      <trkpt lat="42.46674" lon="2.65249">
        <ele>250.5</ele>
        <time>2019-12-24T16:23:08Z</time>
      </trkpt>
      <trkpt lat="42.46805" lon="2.6586">
        <ele>247.1</ele>
        <time>2019-12-24T16:23:18Z</time>
      </trkpt>
      <trkpt lat="42.46879" lon="2.66019">
        <ele>251.1</ele>
        <time>2019-12-24T16:23:34Z</time>
      </trkpt>
      <trkpt lat="42.46925" lon="2.66139">
        <ele>247.8</ele>
        <time>2019-12-24T16:23:40Z</time>
      </trkpt>
      <trkpt lat="42.46968" lon="2.66192">
        <ele>256.1</ele>
        <time>2019-12-24T16:23:44Z</time>
      </trkpt>
      <trkpt lat="42.47086" lon="2.66268">
        <ele>259</ele>
        <time>2019-12-24T16:23:47Z</time>
      </trkpt>
      <trkpt lat="42.47152" lon="2.66261">
        <ele>260.5</ele>
        <time>2019-12-24T16:23:51Z</time>
      </trkpt>
      <trkpt lat="42.47224" lon="2.66247">
        <ele>241.8</ele>
        <time>2019-12-24T16:23:57Z</time>
      </trkpt>
      <trkpt lat="42.47295" lon="2.66279">
        <ele>244.9</ele>
        <time>2019-12-24T16:24:04Z</time>
      </trkpt>
      <trkpt lat="42.47365" lon="2.66326">
        <ele>236.5</ele>
        <time>2019-12-24T16:24:15Z</time>
      </trkpt>
      <trkpt lat="42.47406" lon="2.66437">
        <ele>243.5</ele>
        <time>2019-12-24T16:24:20Z</time>
      </trkpt>
      <trkpt lat="42.47426" lon="2.66533">
        <ele>232</ele>
        <time>2019-12-24T16:24:25Z</time>
      </trkpt>
      <trkpt lat="42.47421" lon="2.66581">
        <ele>233.3</ele>
        <time>2019-12-24T16:24:31Z</time>
      </trkpt>
      <trkpt lat="42.47308" lon="2.66977">
        <ele>228.1</ele>
        <time>2019-12-24T16:24:36Z</time>
      </trkpt>
      <trkpt lat="42.47353" lon="2.67013">
        <ele>222.9</ele>
        <time>2019-12-24T16:24:39Z</time>
      </trkpt>
      <trkpt lat="42.47437" lon="2.67041">
        <ele>226.6</ele>
        <time>2019-12-24T16:24:45Z</time>
      </trkpt>
      <trkpt lat="42.47442" lon="2.67052">
        <ele>227.1</ele>
        <time>2019-12-24T16:24:51Z</time>
      </trkpt>
      <trkpt lat="42.47446" lon="2.67068">
        <ele>227.4</ele>
        <time>2019-12-24T16:24:57Z</time>
      </trkpt>
      <trkpt lat="42.47463" lon="2.67165">
        <ele>227.1</ele>
        <time>2019-12-24T16:25:06Z</time>
      </trkpt>
      <trkpt lat="42.47487" lon="2.67262">
        <ele>223.1</ele>
        <time>2019-12-24T16:25:10Z</time>
      </trkpt>
      <trkpt lat="42.47493" lon="2.67275">
        <ele>222.5</ele>
        <time>2019-12-24T16:25:11Z</time>
      </trkpt>
      <trkpt lat="42.475" lon="2.67286">
        <ele>223.8</ele>
        <time>2019-12-24T16:25:12Z</time>
      </trkpt>
      <trkpt lat="42.4752" lon="2.67284">
        <ele>223.6</ele>
        <time>2019-12-24T16:25:13Z</time>
      </trkpt>
      <trkpt lat="42.47538" lon="2.67276">
        <ele>223.5</ele>
        <time>2019-12-24T16:25:14Z</time>
      </trkpt>
      <trkpt lat="42.4755" lon="2.6727">
        <ele>223.5</ele>
        <time>2019-12-24T16:25:24Z</time>
      </trkpt>
      <trkpt lat="42.47567" lon="2.67259">
        <ele>223.9</ele>
        <time>2019-12-24T16:25:29Z</time>
      </trkpt>
      <trkpt lat="42.4758" lon="2.67249">
        <ele>225.4</ele>
        <time>2019-12-24T16:25:36Z</time>
      </trkpt>
      <trkpt lat="42.47603" lon="2.67291">
        <ele>217.6</ele>
        <time>2019-12-24T16:25:44Z</time>
      </trkpt>
      <trkpt lat="42.47635" lon="2.67353">
        <ele>212.4</ele>
        <time>2019-12-24T16:25:47Z</time>
      </trkpt>
      <trkpt lat="42.47698" lon="2.67439">
        <ele>218.5</ele>
        <time>2019-12-24T16:25:57Z</time>
      </trkpt>
      <trkpt lat="42.4772" lon="2.67471">
        <ele>221.3</ele>
        <time>2019-12-24T16:26:01Z</time>
      </trkpt>
      <trkpt lat="42.47737" lon="2.67491">
        <ele>223.5</ele>
        <time>2019-12-24T16:26:05Z</time>
      </trkpt>
      <trkpt lat="42.47752" lon="2.67504">
        <ele>226.8</ele>
        <time>2019-12-24T16:26:17Z</time>
      </trkpt>
      <trkpt lat="42.47771" lon="2.67517">
        <ele>229.1</ele>
        <time>2019-12-24T16:26:29Z</time>
      </trkpt>
      <trkpt lat="42.47804" lon="2.67534">
        <ele>229.3</ele>
        <time>2019-12-24T16:26:37Z</time>
      </trkpt>
      <trkpt lat="42.47844" lon="2.67548">
        <ele>225.2</ele>
        <time>2019-12-24T16:26:40Z</time>
      </trkpt>
      <trkpt lat="42.47901" lon="2.67571">
        <ele>224.9</ele>
        <time>2019-12-24T16:26:44Z</time>
      </trkpt>
      <trkpt lat="42.47928" lon="2.67582">
        <ele>223</ele>
        <time>2019-12-24T16:26:49Z</time>
      </trkpt>
      <trkpt lat="42.47958" lon="2.67595">
        <ele>224.3</ele>
        <time>2019-12-24T16:26:56Z</time>
      </trkpt>
      <trkpt lat="42.47987" lon="2.67616">
        <ele>223.3</ele>
        <time>2019-12-24T16:27:04Z</time>
      </trkpt>
      <trkpt lat="42.48007" lon="2.67636">
        <ele>217.7</ele>
        <time>2019-12-24T16:27:12Z</time>
      </trkpt>
      <trkpt lat="42.48021" lon="2.67649">
        <ele>217.7</ele>
        <time>2019-12-24T16:27:16Z</time>
      </trkpt>
      <trkpt lat="42.48046" lon="2.67683">
        <ele>218.7</ele>
        <time>2019-12-24T16:27:17Z</time>
      </trkpt>
      <trkpt lat="42.48066" lon="2.67721">
        <ele>218.2</ele>
        <time>2019-12-24T16:27:18Z</time>
      </trkpt>
      <trkpt lat="42.4808" lon="2.67758">
        <ele>217.1</ele>
        <time>2019-12-24T16:27:18Z</time>
      </trkpt>
      <trkpt lat="42.48092" lon="2.67829">
        <ele>214.5</ele>
        <time>2019-12-24T16:27:19Z</time>
      </trkpt>
      <trkpt lat="42.48114" lon="2.67818">
        <ele>212.3</ele>
        <time>2019-12-24T16:27:19Z</time>
      </trkpt>
      <trkpt lat="42.48115" lon="2.67822">
        <ele>212.3</ele>
        <time>2019-12-24T16:27:21Z</time>
      </trkpt>
      <trkpt lat="42.48118" lon="2.67828">
        <ele>212.2</ele>
        <time>2019-12-24T16:27:25Z</time>
      </trkpt>
      <trkpt lat="42.48124" lon="2.6783">
        <ele>211.8</ele>
        <time>2019-12-24T16:27:30Z</time>
      </trkpt>
      <trkpt lat="42.48129" lon="2.67829">
        <ele>211.4</ele>
        <time>2019-12-24T16:27:36Z</time>
      </trkpt>
      <trkpt lat="42.4815" lon="2.67899">
        <ele>211.2</ele>
        <time>2019-12-24T16:27:41Z</time>
      </trkpt>
      <trkpt lat="42.48162" lon="2.67938">
        <ele>211.2</ele>
        <time>2019-12-24T16:27:43Z</time>
      </trkpt>
      <trkpt lat="42.48177" lon="2.67989">
        <ele>206.5</ele>
        <time>2019-12-24T16:27:45Z</time>
      </trkpt>
      <trkpt lat="42.48192" lon="2.68043">
        <ele>205.1</ele>
        <time>2019-12-24T16:27:53Z</time>
      </trkpt>
      <trkpt lat="42.48198" lon="2.6806">
        <ele>205</ele>
        <time>2019-12-24T16:28:01Z</time>
      </trkpt>
      <trkpt lat="42.48216" lon="2.68134">
        <ele>205</ele>
        <time>2019-12-24T16:28:05Z</time>
      </trkpt>
      <trkpt lat="42.48219" lon="2.68163">
        <ele>204.8</ele>
        <time>2019-12-24T16:28:24Z</time>
      </trkpt>
      <trkpt lat="42.48217" lon="2.68194">
        <ele>204.9</ele>
        <time>2019-12-24T16:28:37Z</time>
      </trkpt>
      <trkpt lat="42.48208" lon="2.68288">
        <ele>204.5</ele>
        <time>2019-12-24T16:28:47Z</time>
      </trkpt>
      <trkpt lat="42.48198" lon="2.68379">
        <ele>204.4</ele>
        <time>2019-12-24T16:29:04Z</time>
      </trkpt>
      <trkpt lat="42.48192" lon="2.68439">
        <ele>203.7</ele>
        <time>2019-12-24T16:29:21Z</time>
      </trkpt>
      <trkpt lat="42.48193" lon="2.68463">
        <ele>203.1</ele>
        <time>2019-12-24T16:29:29Z</time>
      </trkpt>
      <trkpt lat="42.48202" lon="2.68492">
        <ele>202.4</ele>
        <time>2019-12-24T16:29:33Z</time>
      </trkpt>
      <trkpt lat="42.48212" lon="2.68527">
        <ele>201.1</ele>
        <time>2019-12-24T16:29:38Z</time>
      </trkpt>
      <trkpt lat="42.48225" lon="2.68576">
        <ele>199.3</ele>
        <time>2019-12-24T16:29:54Z</time>
      </trkpt>
      <trkpt lat="42.4824" lon="2.68629">
        <ele>198.3</ele>
        <time>2019-12-24T16:30:15Z</time>
      </trkpt>
      <trkpt lat="42.48254" lon="2.68691">
        <ele>193.6</ele>
        <time>2019-12-24T16:30:25Z</time>
      </trkpt>
      <trkpt lat="42.48261" lon="2.6872">
        <ele>194.8</ele>
        <time>2019-12-24T16:30:32Z</time>
      </trkpt>
      <trkpt lat="42.48259" lon="2.68723">
        <ele>195</ele>
        <time>2019-12-24T16:30:48Z</time>
      </trkpt>
      <trkpt lat="42.48258" lon="2.68731">
        <ele>195.7</ele>
        <time>2019-12-24T16:31:02Z</time>
      </trkpt>
      <trkpt lat="42.48259" lon="2.68734">
        <ele>195.9</ele>
        <time>2019-12-24T16:31:17Z</time>
      </trkpt>
      <trkpt lat="42.4826" lon="2.68737">
        <ele>196.1</ele>
        <time>2019-12-24T16:31:36Z</time>
      </trkpt>
      <trkpt lat="42.48264" lon="2.68741">
        <ele>196.1</ele>
        <time>2019-12-24T16:31:45Z</time>
      </trkpt>
      <trkpt lat="42.48272" lon="2.68739">
        <ele>195.2</ele>
        <time>2019-12-24T16:32:03Z</time>
      </trkpt>
      <trkpt lat="42.48283" lon="2.68762">
        <ele>197.5</ele>
        <time>2019-12-24T16:32:10Z</time>
      </trkpt>
      <trkpt lat="42.48306" lon="2.6879">
        <ele>196.7</ele>
        <time>2019-12-24T16:32:16Z</time>
      </trkpt>
      <trkpt lat="42.48325" lon="2.68824">
        <ele>194.4</ele>
        <time>2019-12-24T16:32:22Z</time>
      </trkpt>
      <trkpt lat="42.4834" lon="2.68858">
        <ele>191.3</ele>
        <time>2019-12-24T16:32:26Z</time>
      </trkpt>
      <trkpt lat="42.48344" lon="2.68872">
        <ele>191.4</ele>
        <time>2019-12-24T16:32:34Z</time>
      </trkpt>
      <trkpt lat="42.48348" lon="2.68884">
        <ele>191.6</ele>
        <time>2019-12-24T16:32:37Z</time>
      </trkpt>
      <trkpt lat="42.48361" lon="2.68944">
        <ele>192</ele>
        <time>2019-12-24T16:33:08Z</time>
      </trkpt>
      <trkpt lat="42.4837" lon="2.69009">
        <ele>191.9</ele>
        <time>2019-12-24T16:33:13Z</time>
      </trkpt>
      <trkpt lat="42.48375" lon="2.69038">
        <ele>191.5</ele>
        <time>2019-12-24T16:33:19Z</time>
      </trkpt>
      <trkpt lat="42.48397" lon="2.69176">
        <ele>187.6</ele>
        <time>2019-12-24T16:33:28Z</time>
      </trkpt>
      <trkpt lat="42.4841" lon="2.69273">
        <ele>185.2</ele>
        <time>2019-12-24T16:33:36Z</time>
      </trkpt>
      <trkpt lat="42.48417" lon="2.69348">
        <ele>182.6</ele>
        <time>2019-12-24T16:33:41Z</time>
      </trkpt>
      <trkpt lat="42.48422" lon="2.6948">
        <ele>182.3</ele>
        <time>2019-12-24T16:33:47Z</time>
      </trkpt>
      <trkpt lat="42.48427" lon="2.69612">
        <ele>180.9</ele>
        <time>2019-12-24T16:33:53Z</time>
      </trkpt>
      <trkpt lat="42.48431" lon="2.69673">
        <ele>179.6</ele>
        <time>2019-12-24T16:33:58Z</time>
      </trkpt>
      <trkpt lat="42.48441" lon="2.69699">
        <ele>179.9</ele>
        <time>2019-12-24T16:34:08Z</time>
      </trkpt>
      <trkpt lat="42.48456" lon="2.69725">
        <ele>179.9</ele>
        <time>2019-12-24T16:34:31Z</time>
      </trkpt>
      <trkpt lat="42.48519" lon="2.69816">
        <ele>179.1</ele>
        <time>2019-12-24T16:34:52Z</time>
      </trkpt>
      <trkpt lat="42.48606" lon="2.69927">
        <ele>178.3</ele>
        <time>2019-12-24T16:34:59Z</time>
      </trkpt>
      <trkpt lat="42.48656" lon="2.69966">
        <ele>177.9</ele>
        <time>2019-12-24T16:35:08Z</time>
      </trkpt>
      <trkpt lat="42.48689" lon="2.69995">
        <ele>177.2</ele>
        <time>2019-12-24T16:35:18Z</time>
      </trkpt>
      <trkpt lat="42.48758" lon="2.7007">
        <ele>176.8</ele>
        <time>2019-12-24T16:35:25Z</time>
      </trkpt>
      <trkpt lat="42.48821" lon="2.70126">
        <ele>177</ele>
        <time>2019-12-24T16:35:28Z</time>
      </trkpt>
      <trkpt lat="42.48885" lon="2.70206">
        <ele>178.3</ele>
        <time>2019-12-24T16:35:33Z</time>
      </trkpt>
      <trkpt lat="42.48968" lon="2.70296">
        <ele>181.8</ele>
        <time>2019-12-24T16:35:52Z</time>
      </trkpt>
      <trkpt lat="42.49008" lon="2.70337">
        <ele>185.9</ele>
        <time>2019-12-24T16:36:04Z</time>
      </trkpt>
      <trkpt lat="42.49092" lon="2.70416">
        <ele>185.3</ele>
        <time>2019-12-24T16:36:08Z</time>
      </trkpt>
      <trkpt lat="42.4912" lon="2.7045">
        <ele>189.7</ele>
        <time>2019-12-24T16:36:14Z</time>
      </trkpt>
      <trkpt lat="42.49151" lon="2.70471">
        <ele>187.5</ele>
        <time>2019-12-24T16:36:15Z</time>
      </trkpt>
      <trkpt lat="42.49176" lon="2.70507">
        <ele>187.7</ele>
        <time>2019-12-24T16:36:18Z</time>
      </trkpt>
      <trkpt lat="42.49193" lon="2.70526">
        <ele>192.1</ele>
        <time>2019-12-24T16:36:20Z</time>
      </trkpt>
      <trkpt lat="42.49232" lon="2.70551">
        <ele>194.7</ele>
        <time>2019-12-24T16:36:24Z</time>
      </trkpt>
      <trkpt lat="42.49251" lon="2.70552">
        <ele>189.4</ele>
        <time>2019-12-24T16:36:27Z</time>
      </trkpt>
      <trkpt lat="42.49419" lon="2.70519">
        <ele>177.3</ele>
        <time>2019-12-24T16:36:32Z</time>
      </trkpt>
      <trkpt lat="42.49448" lon="2.70519">
        <ele>177.9</ele>
        <time>2019-12-24T16:36:42Z</time>
      </trkpt>
      <trkpt lat="42.49482" lon="2.70528">
        <ele>177.2</ele>
        <time>2019-12-24T16:36:47Z</time>
      </trkpt>
      <trkpt lat="42.4953" lon="2.70558">
        <ele>174.5</ele>
        <time>2019-12-24T16:36:53Z</time>
      </trkpt>
      <trkpt lat="42.49564" lon="2.70588">
        <ele>178.9</ele>
        <time>2019-12-24T16:37:00Z</time>
      </trkpt>
      <trkpt lat="42.49587" lon="2.70619">
        <ele>174</ele>
        <time>2019-12-24T16:37:06Z</time>
      </trkpt>
      <trkpt lat="42.49598" lon="2.7066">
        <ele>176.2</ele>
        <time>2019-12-24T16:37:10Z</time>
      </trkpt>
      <trkpt lat="42.496" lon="2.70706">
        <ele>174.8</ele>
        <time>2019-12-24T16:37:14Z</time>
      </trkpt>
      <trkpt lat="42.49596" lon="2.70744">
        <ele>176.3</ele>
        <time>2019-12-24T16:37:16Z</time>
      </trkpt>
      <trkpt lat="42.49577" lon="2.70815">
        <ele>180.7</ele>
        <time>2019-12-24T16:37:19Z</time>
      </trkpt>
      <trkpt lat="42.49535" lon="2.70982">
        <ele>179</ele>
        <time>2019-12-24T16:37:23Z</time>
      </trkpt>
      <trkpt lat="42.49492" lon="2.71128">
        <ele>172.9</ele>
        <time>2019-12-24T16:37:27Z</time>
      </trkpt>
      <trkpt lat="42.49482" lon="2.71177">
        <ele>168.8</ele>
        <time>2019-12-24T16:37:29Z</time>
      </trkpt>
      <trkpt lat="42.4948" lon="2.71249">
        <ele>168.3</ele>
        <time>2019-12-24T16:37:34Z</time>
      </trkpt>
      <trkpt lat="42.4949" lon="2.71323">
        <ele>167.8</ele>
        <time>2019-12-24T16:37:38Z</time>
      </trkpt>
      <trkpt lat="42.49494" lon="2.71381">
        <ele>168</ele>
        <time>2019-12-24T16:37:46Z</time>
      </trkpt>
      <trkpt lat="42.49496" lon="2.71399">
        <ele>167.2</ele>
        <time>2019-12-24T16:37:50Z</time>
      </trkpt>
      <trkpt lat="42.49493" lon="2.71436">
        <ele>166</ele>
        <time>2019-12-24T16:37:54Z</time>
      </trkpt>
      <trkpt lat="42.49463" lon="2.71576">
        <ele>162.3</ele>
        <time>2019-12-24T16:37:56Z</time>
      </trkpt>
      <trkpt lat="42.49444" lon="2.71665">
        <ele>159.4</ele>
        <time>2019-12-24T16:37:59Z</time>
      </trkpt>
      <trkpt lat="42.4944" lon="2.71694">
        <ele>157.9</ele>
        <time>2019-12-24T16:38:01Z</time>
      </trkpt>
      <trkpt lat="42.49424" lon="2.71736">
        <ele>160.5</ele>
        <time>2019-12-24T16:38:02Z</time>
      </trkpt>
      <trkpt lat="42.49424" lon="2.71741">
        <ele>161.2</ele>
        <time>2019-12-24T16:38:03Z</time>
      </trkpt>
      <trkpt lat="42.49436" lon="2.7176">
        <ele>162.8</ele>
        <time>2019-12-24T16:38:04Z</time>
      </trkpt>
      <trkpt lat="42.49442" lon="2.71773">
        <ele>162.7</ele>
        <time>2019-12-24T16:38:05Z</time>
      </trkpt>
      <trkpt lat="42.49451" lon="2.71804">
        <ele>164.1</ele>
        <time>2019-12-24T16:38:06Z</time>
      </trkpt>
      <trkpt lat="42.4945" lon="2.71824">
        <ele>166</ele>
        <time>2019-12-24T16:38:09Z</time>
      </trkpt>
      <trkpt lat="42.49442" lon="2.71858">
        <ele>169.8</ele>
        <time>2019-12-24T16:38:11Z</time>
      </trkpt>
      <trkpt lat="42.49418" lon="2.71926">
        <ele>172.4</ele>
        <time>2019-12-24T16:38:14Z</time>
      </trkpt>
      <trkpt lat="42.49407" lon="2.71962">
        <ele>186.1</ele>
        <time>2019-12-24T16:38:18Z</time>
      </trkpt>
      <trkpt lat="42.49396" lon="2.72009">
        <ele>175.8</ele>
        <time>2019-12-24T16:38:20Z</time>
      </trkpt>
      <trkpt lat="42.49392" lon="2.72059">
        <ele>175.5</ele>
        <time>2019-12-24T16:38:22Z</time>
      </trkpt>
      <trkpt lat="42.4939" lon="2.72103">
        <ele>168.2</ele>
        <time>2019-12-24T16:38:25Z</time>
      </trkpt>
      <trkpt lat="42.4939" lon="2.7214">
        <ele>167.6</ele>
        <time>2019-12-24T16:38:30Z</time>
      </trkpt>
      <trkpt lat="42.49396" lon="2.72163">
        <ele>164.2</ele>
        <time>2019-12-24T16:38:34Z</time>
      </trkpt>
      <trkpt lat="42.49399" lon="2.72181">
        <ele>160.8</ele>
        <time>2019-12-24T16:38:39Z</time>
      </trkpt>
      <trkpt lat="42.49402" lon="2.72203">
        <ele>161.3</ele>
        <time>2019-12-24T16:38:43Z</time>
      </trkpt>
      <trkpt lat="42.49401" lon="2.72234">
        <ele>159.7</ele>
        <time>2019-12-24T16:38:50Z</time>
      </trkpt>
      <trkpt lat="42.49396" lon="2.72261">
        <ele>158.7</ele>
        <time>2019-12-24T16:39:01Z</time>
      </trkpt>
      <trkpt lat="42.49394" lon="2.72277">
        <ele>159.6</ele>
        <time>2019-12-24T16:39:04Z</time>
      </trkpt>
      <trkpt lat="42.494" lon="2.72312">
        <ele>159.6</ele>
        <time>2019-12-24T16:39:07Z</time>
      </trkpt>
      <trkpt lat="42.49411" lon="2.72341">
        <ele>158.5</ele>
        <time>2019-12-24T16:39:11Z</time>
      </trkpt>
      <trkpt lat="42.49425" lon="2.72399">
        <ele>156</ele>
        <time>2019-12-24T16:39:14Z</time>
      </trkpt>
      <trkpt lat="42.4943" lon="2.72429">
        <ele>156.5</ele>
        <time>2019-12-24T16:39:18Z</time>
      </trkpt>
      <trkpt lat="42.4943" lon="2.7246">
        <ele>156.8</ele>
        <time>2019-12-24T16:39:21Z</time>
      </trkpt>
      <trkpt lat="42.49428" lon="2.72479">
        <ele>157.5</ele>
        <time>2019-12-24T16:39:24Z</time>
      </trkpt>
      <trkpt lat="42.49429" lon="2.72495">
        <ele>158.3</ele>
        <time>2019-12-24T16:39:27Z</time>
      </trkpt>
      <trkpt lat="42.49433" lon="2.72514">
        <ele>159.4</ele>
        <time>2019-12-24T16:39:28Z</time>
      </trkpt>
      <trkpt lat="42.49433" lon="2.72524">
        <ele>159.5</ele>
        <time>2019-12-24T16:39:28Z</time>
      </trkpt>
      <trkpt lat="42.49433" lon="2.7253">
        <ele>159.6</ele>
        <time>2019-12-24T16:39:30Z</time>
      </trkpt>
      <trkpt lat="42.49434" lon="2.72535">
        <ele>159.8</ele>
        <time>2019-12-24T16:39:33Z</time>
      </trkpt>
      <trkpt lat="42.49437" lon="2.72539">
        <ele>159.8</ele>
        <time>2019-12-24T16:39:35Z</time>
      </trkpt>
      <trkpt lat="42.49442" lon="2.72541">
        <ele>159.6</ele>
        <time>2019-12-24T16:39:37Z</time>
      </trkpt>
      <trkpt lat="42.4945" lon="2.72565">
        <ele>160</ele>
        <time>2019-12-24T16:39:38Z</time>
      </trkpt>
      <trkpt lat="42.49453" lon="2.72576">
        <ele>159.9</ele>
        <time>2019-12-24T16:39:42Z</time>
      </trkpt>
      <trkpt lat="42.49467" lon="2.72598">
        <ele>161.6</ele>
        <time>2019-12-24T16:39:42Z</time>
      </trkpt>
      <trkpt lat="42.49479" lon="2.72617">
        <ele>161.3</ele>
        <time>2019-12-24T16:39:44Z</time>
      </trkpt>
      <trkpt lat="42.49485" lon="2.72631">
        <ele>161.3</ele>
        <time>2019-12-24T16:39:50Z</time>
      </trkpt>
      <trkpt lat="42.49492" lon="2.72645">
        <ele>160.6</ele>
        <time>2019-12-24T16:39:54Z</time>
      </trkpt>
      <trkpt lat="42.49497" lon="2.72664">
        <ele>158</ele>
        <time>2019-12-24T16:39:57Z</time>
      </trkpt>
      <trkpt lat="42.49505" lon="2.72705">
        <ele>154.3</ele>
        <time>2019-12-24T16:40:00Z</time>
      </trkpt>
      <trkpt lat="42.49508" lon="2.72732">
        <ele>155.2</ele>
        <time>2019-12-24T16:40:03Z</time>
      </trkpt>
      <trkpt lat="42.49511" lon="2.72768">
        <ele>155.5</ele>
        <time>2019-12-24T16:40:06Z</time>
      </trkpt>
      <trkpt lat="42.49515" lon="2.72803">
        <ele>154.7</ele>
        <time>2019-12-24T16:40:08Z</time>
      </trkpt>
      <trkpt lat="42.49521" lon="2.72851">
        <ele>154.3</ele>
        <time>2019-12-24T16:40:13Z</time>
      </trkpt>
      <trkpt lat="42.49532" lon="2.72937">
        <ele>152.6</ele>
        <time>2019-12-24T16:40:17Z</time>
      </trkpt>
      <trkpt lat="42.49533" lon="2.72957">
        <ele>152.4</ele>
        <time>2019-12-24T16:40:23Z</time>
      </trkpt>
      <trkpt lat="42.49533" lon="2.72979">
        <ele>152.3</ele>
        <time>2019-12-24T16:40:26Z</time>
      </trkpt>
      <trkpt lat="42.49533" lon="2.73013">
        <ele>151.5</ele>
        <time>2019-12-24T16:40:33Z</time>
      </trkpt>
      <trkpt lat="42.49531" lon="2.73036">
        <ele>151.2</ele>
        <time>2019-12-24T16:40:38Z</time>
      </trkpt>
      <trkpt lat="42.49526" lon="2.73064">
        <ele>151.3</ele>
        <time>2019-12-24T16:40:39Z</time>
      </trkpt>
      <trkpt lat="42.49522" lon="2.73087">
        <ele>151.2</ele>
        <time>2019-12-24T16:40:40Z</time>
      </trkpt>
      <trkpt lat="42.49518" lon="2.73113">
        <ele>151</ele>
        <time>2019-12-24T16:40:43Z</time>
      </trkpt>
      <trkpt lat="42.49513" lon="2.73128">
        <ele>151.1</ele>
        <time>2019-12-24T16:40:48Z</time>
      </trkpt>
      <trkpt lat="42.49509" lon="2.73134">
        <ele>151.2</ele>
        <time>2019-12-24T16:40:52Z</time>
      </trkpt>
      <trkpt lat="42.49506" lon="2.73138">
        <ele>151.3</ele>
        <time>2019-12-24T16:41:03Z</time>
      </trkpt>
      <trkpt lat="42.49496" lon="2.73141">
        <ele>154.8</ele>
        <time>2019-12-24T16:41:09Z</time>
      </trkpt>
      <trkpt lat="42.49482" lon="2.73142">
        <ele>155.2</ele>
        <time>2019-12-24T16:41:18Z</time>
      </trkpt>
      <trkpt lat="42.49471" lon="2.73147">
        <ele>155.6</ele>
        <time>2019-12-24T16:41:25Z</time>
      </trkpt>
      <trkpt lat="42.49467" lon="2.7313">
        <ele>155.9</ele>
        <time>2019-12-24T16:41:28Z</time>
      </trkpt>
      <trkpt lat="42.49462" lon="2.73125">
        <ele>156.1</ele>
        <time>2019-12-24T16:41:33Z</time>
      </trkpt>
      <trkpt lat="42.49444" lon="2.73121">
        <ele>156.8</ele>
        <time>2019-12-24T16:41:33Z</time>
      </trkpt>
      <trkpt lat="42.49443" lon="2.73125">
        <ele>156.8</ele>
        <time>2019-12-24T16:41:51Z</time>
      </trkpt>
      <trkpt lat="42.49437" lon="2.73138">
        <ele>157</ele>
        <time>2019-12-24T16:41:56Z</time>
      </trkpt>
      <trkpt lat="42.49421" lon="2.73175">
        <ele>158</ele>
        <time>2019-12-24T16:41:59Z</time>
      </trkpt>
      <trkpt lat="42.49408" lon="2.73202">
        <ele>161.8</ele>
        <time>2019-12-24T16:42:05Z</time>
      </trkpt>
      <trkpt lat="42.49395" lon="2.73222">
        <ele>162.1</ele>
        <time>2019-12-24T16:42:10Z</time>
      </trkpt>
      <trkpt lat="42.49388" lon="2.73241">
        <ele>162.1</ele>
        <time>2019-12-24T16:42:12Z</time>
      </trkpt>
      <trkpt lat="42.49386" lon="2.7326">
        <ele>161.5</ele>
        <time>2019-12-24T16:42:14Z</time>
      </trkpt>
      <trkpt lat="42.49382" lon="2.73282">
        <ele>161.9</ele>
        <time>2019-12-24T16:42:16Z</time>
      </trkpt>
      <trkpt lat="42.49376" lon="2.73299">
        <ele>162.2</ele>
        <time>2019-12-24T16:42:21Z</time>
      </trkpt>
      <trkpt lat="42.49367" lon="2.73334">
        <ele>162.4</ele>
        <time>2019-12-24T16:42:24Z</time>
      </trkpt>
      <trkpt lat="42.49361" lon="2.73363">
        <ele>162.4</ele>
        <time>2019-12-24T16:42:26Z</time>
      </trkpt>
      <trkpt lat="42.49356" lon="2.73408">
        <ele>162.4</ele>
        <time>2019-12-24T16:42:36Z</time>
      </trkpt>
      <trkpt lat="42.49352" lon="2.73433">
        <ele>162</ele>
        <time>2019-12-24T16:42:40Z</time>
      </trkpt>
      <trkpt lat="42.49343" lon="2.73481">
        <ele>161.8</ele>
        <time>2019-12-24T16:42:43Z</time>
      </trkpt>
      <trkpt lat="42.49335" lon="2.73517">
        <ele>160.8</ele>
        <time>2019-12-24T16:42:44Z</time>
      </trkpt>
      <trkpt lat="42.49335" lon="2.73529">
        <ele>160.3</ele>
        <time>2019-12-24T16:42:47Z</time>
      </trkpt>
      <trkpt lat="42.49331" lon="2.73534">
        <ele>162.6</ele>
        <time>2019-12-24T16:42:51Z</time>
      </trkpt>
      <trkpt lat="42.49321" lon="2.73554">
        <ele>162.1</ele>
        <time>2019-12-24T16:42:52Z</time>
      </trkpt>
      <trkpt lat="42.49307" lon="2.73582">
        <ele>161.9</ele>
        <time>2019-12-24T16:43:00Z</time>
      </trkpt>
      <trkpt lat="42.49294" lon="2.73612">
        <ele>161</ele>
        <time>2019-12-24T16:43:01Z</time>
      </trkpt>
      <trkpt lat="42.49263" lon="2.73677">
        <ele>160.6</ele>
        <time>2019-12-24T16:43:06Z</time>
      </trkpt>
      <trkpt lat="42.49243" lon="2.73721">
        <ele>161.2</ele>
        <time>2019-12-24T16:43:07Z</time>
      </trkpt>
      <trkpt lat="42.4922" lon="2.73781">
        <ele>159.7</ele>
        <time>2019-12-24T16:43:08Z</time>
      </trkpt>
      <trkpt lat="42.49204" lon="2.7383">
        <ele>159.6</ele>
        <time>2019-12-24T16:43:23Z</time>
      </trkpt>
      <trkpt lat="42.49198" lon="2.73851">
        <ele>158.4</ele>
        <time>2019-12-24T16:43:26Z</time>
      </trkpt>
      <trkpt lat="42.49188" lon="2.73881">
        <ele>158.1</ele>
        <time>2019-12-24T16:43:27Z</time>
      </trkpt>
      <trkpt lat="42.49185" lon="2.73886">
        <ele>158.1</ele>
        <time>2019-12-24T16:43:29Z</time>
      </trkpt>
      <trkpt lat="42.49136" lon="2.74003">
        <ele>157.8</ele>
        <time>2019-12-24T16:43:30Z</time>
      </trkpt>
      <trkpt lat="42.49124" lon="2.74036">
        <ele>157.8</ele>
        <time>2019-12-24T16:43:33Z</time>
      </trkpt>
      <trkpt lat="42.49118" lon="2.7406">
        <ele>157.7</ele>
        <time>2019-12-24T16:43:34Z</time>
      </trkpt>
      <trkpt lat="42.49102" lon="2.74095">
        <ele>157.6</ele>
        <time>2019-12-24T16:43:36Z</time>
      </trkpt>
      <trkpt lat="42.49085" lon="2.74124">
        <ele>157.7</ele>
        <time>2019-12-24T16:43:36Z</time>
      </trkpt>
      <trkpt lat="42.49076" lon="2.74136">
        <ele>160.4</ele>
        <time>2019-12-24T16:43:44Z</time>
      </trkpt>
      <trkpt lat="42.49063" lon="2.74143">
        <ele>160.7</ele>
        <time>2019-12-24T16:43:46Z</time>
      </trkpt>
      <trkpt lat="42.49053" lon="2.74148">
        <ele>161</ele>
        <time>2019-12-24T16:43:48Z</time>
      </trkpt>
      <trkpt lat="42.4906" lon="2.74185">
        <ele>160.3</ele>
        <time>2019-12-24T16:43:51Z</time>
      </trkpt>
      <trkpt lat="42.49062" lon="2.74203">
        <ele>160.3</ele>
        <time>2019-12-24T16:43:53Z</time>
      </trkpt>
      <trkpt lat="42.4906" lon="2.74224">
        <ele>160.3</ele>
        <time>2019-12-24T16:43:57Z</time>
      </trkpt>
      <trkpt lat="42.49054" lon="2.74301">
        <ele>159.8</ele>
        <time>2019-12-24T16:44:00Z</time>
      </trkpt>
      <trkpt lat="42.49052" lon="2.74331">
        <ele>159.7</ele>
        <time>2019-12-24T16:44:02Z</time>
      </trkpt>
      <trkpt lat="42.49051" lon="2.74349">
        <ele>158</ele>
        <time>2019-12-24T16:44:13Z</time>
      </trkpt>
      <trkpt lat="42.49053" lon="2.7436">
        <ele>157.8</ele>
        <time>2019-12-24T16:44:22Z</time>
      </trkpt>
      <trkpt lat="42.49056" lon="2.74377">
        <ele>157.4</ele>
        <time>2019-12-24T16:44:25Z</time>
      </trkpt>
      <trkpt lat="42.49068" lon="2.74405">
        <ele>156.3</ele>
        <time>2019-12-24T16:44:34Z</time>
      </trkpt>
      <trkpt lat="42.49073" lon="2.74412">
        <ele>155.9</ele>
        <time>2019-12-24T16:44:37Z</time>
      </trkpt>
      <trkpt lat="42.49047" lon="2.74462">
        <ele>155.9</ele>
        <time>2019-12-24T16:44:47Z</time>
      </trkpt>
      <trkpt lat="42.49044" lon="2.74468">
        <ele>156</ele>
        <time>2019-12-24T16:44:52Z</time>
      </trkpt>
      <trkpt lat="42.49026" lon="2.74501">
        <ele>157.6</ele>
        <time>2019-12-24T16:44:53Z</time>
      </trkpt>
      <trkpt lat="42.49024" lon="2.74504">
        <ele>157.7</ele>
        <time>2019-12-24T16:44:55Z</time>
      </trkpt>
      <trkpt lat="42.49019" lon="2.74512">
        <ele>157.8</ele>
        <time>2019-12-24T16:44:57Z</time>
      </trkpt>
      <trkpt lat="42.48977" lon="2.74607">
        <ele>157.9</ele>
        <time>2019-12-24T16:45:00Z</time>
      </trkpt>
      <trkpt lat="42.48968" lon="2.74626">
        <ele>157.5</ele>
        <time>2019-12-24T16:45:00Z</time>
      </trkpt>
      <trkpt lat="42.48966" lon="2.74634">
        <ele>157.3</ele>
        <time>2019-12-24T16:45:16Z</time>
      </trkpt>
      <trkpt lat="42.48964" lon="2.74646">
        <ele>157.1</ele>
        <time>2019-12-24T16:45:19Z</time>
      </trkpt>
      <trkpt lat="42.48963" lon="2.74658">
        <ele>157</ele>
        <time>2019-12-24T16:45:22Z</time>
      </trkpt>
      <trkpt lat="42.48964" lon="2.74683">
        <ele>156</ele>
        <time>2019-12-24T16:45:25Z</time>
      </trkpt>
      <trkpt lat="42.48962" lon="2.7469">
        <ele>156</ele>
        <time>2019-12-24T16:45:27Z</time>
      </trkpt>
      <trkpt lat="42.48963" lon="2.74698">
        <ele>155.9</ele>
        <time>2019-12-24T16:45:31Z</time>
      </trkpt>
      <trkpt lat="42.4896" lon="2.74704">
        <ele>156</ele>
        <time>2019-12-24T16:45:48Z</time>
      </trkpt>
      <trkpt lat="42.48922" lon="2.74737">
        <ele>157.6</ele>
        <time>2019-12-24T16:46:10Z</time>
      </trkpt>
      <trkpt lat="42.48915" lon="2.7474">
        <ele>159.1</ele>
        <time>2019-12-24T16:46:16Z</time>
      </trkpt>
      <trkpt lat="42.48905" lon="2.74738">
        <ele>159.1</ele>
        <time>2019-12-24T16:46:18Z</time>
      </trkpt>
      <trkpt lat="42.48884" lon="2.74731">
        <ele>159.5</ele>
        <time>2019-12-24T16:46:19Z</time>
      </trkpt>
      <trkpt lat="42.48878" lon="2.74731">
        <ele>159.6</ele>
        <time>2019-12-24T16:46:24Z</time>
      </trkpt>
      <trkpt lat="42.48853" lon="2.74748">
        <ele>161</ele>
        <time>2019-12-24T16:46:25Z</time>
      </trkpt>
      <trkpt lat="42.48838" lon="2.74756">
        <ele>162.4</ele>
        <time>2019-12-24T16:46:26Z</time>
      </trkpt>
      <trkpt lat="42.48828" lon="2.74758">
        <ele>163.6</ele>
        <time>2019-12-24T16:46:27Z</time>
      </trkpt>
      <trkpt lat="42.48766" lon="2.74761">
        <ele>166.4</ele>
        <time>2019-12-24T16:46:28Z</time>
      </trkpt>
      <trkpt lat="42.48719" lon="2.74764">
        <ele>168.9</ele>
        <time>2019-12-24T16:46:32Z</time>
      </trkpt>
      <trkpt lat="42.487" lon="2.74763">
        <ele>169.4</ele>
        <time>2019-12-24T16:46:37Z</time>
      </trkpt>
      <trkpt lat="42.48651" lon="2.74763">
        <ele>172.7</ele>
        <time>2019-12-24T16:46:39Z</time>
      </trkpt>
      <trkpt lat="42.4863" lon="2.74768">
        <ele>173.9</ele>
        <time>2019-12-24T16:46:41Z</time>
      </trkpt>
      <trkpt lat="42.4858" lon="2.74785">
        <ele>178.3</ele>
        <time>2019-12-24T16:46:47Z</time>
      </trkpt>
      <trkpt lat="42.48582" lon="2.74826">
        <ele>177.5</ele>
        <time>2019-12-24T16:46:51Z</time>
      </trkpt>
      <trkpt lat="42.48582" lon="2.7483">
        <ele>177.3</ele>
        <time>2019-12-24T16:47:08Z</time>
      </trkpt>
      <trkpt lat="42.48579" lon="2.74847">
        <ele>176.9</ele>
        <time>2019-12-24T16:47:17Z</time>
      </trkpt>
      <trkpt lat="42.48576" lon="2.74859">
        <ele>176.7</ele>
        <time>2019-12-24T16:47:34Z</time>
      </trkpt>
      <trkpt lat="42.48567" lon="2.74879">
        <ele>176.2</ele>
        <time>2019-12-24T16:47:40Z</time>
      </trkpt>
      <trkpt lat="42.48562" lon="2.74879">
        <ele>176.3</ele>
        <time>2019-12-24T16:47:43Z</time>
      </trkpt>
      <trkpt lat="42.48511" lon="2.74975">
        <ele>172.3</ele>
        <time>2019-12-24T16:47:44Z</time>
      </trkpt>
      <trkpt lat="42.48508" lon="2.74997">
        <ele>171.5</ele>
        <time>2019-12-24T16:47:45Z</time>
      </trkpt>
      <trkpt lat="42.48504" lon="2.75023">
        <ele>170</ele>
        <time>2019-12-24T16:47:46Z</time>
      </trkpt>
      <trkpt lat="42.48501" lon="2.75042">
        <ele>169.7</ele>
        <time>2019-12-24T16:47:47Z</time>
      </trkpt>
      <trkpt lat="42.48498" lon="2.7506">
        <ele>171</ele>
        <time>2019-12-24T16:47:48Z</time>
      </trkpt>
      <trkpt lat="42.48494" lon="2.75084">
        <ele>170.1</ele>
        <time>2019-12-24T16:47:48Z</time>
      </trkpt>
      <trkpt lat="42.48474" lon="2.75211">
        <ele>169</ele>
        <time>2019-12-24T16:47:49Z</time>
      </trkpt>
      <trkpt lat="42.48449" lon="2.75375">
        <ele>169.3</ele>
        <time>2019-12-24T16:47:50Z</time>
      </trkpt>
      <trkpt lat="42.48442" lon="2.75425">
        <ele>169.7</ele>
        <time>2019-12-24T16:47:57Z</time>
      </trkpt>
      <trkpt lat="42.48441" lon="2.75438">
        <ele>169.6</ele>
        <time>2019-12-24T16:48:10Z</time>
      </trkpt>
      <trkpt lat="42.48438" lon="2.75446">
        <ele>169.6</ele>
        <time>2019-12-24T16:48:15Z</time>
      </trkpt>
      <trkpt lat="42.48433" lon="2.75483">
        <ele>169.6</ele>
        <time>2019-12-24T16:48:16Z</time>
      </trkpt>
      <trkpt lat="42.48432" lon="2.75488">
        <ele>169.7</ele>
        <time>2019-12-24T16:48:32Z</time>
      </trkpt>
      <trkpt lat="42.48429" lon="2.75492">
        <ele>169.7</ele>
        <time>2019-12-24T16:48:33Z</time>
      </trkpt>
      <trkpt lat="42.48427" lon="2.75499">
        <ele>169.8</ele>
        <time>2019-12-24T16:48:41Z</time>
      </trkpt>
      <trkpt lat="42.48429" lon="2.75507">
        <ele>169.4</ele>
        <time>2019-12-24T16:48:52Z</time>
      </trkpt>
      <trkpt lat="42.48424" lon="2.75537">
        <ele>169</ele>
        <time>2019-12-24T16:49:07Z</time>
      </trkpt>
      <trkpt lat="42.48418" lon="2.75574">
        <ele>169.5</ele>
        <time>2019-12-24T16:49:41Z</time>
      </trkpt>
      <trkpt lat="42.48417" lon="2.75592">
        <ele>168.5</ele>
        <time>2019-12-24T16:49:45Z</time>
      </trkpt>
      <trkpt lat="42.48419" lon="2.75606">
        <ele>167</ele>
        <time>2019-12-24T16:49:48Z</time>
      </trkpt>
      <trkpt lat="42.48421" lon="2.75653">
        <ele>165.5</ele>
        <time>2019-12-24T16:49:51Z</time>
      </trkpt>
      <trkpt lat="42.48422" lon="2.75681">
        <ele>164.4</ele>
        <time>2019-12-24T16:50:28Z</time>
      </trkpt>
      <trkpt lat="42.48429" lon="2.7581">
        <ele>166.7</ele>
        <time>2019-12-24T16:50:43Z</time>
      </trkpt>
      <trkpt lat="42.48433" lon="2.75882">
        <ele>170.7</ele>
        <time>2019-12-24T16:50:48Z</time>
      </trkpt>
      <trkpt lat="42.4844" lon="2.7601">
        <ele>171</ele>
        <time>2019-12-24T16:50:52Z</time>
      </trkpt>
      <trkpt lat="42.48441" lon="2.76056">
        <ele>170.1</ele>
        <time>2019-12-24T16:51:15Z</time>
      </trkpt>
      <trkpt lat="42.48441" lon="2.7608">
        <ele>169.9</ele>
        <time>2019-12-24T16:51:37Z</time>
      </trkpt>
      <trkpt lat="42.48436" lon="2.76082">
        <ele>169.9</ele>
        <time>2019-12-24T16:51:42Z</time>
      </trkpt>
      <trkpt lat="42.48433" lon="2.76086">
        <ele>169.1</ele>
        <time>2019-12-24T16:52:40Z</time>
      </trkpt>
      <trkpt lat="42.48431" lon="2.76093">
        <ele>169.1</ele>
        <time>2019-12-24T16:52:44Z</time>
      </trkpt>
      <trkpt lat="42.48431" lon="2.76101">
        <ele>168.9</ele>
        <time>2019-12-24T16:52:46Z</time>
      </trkpt>
      <trkpt lat="42.48432" lon="2.76105">
        <ele>168.8</ele>
        <time>2019-12-24T16:52:56Z</time>
      </trkpt>
      <trkpt lat="42.48435" lon="2.7611">
        <ele>168.7</ele>
        <time>2019-12-24T16:53:08Z</time>
      </trkpt>
      <trkpt lat="42.48439" lon="2.76112">
        <ele>168.6</ele>
        <time>2019-12-24T16:53:16Z</time>
      </trkpt>
      <trkpt lat="42.48443" lon="2.76113">
        <ele>168.5</ele>
        <time>2019-12-24T16:53:19Z</time>
      </trkpt>
      <trkpt lat="42.48445" lon="2.76169">
        <ele>167.5</ele>
        <time>2019-12-24T16:53:25Z</time>
      </trkpt>
      <trkpt lat="42.48453" lon="2.76268">
        <ele>166.9</ele>
        <time>2019-12-24T16:53:29Z</time>
      </trkpt>
      <trkpt lat="42.48456" lon="2.76305">
        <ele>166.8</ele>
        <time>2019-12-24T16:53:33Z</time>
      </trkpt>
      <trkpt lat="42.48456" lon="2.7631">
        <ele>166.8</ele>
        <time>2019-12-24T16:53:50Z</time>
      </trkpt>
      <trkpt lat="42.48462" lon="2.76432">
        <ele>165.8</ele>
        <time>2019-12-24T16:54:32Z</time>
      </trkpt>
      <trkpt lat="42.48462" lon="2.76441">
        <ele>165.7</ele>
        <time>2019-12-24T16:54:59Z</time>
      </trkpt>
      <trkpt lat="42.48465" lon="2.76498">
        <ele>165.2</ele>
        <time>2019-12-24T16:55:56Z</time>
      </trkpt>
      <trkpt lat="42.48469" lon="2.76584">
        <ele>165.8</ele>
        <time>2019-12-24T16:56:04Z</time>
      </trkpt>
      <trkpt lat="42.48475" lon="2.76696">
        <ele>166.4</ele>
        <time>2019-12-24T16:56:28Z</time>
      </trkpt>
      <trkpt lat="42.48489" lon="2.76961">
        <ele>160.1</ele>
        <time>2019-12-24T16:56:37Z</time>
      </trkpt>
      <trkpt lat="42.48492" lon="2.76988">
        <ele>157.7</ele>
        <time>2019-12-24T16:56:40Z</time>
      </trkpt>
      <trkpt lat="42.48499" lon="2.77011">
        <ele>155.9</ele>
        <time>2019-12-24T16:56:49Z</time>
      </trkpt>
      <trkpt lat="42.48506" lon="2.77029">
        <ele>154.9</ele>
        <time>2019-12-24T16:56:52Z</time>
      </trkpt>
      <trkpt lat="42.48636" lon="2.77246">
        <ele>153.4</ele>
        <time>2019-12-24T16:56:56Z</time>
      </trkpt>
      <trkpt lat="42.48687" lon="2.77339">
        <ele>157.4</ele>
        <time>2019-12-24T16:57:17Z</time>
      </trkpt>
      <trkpt lat="42.48707" lon="2.77364">
        <ele>157</ele>
        <time>2019-12-24T16:57:31Z</time>
      </trkpt>
      <trkpt lat="42.48725" lon="2.77381">
        <ele>156.6</ele>
        <time>2019-12-24T16:57:41Z</time>
      </trkpt>
      <trkpt lat="42.48843" lon="2.77458">
        <ele>151</ele>
        <time>2019-12-24T16:57:57Z</time>
      </trkpt>
      <trkpt lat="42.48938" lon="2.7757">
        <ele>146.6</ele>
        <time>2019-12-24T16:58:04Z</time>
      </trkpt>
      <trkpt lat="42.48957" lon="2.77599">
        <ele>146.4</ele>
        <time>2019-12-24T16:58:05Z</time>
      </trkpt>
      <trkpt lat="42.49158" lon="2.77946">
        <ele>140.1</ele>
        <time>2019-12-24T16:58:06Z</time>
      </trkpt>
      <trkpt lat="42.4917" lon="2.77969">
        <ele>139.2</ele>
        <time>2019-12-24T16:58:07Z</time>
      </trkpt>
      <trkpt lat="42.49175" lon="2.77986">
        <ele>139.1</ele>
        <time>2019-12-24T16:58:09Z</time>
      </trkpt>
      <trkpt lat="42.4919" lon="2.78057">
        <ele>138.6</ele>
        <time>2019-12-24T16:58:10Z</time>
      </trkpt>
      <trkpt lat="42.49212" lon="2.78147">
        <ele>137.2</ele>
        <time>2019-12-24T16:58:12Z</time>
      </trkpt>
      <trkpt lat="42.49232" lon="2.78195">
        <ele>136.6</ele>
        <time>2019-12-24T16:58:38Z</time>
      </trkpt>
      <trkpt lat="42.49245" lon="2.78217">
        <ele>136.7</ele>
        <time>2019-12-24T16:58:42Z</time>
      </trkpt>
      <trkpt lat="42.49265" lon="2.78247">
        <ele>134.8</ele>
        <time>2019-12-24T16:58:44Z</time>
      </trkpt>
      <trkpt lat="42.49278" lon="2.78276">
        <ele>133.7</ele>
        <time>2019-12-24T16:58:45Z</time>
      </trkpt>
      <trkpt lat="42.49287" lon="2.783">
        <ele>133.3</ele>
        <time>2019-12-24T16:58:47Z</time>
      </trkpt>
      <trkpt lat="42.49306" lon="2.78432">
        <ele>133.4</ele>
        <time>2019-12-24T16:58:48Z</time>
      </trkpt>
      <trkpt lat="42.49347" lon="2.78741">
        <ele>131.6</ele>
        <time>2019-12-24T16:58:49Z</time>
      </trkpt>
      <trkpt lat="42.49334" lon="2.78951">
        <ele>128.7</ele>
        <time>2019-12-24T16:58:49Z</time>
      </trkpt>
      <trkpt lat="42.49316" lon="2.7938">
        <ele>135.2</ele>
        <time>2019-12-24T16:58:50Z</time>
      </trkpt>
      <trkpt lat="42.49291" lon="2.79432">
        <ele>134.5</ele>
        <time>2019-12-24T16:58:51Z</time>
      </trkpt>
      <trkpt lat="42.49215" lon="2.7959">
        <ele>133.8</ele>
        <time>2019-12-24T16:58:51Z</time>
      </trkpt>
      <trkpt lat="42.49184" lon="2.79635">
        <ele>133.3</ele>
        <time>2019-12-24T16:58:53Z</time>
      </trkpt>
      <trkpt lat="42.49174" lon="2.79659">
        <ele>132.5</ele>
        <time>2019-12-24T16:58:54Z</time>
      </trkpt>
      <trkpt lat="42.49163" lon="2.79721">
        <ele>134.1</ele>
        <time>2019-12-24T16:58:55Z</time>
      </trkpt>
      <trkpt lat="42.49158" lon="2.79747">
        <ele>134.2</ele>
        <time>2019-12-24T16:59:01Z</time>
      </trkpt>
      <trkpt lat="42.49155" lon="2.79779">
        <ele>134.5</ele>
        <time>2019-12-24T16:59:02Z</time>
      </trkpt>
      <trkpt lat="42.49121" lon="2.79934">
        <ele>132.9</ele>
        <time>2019-12-24T16:59:03Z</time>
      </trkpt>
      <trkpt lat="42.49099" lon="2.80033">
        <ele>134.1</ele>
        <time>2019-12-24T16:59:04Z</time>
      </trkpt>
      <trkpt lat="42.49083" lon="2.80108">
        <ele>134.9</ele>
        <time>2019-12-24T16:59:09Z</time>
      </trkpt>
      <trkpt lat="42.4905" lon="2.8022">
        <ele>130.9</ele>
        <time>2019-12-24T16:59:14Z</time>
      </trkpt>
      <trkpt lat="42.49031" lon="2.80268">
        <ele>125.3</ele>
        <time>2019-12-24T16:59:15Z</time>
      </trkpt>
      <trkpt lat="42.49029" lon="2.80272">
        <ele>125.1</ele>
        <time>2019-12-24T16:59:17Z</time>
      </trkpt>
      <trkpt lat="42.49022" lon="2.80269">
        <ele>125.5</ele>
        <time>2019-12-24T16:59:18Z</time>
      </trkpt>
      <trkpt lat="42.49016" lon="2.80272">
        <ele>125.5</ele>
        <time>2019-12-24T16:59:22Z</time>
      </trkpt>
      <trkpt lat="42.49012" lon="2.80279">
        <ele>125.1</ele>
        <time>2019-12-24T16:59:23Z</time>
      </trkpt>
      <trkpt lat="42.49012" lon="2.80293">
        <ele>124.1</ele>
        <time>2019-12-24T16:59:24Z</time>
      </trkpt>
      <trkpt lat="42.49016" lon="2.803">
        <ele>123.6</ele>
        <time>2019-12-24T16:59:27Z</time>
      </trkpt>
      <trkpt lat="42.48959" lon="2.80488">
        <ele>115</ele>
        <time>2019-12-24T16:59:29Z</time>
      </trkpt>
      <trkpt lat="42.48952" lon="2.80513">
        <ele>116.3</ele>
        <time>2019-12-24T16:59:30Z</time>
      </trkpt>
      <trkpt lat="42.48949" lon="2.80528">
        <ele>116.7</ele>
        <time>2019-12-24T16:59:32Z</time>
      </trkpt>
      <trkpt lat="42.48946" lon="2.80534">
        <ele>116.8</ele>
        <time>2019-12-24T16:59:39Z</time>
      </trkpt>
      <trkpt lat="42.48943" lon="2.8055">
        <ele>117.3</ele>
        <time>2019-12-24T16:59:42Z</time>
      </trkpt>
      <trkpt lat="42.48942" lon="2.8056">
        <ele>117.5</ele>
        <time>2019-12-24T16:59:42Z</time>
      </trkpt>
      <trkpt lat="42.4894" lon="2.80564">
        <ele>117.6</ele>
        <time>2019-12-24T16:59:53Z</time>
      </trkpt>
      <trkpt lat="42.48939" lon="2.80566">
        <ele>117.6</ele>
        <time>2019-12-24T17:00:01Z</time>
      </trkpt>
      <trkpt lat="42.48938" lon="2.80574">
        <ele>117.8</ele>
        <time>2019-12-24T17:00:02Z</time>
      </trkpt>
      <trkpt lat="42.4894" lon="2.80578">
        <ele>117.8</ele>
        <time>2019-12-24T17:00:10Z</time>
      </trkpt>
      <trkpt lat="42.48941" lon="2.80581">
        <ele>117.9</ele>
        <time>2019-12-24T17:00:11Z</time>
      </trkpt>
      <trkpt lat="42.48948" lon="2.80585">
        <ele>122.6</ele>
        <time>2019-12-24T17:00:19Z</time>
      </trkpt>
      <trkpt lat="42.48955" lon="2.80583">
        <ele>118.2</ele>
        <time>2019-12-24T17:00:24Z</time>
      </trkpt>
      <trkpt lat="42.48954" lon="2.80593">
        <ele>123.2</ele>
        <time>2019-12-24T17:00:29Z</time>
      </trkpt>
      <trkpt lat="42.48946" lon="2.80639">
        <ele>125.7</ele>
        <time>2019-12-24T17:00:35Z</time>
      </trkpt>
      <trkpt lat="42.48949" lon="2.80644">
        <ele>126</ele>
        <time>2019-12-24T17:00:37Z</time>
      </trkpt>
      <trkpt lat="42.48954" lon="2.80648">
        <ele>126.2</ele>
        <time>2019-12-24T17:00:39Z</time>
      </trkpt>
      <trkpt lat="42.4896" lon="2.80651">
        <ele>126.4</ele>
        <time>2019-12-24T17:00:52Z</time>
      </trkpt>
      <trkpt lat="42.48986" lon="2.80663">
        <ele>128.5</ele>
        <time>2019-12-24T17:00:58Z</time>
      </trkpt>
      <trkpt lat="42.48981" lon="2.80697">
        <ele>130.9</ele>
        <time>2019-12-24T17:01:06Z</time>
      </trkpt>
      <trkpt lat="42.48974" lon="2.80695">
        <ele>130.9</ele>
        <time>2019-12-24T17:01:14Z</time>
      </trkpt>
      <trkpt lat="42.4897" lon="2.80707">
        <ele>131</ele>
        <time>2019-12-24T17:01:25Z</time>
      </trkpt>
      <trkpt lat="42.48968" lon="2.80716">
        <ele>131.1</ele>
        <time>2019-12-24T17:01:34Z</time>
      </trkpt>
      <trkpt lat="42.48962" lon="2.80747">
        <ele>131.3</ele>
        <time>2019-12-24T17:02:07Z</time>
      </trkpt>
      <trkpt lat="42.48961" lon="2.80754">
        <ele>132.1</ele>
        <time>2019-12-24T17:02:09Z</time>
      </trkpt>
      <trkpt lat="42.4896" lon="2.80762">
        <ele>132.1</ele>
        <time>2019-12-24T17:02:17Z</time>
      </trkpt>
      <trkpt lat="42.48954" lon="2.80779">
        <ele>132.3</ele>
        <time>2019-12-24T17:02:34Z</time>
      </trkpt>
      <trkpt lat="42.48954" lon="2.80798">
        <ele>132.3</ele>
        <time>2019-12-24T17:02:40Z</time>
      </trkpt>
      <trkpt lat="42.48956" lon="2.80805">
        <ele>132.3</ele>
        <time>2019-12-24T17:02:47Z</time>
      </trkpt>
      <trkpt lat="42.48955" lon="2.80817">
        <ele>132.4</ele>
        <time>2019-12-24T17:02:53Z</time>
      </trkpt>
      <trkpt lat="42.48943" lon="2.80867">
        <ele>133.2</ele>
        <time>2019-12-24T17:03:07Z</time>
      </trkpt>
      <trkpt lat="42.48938" lon="2.80889">
        <ele>133.5</ele>
        <time>2019-12-24T17:03:23Z</time>
      </trkpt>
      <trkpt lat="42.48936" lon="2.80893">
        <ele>133.6</ele>
        <time>2019-12-24T17:03:39Z</time>
      </trkpt>
      <trkpt lat="42.4899" lon="2.80931">
        <ele>132.5</ele>
        <time>2019-12-24T17:03:51Z</time>
      </trkpt>
      <trkpt lat="42.49031" lon="2.80956">
        <ele>130.6</ele>
        <time>2019-12-24T17:04:00Z</time>
      </trkpt>
      <trkpt lat="42.49037" lon="2.80959">
        <ele>130.6</ele>
        <time>2019-12-24T17:04:05Z</time>
      </trkpt>
      <trkpt lat="42.49022" lon="2.81011">
        <ele>130.8</ele>
        <time>2019-12-24T17:04:11Z</time>
      </trkpt>
      <trkpt lat="42.49022" lon="2.81024">
        <ele>130.8</ele>
        <time>2019-12-24T17:04:15Z</time>
      </trkpt>
      <trkpt lat="42.4906" lon="2.81043">
        <ele>130.6</ele>
        <time>2019-12-24T17:04:19Z</time>
      </trkpt>
      <trkpt lat="42.49088" lon="2.81056">
        <ele>129.6</ele>
        <time>2019-12-24T17:04:22Z</time>
      </trkpt>
      <trkpt lat="42.4906" lon="2.81043">
        <ele>130.6</ele>
        <time>2019-12-24T17:04:27Z</time>
      </trkpt>
      <trkpt lat="42.49075" lon="2.8108">
        <ele>130.2</ele>
        <time>2019-12-24T17:04:39Z</time>
      </trkpt>
      <trkpt lat="42.49083" lon="2.81093">
        <ele>130.9</ele>
        <time>2019-12-24T17:04:50Z</time>
      </trkpt>
      <trkpt lat="42.49094" lon="2.81098">
        <ele>130.5</ele>
        <time>2019-12-24T17:05:03Z</time>
      </trkpt>
      <trkpt lat="42.49164" lon="2.81122">
        <ele>130.7</ele>
        <time>2019-12-24T17:05:13Z</time>
      </trkpt>
      <trkpt lat="42.49157" lon="2.81076">
        <ele>129.1</ele>
        <time>2019-12-24T17:05:20Z</time>
      </trkpt>
      <trkpt lat="42.49147" lon="2.81015">
        <ele>128.8</ele>
        <time>2019-12-24T17:05:26Z</time>
      </trkpt>
      <trkpt lat="42.49193" lon="2.81023">
        <ele>127.8</ele>
        <time>2019-12-24T17:05:40Z</time>
      </trkpt>
      <trkpt lat="42.49252" lon="2.81034">
        <ele>126.7</ele>
        <time>2019-12-24T17:05:45Z</time>
      </trkpt>
      <trkpt lat="42.493" lon="2.81043">
        <ele>126.8</ele>
        <time>2019-12-24T17:05:52Z</time>
      </trkpt>
      <trkpt lat="42.49474" lon="2.81129">
        <ele>126.6</ele>
        <time>2019-12-24T17:06:00Z</time>
      </trkpt>
      <trkpt lat="42.49485" lon="2.81137">
        <ele>126.9</ele>
        <time>2019-12-24T17:06:10Z</time>
      </trkpt>
      <trkpt lat="42.49522" lon="2.81173">
        <ele>124.1</ele>
        <time>2019-12-24T17:06:14Z</time>
      </trkpt>
      <trkpt lat="42.49588" lon="2.81265">
        <ele>116.5</ele>
        <time>2019-12-24T17:06:19Z</time>
      </trkpt>
      <trkpt lat="42.49617" lon="2.81296">
        <ele>115.3</ele>
        <time>2019-12-24T17:06:25Z</time>
      </trkpt>
      <trkpt lat="42.49651" lon="2.81321">
        <ele>113.8</ele>
        <time>2019-12-24T17:06:28Z</time>
      </trkpt>
      <trkpt lat="42.49683" lon="2.81338">
        <ele>112.4</ele>
        <time>2019-12-24T17:06:32Z</time>
      </trkpt>
      <trkpt lat="42.49752" lon="2.81379">
        <ele>106.9</ele>
        <time>2019-12-24T17:06:42Z</time>
      </trkpt>
      <trkpt lat="42.49825" lon="2.81458">
        <ele>108.1</ele>
        <time>2019-12-24T17:06:50Z</time>
      </trkpt>
      <trkpt lat="42.49893" lon="2.81532">
        <ele>104.2</ele>
        <time>2019-12-24T17:06:56Z</time>
      </trkpt>
      <trkpt lat="42.49947" lon="2.8159">
        <ele>102.9</ele>
        <time>2019-12-24T17:07:00Z</time>
      </trkpt>
      <trkpt lat="42.49985" lon="2.81629">
        <ele>102.3</ele>
        <time>2019-12-24T17:07:07Z</time>
      </trkpt>
      <trkpt lat="42.50011" lon="2.81648">
        <ele>101</ele>
        <time>2019-12-24T17:07:12Z</time>
      </trkpt>
      <trkpt lat="42.50042" lon="2.8167">
        <ele>99.5</ele>
        <time>2019-12-24T17:07:18Z</time>
      </trkpt>
      <trkpt lat="42.50059" lon="2.81692">
        <ele>99</ele>
        <time>2019-12-24T17:07:22Z</time>
      </trkpt>
      <trkpt lat="42.50069" lon="2.81719">
        <ele>98.3</ele>
        <time>2019-12-24T17:07:26Z</time>
      </trkpt>
      <trkpt lat="42.50072" lon="2.81741">
        <ele>97.3</ele>
        <time>2019-12-24T17:07:32Z</time>
      </trkpt>
      <trkpt lat="42.50076" lon="2.81775">
        <ele>97.4</ele>
        <time>2019-12-24T17:07:36Z</time>
      </trkpt>
      <trkpt lat="42.50088" lon="2.81865">
        <ele>99</ele>
        <time>2019-12-24T17:07:40Z</time>
      </trkpt>
      <trkpt lat="42.50095" lon="2.8195">
        <ele>98.8</ele>
        <time>2019-12-24T17:07:45Z</time>
      </trkpt>
      <trkpt lat="42.50104" lon="2.82048">
        <ele>98.1</ele>
        <time>2019-12-24T17:07:48Z</time>
      </trkpt>
      <trkpt lat="42.50103" lon="2.82122">
        <ele>100.7</ele>
        <time>2019-12-24T17:07:51Z</time>
      </trkpt>
      <trkpt lat="42.50134" lon="2.82158">
        <ele>99</ele>
        <time>2019-12-24T17:07:55Z</time>
      </trkpt>
      <trkpt lat="42.50158" lon="2.82195">
        <ele>101.8</ele>
        <time>2019-12-24T17:08:13Z</time>
      </trkpt>
      <trkpt lat="42.50201" lon="2.82282">
        <ele>98.3</ele>
        <time>2019-12-24T17:08:19Z</time>
      </trkpt>
      <trkpt lat="42.50221" lon="2.82313">
        <ele>97.2</ele>
        <time>2019-12-24T17:08:35Z</time>
      </trkpt>
      <trkpt lat="42.50248" lon="2.82342">
        <ele>97.2</ele>
        <time>2019-12-24T17:08:53Z</time>
      </trkpt>
      <trkpt lat="42.50291" lon="2.82377">
        <ele>98.2</ele>
        <time>2019-12-24T17:08:59Z</time>
      </trkpt>
      <trkpt lat="42.50339" lon="2.82412">
        <ele>100.6</ele>
        <time>2019-12-24T17:09:04Z</time>
      </trkpt>
      <trkpt lat="42.50362" lon="2.82421">
        <ele>107.5</ele>
        <time>2019-12-24T17:09:09Z</time>
      </trkpt>
      <trkpt lat="42.50386" lon="2.82428">
        <ele>107.1</ele>
        <time>2019-12-24T17:09:25Z</time>
      </trkpt>
      <trkpt lat="42.50419" lon="2.8243">
        <ele>103.2</ele>
        <time>2019-12-24T17:09:31Z</time>
      </trkpt>
      <trkpt lat="42.50439" lon="2.82425">
        <ele>105.2</ele>
        <time>2019-12-24T17:09:35Z</time>
      </trkpt>
      <trkpt lat="42.50461" lon="2.82413">
        <ele>97.2</ele>
        <time>2019-12-24T17:09:37Z</time>
      </trkpt>
      <trkpt lat="42.50507" lon="2.82376">
        <ele>95.8</ele>
        <time>2019-12-24T17:09:42Z</time>
      </trkpt>
      <trkpt lat="42.50549" lon="2.82355">
        <ele>93.3</ele>
        <time>2019-12-24T17:09:46Z</time>
      </trkpt>
      <trkpt lat="42.50582" lon="2.82352">
        <ele>91.2</ele>
        <time>2019-12-24T17:09:47Z</time>
      </trkpt>
      <trkpt lat="42.50605" lon="2.82356">
        <ele>91.1</ele>
        <time>2019-12-24T17:09:48Z</time>
      </trkpt>
      <trkpt lat="42.50644" lon="2.82368">
        <ele>91.9</ele>
        <time>2019-12-24T17:09:49Z</time>
      </trkpt>
      <trkpt lat="42.50671" lon="2.8238">
        <ele>90.5</ele>
        <time>2019-12-24T17:09:50Z</time>
      </trkpt>
      <trkpt lat="42.50698" lon="2.82398">
        <ele>90.5</ele>
        <time>2019-12-24T17:10:14Z</time>
      </trkpt>
      <trkpt lat="42.50718" lon="2.82418">
        <ele>95</ele>
        <time>2019-12-24T17:10:16Z</time>
      </trkpt>
      <trkpt lat="42.50733" lon="2.82443">
        <ele>95.4</ele>
        <time>2019-12-24T17:10:25Z</time>
      </trkpt>
      <trkpt lat="42.50752" lon="2.82479">
        <ele>94.9</ele>
        <time>2019-12-24T17:10:37Z</time>
      </trkpt>
      <trkpt lat="42.50768" lon="2.82499">
        <ele>95.6</ele>
        <time>2019-12-24T17:10:40Z</time>
      </trkpt>
      <trkpt lat="42.50788" lon="2.82514">
        <ele>100.6</ele>
        <time>2019-12-24T17:10:41Z</time>
      </trkpt>
      <trkpt lat="42.50813" lon="2.82527">
        <ele>99.8</ele>
        <time>2019-12-24T17:10:41Z</time>
      </trkpt>
      <trkpt lat="42.50831" lon="2.82536">
        <ele>100</ele>
        <time>2019-12-24T17:10:42Z</time>
      </trkpt>
      <trkpt lat="42.50847" lon="2.82549">
        <ele>95.5</ele>
        <time>2019-12-24T17:10:43Z</time>
      </trkpt>
      <trkpt lat="42.50864" lon="2.82569">
        <ele>95.7</ele>
        <time>2019-12-24T17:10:44Z</time>
      </trkpt>
      <trkpt lat="42.50927" lon="2.82676">
        <ele>92.2</ele>
        <time>2019-12-24T17:11:08Z</time>
      </trkpt>
      <trkpt lat="42.50953" lon="2.82698">
        <ele>91.3</ele>
        <time>2019-12-24T17:11:13Z</time>
      </trkpt>
      <trkpt lat="42.51026" lon="2.82767">
        <ele>92.2</ele>
        <time>2019-12-24T17:11:31Z</time>
      </trkpt>
      <trkpt lat="42.51111" lon="2.82846">
        <ele>93.2</ele>
        <time>2019-12-24T17:11:49Z</time>
      </trkpt>
      <trkpt lat="42.51139" lon="2.82872">
        <ele>93.5</ele>
        <time>2019-12-24T17:11:57Z</time>
      </trkpt>
      <trkpt lat="42.51163" lon="2.82892">
        <ele>94.1</ele>
        <time>2019-12-24T17:12:03Z</time>
      </trkpt>
      <trkpt lat="42.51187" lon="2.82904">
        <ele>90.5</ele>
        <time>2019-12-24T17:12:25Z</time>
      </trkpt>
      <trkpt lat="42.51271" lon="2.82947">
        <ele>89.6</ele>
        <time>2019-12-24T17:12:44Z</time>
      </trkpt>
      <trkpt lat="42.51307" lon="2.82965">
        <ele>90.1</ele>
        <time>2019-12-24T17:12:56Z</time>
      </trkpt>
      <trkpt lat="42.51324" lon="2.82974">
        <ele>90.3</ele>
        <time>2019-12-24T17:13:43Z</time>
      </trkpt>
      <trkpt lat="42.51334" lon="2.82982">
        <ele>89.9</ele>
        <time>2019-12-24T17:13:45Z</time>
      </trkpt>
      <trkpt lat="42.51365" lon="2.82996">
        <ele>89.4</ele>
        <time>2019-12-24T17:13:58Z</time>
      </trkpt>
      <trkpt lat="42.51383" lon="2.83011">
        <ele>90</ele>
        <time>2019-12-24T17:14:16Z</time>
      </trkpt>
      <trkpt lat="42.51385" lon="2.83018">
        <ele>90</ele>
        <time>2019-12-24T17:14:33Z</time>
      </trkpt>
      <trkpt lat="42.51388" lon="2.83026">
        <ele>90</ele>
        <time>2019-12-24T17:14:40Z</time>
      </trkpt>
      <trkpt lat="42.51393" lon="2.8303">
        <ele>90</ele>
        <time>2019-12-24T17:15:32Z</time>
      </trkpt>
      <trkpt lat="42.51398" lon="2.83031">
        <ele>89.9</ele>
        <time>2019-12-24T17:15:44Z</time>
      </trkpt>
      <trkpt lat="42.51406" lon="2.83213">
        <ele>94.4</ele>
        <time>2019-12-24T17:16:24Z</time>
      </trkpt>
      <trkpt lat="42.51409" lon="2.83226">
        <ele>94.4</ele>
        <time>2019-12-24T17:16:59Z</time>
      </trkpt>
      <trkpt lat="42.51427" lon="2.83287">
        <ele>93</ele>
        <time>2019-12-24T17:17:15Z</time>
      </trkpt>
      <trkpt lat="42.51456" lon="2.83376">
        <ele>92</ele>
        <time>2019-12-24T17:17:36Z</time>
      </trkpt>
      <trkpt lat="42.51464" lon="2.83393">
        <ele>91.9</ele>
        <time>2019-12-24T17:18:00Z</time>
      </trkpt>
      <trkpt lat="42.51463" lon="2.83396">
        <ele>91.9</ele>
        <time>2019-12-24T17:18:19Z</time>
      </trkpt>
      <trkpt lat="42.51462" lon="2.834">
        <ele>91.9</ele>
        <time>2019-12-24T17:18:33Z</time>
      </trkpt>
      <trkpt lat="42.51463" lon="2.83407">
        <ele>91.9</ele>
        <time>2019-12-24T17:18:46Z</time>
      </trkpt>
      <trkpt lat="42.51467" lon="2.83411">
        <ele>91.9</ele>
        <time>2019-12-24T17:18:53Z</time>
      </trkpt>
      <trkpt lat="42.51473" lon="2.8341">
        <ele>91.9</ele>
        <time>2019-12-24T17:19:24Z</time>
      </trkpt>
      <trkpt lat="42.51545" lon="2.83563">
        <ele>89.9</ele>
        <time>2019-12-24T17:19:47Z</time>
      </trkpt>
      <trkpt lat="42.51562" lon="2.83595">
        <ele>90.1</ele>
        <time>2019-12-24T17:20:05Z</time>
      </trkpt>
      <trkpt lat="42.51619" lon="2.83712">
        <ele>89.3</ele>
        <time>2019-12-24T17:20:23Z</time>
      </trkpt>
      <trkpt lat="42.51674" lon="2.83823">
        <ele>85.9</ele>
        <time>2019-12-24T17:20:32Z</time>
      </trkpt>
      <trkpt lat="42.51699" lon="2.83873">
        <ele>86.3</ele>
        <time>2019-12-24T17:20:41Z</time>
      </trkpt>
      <trkpt lat="42.51723" lon="2.83909">
        <ele>86.3</ele>
        <time>2019-12-24T17:20:55Z</time>
      </trkpt>
      <trkpt lat="42.51814" lon="2.84025">
        <ele>86.8</ele>
        <time>2019-12-24T17:21:05Z</time>
      </trkpt>
      <trkpt lat="42.51888" lon="2.84122">
        <ele>84.4</ele>
        <time>2019-12-24T17:21:11Z</time>
      </trkpt>
      <trkpt lat="42.51932" lon="2.84192">
        <ele>84.5</ele>
        <time>2019-12-24T17:21:12Z</time>
      </trkpt>
      <trkpt lat="42.52106" lon="2.84461">
        <ele>81</ele>
        <time>2019-12-24T17:21:14Z</time>
      </trkpt>
      <trkpt lat="42.52117" lon="2.84451">
        <ele>81</ele>
        <time>2019-12-24T17:21:15Z</time>
      </trkpt>
      <trkpt lat="42.52165" lon="2.84525">
        <ele>81.1</ele>
        <time>2019-12-24T17:21:17Z</time>
      </trkpt>
      <trkpt lat="42.52233" lon="2.84624">
        <ele>80.5</ele>
        <time>2019-12-24T17:21:18Z</time>
      </trkpt>
      <trkpt lat="42.52297" lon="2.84719">
        <ele>80.3</ele>
        <time>2019-12-24T17:21:19Z</time>
      </trkpt>
      <trkpt lat="42.52325" lon="2.84762">
        <ele>80.4</ele>
        <time>2019-12-24T17:21:21Z</time>
      </trkpt>
      <trkpt lat="42.52514" lon="2.85059">
        <ele>74.9</ele>
        <time>2019-12-24T17:21:22Z</time>
      </trkpt>
      <trkpt lat="42.5256" lon="2.8513">
        <ele>75.7</ele>
        <time>2019-12-24T17:21:24Z</time>
      </trkpt>
      <trkpt lat="42.52703" lon="2.8537">
        <ele>81.8</ele>
        <time>2019-12-24T17:21:28Z</time>
      </trkpt>
      <trkpt lat="42.52838" lon="2.85556">
        <ele>72.8</ele>
        <time>2019-12-24T17:21:30Z</time>
      </trkpt>
      <trkpt lat="42.52903" lon="2.85649">
        <ele>72.2</ele>
        <time>2019-12-24T17:21:31Z</time>
      </trkpt>
      <trkpt lat="42.52984" lon="2.85761">
        <ele>70.7</ele>
        <time>2019-12-24T17:21:32Z</time>
      </trkpt>
      <trkpt lat="42.53075" lon="2.85891">
        <ele>68.8</ele>
        <time>2019-12-24T17:21:33Z</time>
      </trkpt>
      <trkpt lat="42.53149" lon="2.85997">
        <ele>69.5</ele>
        <time>2019-12-24T17:21:34Z</time>
      </trkpt>
      <trkpt lat="42.53206" lon="2.86075">
        <ele>70.9</ele>
        <time>2019-12-24T17:21:36Z</time>
      </trkpt>
      <trkpt lat="42.53253" lon="2.86151">
        <ele>70.5</ele>
        <time>2019-12-24T17:21:38Z</time>
      </trkpt>
      <trkpt lat="42.53277" lon="2.86196">
        <ele>70.8</ele>
        <time>2019-12-24T17:21:41Z</time>
      </trkpt>
      <trkpt lat="42.53368" lon="2.86392">
        <ele>70.8</ele>
        <time>2019-12-24T17:22:20Z</time>
      </trkpt>
      <trkpt lat="42.53439" lon="2.8654">
        <ele>69.1</ele>
        <time>2019-12-24T17:23:27Z</time>
      </trkpt>
      <trkpt lat="42.53491" lon="2.86661">
        <ele>69.9</ele>
        <time>2019-12-24T17:23:41Z</time>
      </trkpt>
      <trkpt lat="42.53538" lon="2.86777">
        <ele>70.6</ele>
        <time>2019-12-24T17:23:44Z</time>
      </trkpt>
      <trkpt lat="42.5356" lon="2.86842">
        <ele>69.8</ele>
        <time>2019-12-24T17:24:08Z</time>
      </trkpt>
      <trkpt lat="42.53574" lon="2.86911">
        <ele>68.5</ele>
        <time>2019-12-24T17:24:25Z</time>
      </trkpt>
      <trkpt lat="42.53584" lon="2.8701">
        <ele>67.9</ele>
        <time>2019-12-24T17:24:45Z</time>
      </trkpt>
      <trkpt lat="42.53592" lon="2.87087">
        <ele>66.1</ele>
        <time>2019-12-24T17:24:47Z</time>
      </trkpt>
      <trkpt lat="42.53598" lon="2.87131">
        <ele>66</ele>
        <time>2019-12-24T17:25:05Z</time>
      </trkpt>
      <trkpt lat="42.53588" lon="2.87134">
        <ele>65.9</ele>
        <time>2019-12-24T17:25:17Z</time>
      </trkpt>
      <trkpt lat="42.53584" lon="2.87143">
        <ele>65.7</ele>
        <time>2019-12-24T17:25:34Z</time>
      </trkpt>
      <trkpt lat="42.53585" lon="2.87154">
        <ele>65.5</ele>
        <time>2019-12-24T17:25:42Z</time>
      </trkpt>
      <trkpt lat="42.53589" lon="2.87166">
        <ele>65.2</ele>
        <time>2019-12-24T17:25:46Z</time>
      </trkpt>
      <trkpt lat="42.53594" lon="2.87171">
        <ele>65.2</ele>
        <time>2019-12-24T17:25:52Z</time>
      </trkpt>
      <trkpt lat="42.53601" lon="2.87169">
        <ele>65.3</ele>
        <time>2019-12-24T17:26:02Z</time>
      </trkpt>
      <trkpt lat="42.53609" lon="2.87159">
        <ele>65.8</ele>
        <time>2019-12-24T17:26:06Z</time>
      </trkpt>
      <trkpt lat="42.53613" lon="2.87154">
        <ele>65.9</ele>
        <time>2019-12-24T17:26:17Z</time>
      </trkpt>
      <trkpt lat="42.5362" lon="2.87147">
        <ele>66</ele>
        <time>2019-12-24T17:26:21Z</time>
      </trkpt>
      <trkpt lat="42.53643" lon="2.87138">
        <ele>66.3</ele>
        <time>2019-12-24T17:26:31Z</time>
      </trkpt>
      <trkpt lat="42.5365" lon="2.87145">
        <ele>66.2</ele>
        <time>2019-12-24T17:26:37Z</time>
      </trkpt>
      <trkpt lat="42.53657" lon="2.87147">
        <ele>66.2</ele>
        <time>2019-12-24T17:26:39Z</time>
      </trkpt>
      <trkpt lat="42.53662" lon="2.87144">
        <ele>66.3</ele>
        <time>2019-12-24T17:26:42Z</time>
      </trkpt>
      <trkpt lat="42.53667" lon="2.8714">
        <ele>66.5</ele>
        <time>2019-12-24T17:26:48Z</time>
      </trkpt>
      <trkpt lat="42.53669" lon="2.87135">
        <ele>66.5</ele>
        <time>2019-12-24T17:27:01Z</time>
      </trkpt>
      <trkpt lat="42.53682" lon="2.87136">
        <ele>66.5</ele>
        <time>2019-12-24T17:27:06Z</time>
      </trkpt>
      <trkpt lat="42.53693" lon="2.87138">
        <ele>66.5</ele>
        <time>2019-12-24T17:27:14Z</time>
      </trkpt>
      <trkpt lat="42.53705" lon="2.8715">
        <ele>66.4</ele>
        <time>2019-12-24T17:27:20Z</time>
      </trkpt>
      <trkpt lat="42.53818" lon="2.87412">
        <ele>65.1</ele>
        <time>2019-12-24T17:27:27Z</time>
      </trkpt>
      <trkpt lat="42.54024" lon="2.87838">
        <ele>60.1</ele>
        <time>2019-12-24T17:27:37Z</time>
      </trkpt>
      <trkpt lat="42.5406" lon="2.87932">
        <ele>60.8</ele>
        <time>2019-12-24T17:27:47Z</time>
      </trkpt>
      <trkpt lat="42.54064" lon="2.8795">
        <ele>60.8</ele>
        <time>2019-12-24T17:27:55Z</time>
      </trkpt>
      <trkpt lat="42.53929" lon="2.87904">
        <ele>61.3</ele>
        <time>2019-12-24T17:28:02Z</time>
      </trkpt>
      <trkpt lat="42.53836" lon="2.87894">
        <ele>61.9</ele>
        <time>2019-12-24T17:28:10Z</time>
      </trkpt>
      <trkpt lat="42.53722" lon="2.87875">
        <ele>64.1</ele>
        <time>2019-12-24T17:28:19Z</time>
      </trkpt>
      <trkpt lat="42.53713" lon="2.87874">
        <ele>64.2</ele>
        <time>2019-12-24T17:28:27Z</time>
      </trkpt>
      <trkpt lat="42.53609" lon="2.87873">
        <ele>64.4</ele>
        <time>2019-12-24T17:28:37Z</time>
      </trkpt>
      <trkpt lat="42.53543" lon="2.87873">
        <ele>65.5</ele>
        <time>2019-12-24T17:28:57Z</time>
      </trkpt>
      <trkpt lat="42.53449" lon="2.87887">
        <ele>67.9</ele>
        <time>2019-12-24T17:29:12Z</time>
      </trkpt>
      <trkpt lat="42.53407" lon="2.879">
        <ele>69.7</ele>
        <time>2019-12-24T17:29:22Z</time>
      </trkpt>
      <trkpt lat="42.5338" lon="2.87896">
        <ele>70.4</ele>
        <time>2019-12-24T17:29:31Z</time>
      </trkpt>
      <trkpt lat="42.53353" lon="2.8787">
        <ele>71</ele>
        <time>2019-12-24T17:29:32Z</time>
      </trkpt>
      <trkpt lat="42.53304" lon="2.87835">
        <ele>74.5</ele>
        <time>2019-12-24T17:29:34Z</time>
      </trkpt>
      <trkpt lat="42.53283" lon="2.87839">
        <ele>75.4</ele>
        <time>2019-12-24T17:29:36Z</time>
      </trkpt>
      <trkpt lat="42.53239" lon="2.87895">
        <ele>78.6</ele>
        <time>2019-12-24T17:29:38Z</time>
      </trkpt>
      <trkpt lat="42.5322" lon="2.87911">
        <ele>79.2</ele>
        <time>2019-12-24T17:29:53Z</time>
      </trkpt>
      <trkpt lat="42.53162" lon="2.87918">
        <ele>83.2</ele>
        <time>2019-12-24T17:30:13Z</time>
      </trkpt>
      <trkpt lat="42.53129" lon="2.87916">
        <ele>87</ele>
        <time>2019-12-24T17:30:27Z</time>
      </trkpt>
      <trkpt lat="42.53121" lon="2.87929">
        <ele>85.2</ele>
        <time>2019-12-24T17:30:36Z</time>
      </trkpt>
      <trkpt lat="42.53115" lon="2.87951">
        <ele>84.8</ele>
        <time>2019-12-24T17:30:44Z</time>
      </trkpt>
      <trkpt lat="42.53088" lon="2.87976">
        <ele>84.8</ele>
        <time>2019-12-24T17:30:53Z</time>
      </trkpt>
      <trkpt lat="42.5302" lon="2.88002">
        <ele>89.6</ele>
        <time>2019-12-24T17:31:04Z</time>
      </trkpt>
      <trkpt lat="42.52988" lon="2.88009">
        <ele>92.3</ele>
        <time>2019-12-24T17:31:13Z</time>
      </trkpt>
      <trkpt lat="42.52949" lon="2.87989">
        <ele>96.9</ele>
        <time>2019-12-24T17:31:18Z</time>
      </trkpt>
      <trkpt lat="42.52913" lon="2.87989">
        <ele>97.6</ele>
        <time>2019-12-24T17:31:22Z</time>
      </trkpt>
      <trkpt lat="42.52874" lon="2.87978">
        <ele>99.7</ele>
        <time>2019-12-24T17:31:26Z</time>
      </trkpt>
      <trkpt lat="42.52827" lon="2.87943">
        <ele>103</ele>
        <time>2019-12-24T17:31:27Z</time>
      </trkpt>
      <trkpt lat="42.52779" lon="2.87902">
        <ele>106.4</ele>
        <time>2019-12-24T17:31:30Z</time>
      </trkpt>
      <trkpt lat="42.52736" lon="2.87878">
        <ele>110.9</ele>
        <time>2019-12-24T17:31:33Z</time>
      </trkpt>
      <trkpt lat="42.52701" lon="2.8787">
        <ele>112.4</ele>
        <time>2019-12-24T17:31:39Z</time>
      </trkpt>
      <trkpt lat="42.52657" lon="2.8784">
        <ele>115.8</ele>
        <time>2019-12-24T17:31:41Z</time>
      </trkpt>
      <trkpt lat="42.52612" lon="2.87821">
        <ele>119.2</ele>
        <time>2019-12-24T17:31:42Z</time>
      </trkpt>
      <trkpt lat="42.52565" lon="2.87813">
        <ele>120.6</ele>
        <time>2019-12-24T17:31:45Z</time>
      </trkpt>
      <trkpt lat="42.5251" lon="2.8782">
        <ele>121.1</ele>
        <time>2019-12-24T17:31:53Z</time>
      </trkpt>
      <trkpt lat="42.52398" lon="2.87835">
        <ele>126.8</ele>
        <time>2019-12-24T17:32:00Z</time>
      </trkpt>
      <trkpt lat="42.52315" lon="2.87852">
        <ele>131.7</ele>
        <time>2019-12-24T17:32:06Z</time>
      </trkpt>
      <trkpt lat="42.52256" lon="2.87845">
        <ele>133.4</ele>
        <time>2019-12-24T17:32:12Z</time>
      </trkpt>
      <trkpt lat="42.52209" lon="2.8784">
        <ele>134.4</ele>
        <time>2019-12-24T17:32:16Z</time>
      </trkpt>
      <trkpt lat="42.52207" lon="2.8783">
        <ele>133.9</ele>
        <time>2019-12-24T17:32:18Z</time>
      </trkpt>
      <trkpt lat="42.52197" lon="2.87823">
        <ele>134</ele>
        <time>2019-12-24T17:32:21Z</time>
      </trkpt>
      <trkpt lat="42.52187" lon="2.8783">
        <ele>134.5</ele>
        <time>2019-12-24T17:32:27Z</time>
      </trkpt>
      <trkpt lat="42.52186" lon="2.87847">
        <ele>134.7</ele>
        <time>2019-12-24T17:32:31Z</time>
      </trkpt>
      <trkpt lat="42.5211" lon="2.87888">
        <ele>138.3</ele>
        <time>2019-12-24T17:32:33Z</time>
      </trkpt>
      <trkpt lat="42.52006" lon="2.87948">
        <ele>145.4</ele>
        <time>2019-12-24T17:32:37Z</time>
      </trkpt>
      <trkpt lat="42.51934" lon="2.87989">
        <ele>152.3</ele>
        <time>2019-12-24T17:32:39Z</time>
      </trkpt>
      <trkpt lat="42.51885" lon="2.88003">
        <ele>157.8</ele>
        <time>2019-12-24T17:32:42Z</time>
      </trkpt>
      <trkpt lat="42.51838" lon="2.88012">
        <ele>158.7</ele>
        <time>2019-12-24T17:32:46Z</time>
      </trkpt>
      <trkpt lat="42.51788" lon="2.88023">
        <ele>165.8</ele>
        <time>2019-12-24T17:32:50Z</time>
      </trkpt>
      <trkpt lat="42.51731" lon="2.8804">
        <ele>171.6</ele>
        <time>2019-12-24T17:32:55Z</time>
      </trkpt>
      <trkpt lat="42.51688" lon="2.8808">
        <ele>173.9</ele>
        <time>2019-12-24T17:32:58Z</time>
      </trkpt>
      <trkpt lat="42.51664" lon="2.88106">
        <ele>179</ele>
        <time>2019-12-24T17:33:01Z</time>
      </trkpt>
      <trkpt lat="42.51663" lon="2.88136">
        <ele>180.9</ele>
        <time>2019-12-24T17:33:05Z</time>
      </trkpt>
      <trkpt lat="42.51666" lon="2.88162">
        <ele>182.6</ele>
        <time>2019-12-24T17:33:10Z</time>
      </trkpt>
      <trkpt lat="42.51671" lon="2.88167">
        <ele>182.7</ele>
        <time>2019-12-24T17:33:13Z</time>
      </trkpt>
      <trkpt lat="42.51687" lon="2.88174">
        <ele>181.8</ele>
        <time>2019-12-24T17:33:17Z</time>
      </trkpt>
      <trkpt lat="42.51702" lon="2.88189">
        <ele>181.2</ele>
        <time>2019-12-24T17:33:22Z</time>
      </trkpt>
      <trkpt lat="42.51711" lon="2.88229">
        <ele>180.9</ele>
        <time>2019-12-24T17:33:28Z</time>
      </trkpt>
      <trkpt lat="42.51711" lon="2.88247">
        <ele>180.8</ele>
        <time>2019-12-24T17:33:30Z</time>
      </trkpt>
      <trkpt lat="42.5171" lon="2.88251">
        <ele>175.7</ele>
        <time>2019-12-24T17:33:33Z</time>
      </trkpt>
      <trkpt lat="42.51696" lon="2.88264">
        <ele>175.4</ele>
        <time>2019-12-24T17:33:43Z</time>
      </trkpt>
      <trkpt lat="42.51651" lon="2.88266">
        <ele>176.7</ele>
        <time>2019-12-24T17:33:46Z</time>
      </trkpt>
      <trkpt lat="42.51611" lon="2.88264">
        <ele>175.8</ele>
        <time>2019-12-24T17:33:49Z</time>
      </trkpt>
      <trkpt lat="42.51577" lon="2.88249">
        <ele>179.2</ele>
        <time>2019-12-24T17:33:52Z</time>
      </trkpt>
      <trkpt lat="42.51542" lon="2.88243">
        <ele>182.8</ele>
        <time>2019-12-24T17:33:54Z</time>
      </trkpt>
      <trkpt lat="42.51521" lon="2.88251">
        <ele>183.6</ele>
        <time>2019-12-24T17:33:56Z</time>
      </trkpt>
      <trkpt lat="42.51514" lon="2.88264">
        <ele>183.9</ele>
        <time>2019-12-24T17:34:00Z</time>
      </trkpt>
      <trkpt lat="42.51517" lon="2.8828">
        <ele>183.9</ele>
        <time>2019-12-24T17:34:08Z</time>
      </trkpt>
      <trkpt lat="42.51543" lon="2.88309">
        <ele>182.5</ele>
        <time>2019-12-24T17:34:12Z</time>
      </trkpt>
      <trkpt lat="42.51563" lon="2.8833">
        <ele>178.9</ele>
        <time>2019-12-24T17:34:15Z</time>
      </trkpt>
      <trkpt lat="42.51569" lon="2.88344">
        <ele>179.8</ele>
        <time>2019-12-24T17:34:21Z</time>
      </trkpt>
      <trkpt lat="42.51562" lon="2.88369">
        <ele>183.4</ele>
        <time>2019-12-24T17:34:26Z</time>
      </trkpt>
      <trkpt lat="42.51566" lon="2.88384">
        <ele>183.4</ele>
        <time>2019-12-24T17:34:28Z</time>
      </trkpt>
      <trkpt lat="42.51582" lon="2.88394">
        <ele>181.7</ele>
        <time>2019-12-24T17:34:32Z</time>
      </trkpt>
      <trkpt lat="42.51604" lon="2.88402">
        <ele>171.4</ele>
        <time>2019-12-24T17:34:40Z</time>
      </trkpt>
      <trkpt lat="42.51619" lon="2.88425">
        <ele>171</ele>
        <time>2019-12-24T17:34:44Z</time>
      </trkpt>
      <trkpt lat="42.51622" lon="2.88463">
        <ele>171.4</ele>
        <time>2019-12-24T17:34:51Z</time>
      </trkpt>
      <trkpt lat="42.5163" lon="2.8848">
        <ele>171</ele>
        <time>2019-12-24T17:34:55Z</time>
      </trkpt>
      <trkpt lat="42.51644" lon="2.88494">
        <ele>169.2</ele>
        <time>2019-12-24T17:34:58Z</time>
      </trkpt>
      <trkpt lat="42.51661" lon="2.88517">
        <ele>168.8</ele>
        <time>2019-12-24T17:35:00Z</time>
      </trkpt>
      <trkpt lat="42.51661" lon="2.88552">
        <ele>169.7</ele>
        <time>2019-12-24T17:35:04Z</time>
      </trkpt>
      <trkpt lat="42.51649" lon="2.88573">
        <ele>169.2</ele>
        <time>2019-12-24T17:35:09Z</time>
      </trkpt>
      <trkpt lat="42.51631" lon="2.88595">
        <ele>171</ele>
        <time>2019-12-24T17:35:17Z</time>
      </trkpt>
      <trkpt lat="42.51631" lon="2.88626">
        <ele>171</ele>
        <time>2019-12-24T17:35:22Z</time>
      </trkpt>
      <trkpt lat="42.51639" lon="2.88672">
        <ele>166.8</ele>
        <time>2019-12-24T17:35:26Z</time>
      </trkpt>
      <trkpt lat="42.51634" lon="2.88684">
        <ele>166.9</ele>
        <time>2019-12-24T17:35:29Z</time>
      </trkpt>
      <trkpt lat="42.51616" lon="2.88693">
        <ele>167.9</ele>
        <time>2019-12-24T17:35:32Z</time>
      </trkpt>
      <trkpt lat="42.51561" lon="2.88701">
        <ele>178.7</ele>
        <time>2019-12-24T17:35:34Z</time>
      </trkpt>
      <trkpt lat="42.51543" lon="2.88712">
        <ele>179.9</ele>
        <time>2019-12-24T17:35:40Z</time>
      </trkpt>
      <trkpt lat="42.51531" lon="2.8873">
        <ele>180.4</ele>
        <time>2019-12-24T17:35:43Z</time>
      </trkpt>
      <trkpt lat="42.51526" lon="2.88748">
        <ele>180.7</ele>
        <time>2019-12-24T17:35:44Z</time>
      </trkpt>
      <trkpt lat="42.51526" lon="2.88765">
        <ele>179.9</ele>
        <time>2019-12-24T17:35:47Z</time>
      </trkpt>
      <trkpt lat="42.51531" lon="2.88775">
        <ele>179.4</ele>
        <time>2019-12-24T17:35:56Z</time>
      </trkpt>
      <trkpt lat="42.5155" lon="2.88789">
        <ele>177.6</ele>
        <time>2019-12-24T17:35:58Z</time>
      </trkpt>
      <trkpt lat="42.51593" lon="2.88821">
        <ele>166.7</ele>
        <time>2019-12-24T17:36:00Z</time>
      </trkpt>
      <trkpt lat="42.51603" lon="2.88845">
        <ele>166.8</ele>
        <time>2019-12-24T17:36:03Z</time>
      </trkpt>
      <trkpt lat="42.5161" lon="2.88864">
        <ele>166</ele>
        <time>2019-12-24T17:36:06Z</time>
      </trkpt>
      <trkpt lat="42.51623" lon="2.88909">
        <ele>165.7</ele>
        <time>2019-12-24T17:36:11Z</time>
      </trkpt>
      <trkpt lat="42.51643" lon="2.88934">
        <ele>165.8</ele>
        <time>2019-12-24T17:36:14Z</time>
      </trkpt>
      <trkpt lat="42.5165" lon="2.8895">
        <ele>166</ele>
        <time>2019-12-24T17:36:17Z</time>
      </trkpt>
      <trkpt lat="42.51644" lon="2.88979">
        <ele>166.6</ele>
        <time>2019-12-24T17:36:20Z</time>
      </trkpt>
      <trkpt lat="42.51645" lon="2.89036">
        <ele>170.1</ele>
        <time>2019-12-24T17:36:23Z</time>
      </trkpt>
      <trkpt lat="42.5165" lon="2.89069">
        <ele>169.4</ele>
        <time>2019-12-24T17:36:27Z</time>
      </trkpt>
      <trkpt lat="42.51673" lon="2.89108">
        <ele>167.7</ele>
        <time>2019-12-24T17:36:36Z</time>
      </trkpt>
      <trkpt lat="42.51694" lon="2.89114">
        <ele>168.2</ele>
        <time>2019-12-24T17:36:41Z</time>
      </trkpt>
      <trkpt lat="42.51712" lon="2.89111">
        <ele>167.9</ele>
        <time>2019-12-24T17:36:46Z</time>
      </trkpt>
      <trkpt lat="42.51722" lon="2.89104">
        <ele>167.3</ele>
        <time>2019-12-24T17:36:51Z</time>
      </trkpt>
      <trkpt lat="42.5174" lon="2.89087">
        <ele>165</ele>
        <time>2019-12-24T17:36:56Z</time>
      </trkpt>
      <trkpt lat="42.51771" lon="2.89083">
        <ele>162.2</ele>
        <time>2019-12-24T17:37:00Z</time>
      </trkpt>
      <trkpt lat="42.51815" lon="2.89097">
        <ele>163</ele>
        <time>2019-12-24T17:37:02Z</time>
      </trkpt>
      <trkpt lat="42.51842" lon="2.89108">
        <ele>158.3</ele>
        <time>2019-12-24T17:37:08Z</time>
      </trkpt>
      <trkpt lat="42.51855" lon="2.89128">
        <ele>157.9</ele>
        <time>2019-12-24T17:37:16Z</time>
      </trkpt>
      <trkpt lat="42.51866" lon="2.89145">
        <ele>157.6</ele>
        <time>2019-12-24T17:37:22Z</time>
      </trkpt>
      <trkpt lat="42.51883" lon="2.89159">
        <ele>155.8</ele>
        <time>2019-12-24T17:37:26Z</time>
      </trkpt>
      <trkpt lat="42.51887" lon="2.89174">
        <ele>157.1</ele>
        <time>2019-12-24T17:37:34Z</time>
      </trkpt>
      <trkpt lat="42.51884" lon="2.89218">
        <ele>158.9</ele>
        <time>2019-12-24T17:37:50Z</time>
      </trkpt>
      <trkpt lat="42.51888" lon="2.89236">
        <ele>158.9</ele>
        <time>2019-12-24T17:37:58Z</time>
      </trkpt>
      <trkpt lat="42.51897" lon="2.89241">
        <ele>158.4</ele>
        <time>2019-12-24T17:38:03Z</time>
      </trkpt>
      <trkpt lat="42.51908" lon="2.89234">
        <ele>157.9</ele>
        <time>2019-12-24T17:38:10Z</time>
      </trkpt>
      <trkpt lat="42.51942" lon="2.89184">
        <ele>148.5</ele>
        <time>2019-12-24T17:38:17Z</time>
      </trkpt>
      <trkpt lat="42.51956" lon="2.89178">
        <ele>147.3</ele>
        <time>2019-12-24T17:38:27Z</time>
      </trkpt>
      <trkpt lat="42.51966" lon="2.89186">
        <ele>146.7</ele>
        <time>2019-12-24T17:38:34Z</time>
      </trkpt>
      <trkpt lat="42.51979" lon="2.89203">
        <ele>146.9</ele>
        <time>2019-12-24T17:38:38Z</time>
      </trkpt>
      <trkpt lat="42.51991" lon="2.89212">
        <ele>147.2</ele>
        <time>2019-12-24T17:38:48Z</time>
      </trkpt>
      <trkpt lat="42.52022" lon="2.89205">
        <ele>140.3</ele>
        <time>2019-12-24T17:38:54Z</time>
      </trkpt>
      <trkpt lat="42.52037" lon="2.89213">
        <ele>140.3</ele>
        <time>2019-12-24T17:39:05Z</time>
      </trkpt>
      <trkpt lat="42.52048" lon="2.89225">
        <ele>140.6</ele>
        <time>2019-12-24T17:39:09Z</time>
      </trkpt>
      <trkpt lat="42.52063" lon="2.8922">
        <ele>139.8</ele>
        <time>2019-12-24T17:39:16Z</time>
      </trkpt>
      <trkpt lat="42.5208" lon="2.89206">
        <ele>138.1</ele>
        <time>2019-12-24T17:39:21Z</time>
      </trkpt>
      <trkpt lat="42.52099" lon="2.89197">
        <ele>132.4</ele>
        <time>2019-12-24T17:39:25Z</time>
      </trkpt>
      <trkpt lat="42.52148" lon="2.89207">
        <ele>131.2</ele>
        <time>2019-12-24T17:39:28Z</time>
      </trkpt>
      <trkpt lat="42.52177" lon="2.89213">
        <ele>126.5</ele>
        <time>2019-12-24T17:39:33Z</time>
      </trkpt>
      <trkpt lat="42.52198" lon="2.89237">
        <ele>126.9</ele>
        <time>2019-12-24T17:39:37Z</time>
      </trkpt>
      <trkpt lat="42.52221" lon="2.89269">
        <ele>128.9</ele>
        <time>2019-12-24T17:39:53Z</time>
      </trkpt>
      <trkpt lat="42.5223" lon="2.89299">
        <ele>129.2</ele>
        <time>2019-12-24T17:39:59Z</time>
      </trkpt>
      <trkpt lat="42.5223" lon="2.89329">
        <ele>129.1</ele>
        <time>2019-12-24T17:40:02Z</time>
      </trkpt>
      <trkpt lat="42.52237" lon="2.89342">
        <ele>129.1</ele>
        <time>2019-12-24T17:40:07Z</time>
      </trkpt>
      <trkpt lat="42.52265" lon="2.89364">
        <ele>124.7</ele>
        <time>2019-12-24T17:40:13Z</time>
      </trkpt>
      <trkpt lat="42.52295" lon="2.89412">
        <ele>123.9</ele>
        <time>2019-12-24T17:40:27Z</time>
      </trkpt>
      <trkpt lat="42.52315" lon="2.89454">
        <ele>121.4</ele>
        <time>2019-12-24T17:40:28Z</time>
      </trkpt>
      <trkpt lat="42.52332" lon="2.89472">
        <ele>120.5</ele>
        <time>2019-12-24T17:40:31Z</time>
      </trkpt>
      <trkpt lat="42.52374" lon="2.89477">
        <ele>118.3</ele>
        <time>2019-12-24T17:40:39Z</time>
      </trkpt>
      <trkpt lat="42.52466" lon="2.89484">
        <ele>115.8</ele>
        <time>2019-12-24T17:40:52Z</time>
      </trkpt>
      <trkpt lat="42.52508" lon="2.89506">
        <ele>112.7</ele>
        <time>2019-12-24T17:41:03Z</time>
      </trkpt>
      <trkpt lat="42.52529" lon="2.89525">
        <ele>110.8</ele>
        <time>2019-12-24T17:41:13Z</time>
      </trkpt>
      <trkpt lat="42.52552" lon="2.89568">
        <ele>109.9</ele>
        <time>2019-12-24T17:41:18Z</time>
      </trkpt>
      <trkpt lat="42.52586" lon="2.89605">
        <ele>107.2</ele>
        <time>2019-12-24T17:41:26Z</time>
      </trkpt>
      <trkpt lat="42.52633" lon="2.89646">
        <ele>104.3</ele>
        <time>2019-12-24T17:41:35Z</time>
      </trkpt>
      <trkpt lat="42.52666" lon="2.89674">
        <ele>101.2</ele>
        <time>2019-12-24T17:41:44Z</time>
      </trkpt>
      <trkpt lat="42.52676" lon="2.89702">
        <ele>98.6</ele>
        <time>2019-12-24T17:41:49Z</time>
      </trkpt>
      <trkpt lat="42.52673" lon="2.8978">
        <ele>98.4</ele>
        <time>2019-12-24T17:41:54Z</time>
      </trkpt>
      <trkpt lat="42.52673" lon="2.89822">
        <ele>99.7</ele>
        <time>2019-12-24T17:41:57Z</time>
      </trkpt>
      <trkpt lat="42.52672" lon="2.89908">
        <ele>101.2</ele>
        <time>2019-12-24T17:42:01Z</time>
      </trkpt>
      <trkpt lat="42.52667" lon="2.89938">
        <ele>101.4</ele>
        <time>2019-12-24T17:42:16Z</time>
      </trkpt>
      <trkpt lat="42.52651" lon="2.89986">
        <ele>105.8</ele>
        <time>2019-12-24T17:42:19Z</time>
      </trkpt>
      <trkpt lat="42.52632" lon="2.90014">
        <ele>107.9</ele>
        <time>2019-12-24T17:42:21Z</time>
      </trkpt>
      <trkpt lat="42.52613" lon="2.90024">
        <ele>109.3</ele>
        <time>2019-12-24T17:42:23Z</time>
      </trkpt>
      <trkpt lat="42.526" lon="2.9004">
        <ele>109.7</ele>
        <time>2019-12-24T17:42:27Z</time>
      </trkpt>
      <trkpt lat="42.526" lon="2.90078">
        <ele>110.2</ele>
        <time>2019-12-24T17:42:29Z</time>
      </trkpt>
      <trkpt lat="42.5259" lon="2.90105">
        <ele>110.5</ele>
        <time>2019-12-24T17:42:31Z</time>
      </trkpt>
      <trkpt lat="42.52533" lon="2.90205">
        <ele>114.4</ele>
        <time>2019-12-24T17:42:39Z</time>
      </trkpt>
      <trkpt lat="42.5252" lon="2.9024">
        <ele>114.9</ele>
        <time>2019-12-24T17:42:47Z</time>
      </trkpt>
      <trkpt lat="42.5252" lon="2.90262">
        <ele>116.2</ele>
        <time>2019-12-24T17:42:50Z</time>
      </trkpt>
      <trkpt lat="42.52537" lon="2.90299">
        <ele>116.8</ele>
        <time>2019-12-24T17:42:55Z</time>
      </trkpt>
      <trkpt lat="42.52544" lon="2.9034">
        <ele>119.4</ele>
        <time>2019-12-24T17:42:57Z</time>
      </trkpt>
      <trkpt lat="42.52539" lon="2.90445">
        <ele>122</ele>
        <time>2019-12-24T17:42:58Z</time>
      </trkpt>
      <trkpt lat="42.5253" lon="2.90453">
        <ele>122.2</ele>
        <time>2019-12-24T17:43:06Z</time>
      </trkpt>
      <trkpt lat="42.52525" lon="2.9047">
        <ele>122.4</ele>
        <time>2019-12-24T17:43:10Z</time>
      </trkpt>
      <trkpt lat="42.5252" lon="2.90529">
        <ele>122.5</ele>
        <time>2019-12-24T17:43:12Z</time>
      </trkpt>
      <trkpt lat="42.52509" lon="2.90629">
        <ele>120.6</ele>
        <time>2019-12-24T17:43:14Z</time>
      </trkpt>
      <trkpt lat="42.52499" lon="2.90711">
        <ele>119.3</ele>
        <time>2019-12-24T17:43:25Z</time>
      </trkpt>
      <trkpt lat="42.52487" lon="2.90788">
        <ele>116.5</ele>
        <time>2019-12-24T17:43:35Z</time>
      </trkpt>
      <trkpt lat="42.52486" lon="2.90827">
        <ele>115.3</ele>
        <time>2019-12-24T17:43:42Z</time>
      </trkpt>
      <trkpt lat="42.52502" lon="2.90882">
        <ele>111</ele>
        <time>2019-12-24T17:43:45Z</time>
      </trkpt>
      <trkpt lat="42.5252" lon="2.90948">
        <ele>107.4</ele>
        <time>2019-12-24T17:43:48Z</time>
      </trkpt>
      <trkpt lat="42.52521" lon="2.91014">
        <ele>103.6</ele>
        <time>2019-12-24T17:43:50Z</time>
      </trkpt>
      <trkpt lat="42.52525" lon="2.91056">
        <ele>102.8</ele>
        <time>2019-12-24T17:44:02Z</time>
      </trkpt>
      <trkpt lat="42.52525" lon="2.91092">
        <ele>100</ele>
        <time>2019-12-24T17:44:05Z</time>
      </trkpt>
      <trkpt lat="42.52525" lon="2.91111">
        <ele>99.5</ele>
        <time>2019-12-24T17:44:10Z</time>
      </trkpt>
      <trkpt lat="42.52534" lon="2.91145">
        <ele>98.5</ele>
        <time>2019-12-24T17:44:17Z</time>
      </trkpt>
      <trkpt lat="42.52593" lon="2.91227">
        <ele>94.8</ele>
        <time>2019-12-24T17:44:24Z</time>
      </trkpt>
      <trkpt lat="42.52601" lon="2.91241">
        <ele>94.3</ele>
        <time>2019-12-24T17:44:24Z</time>
      </trkpt>
      <trkpt lat="42.526" lon="2.91259">
        <ele>91.9</ele>
        <time>2019-12-24T17:44:35Z</time>
      </trkpt>
      <trkpt lat="42.52597" lon="2.91273">
        <ele>91.8</ele>
        <time>2019-12-24T17:44:38Z</time>
      </trkpt>
      <trkpt lat="42.52576" lon="2.91292">
        <ele>92.5</ele>
        <time>2019-12-24T17:44:42Z</time>
      </trkpt>
      <trkpt lat="42.52572" lon="2.91301">
        <ele>92.5</ele>
        <time>2019-12-24T17:44:44Z</time>
      </trkpt>
      <trkpt lat="42.52571" lon="2.9132">
        <ele>92.2</ele>
        <time>2019-12-24T17:44:49Z</time>
      </trkpt>
      <trkpt lat="42.52574" lon="2.91381">
        <ele>94.1</ele>
        <time>2019-12-24T17:44:52Z</time>
      </trkpt>
      <trkpt lat="42.52577" lon="2.9144">
        <ele>94</ele>
        <time>2019-12-24T17:44:54Z</time>
      </trkpt>
      <trkpt lat="42.52575" lon="2.91462">
        <ele>93.9</ele>
        <time>2019-12-24T17:44:56Z</time>
      </trkpt>
      <trkpt lat="42.52561" lon="2.91492">
        <ele>93.5</ele>
        <time>2019-12-24T17:45:02Z</time>
      </trkpt>
      <trkpt lat="42.52554" lon="2.91506">
        <ele>92.9</ele>
        <time>2019-12-24T17:45:07Z</time>
      </trkpt>
      <trkpt lat="42.52551" lon="2.91514">
        <ele>93</ele>
        <time>2019-12-24T17:45:21Z</time>
      </trkpt>
      <trkpt lat="42.52525" lon="2.91567">
        <ele>93.7</ele>
        <time>2019-12-24T17:45:24Z</time>
      </trkpt>
      <trkpt lat="42.52515" lon="2.91589">
        <ele>93.7</ele>
        <time>2019-12-24T17:45:38Z</time>
      </trkpt>
      <trkpt lat="42.5251" lon="2.91605">
        <ele>93.4</ele>
        <time>2019-12-24T17:45:42Z</time>
      </trkpt>
      <trkpt lat="42.52507" lon="2.91619">
        <ele>93.1</ele>
        <time>2019-12-24T17:45:42Z</time>
      </trkpt>
      <trkpt lat="42.52488" lon="2.91696">
        <ele>96.8</ele>
        <time>2019-12-24T17:45:44Z</time>
      </trkpt>
      <trkpt lat="42.5247" lon="2.91769">
        <ele>98.3</ele>
        <time>2019-12-24T17:45:47Z</time>
      </trkpt>
      <trkpt lat="42.52459" lon="2.9182">
        <ele>98.8</ele>
        <time>2019-12-24T17:45:51Z</time>
      </trkpt>
      <trkpt lat="42.52456" lon="2.91842">
        <ele>99.4</ele>
        <time>2019-12-24T17:45:53Z</time>
      </trkpt>
      <trkpt lat="42.52456" lon="2.91864">
        <ele>99.5</ele>
        <time>2019-12-24T17:45:55Z</time>
      </trkpt>
      <trkpt lat="42.52458" lon="2.91886">
        <ele>99.6</ele>
        <time>2019-12-24T17:46:11Z</time>
      </trkpt>
      <trkpt lat="42.5247" lon="2.91973">
        <ele>100.2</ele>
        <time>2019-12-24T17:46:39Z</time>
      </trkpt>
      <trkpt lat="42.52473" lon="2.91995">
        <ele>100.2</ele>
        <time>2019-12-24T17:46:41Z</time>
      </trkpt>
      <trkpt lat="42.52478" lon="2.92032">
        <ele>100.3</ele>
        <time>2019-12-24T17:47:01Z</time>
      </trkpt>
      <trkpt lat="42.52486" lon="2.92088">
        <ele>100</ele>
        <time>2019-12-24T17:47:02Z</time>
      </trkpt>
      <trkpt lat="42.52488" lon="2.92136">
        <ele>100.8</ele>
        <time>2019-12-24T17:47:03Z</time>
      </trkpt>
      <trkpt lat="42.52489" lon="2.9214">
        <ele>100.7</ele>
        <time>2019-12-24T17:47:06Z</time>
      </trkpt>
      <trkpt lat="42.52489" lon="2.92221">
        <ele>102.2</ele>
        <time>2019-12-24T17:47:06Z</time>
      </trkpt>
      <trkpt lat="42.52488" lon="2.92245">
        <ele>102.2</ele>
        <time>2019-12-24T17:47:10Z</time>
      </trkpt>
      <trkpt lat="42.52484" lon="2.92271">
        <ele>103.1</ele>
        <time>2019-12-24T17:47:12Z</time>
      </trkpt>
      <trkpt lat="42.5248" lon="2.9229">
        <ele>103.4</ele>
        <time>2019-12-24T17:47:13Z</time>
      </trkpt>
      <trkpt lat="42.52467" lon="2.92324">
        <ele>103.8</ele>
        <time>2019-12-24T17:47:16Z</time>
      </trkpt>
      <trkpt lat="42.52464" lon="2.92343">
        <ele>104.7</ele>
        <time>2019-12-24T17:47:23Z</time>
      </trkpt>
      <trkpt lat="42.52463" lon="2.92358">
        <ele>104.8</ele>
        <time>2019-12-24T17:47:25Z</time>
      </trkpt>
      <trkpt lat="42.52464" lon="2.92373">
        <ele>104.9</ele>
        <time>2019-12-24T17:47:27Z</time>
      </trkpt>
      <trkpt lat="42.52471" lon="2.92422">
        <ele>105.3</ele>
        <time>2019-12-24T17:47:32Z</time>
      </trkpt>
      <trkpt lat="42.52474" lon="2.92461">
        <ele>105.5</ele>
        <time>2019-12-24T17:47:34Z</time>
      </trkpt>
      <trkpt lat="42.52483" lon="2.92566">
        <ele>106.3</ele>
        <time>2019-12-24T17:47:36Z</time>
      </trkpt>
      <trkpt lat="42.52483" lon="2.92585">
        <ele>106.5</ele>
        <time>2019-12-24T17:47:37Z</time>
      </trkpt>
      <trkpt lat="42.52488" lon="2.92697">
        <ele>105.9</ele>
        <time>2019-12-24T17:47:38Z</time>
      </trkpt>
      <trkpt lat="42.52488" lon="2.92724">
        <ele>105.6</ele>
        <time>2019-12-24T17:47:41Z</time>
      </trkpt>
      <trkpt lat="42.52489" lon="2.92727">
        <ele>105.5</ele>
        <time>2019-12-24T17:47:42Z</time>
      </trkpt>
      <trkpt lat="42.52493" lon="2.92738">
        <ele>105</ele>
        <time>2019-12-24T17:47:43Z</time>
      </trkpt>
      <trkpt lat="42.52501" lon="2.92759">
        <ele>103.6</ele>
        <time>2019-12-24T17:47:45Z</time>
      </trkpt>
      <trkpt lat="42.52513" lon="2.92784">
        <ele>103.1</ele>
        <time>2019-12-24T17:47:47Z</time>
      </trkpt>
      <trkpt lat="42.52517" lon="2.92799">
        <ele>103.1</ele>
        <time>2019-12-24T17:47:48Z</time>
      </trkpt>
      <trkpt lat="42.52518" lon="2.92816">
        <ele>103.2</ele>
        <time>2019-12-24T17:47:50Z</time>
      </trkpt>
      <trkpt lat="42.52519" lon="2.92934">
        <ele>103.2</ele>
        <time>2019-12-24T17:47:55Z</time>
      </trkpt>
      <trkpt lat="42.52469" lon="2.93138">
        <ele>103.7</ele>
        <time>2019-12-24T17:47:57Z</time>
      </trkpt>
      <trkpt lat="42.52468" lon="2.9315">
        <ele>103.6</ele>
        <time>2019-12-24T17:48:07Z</time>
      </trkpt>
      <trkpt lat="42.52462" lon="2.93307">
        <ele>98.2</ele>
        <time>2019-12-24T17:48:10Z</time>
      </trkpt>
      <trkpt lat="42.52457" lon="2.93308">
        <ele>98.1</ele>
        <time>2019-12-24T17:48:13Z</time>
      </trkpt>
      <trkpt lat="42.5246" lon="2.93315">
        <ele>98</ele>
        <time>2019-12-24T17:48:15Z</time>
      </trkpt>
      <trkpt lat="42.5247" lon="2.9333">
        <ele>97.8</ele>
        <time>2019-12-24T17:48:22Z</time>
      </trkpt>
      <trkpt lat="42.52471" lon="2.93335">
        <ele>94.7</ele>
        <time>2019-12-24T17:48:40Z</time>
      </trkpt>
      <trkpt lat="42.52467" lon="2.93361">
        <ele>93.8</ele>
        <time>2019-12-24T17:48:45Z</time>
      </trkpt>
      <trkpt lat="42.52464" lon="2.93375">
        <ele>93.2</ele>
        <time>2019-12-24T17:48:47Z</time>
      </trkpt>
      <trkpt lat="42.52463" lon="2.93387">
        <ele>92.8</ele>
        <time>2019-12-24T17:48:55Z</time>
      </trkpt>
      <trkpt lat="42.52465" lon="2.93407">
        <ele>92.1</ele>
        <time>2019-12-24T17:48:57Z</time>
      </trkpt>
      <trkpt lat="42.52478" lon="2.93458">
        <ele>89.5</ele>
        <time>2019-12-24T17:48:58Z</time>
      </trkpt>
      <trkpt lat="42.52477" lon="2.93474">
        <ele>89.4</ele>
        <time>2019-12-24T17:48:59Z</time>
      </trkpt>
      <trkpt lat="42.52476" lon="2.93488">
        <ele>89.2</ele>
        <time>2019-12-24T17:49:01Z</time>
      </trkpt>
      <trkpt lat="42.52475" lon="2.93523">
        <ele>90.3</ele>
        <time>2019-12-24T17:49:01Z</time>
      </trkpt>
      <trkpt lat="42.52478" lon="2.9354">
        <ele>90.6</ele>
        <time>2019-12-24T17:49:02Z</time>
      </trkpt>
      <trkpt lat="42.52481" lon="2.93556">
        <ele>90.9</ele>
        <time>2019-12-24T17:49:03Z</time>
      </trkpt>
      <trkpt lat="42.52481" lon="2.93559">
        <ele>90.9</ele>
        <time>2019-12-24T17:49:04Z</time>
      </trkpt>
      <trkpt lat="42.52488" lon="2.93569">
        <ele>91</ele>
        <time>2019-12-24T17:49:05Z</time>
      </trkpt>
      <trkpt lat="42.52503" lon="2.93577">
        <ele>90.3</ele>
        <time>2019-12-24T17:49:06Z</time>
      </trkpt>
      <trkpt lat="42.52505" lon="2.93579">
        <ele>90.3</ele>
        <time>2019-12-24T17:49:07Z</time>
      </trkpt>
      <trkpt lat="42.52504" lon="2.93586">
        <ele>90.9</ele>
        <time>2019-12-24T17:49:08Z</time>
      </trkpt>
      <trkpt lat="42.52498" lon="2.93602">
        <ele>92.1</ele>
        <time>2019-12-24T17:49:15Z</time>
      </trkpt>
      <trkpt lat="42.52496" lon="2.93614">
        <ele>92.5</ele>
        <time>2019-12-24T17:49:30Z</time>
      </trkpt>
      <trkpt lat="42.52494" lon="2.93626">
        <ele>92.6</ele>
        <time>2019-12-24T17:49:35Z</time>
      </trkpt>
      <trkpt lat="42.52495" lon="2.93638">
        <ele>92.7</ele>
        <time>2019-12-24T17:49:37Z</time>
      </trkpt>
      <trkpt lat="42.52501" lon="2.93679">
        <ele>92.8</ele>
        <time>2019-12-24T17:49:58Z</time>
      </trkpt>
      <trkpt lat="42.52501" lon="2.93693">
        <ele>93.5</ele>
        <time>2019-12-24T17:50:11Z</time>
      </trkpt>
      <trkpt lat="42.52492" lon="2.93767">
        <ele>96.4</ele>
        <time>2019-12-24T17:50:12Z</time>
      </trkpt>
      <trkpt lat="42.52507" lon="2.93762">
        <ele>95.6</ele>
        <time>2019-12-24T17:50:34Z</time>
      </trkpt>
      <trkpt lat="42.52524" lon="2.93761">
        <ele>95.9</ele>
        <time>2019-12-24T17:51:15Z</time>
      </trkpt>
      <trkpt lat="42.52538" lon="2.93765">
        <ele>96.2</ele>
        <time>2019-12-24T17:51:28Z</time>
      </trkpt>
      <trkpt lat="42.5257" lon="2.93787">
        <ele>96.5</ele>
        <time>2019-12-24T17:51:42Z</time>
      </trkpt>
      <trkpt lat="42.52534" lon="2.93919">
        <ele>93.8</ele>
        <time>2019-12-24T17:51:45Z</time>
      </trkpt>
      <trkpt lat="42.52524" lon="2.93953">
        <ele>93.7</ele>
        <time>2019-12-24T17:51:48Z</time>
      </trkpt>
      <trkpt lat="42.52523" lon="2.93966">
        <ele>93.7</ele>
        <time>2019-12-24T17:51:52Z</time>
      </trkpt>
      <trkpt lat="42.52524" lon="2.94033">
        <ele>92.3</ele>
        <time>2019-12-24T17:51:53Z</time>
      </trkpt>
      <trkpt lat="42.52523" lon="2.94043">
        <ele>92.2</ele>
        <time>2019-12-24T17:52:00Z</time>
      </trkpt>
      <trkpt lat="42.52519" lon="2.94055">
        <ele>92.1</ele>
        <time>2019-12-24T17:52:12Z</time>
      </trkpt>
      <trkpt lat="42.52514" lon="2.94052">
        <ele>92.1</ele>
        <time>2019-12-24T17:52:20Z</time>
      </trkpt>
      <trkpt lat="42.52507" lon="2.94052">
        <ele>92.2</ele>
        <time>2019-12-24T17:52:23Z</time>
      </trkpt>
      <trkpt lat="42.52503" lon="2.94054">
        <ele>92.2</ele>
        <time>2019-12-24T17:52:24Z</time>
      </trkpt>
      <trkpt lat="42.52501" lon="2.94057">
        <ele>92.2</ele>
        <time>2019-12-24T17:52:24Z</time>
      </trkpt>
      <trkpt lat="42.52499" lon="2.94066">
        <ele>93.3</ele>
        <time>2019-12-24T17:52:27Z</time>
      </trkpt>
      <trkpt lat="42.52499" lon="2.94072">
        <ele>93</ele>
        <time>2019-12-24T17:52:29Z</time>
      </trkpt>
      <trkpt lat="42.525" lon="2.94076">
        <ele>92.7</ele>
        <time>2019-12-24T17:52:30Z</time>
      </trkpt>
      <trkpt lat="42.52506" lon="2.9408">
        <ele>92</ele>
        <time>2019-12-24T17:52:36Z</time>
      </trkpt>
      <trkpt lat="42.52513" lon="2.94082">
        <ele>92</ele>
        <time>2019-12-24T17:52:40Z</time>
      </trkpt>
      <trkpt lat="42.52517" lon="2.94079">
        <ele>91.9</ele>
        <time>2019-12-24T17:52:40Z</time>
      </trkpt>
      <trkpt lat="42.52543" lon="2.94123">
        <ele>90.2</ele>
        <time>2019-12-24T17:52:41Z</time>
      </trkpt>
      <trkpt lat="42.52594" lon="2.94214">
        <ele>85.4</ele>
        <time>2019-12-24T17:52:42Z</time>
      </trkpt>
      <trkpt lat="42.52612" lon="2.94246">
        <ele>84.8</ele>
        <time>2019-12-24T17:52:43Z</time>
      </trkpt>
      <trkpt lat="42.52618" lon="2.94258">
        <ele>83.6</ele>
        <time>2019-12-24T17:52:45Z</time>
      </trkpt>
      <trkpt lat="42.52689" lon="2.94384">
        <ele>80.5</ele>
        <time>2019-12-24T17:52:47Z</time>
      </trkpt>
      <trkpt lat="42.52731" lon="2.9446">
        <ele>81.6</ele>
        <time>2019-12-24T17:52:48Z</time>
      </trkpt>
      <trkpt lat="42.52736" lon="2.94469">
        <ele>81.8</ele>
        <time>2019-12-24T17:52:49Z</time>
      </trkpt>
      <trkpt lat="42.5281" lon="2.946">
        <ele>85.6</ele>
        <time>2019-12-24T17:52:50Z</time>
      </trkpt>
      <trkpt lat="42.52948" lon="2.94849">
        <ele>85</ele>
        <time>2019-12-24T17:52:54Z</time>
      </trkpt>
      <trkpt lat="42.52993" lon="2.9493">
        <ele>84.2</ele>
        <time>2019-12-24T17:52:58Z</time>
      </trkpt>
      <trkpt lat="42.53043" lon="2.95016">
        <ele>84.3</ele>
        <time>2019-12-24T17:53:01Z</time>
      </trkpt>
      <trkpt lat="42.53052" lon="2.95035">
        <ele>84.3</ele>
        <time>2019-12-24T17:53:03Z</time>
      </trkpt>
      <trkpt lat="42.53059" lon="2.95054">
        <ele>84.4</ele>
        <time>2019-12-24T17:53:07Z</time>
      </trkpt>
      <trkpt lat="42.53064" lon="2.95084">
        <ele>84.8</ele>
        <time>2019-12-24T17:53:10Z</time>
      </trkpt>
      <trkpt lat="42.53064" lon="2.95089">
        <ele>84.9</ele>
        <time>2019-12-24T17:53:11Z</time>
      </trkpt>
      <trkpt lat="42.53065" lon="2.95143">
        <ele>85.6</ele>
        <time>2019-12-24T17:53:12Z</time>
      </trkpt>
      <trkpt lat="42.53065" lon="2.95238">
        <ele>85.6</ele>
        <time>2019-12-24T17:53:13Z</time>
      </trkpt>
      <trkpt lat="42.53069" lon="2.95298">
        <ele>85.5</ele>
        <time>2019-12-24T17:53:16Z</time>
      </trkpt>
      <trkpt lat="42.53072" lon="2.95319">
        <ele>85.4</ele>
        <time>2019-12-24T17:53:20Z</time>
      </trkpt>
      <trkpt lat="42.53072" lon="2.95325">
        <ele>85.3</ele>
        <time>2019-12-24T17:53:21Z</time>
      </trkpt>
      <trkpt lat="42.53072" lon="2.95329">
        <ele>85.3</ele>
        <time>2019-12-24T17:53:23Z</time>
      </trkpt>
      <trkpt lat="42.53072" lon="2.95353">
        <ele>83.1</ele>
        <time>2019-12-24T17:53:24Z</time>
      </trkpt>
      <trkpt lat="42.53074" lon="2.95365">
        <ele>82.4</ele>
        <time>2019-12-24T17:53:26Z</time>
      </trkpt>
      <trkpt lat="42.53076" lon="2.95375">
        <ele>81.8</ele>
        <time>2019-12-24T17:53:30Z</time>
      </trkpt>
      <trkpt lat="42.53076" lon="2.95417">
        <ele>77.8</ele>
        <time>2019-12-24T17:53:30Z</time>
      </trkpt>
      <trkpt lat="42.53075" lon="2.95445">
        <ele>77.3</ele>
        <time>2019-12-24T17:53:37Z</time>
      </trkpt>
      <trkpt lat="42.53075" lon="2.95449">
        <ele>77.2</ele>
        <time>2019-12-24T17:53:39Z</time>
      </trkpt>
      <trkpt lat="42.53073" lon="2.95453">
        <ele>77.1</ele>
        <time>2019-12-24T17:53:42Z</time>
      </trkpt>
      <trkpt lat="42.53072" lon="2.9546">
        <ele>77</ele>
        <time>2019-12-24T17:53:45Z</time>
      </trkpt>
      <trkpt lat="42.53072" lon="2.9547">
        <ele>76.7</ele>
        <time>2019-12-24T17:53:47Z</time>
      </trkpt>
      <trkpt lat="42.53075" lon="2.95483">
        <ele>76.2</ele>
        <time>2019-12-24T17:53:52Z</time>
      </trkpt>
      <trkpt lat="42.53079" lon="2.95497">
        <ele>75.4</ele>
        <time>2019-12-24T17:53:54Z</time>
      </trkpt>
      <trkpt lat="42.53081" lon="2.95508">
        <ele>75.2</ele>
        <time>2019-12-24T17:53:58Z</time>
      </trkpt>
      <trkpt lat="42.53081" lon="2.95515">
        <ele>75.3</ele>
        <time>2019-12-24T17:54:01Z</time>
      </trkpt>
      <trkpt lat="42.53078" lon="2.95523">
        <ele>75.3</ele>
        <time>2019-12-24T17:54:03Z</time>
      </trkpt>
      <trkpt lat="42.53068" lon="2.95548">
        <ele>75.3</ele>
        <time>2019-12-24T17:54:08Z</time>
      </trkpt>
      <trkpt lat="42.53056" lon="2.95576">
        <ele>75.3</ele>
        <time>2019-12-24T17:54:14Z</time>
      </trkpt>
      <trkpt lat="42.53046" lon="2.95587">
        <ele>75.7</ele>
        <time>2019-12-24T17:54:16Z</time>
      </trkpt>
      <trkpt lat="42.53033" lon="2.95599">
        <ele>76</ele>
        <time>2019-12-24T17:54:17Z</time>
      </trkpt>
      <trkpt lat="42.53041" lon="2.95627">
        <ele>76</ele>
        <time>2019-12-24T17:54:22Z</time>
      </trkpt>
      <trkpt lat="42.53048" lon="2.95646">
        <ele>76.1</ele>
        <time>2019-12-24T17:54:26Z</time>
      </trkpt>
      <trkpt lat="42.53049" lon="2.95652">
        <ele>76.1</ele>
        <time>2019-12-24T17:54:28Z</time>
      </trkpt>
      <trkpt lat="42.53051" lon="2.95659">
        <ele>76.1</ele>
        <time>2019-12-24T17:54:29Z</time>
      </trkpt>
      <trkpt lat="42.53051" lon="2.95665">
        <ele>76.1</ele>
        <time>2019-12-24T17:54:31Z</time>
      </trkpt>
      <trkpt lat="42.53069" lon="2.95674">
        <ele>77.3</ele>
        <time>2019-12-24T17:54:34Z</time>
      </trkpt>
      <trkpt lat="42.53088" lon="2.95685">
        <ele>75.7</ele>
        <time>2019-12-24T17:54:39Z</time>
      </trkpt>
      <trkpt lat="42.53093" lon="2.95693">
        <ele>75.8</ele>
        <time>2019-12-24T17:54:44Z</time>
      </trkpt>
      <trkpt lat="42.53096" lon="2.95705">
        <ele>76</ele>
        <time>2019-12-24T17:54:47Z</time>
      </trkpt>
      <trkpt lat="42.53097" lon="2.95712">
        <ele>76.2</ele>
        <time>2019-12-24T17:54:53Z</time>
      </trkpt>
      <trkpt lat="42.53094" lon="2.9573">
        <ele>77.2</ele>
        <time>2019-12-24T17:54:56Z</time>
      </trkpt>
      <trkpt lat="42.53114" lon="2.95734">
        <ele>76.4</ele>
        <time>2019-12-24T17:55:03Z</time>
      </trkpt>
      <trkpt lat="42.53117" lon="2.95735">
        <ele>76.3</ele>
        <time>2019-12-24T17:55:10Z</time>
      </trkpt>
      <trkpt lat="42.53151" lon="2.95746">
        <ele>75.2</ele>
        <time>2019-12-24T17:55:17Z</time>
      </trkpt>
      <trkpt lat="42.53166" lon="2.95752">
        <ele>75.2</ele>
        <time>2019-12-24T17:55:21Z</time>
      </trkpt>
      <trkpt lat="42.53176" lon="2.95763">
        <ele>73.8</ele>
        <time>2019-12-24T17:55:23Z</time>
      </trkpt>
      <trkpt lat="42.53188" lon="2.95783">
        <ele>73.1</ele>
        <time>2019-12-24T17:55:28Z</time>
      </trkpt>
      <trkpt lat="42.53195" lon="2.95792">
        <ele>73</ele>
        <time>2019-12-24T17:55:32Z</time>
      </trkpt>
      <trkpt lat="42.53221" lon="2.95809">
        <ele>72.4</ele>
        <time>2019-12-24T17:55:36Z</time>
      </trkpt>
      <trkpt lat="42.53231" lon="2.9582">
        <ele>72.3</ele>
        <time>2019-12-24T17:55:49Z</time>
      </trkpt>
      <trkpt lat="42.53247" lon="2.95839">
        <ele>72.6</ele>
        <time>2019-12-24T17:55:56Z</time>
      </trkpt>
      <trkpt lat="42.5326" lon="2.95855">
        <ele>70.9</ele>
        <time>2019-12-24T17:55:58Z</time>
      </trkpt>
      <trkpt lat="42.5327" lon="2.95867">
        <ele>70.6</ele>
        <time>2019-12-24T17:56:06Z</time>
      </trkpt>
      <trkpt lat="42.53294" lon="2.95887">
        <ele>70.1</ele>
        <time>2019-12-24T17:56:27Z</time>
      </trkpt>
      <trkpt lat="42.53318" lon="2.95909">
        <ele>69.1</ele>
        <time>2019-12-24T17:56:33Z</time>
      </trkpt>
      <trkpt lat="42.53332" lon="2.95914">
        <ele>68.2</ele>
        <time>2019-12-24T17:56:42Z</time>
      </trkpt>
      <trkpt lat="42.53339" lon="2.95917">
        <ele>67.9</ele>
        <time>2019-12-24T17:56:44Z</time>
      </trkpt>
      <trkpt lat="42.5336" lon="2.95932">
        <ele>67.7</ele>
        <time>2019-12-24T17:56:51Z</time>
      </trkpt>
      <trkpt lat="42.53377" lon="2.95952">
        <ele>67.6</ele>
        <time>2019-12-24T17:56:53Z</time>
      </trkpt>
      <trkpt lat="42.53389" lon="2.95959">
        <ele>67.4</ele>
        <time>2019-12-24T17:56:54Z</time>
      </trkpt>
      <trkpt lat="42.53397" lon="2.95961">
        <ele>67.3</ele>
        <time>2019-12-24T17:56:59Z</time>
      </trkpt>
      <trkpt lat="42.53404" lon="2.95963">
        <ele>67.2</ele>
        <time>2019-12-24T17:57:06Z</time>
      </trkpt>
      <trkpt lat="42.53425" lon="2.95965">
        <ele>65</ele>
        <time>2019-12-24T17:57:10Z</time>
      </trkpt>
      <trkpt lat="42.5345" lon="2.95977">
        <ele>64.9</ele>
        <time>2019-12-24T17:57:15Z</time>
      </trkpt>
      <trkpt lat="42.53473" lon="2.95997">
        <ele>64.5</ele>
        <time>2019-12-24T17:57:24Z</time>
      </trkpt>
      <trkpt lat="42.53486" lon="2.96013">
        <ele>65.1</ele>
        <time>2019-12-24T17:57:27Z</time>
      </trkpt>
      <trkpt lat="42.53514" lon="2.96035">
        <ele>64</ele>
        <time>2019-12-24T17:57:30Z</time>
      </trkpt>
      <trkpt lat="42.53527" lon="2.96048">
        <ele>64.1</ele>
        <time>2019-12-24T17:57:42Z</time>
      </trkpt>
      <trkpt lat="42.53557" lon="2.96088">
        <ele>65.4</ele>
        <time>2019-12-24T17:57:51Z</time>
      </trkpt>
      <trkpt lat="42.53585" lon="2.96123">
        <ele>63.4</ele>
        <time>2019-12-24T17:57:57Z</time>
      </trkpt>
      <trkpt lat="42.53616" lon="2.96157">
        <ele>63</ele>
        <time>2019-12-24T17:58:02Z</time>
      </trkpt>
      <trkpt lat="42.53632" lon="2.96173">
        <ele>62.9</ele>
        <time>2019-12-24T17:58:17Z</time>
      </trkpt>
      <trkpt lat="42.5364" lon="2.96185">
        <ele>62.7</ele>
        <time>2019-12-24T17:58:23Z</time>
      </trkpt>
      <trkpt lat="42.53658" lon="2.96212">
        <ele>62.7</ele>
        <time>2019-12-24T17:58:32Z</time>
      </trkpt>
      <trkpt lat="42.53674" lon="2.96234">
        <ele>60.4</ele>
        <time>2019-12-24T17:58:45Z</time>
      </trkpt>
      <trkpt lat="42.53696" lon="2.96245">
        <ele>59.6</ele>
        <time>2019-12-24T17:59:00Z</time>
      </trkpt>
      <trkpt lat="42.53773" lon="2.96243">
        <ele>54.9</ele>
        <time>2019-12-24T17:59:09Z</time>
      </trkpt>
      <trkpt lat="42.53806" lon="2.96229">
        <ele>53.4</ele>
        <time>2019-12-24T17:59:23Z</time>
      </trkpt>
      <trkpt lat="42.53815" lon="2.96218">
        <ele>53.2</ele>
        <time>2019-12-24T17:59:33Z</time>
      </trkpt>
      <trkpt lat="42.53846" lon="2.96172">
        <ele>51</ele>
        <time>2019-12-24T17:59:40Z</time>
      </trkpt>
      <trkpt lat="42.53889" lon="2.96025">
        <ele>53.9</ele>
        <time>2019-12-24T17:59:50Z</time>
      </trkpt>
      <trkpt lat="42.53879" lon="2.95975">
        <ele>56.6</ele>
        <time>2019-12-24T17:59:55Z</time>
      </trkpt>
      <trkpt lat="42.53846" lon="2.95933">
        <ele>58.3</ele>
        <time>2019-12-24T18:00:08Z</time>
      </trkpt>
      <trkpt lat="42.53838" lon="2.95918">
        <ele>59.5</ele>
        <time>2019-12-24T18:00:28Z</time>
      </trkpt>
      <trkpt lat="42.53821" lon="2.95873">
        <ele>61.4</ele>
        <time>2019-12-24T18:00:28Z</time>
      </trkpt>
      <trkpt lat="42.53829" lon="2.95861">
        <ele>61.7</ele>
        <time>2019-12-24T18:00:30Z</time>
      </trkpt>
      <trkpt lat="42.53835" lon="2.95867">
        <ele>61.4</ele>
        <time>2019-12-24T18:00:31Z</time>
      </trkpt>
      <trkpt lat="42.53859" lon="2.95879">
        <ele>61</ele>
        <time>2019-12-24T18:00:32Z</time>
      </trkpt>
      <trkpt lat="42.53902" lon="2.95894">
        <ele>60.1</ele>
        <time>2019-12-24T18:00:34Z</time>
      </trkpt>
      <trkpt lat="42.53923" lon="2.95896">
        <ele>59.2</ele>
        <time>2019-12-24T18:00:35Z</time>
      </trkpt>
      <trkpt lat="42.53947" lon="2.95894">
        <ele>59.4</ele>
        <time>2019-12-24T18:00:36Z</time>
      </trkpt>
      <trkpt lat="42.54" lon="2.95874">
        <ele>59.5</ele>
        <time>2019-12-24T18:00:37Z</time>
      </trkpt>
      <trkpt lat="42.54015" lon="2.9587">
        <ele>58</ele>
        <time>2019-12-24T18:00:37Z</time>
      </trkpt>
      <trkpt lat="42.54031" lon="2.9587">
        <ele>57.8</ele>
        <time>2019-12-24T18:00:39Z</time>
      </trkpt>
      <trkpt lat="42.54099" lon="2.95874">
        <ele>55.3</ele>
        <time>2019-12-24T18:00:40Z</time>
      </trkpt>
      <trkpt lat="42.54147" lon="2.95876">
        <ele>54.7</ele>
        <time>2019-12-24T18:00:41Z</time>
      </trkpt>
      <trkpt lat="42.54184" lon="2.95877">
        <ele>53.6</ele>
        <time>2019-12-24T18:00:43Z</time>
      </trkpt>
      <trkpt lat="42.54213" lon="2.95883">
        <ele>53.3</ele>
        <time>2019-12-24T18:00:44Z</time>
      </trkpt>
      <trkpt lat="42.54295" lon="2.95897">
        <ele>52.4</ele>
        <time>2019-12-24T18:00:45Z</time>
      </trkpt>
      <trkpt lat="42.54329" lon="2.9591">
        <ele>52.1</ele>
        <time>2019-12-24T18:00:53Z</time>
      </trkpt>
      <trkpt lat="42.54376" lon="2.95932">
        <ele>51.3</ele>
        <time>2019-12-24T18:01:03Z</time>
      </trkpt>
      <trkpt lat="42.54445" lon="2.95966">
        <ele>51.1</ele>
        <time>2019-12-24T18:01:08Z</time>
      </trkpt>
      <trkpt lat="42.54523" lon="2.96003">
        <ele>49.7</ele>
        <time>2019-12-24T18:01:12Z</time>
      </trkpt>
      <trkpt lat="42.54569" lon="2.96027">
        <ele>49.1</ele>
        <time>2019-12-24T18:01:18Z</time>
      </trkpt>
      <trkpt lat="42.54643" lon="2.96061">
        <ele>47.5</ele>
        <time>2019-12-24T18:01:25Z</time>
      </trkpt>
      <trkpt lat="42.54699" lon="2.96085">
        <ele>45.5</ele>
        <time>2019-12-24T18:01:42Z</time>
      </trkpt>
      <trkpt lat="42.54731" lon="2.96109">
        <ele>45.1</ele>
        <time>2019-12-24T18:01:43Z</time>
      </trkpt>
      <trkpt lat="42.54774" lon="2.9616">
        <ele>43.8</ele>
        <time>2019-12-24T18:01:44Z</time>
      </trkpt>
      <trkpt lat="42.54801" lon="2.9618">
        <ele>42.2</ele>
        <time>2019-12-24T18:01:44Z</time>
      </trkpt>
      <trkpt lat="42.54866" lon="2.96216">
        <ele>42.3</ele>
        <time>2019-12-24T18:01:45Z</time>
      </trkpt>
      <trkpt lat="42.54972" lon="2.96267">
        <ele>40.9</ele>
        <time>2019-12-24T18:01:46Z</time>
      </trkpt>
      <trkpt lat="42.54973" lon="2.96269">
        <ele>40.9</ele>
        <time>2019-12-24T18:01:47Z</time>
      </trkpt>
      <trkpt lat="42.54981" lon="2.96274">
        <ele>40.8</ele>
        <time>2019-12-24T18:01:48Z</time>
      </trkpt>
      <trkpt lat="42.54986" lon="2.96279">
        <ele>40.8</ele>
        <time>2019-12-24T18:02:00Z</time>
      </trkpt>
      <trkpt lat="42.54993" lon="2.96288">
        <ele>40.7</ele>
        <time>2019-12-24T18:02:17Z</time>
      </trkpt>
      <trkpt lat="42.54995" lon="2.96297">
        <ele>40.6</ele>
        <time>2019-12-24T18:02:23Z</time>
      </trkpt>
      <trkpt lat="42.55" lon="2.96305">
        <ele>40.5</ele>
        <time>2019-12-24T18:02:35Z</time>
      </trkpt>
      <trkpt lat="42.55005" lon="2.96311">
        <ele>40.1</ele>
        <time>2019-12-24T18:02:40Z</time>
      </trkpt>
      <trkpt lat="42.5501" lon="2.96312">
        <ele>40.1</ele>
        <time>2019-12-24T18:02:43Z</time>
      </trkpt>
      <trkpt lat="42.55011" lon="2.96313">
        <ele>40.1</ele>
        <time>2019-12-24T18:02:48Z</time>
      </trkpt>
      <trkpt lat="42.55017" lon="2.96306">
        <ele>40.1</ele>
        <time>2019-12-24T18:02:53Z</time>
      </trkpt>
      <trkpt lat="42.55023" lon="2.96302">
        <ele>40.1</ele>
        <time>2019-12-24T18:02:54Z</time>
      </trkpt>
      <trkpt lat="42.55031" lon="2.96301">
        <ele>40</ele>
        <time>2019-12-24T18:02:55Z</time>
      </trkpt>
      <trkpt lat="42.55042" lon="2.96305">
        <ele>40</ele>
        <time>2019-12-24T18:02:56Z</time>
      </trkpt>
      <trkpt lat="42.55046" lon="2.96307">
        <ele>40</ele>
        <time>2019-12-24T18:02:57Z</time>
      </trkpt>
      <trkpt lat="42.55049" lon="2.96306">
        <ele>40</ele>
        <time>2019-12-24T18:02:57Z</time>
      </trkpt>
      <trkpt lat="42.55093" lon="2.96334">
        <ele>39.4</ele>
        <time>2019-12-24T18:02:58Z</time>
      </trkpt>
      <trkpt lat="42.55142" lon="2.96363">
        <ele>38.1</ele>
        <time>2019-12-24T18:02:59Z</time>
      </trkpt>
      <trkpt lat="42.55169" lon="2.96377">
        <ele>36.8</ele>
        <time>2019-12-24T18:03:00Z</time>
      </trkpt>
      <trkpt lat="42.5519" lon="2.96385">
        <ele>36.6</ele>
        <time>2019-12-24T18:03:01Z</time>
      </trkpt>
      <trkpt lat="42.55224" lon="2.96393">
        <ele>36.3</ele>
        <time>2019-12-24T18:03:05Z</time>
      </trkpt>
      <trkpt lat="42.55263" lon="2.96402">
        <ele>35</ele>
        <time>2019-12-24T18:03:06Z</time>
      </trkpt>
      <trkpt lat="42.55359" lon="2.96419">
        <ele>33.1</ele>
        <time>2019-12-24T18:03:08Z</time>
      </trkpt>
      <trkpt lat="42.55359" lon="2.96425">
        <ele>33.1</ele>
        <time>2019-12-24T18:03:09Z</time>
      </trkpt>
      <trkpt lat="42.5536" lon="2.9643">
        <ele>33.1</ele>
        <time>2019-12-24T18:03:10Z</time>
      </trkpt>
      <trkpt lat="42.55363" lon="2.96432">
        <ele>33.1</ele>
        <time>2019-12-24T18:03:12Z</time>
      </trkpt>
      <trkpt lat="42.55367" lon="2.96433">
        <ele>33.1</ele>
        <time>2019-12-24T18:03:19Z</time>
      </trkpt>
      <trkpt lat="42.55371" lon="2.96433">
        <ele>33.1</ele>
        <time>2019-12-24T18:03:21Z</time>
      </trkpt>
      <trkpt lat="42.55375" lon="2.96429">
        <ele>33</ele>
        <time>2019-12-24T18:03:24Z</time>
      </trkpt>
      <trkpt lat="42.55377" lon="2.96422">
        <ele>33</ele>
        <time>2019-12-24T18:03:30Z</time>
      </trkpt>
      <trkpt lat="42.55445" lon="2.96436">
        <ele>32.2</ele>
        <time>2019-12-24T18:03:42Z</time>
      </trkpt>
      <trkpt lat="42.55542" lon="2.96456">
        <ele>31.3</ele>
        <time>2019-12-24T18:03:47Z</time>
      </trkpt>
      <trkpt lat="42.55572" lon="2.96462">
        <ele>31</ele>
        <time>2019-12-24T18:03:56Z</time>
      </trkpt>
      <trkpt lat="42.5564" lon="2.96475">
        <ele>29.6</ele>
        <time>2019-12-24T18:04:12Z</time>
      </trkpt>
      <trkpt lat="42.5567" lon="2.96481">
        <ele>29</ele>
        <time>2019-12-24T18:04:18Z</time>
      </trkpt>
      <trkpt lat="42.55684" lon="2.96485">
        <ele>29.1</ele>
        <time>2019-12-24T18:04:24Z</time>
      </trkpt>
      <trkpt lat="42.5571" lon="2.96492">
        <ele>29.2</ele>
        <time>2019-12-24T18:04:29Z</time>
      </trkpt>
      <trkpt lat="42.55741" lon="2.96502">
        <ele>29.9</ele>
        <time>2019-12-24T18:04:45Z</time>
      </trkpt>
      <trkpt lat="42.55746" lon="2.96505">
        <ele>29.9</ele>
        <time>2019-12-24T18:04:57Z</time>
      </trkpt>
      <trkpt lat="42.55747" lon="2.96512">
        <ele>29.9</ele>
        <time>2019-12-24T18:05:26Z</time>
      </trkpt>
      <trkpt lat="42.55749" lon="2.96516">
        <ele>29.9</ele>
        <time>2019-12-24T18:05:33Z</time>
      </trkpt>
      <trkpt lat="42.55754" lon="2.96518">
        <ele>30.2</ele>
        <time>2019-12-24T18:05:42Z</time>
      </trkpt>
      <trkpt lat="42.55755" lon="2.96519">
        <ele>30.3</ele>
        <time>2019-12-24T18:05:52Z</time>
      </trkpt>
      <trkpt lat="42.5576" lon="2.96519">
        <ele>30.3</ele>
        <time>2019-12-24T18:06:17Z</time>
      </trkpt>
      <trkpt lat="42.55766" lon="2.96516">
        <ele>30.3</ele>
        <time>2019-12-24T18:06:19Z</time>
      </trkpt>
      <trkpt lat="42.55771" lon="2.9651">
        <ele>30.3</ele>
        <time>2019-12-24T18:06:21Z</time>
      </trkpt>
      <trkpt lat="42.55776" lon="2.9651">
        <ele>30.4</ele>
        <time>2019-12-24T18:06:24Z</time>
      </trkpt>
      <trkpt lat="42.55799" lon="2.96513">
        <ele>30.6</ele>
        <time>2019-12-24T18:06:25Z</time>
      </trkpt>
      <trkpt lat="42.55806" lon="2.96515">
        <ele>30.6</ele>
        <time>2019-12-24T18:06:30Z</time>
      </trkpt>
      <trkpt lat="42.55812" lon="2.96524">
        <ele>30.6</ele>
        <time>2019-12-24T18:06:38Z</time>
      </trkpt>
      <trkpt lat="42.55818" lon="2.96527">
        <ele>30.7</ele>
        <time>2019-12-24T18:06:44Z</time>
      </trkpt>
      <trkpt lat="42.55825" lon="2.96528">
        <ele>30.7</ele>
        <time>2019-12-24T18:06:51Z</time>
      </trkpt>
      <trkpt lat="42.55831" lon="2.96526">
        <ele>30.7</ele>
        <time>2019-12-24T18:07:03Z</time>
      </trkpt>
      <trkpt lat="42.55872" lon="2.96522">
        <ele>30.3</ele>
        <time>2019-12-24T18:07:04Z</time>
      </trkpt>
      <trkpt lat="42.55886" lon="2.96518">
        <ele>30.2</ele>
        <time>2019-12-24T18:07:07Z</time>
      </trkpt>
      <trkpt lat="42.55899" lon="2.96516">
        <ele>30.1</ele>
        <time>2019-12-24T18:07:12Z</time>
      </trkpt>
      <trkpt lat="42.55933" lon="2.96502">
        <ele>29.3</ele>
        <time>2019-12-24T18:07:13Z</time>
      </trkpt>
      <trkpt lat="42.56" lon="2.96477">
        <ele>27.3</ele>
        <time>2019-12-24T18:07:15Z</time>
      </trkpt>
      <trkpt lat="42.56024" lon="2.96468">
        <ele>27</ele>
        <time>2019-12-24T18:07:20Z</time>
      </trkpt>
      <trkpt lat="42.56074" lon="2.96472">
        <ele>26.5</ele>
        <time>2019-12-24T18:07:22Z</time>
      </trkpt>
      <trkpt lat="42.56165" lon="2.96484">
        <ele>26.2</ele>
        <time>2019-12-24T18:07:23Z</time>
      </trkpt>
      <trkpt lat="42.56198" lon="2.96478">
        <ele>25.8</ele>
        <time>2019-12-24T18:07:26Z</time>
      </trkpt>
      <trkpt lat="42.56228" lon="2.96461">
        <ele>25.6</ele>
        <time>2019-12-24T18:07:28Z</time>
      </trkpt>
      <trkpt lat="42.56254" lon="2.96446">
        <ele>25</ele>
        <time>2019-12-24T18:07:29Z</time>
      </trkpt>
      <trkpt lat="42.56336" lon="2.96389">
        <ele>24.8</ele>
        <time>2019-12-24T18:07:30Z</time>
      </trkpt>
      <trkpt lat="42.56393" lon="2.9634">
        <ele>24.4</ele>
        <time>2019-12-24T18:07:31Z</time>
      </trkpt>
      <trkpt lat="42.56522" lon="2.96212">
        <ele>22.1</ele>
        <time>2019-12-24T18:07:34Z</time>
      </trkpt>
      <trkpt lat="42.56557" lon="2.96179">
        <ele>22.5</ele>
        <time>2019-12-24T18:07:38Z</time>
      </trkpt>
      <trkpt lat="42.56599" lon="2.96138">
        <ele>22.2</ele>
        <time>2019-12-24T18:07:39Z</time>
      </trkpt>
      <trkpt lat="42.56643" lon="2.96094">
        <ele>21.6</ele>
        <time>2019-12-24T18:07:44Z</time>
      </trkpt>
      <trkpt lat="42.5675" lon="2.95966">
        <ele>20.6</ele>
        <time>2019-12-24T18:07:47Z</time>
      </trkpt>
      <trkpt lat="42.56761" lon="2.95962">
        <ele>20.6</ele>
        <time>2019-12-24T18:07:55Z</time>
      </trkpt>
      <trkpt lat="42.56769" lon="2.95959">
        <ele>20.6</ele>
        <time>2019-12-24T18:07:57Z</time>
      </trkpt>
      <trkpt lat="42.56787" lon="2.95957">
        <ele>20.5</ele>
        <time>2019-12-24T18:08:00Z</time>
      </trkpt>
      <trkpt lat="42.56793" lon="2.95954">
        <ele>20.5</ele>
        <time>2019-12-24T18:08:03Z</time>
      </trkpt>
      <trkpt lat="42.56816" lon="2.95966">
        <ele>20.3</ele>
        <time>2019-12-24T18:08:04Z</time>
      </trkpt>
      <trkpt lat="42.56861" lon="2.95984">
        <ele>20.4</ele>
        <time>2019-12-24T18:08:07Z</time>
      </trkpt>
      <trkpt lat="42.56893" lon="2.95998">
        <ele>20.7</ele>
        <time>2019-12-24T18:08:07Z</time>
      </trkpt>
      <trkpt lat="42.56927" lon="2.96023">
        <ele>21.1</ele>
        <time>2019-12-24T18:08:08Z</time>
      </trkpt>
      <trkpt lat="42.56988" lon="2.96069">
        <ele>20.6</ele>
        <time>2019-12-24T18:08:15Z</time>
      </trkpt>
      <trkpt lat="42.5699" lon="2.9607">
        <ele>20.5</ele>
        <time>2019-12-24T18:08:16Z</time>
      </trkpt>
      <trkpt lat="42.57008" lon="2.96084">
        <ele>20.3</ele>
        <time>2019-12-24T18:08:19Z</time>
      </trkpt>
      <trkpt lat="42.57029" lon="2.96109">
        <ele>20.9</ele>
        <time>2019-12-24T18:08:19Z</time>
      </trkpt>
      <trkpt lat="42.57033" lon="2.96111">
        <ele>20.9</ele>
        <time>2019-12-24T18:08:23Z</time>
      </trkpt>
      <trkpt lat="42.57041" lon="2.96105">
        <ele>21</ele>
        <time>2019-12-24T18:08:27Z</time>
      </trkpt>
      <trkpt lat="42.57066" lon="2.96086">
        <ele>21.4</ele>
        <time>2019-12-24T18:08:27Z</time>
      </trkpt>
      <trkpt lat="42.57072" lon="2.96073">
        <ele>21.8</ele>
        <time>2019-12-24T18:08:31Z</time>
      </trkpt>
      <trkpt lat="42.57077" lon="2.9607">
        <ele>21.8</ele>
        <time>2019-12-24T18:08:31Z</time>
      </trkpt>
      <trkpt lat="42.57096" lon="2.96071">
        <ele>22.5</ele>
        <time>2019-12-24T18:08:38Z</time>
      </trkpt>
      <trkpt lat="42.57105" lon="2.96068">
        <ele>22.6</ele>
        <time>2019-12-24T18:08:39Z</time>
      </trkpt>
      <trkpt lat="42.57109" lon="2.96065">
        <ele>22.7</ele>
        <time>2019-12-24T18:08:39Z</time>
      </trkpt>
      <trkpt lat="42.57114" lon="2.96054">
        <ele>22.8</ele>
        <time>2019-12-24T18:08:44Z</time>
      </trkpt>
      <trkpt lat="42.57118" lon="2.96053">
        <ele>22.8</ele>
        <time>2019-12-24T18:08:45Z</time>
      </trkpt>
      <trkpt lat="42.57134" lon="2.96054">
        <ele>22.9</ele>
        <time>2019-12-24T18:08:46Z</time>
      </trkpt>
      <trkpt lat="42.57135" lon="2.96085">
        <ele>21.5</ele>
        <time>2019-12-24T18:08:47Z</time>
      </trkpt>
      <trkpt lat="42.5714" lon="2.9608">
        <ele>22.6</ele>
        <time>2019-12-24T18:08:50Z</time>
      </trkpt>
      <trkpt lat="42.5716" lon="2.9611">
        <ele>21.4</ele>
        <time>2019-12-24T18:08:52Z</time>
      </trkpt>
      <trkpt lat="42.5717" lon="2.96123">
        <ele>21.2</ele>
        <time>2019-12-24T18:08:53Z</time>
      </trkpt>
      <trkpt lat="42.57207" lon="2.96164">
        <ele>21</ele>
        <time>2019-12-24T18:08:55Z</time>
      </trkpt>
      <trkpt lat="42.57215" lon="2.96168">
        <ele>20.3</ele>
        <time>2019-12-24T18:08:55Z</time>
      </trkpt>
      <trkpt lat="42.57228" lon="2.96181">
        <ele>20.3</ele>
        <time>2019-12-24T18:08:56Z</time>
      </trkpt>
      <trkpt lat="42.57244" lon="2.96173">
        <ele>20.7</ele>
        <time>2019-12-24T18:08:57Z</time>
      </trkpt>
      <trkpt lat="42.57249" lon="2.96171">
        <ele>20.8</ele>
        <time>2019-12-24T18:08:59Z</time>
      </trkpt>
      <trkpt lat="42.57265" lon="2.96162">
        <ele>20.8</ele>
        <time>2019-12-24T18:09:35Z</time>
      </trkpt>
      <trkpt lat="42.57251" lon="2.9614">
        <ele>20.8</ele>
        <time>2019-12-24T18:09:41Z</time>
      </trkpt>
      <trkpt lat="42.5725" lon="2.96138">
        <ele>21.2</ele>
        <time>2019-12-24T18:09:49Z</time>
      </trkpt>
      <trkpt lat="42.57247" lon="2.96132">
        <ele>21.3</ele>
        <time>2019-12-24T18:09:55Z</time>
      </trkpt>
      <trkpt lat="42.57243" lon="2.96127">
        <ele>21.3</ele>
        <time>2019-12-24T18:10:02Z</time>
      </trkpt>
      <trkpt lat="42.57235" lon="2.96119">
        <ele>21.4</ele>
        <time>2019-12-24T18:10:15Z</time>
      </trkpt>
      <trkpt lat="42.57223" lon="2.96106">
        <ele>21.5</ele>
        <time>2019-12-24T18:10:23Z</time>
      </trkpt>
      <trkpt lat="42.57213" lon="2.96101">
        <ele>21.5</ele>
        <time>2019-12-24T18:10:33Z</time>
      </trkpt>
      <trkpt lat="42.57209" lon="2.96099">
        <ele>21.5</ele>
        <time>2019-12-24T18:10:36Z</time>
      </trkpt>
      <trkpt lat="42.57199" lon="2.96095">
        <ele>21.5</ele>
        <time>2019-12-24T18:10:43Z</time>
      </trkpt>
      <trkpt lat="42.57197" lon="2.96094">
        <ele>21.5</ele>
        <time>2019-12-24T18:10:54Z</time>
      </trkpt>
      <trkpt lat="42.57191" lon="2.96087">
        <ele>21.6</ele>
        <time>2019-12-24T18:11:06Z</time>
      </trkpt>
      <trkpt lat="42.57188" lon="2.96083">
        <ele>22.4</ele>
        <time>2019-12-24T18:11:23Z</time>
      </trkpt>
      <trkpt lat="42.57183" lon="2.96075">
        <ele>22.4</ele>
        <time>2019-12-24T18:11:27Z</time>
      </trkpt>
      <trkpt lat="42.5717" lon="2.96054">
        <ele>22.7</ele>
        <time>2019-12-24T18:11:36Z</time>
      </trkpt>
      <trkpt lat="42.57165" lon="2.96043">
        <ele>23.2</ele>
        <time>2019-12-24T18:11:38Z</time>
      </trkpt>
      <trkpt lat="42.57161" lon="2.96036">
        <ele>23.3</ele>
        <time>2019-12-24T18:11:56Z</time>
      </trkpt>
      <trkpt lat="42.5715" lon="2.96014">
        <ele>23.8</ele>
        <time>2019-12-24T18:12:06Z</time>
      </trkpt>
      <trkpt lat="42.57146" lon="2.96006">
        <ele>23.8</ele>
        <time>2019-12-24T18:12:13Z</time>
      </trkpt>
      <trkpt lat="42.57151" lon="2.96002">
        <ele>24.1</ele>
        <time>2019-12-24T18:12:15Z</time>
      </trkpt>
      <trkpt lat="42.57156" lon="2.95989">
        <ele>24.3</ele>
        <time>2019-12-24T18:12:18Z</time>
      </trkpt>
      <trkpt lat="42.57167" lon="2.95966">
        <ele>23.4</ele>
        <time>2019-12-24T18:12:20Z</time>
      </trkpt>
      <trkpt lat="42.57175" lon="2.95958">
        <ele>23.2</ele>
        <time>2019-12-24T18:12:27Z</time>
      </trkpt>
      <trkpt lat="42.5718" lon="2.95955">
        <ele>23.1</ele>
        <time>2019-12-24T18:12:34Z</time>
      </trkpt>
      <trkpt lat="42.57186" lon="2.95951">
        <ele>23</ele>
        <time>2019-12-24T18:12:41Z</time>
      </trkpt>
      <trkpt lat="42.57201" lon="2.95945">
        <ele>22.7</ele>
        <time>2019-12-24T18:12:47Z</time>
      </trkpt>
      <trkpt lat="42.57209" lon="2.95943">
        <ele>22.6</ele>
        <time>2019-12-24T18:12:49Z</time>
      </trkpt>
      <trkpt lat="42.57225" lon="2.95923">
        <ele>22.1</ele>
        <time>2019-12-24T18:12:54Z</time>
      </trkpt>
      <trkpt lat="42.57229" lon="2.95916">
        <ele>21.6</ele>
        <time>2019-12-24T18:13:02Z</time>
      </trkpt>
      <trkpt lat="42.57251" lon="2.95887">
        <ele>21</ele>
        <time>2019-12-24T18:13:04Z</time>
      </trkpt>
      <trkpt lat="42.57228" lon="2.95856">
        <ele>21.9</ele>
        <time>2019-12-24T18:13:10Z</time>
      </trkpt>
      <trkpt lat="42.572" lon="2.95807">
        <ele>21.8</ele>
        <time>2019-12-24T18:13:17Z</time>
      </trkpt>
      <trkpt lat="42.57199" lon="2.9576">
        <ele>21.6</ele>
        <time>2019-12-24T18:13:25Z</time>
      </trkpt>
      <trkpt lat="42.57204" lon="2.95704">
        <ele>21.2</ele>
        <time>2019-12-24T18:13:26Z</time>
      </trkpt>
      <trkpt lat="42.57215" lon="2.95612">
        <ele>20.7</ele>
        <time>2019-12-24T18:13:36Z</time>
      </trkpt>
      <trkpt lat="42.5722" lon="2.95549">
        <ele>21</ele>
        <time>2019-12-24T18:13:50Z</time>
      </trkpt>
      <trkpt lat="42.57224" lon="2.95473">
        <ele>21.8</ele>
        <time>2019-12-24T18:13:57Z</time>
      </trkpt>
      <trkpt lat="42.57224" lon="2.95452">
        <ele>21.8</ele>
        <time>2019-12-24T18:14:03Z</time>
      </trkpt>
      <trkpt lat="42.57228" lon="2.95393">
        <ele>22</ele>
        <time>2019-12-24T18:14:10Z</time>
      </trkpt>
      <trkpt lat="42.57233" lon="2.95313">
        <ele>21.9</ele>
        <time>2019-12-24T18:14:15Z</time>
      </trkpt>
      <trkpt lat="42.57244" lon="2.95226">
        <ele>21.9</ele>
        <time>2019-12-24T18:14:23Z</time>
      </trkpt>
      <trkpt lat="42.57263" lon="2.95092">
        <ele>22.1</ele>
        <time>2019-12-24T18:14:28Z</time>
      </trkpt>
      <trkpt lat="42.57266" lon="2.95064">
        <ele>21.7</ele>
        <time>2019-12-24T18:14:33Z</time>
      </trkpt>
      <trkpt lat="42.57274" lon="2.94994">
        <ele>22.1</ele>
        <time>2019-12-24T18:14:36Z</time>
      </trkpt>
      <trkpt lat="42.57276" lon="2.9498">
        <ele>22.1</ele>
        <time>2019-12-24T18:14:39Z</time>
      </trkpt>
      <trkpt lat="42.57295" lon="2.94847">
        <ele>22.7</ele>
        <time>2019-12-24T18:14:43Z</time>
      </trkpt>
      <trkpt lat="42.57302" lon="2.94768">
        <ele>22.7</ele>
        <time>2019-12-24T18:14:51Z</time>
      </trkpt>
      <trkpt lat="42.57307" lon="2.94717">
        <ele>22.8</ele>
        <time>2019-12-24T18:14:55Z</time>
      </trkpt>
      <trkpt lat="42.57308" lon="2.94705">
        <ele>22.8</ele>
        <time>2019-12-24T18:14:59Z</time>
      </trkpt>
      <trkpt lat="42.57315" lon="2.94684">
        <ele>22.6</ele>
        <time>2019-12-24T18:15:01Z</time>
      </trkpt>
      <trkpt lat="42.57319" lon="2.94671">
        <ele>22.5</ele>
        <time>2019-12-24T18:15:03Z</time>
      </trkpt>
      <trkpt lat="42.57338" lon="2.94625">
        <ele>22.3</ele>
        <time>2019-12-24T18:15:07Z</time>
      </trkpt>
      <trkpt lat="42.57359" lon="2.94578">
        <ele>22.5</ele>
        <time>2019-12-24T18:15:13Z</time>
      </trkpt>
      <trkpt lat="42.57385" lon="2.94539">
        <ele>22.2</ele>
        <time>2019-12-24T18:15:19Z</time>
      </trkpt>
      <trkpt lat="42.57413" lon="2.94505">
        <ele>22</ele>
        <time>2019-12-24T18:15:22Z</time>
      </trkpt>
      <trkpt lat="42.57421" lon="2.94494">
        <ele>22.3</ele>
        <time>2019-12-24T18:15:24Z</time>
      </trkpt>
      <trkpt lat="42.57439" lon="2.94471">
        <ele>22.9</ele>
        <time>2019-12-24T18:15:27Z</time>
      </trkpt>
      <trkpt lat="42.57481" lon="2.94439">
        <ele>22.8</ele>
        <time>2019-12-24T18:15:33Z</time>
      </trkpt>
      <trkpt lat="42.57489" lon="2.94429">
        <ele>22.6</ele>
        <time>2019-12-24T18:15:41Z</time>
      </trkpt>
      <trkpt lat="42.57512" lon="2.944">
        <ele>22.6</ele>
        <time>2019-12-24T18:15:45Z</time>
      </trkpt>
      <trkpt lat="42.57539" lon="2.94362">
        <ele>23.1</ele>
        <time>2019-12-24T18:15:49Z</time>
      </trkpt>
      <trkpt lat="42.57573" lon="2.94316">
        <ele>23.4</ele>
        <time>2019-12-24T18:15:52Z</time>
      </trkpt>
      <trkpt lat="42.57576" lon="2.94311">
        <ele>23.4</ele>
        <time>2019-12-24T18:15:54Z</time>
      </trkpt>
      <trkpt lat="42.5761" lon="2.94254">
        <ele>24</ele>
        <time>2019-12-24T18:15:57Z</time>
      </trkpt>
      <trkpt lat="42.57659" lon="2.94172">
        <ele>24.9</ele>
        <time>2019-12-24T18:16:00Z</time>
      </trkpt>
      <trkpt lat="42.57682" lon="2.94125">
        <ele>25.4</ele>
        <time>2019-12-24T18:16:03Z</time>
      </trkpt>
      <trkpt lat="42.57698" lon="2.94085">
        <ele>25.4</ele>
        <time>2019-12-24T18:16:06Z</time>
      </trkpt>
      <trkpt lat="42.57711" lon="2.94034">
        <ele>25.5</ele>
        <time>2019-12-24T18:16:09Z</time>
      </trkpt>
      <trkpt lat="42.57721" lon="2.93996">
        <ele>25.5</ele>
        <time>2019-12-24T18:16:17Z</time>
      </trkpt>
      <trkpt lat="42.5774" lon="2.93943">
        <ele>25.2</ele>
        <time>2019-12-24T18:16:26Z</time>
      </trkpt>
      <trkpt lat="42.57753" lon="2.93907">
        <ele>24.9</ele>
        <time>2019-12-24T18:16:33Z</time>
      </trkpt>
      <trkpt lat="42.57764" lon="2.93877">
        <ele>24.8</ele>
        <time>2019-12-24T18:16:39Z</time>
      </trkpt>
      <trkpt lat="42.57769" lon="2.93849">
        <ele>24.9</ele>
        <time>2019-12-24T18:16:45Z</time>
      </trkpt>
      <trkpt lat="42.57766" lon="2.93827">
        <ele>25.2</ele>
        <time>2019-12-24T18:16:50Z</time>
      </trkpt>
      <trkpt lat="42.57758" lon="2.938">
        <ele>25.4</ele>
        <time>2019-12-24T18:16:53Z</time>
      </trkpt>
      <trkpt lat="42.57742" lon="2.93744">
        <ele>26.3</ele>
        <time>2019-12-24T18:16:55Z</time>
      </trkpt>
      <trkpt lat="42.57734" lon="2.93712">
        <ele>25.1</ele>
        <time>2019-12-24T18:16:58Z</time>
      </trkpt>
      <trkpt lat="42.57725" lon="2.93692">
        <ele>24.7</ele>
        <time>2019-12-24T18:17:00Z</time>
      </trkpt>
      <trkpt lat="42.57719" lon="2.93679">
        <ele>24.5</ele>
        <time>2019-12-24T18:17:04Z</time>
      </trkpt>
      <trkpt lat="42.57719" lon="2.93659">
        <ele>22.7</ele>
        <time>2019-12-24T18:17:06Z</time>
      </trkpt>
      <trkpt lat="42.57728" lon="2.93629">
        <ele>22.2</ele>
        <time>2019-12-24T18:17:09Z</time>
      </trkpt>
      <trkpt lat="42.57744" lon="2.93591">
        <ele>20.7</ele>
        <time>2019-12-24T18:17:15Z</time>
      </trkpt>
      <trkpt lat="42.57761" lon="2.93554">
        <ele>22.3</ele>
        <time>2019-12-24T18:17:20Z</time>
      </trkpt>
      <trkpt lat="42.57767" lon="2.93535">
        <ele>22.9</ele>
        <time>2019-12-24T18:17:24Z</time>
      </trkpt>
      <trkpt lat="42.57767" lon="2.93514">
        <ele>23.1</ele>
        <time>2019-12-24T18:17:27Z</time>
      </trkpt>
      <trkpt lat="42.57763" lon="2.93492">
        <ele>24.1</ele>
        <time>2019-12-24T18:17:31Z</time>
      </trkpt>
      <trkpt lat="42.57755" lon="2.93449">
        <ele>25.2</ele>
        <time>2019-12-24T18:17:35Z</time>
      </trkpt>
      <trkpt lat="42.5774" lon="2.93395">
        <ele>26.1</ele>
        <time>2019-12-24T18:17:36Z</time>
      </trkpt>
      <trkpt lat="42.57735" lon="2.93362">
        <ele>26.2</ele>
        <time>2019-12-24T18:17:37Z</time>
      </trkpt>
      <trkpt lat="42.57736" lon="2.93334">
        <ele>26.1</ele>
        <time>2019-12-24T18:17:39Z</time>
      </trkpt>
      <trkpt lat="42.57742" lon="2.93311">
        <ele>25.6</ele>
        <time>2019-12-24T18:17:40Z</time>
      </trkpt>
      <trkpt lat="42.57753" lon="2.93302">
        <ele>25.2</ele>
        <time>2019-12-24T18:17:42Z</time>
      </trkpt>
      <trkpt lat="42.57767" lon="2.93308">
        <ele>25.2</ele>
        <time>2019-12-24T18:17:43Z</time>
      </trkpt>
      <trkpt lat="42.57783" lon="2.93318">
        <ele>25.1</ele>
        <time>2019-12-24T18:17:46Z</time>
      </trkpt>
      <trkpt lat="42.57801" lon="2.93322">
        <ele>24.9</ele>
        <time>2019-12-24T18:17:47Z</time>
      </trkpt>
      <trkpt lat="42.57815" lon="2.93315">
        <ele>24.7</ele>
        <time>2019-12-24T18:17:49Z</time>
      </trkpt>
      <trkpt lat="42.57825" lon="2.93297">
        <ele>24.9</ele>
        <time>2019-12-24T18:17:52Z</time>
      </trkpt>
      <trkpt lat="42.57853" lon="2.93249">
        <ele>25.6</ele>
        <time>2019-12-24T18:17:52Z</time>
      </trkpt>
      <trkpt lat="42.57883" lon="2.93192">
        <ele>25.2</ele>
        <time>2019-12-24T18:17:55Z</time>
      </trkpt>
      <trkpt lat="42.57904" lon="2.9315">
        <ele>25.3</ele>
        <time>2019-12-24T18:17:57Z</time>
      </trkpt>
      <trkpt lat="42.57923" lon="2.93109">
        <ele>25.5</ele>
        <time>2019-12-24T18:18:00Z</time>
      </trkpt>
      <trkpt lat="42.57945" lon="2.93073">
        <ele>25.3</ele>
        <time>2019-12-24T18:18:02Z</time>
      </trkpt>
      <trkpt lat="42.57962" lon="2.93046">
        <ele>25</ele>
        <time>2019-12-24T18:18:03Z</time>
      </trkpt>
      <trkpt lat="42.57974" lon="2.93031">
        <ele>24.8</ele>
        <time>2019-12-24T18:18:05Z</time>
      </trkpt>
      <trkpt lat="42.57973" lon="2.93012">
        <ele>24.7</ele>
        <time>2019-12-24T18:18:07Z</time>
      </trkpt>
      <trkpt lat="42.57969" lon="2.92995">
        <ele>24.9</ele>
        <time>2019-12-24T18:18:09Z</time>
      </trkpt>
      <trkpt lat="42.57967" lon="2.92977">
        <ele>25</ele>
        <time>2019-12-24T18:18:13Z</time>
      </trkpt>
      <trkpt lat="42.57965" lon="2.92946">
        <ele>25.3</ele>
        <time>2019-12-24T18:18:14Z</time>
      </trkpt>
      <trkpt lat="42.57966" lon="2.92934">
        <ele>25.3</ele>
        <time>2019-12-24T18:18:25Z</time>
      </trkpt>
      <trkpt lat="42.57968" lon="2.92912">
        <ele>25.7</ele>
        <time>2019-12-24T18:18:35Z</time>
      </trkpt>
      <trkpt lat="42.5797" lon="2.92861">
        <ele>25.6</ele>
        <time>2019-12-24T18:18:37Z</time>
      </trkpt>
      <trkpt lat="42.57975" lon="2.92823">
        <ele>25.7</ele>
        <time>2019-12-24T18:18:41Z</time>
      </trkpt>
      <trkpt lat="42.57976" lon="2.92797">
        <ele>25.9</ele>
        <time>2019-12-24T18:18:42Z</time>
      </trkpt>
      <trkpt lat="42.57976" lon="2.92769">
        <ele>26.2</ele>
        <time>2019-12-24T18:18:53Z</time>
      </trkpt>
      <trkpt lat="42.5797" lon="2.9274">
        <ele>27.9</ele>
        <time>2019-12-24T18:18:56Z</time>
      </trkpt>
      <trkpt lat="42.57965" lon="2.92714">
        <ele>28.4</ele>
        <time>2019-12-24T18:18:59Z</time>
      </trkpt>
      <trkpt lat="42.57965" lon="2.92708">
        <ele>28.6</ele>
        <time>2019-12-24T18:19:01Z</time>
      </trkpt>
      <trkpt lat="42.57965" lon="2.92694">
        <ele>29</ele>
        <time>2019-12-24T18:19:05Z</time>
      </trkpt>
      <trkpt lat="42.57969" lon="2.9268">
        <ele>29.4</ele>
        <time>2019-12-24T18:19:07Z</time>
      </trkpt>
      <trkpt lat="42.5797" lon="2.92675">
        <ele>29.5</ele>
        <time>2019-12-24T18:19:10Z</time>
      </trkpt>
      <trkpt lat="42.57974" lon="2.92662">
        <ele>32</ele>
        <time>2019-12-24T18:19:13Z</time>
      </trkpt>
      <trkpt lat="42.57971" lon="2.9266">
        <ele>31.9</ele>
        <time>2019-12-24T18:19:16Z</time>
      </trkpt>
      <trkpt lat="42.57953" lon="2.92648">
        <ele>31.7</ele>
        <time>2019-12-24T18:19:21Z</time>
      </trkpt>
      <trkpt lat="42.57948" lon="2.92646">
        <ele>31.6</ele>
        <time>2019-12-24T18:19:35Z</time>
      </trkpt>
      <trkpt lat="42.57951" lon="2.92631">
        <ele>32</ele>
        <time>2019-12-24T18:19:50Z</time>
      </trkpt>
      <trkpt lat="42.57956" lon="2.92613">
        <ele>32.4</ele>
        <time>2019-12-24T18:19:59Z</time>
      </trkpt>
      <trkpt lat="42.57952" lon="2.92609">
        <ele>32.4</ele>
        <time>2019-12-24T18:20:05Z</time>
      </trkpt>
      <trkpt lat="42.57947" lon="2.92589">
        <ele>32.5</ele>
        <time>2019-12-24T18:20:12Z</time>
      </trkpt>
      <trkpt lat="42.5794" lon="2.92578">
        <ele>33.6</ele>
        <time>2019-12-24T18:20:26Z</time>
      </trkpt>
      <trkpt lat="42.57955" lon="2.92578">
        <ele>34.2</ele>
        <time>2019-12-24T18:20:36Z</time>
      </trkpt>
      <trkpt lat="42.57965" lon="2.92576">
        <ele>34.5</ele>
        <time>2019-12-24T18:20:38Z</time>
      </trkpt>
      <trkpt lat="42.57971" lon="2.92571">
        <ele>34.7</ele>
        <time>2019-12-24T18:20:41Z</time>
      </trkpt>
      <trkpt lat="42.57975" lon="2.92552">
        <ele>34.8</ele>
        <time>2019-12-24T18:20:45Z</time>
      </trkpt>
      <trkpt lat="42.57981" lon="2.92541">
        <ele>34.9</ele>
        <time>2019-12-24T18:20:49Z</time>
      </trkpt>
      <trkpt lat="42.5799" lon="2.92536">
        <ele>35</ele>
        <time>2019-12-24T18:20:56Z</time>
      </trkpt>
      <trkpt lat="42.5801" lon="2.92531">
        <ele>37.2</ele>
        <time>2019-12-24T18:21:08Z</time>
      </trkpt>
      <trkpt lat="42.58015" lon="2.92526">
        <ele>37.2</ele>
        <time>2019-12-24T18:21:20Z</time>
      </trkpt>
      <trkpt lat="42.58071" lon="2.92478">
        <ele>40.9</ele>
        <time>2019-12-24T18:21:29Z</time>
      </trkpt>
      <trkpt lat="42.58116" lon="2.92442">
        <ele>43.7</ele>
        <time>2019-12-24T18:21:38Z</time>
      </trkpt>
      <trkpt lat="42.58125" lon="2.92434">
        <ele>43.8</ele>
        <time>2019-12-24T18:21:42Z</time>
      </trkpt>
      <trkpt lat="42.58144" lon="2.9242">
        <ele>44.2</ele>
        <time>2019-12-24T18:21:51Z</time>
      </trkpt>
      <trkpt lat="42.58149" lon="2.92416">
        <ele>44.7</ele>
        <time>2019-12-24T18:22:05Z</time>
      </trkpt>
      <trkpt lat="42.58207" lon="2.92372">
        <ele>46</ele>
        <time>2019-12-24T18:22:18Z</time>
      </trkpt>
      <trkpt lat="42.58223" lon="2.92363">
        <ele>46.1</ele>
        <time>2019-12-24T18:22:31Z</time>
      </trkpt>
      <trkpt lat="42.58233" lon="2.92352">
        <ele>46.1</ele>
        <time>2019-12-24T18:22:57Z</time>
      </trkpt>
      <trkpt lat="42.58245" lon="2.92339">
        <ele>46</ele>
        <time>2019-12-24T18:23:14Z</time>
      </trkpt>
      <trkpt lat="42.5826" lon="2.92327">
        <ele>46.5</ele>
        <time>2019-12-24T18:23:25Z</time>
      </trkpt>
      <trkpt lat="42.58274" lon="2.92328">
        <ele>46.9</ele>
        <time>2019-12-24T18:23:40Z</time>
      </trkpt>
      <trkpt lat="42.5829" lon="2.92331">
        <ele>47.1</ele>
        <time>2019-12-24T18:24:00Z</time>
      </trkpt>
      <trkpt lat="42.58306" lon="2.92332">
        <ele>47.2</ele>
        <time>2019-12-24T18:24:08Z</time>
      </trkpt>
      <trkpt lat="42.58322" lon="2.92327">
        <ele>47.2</ele>
        <time>2019-12-24T18:24:16Z</time>
      </trkpt>
      <trkpt lat="42.58347" lon="2.9231">
        <ele>48.5</ele>
        <time>2019-12-24T18:24:22Z</time>
      </trkpt>
      <trkpt lat="42.58419" lon="2.92255">
        <ele>50.7</ele>
        <time>2019-12-24T18:24:32Z</time>
      </trkpt>
      <trkpt lat="42.58489" lon="2.92203">
        <ele>50.5</ele>
        <time>2019-12-24T18:25:01Z</time>
      </trkpt>
      <trkpt lat="42.58538" lon="2.92169">
        <ele>49.5</ele>
        <time>2019-12-24T18:25:21Z</time>
      </trkpt>
      <trkpt lat="42.58563" lon="2.92143">
        <ele>49.9</ele>
        <time>2019-12-24T18:25:29Z</time>
      </trkpt>
      <trkpt lat="42.58591" lon="2.92105">
        <ele>51.2</ele>
        <time>2019-12-24T18:25:45Z</time>
      </trkpt>
      <trkpt lat="42.58645" lon="2.92031">
        <ele>52.3</ele>
        <time>2019-12-24T18:26:00Z</time>
      </trkpt>
      <trkpt lat="42.58687" lon="2.91972">
        <ele>51.7</ele>
        <time>2019-12-24T18:26:31Z</time>
      </trkpt>
      <trkpt lat="42.58692" lon="2.91965">
        <ele>51.7</ele>
        <time>2019-12-24T18:26:35Z</time>
      </trkpt>
      <trkpt lat="42.58706" lon="2.91948">
        <ele>51.5</ele>
        <time>2019-12-24T18:26:39Z</time>
      </trkpt>
      <trkpt lat="42.58726" lon="2.91937">
        <ele>51.2</ele>
        <time>2019-12-24T18:26:47Z</time>
      </trkpt>
      <trkpt lat="42.58751" lon="2.9193">
        <ele>49.9</ele>
        <time>2019-12-24T18:26:54Z</time>
      </trkpt>
      <trkpt lat="42.58785" lon="2.91911">
        <ele>49.2</ele>
        <time>2019-12-24T18:27:04Z</time>
      </trkpt>
      <trkpt lat="42.58849" lon="2.91872">
        <ele>45.9</ele>
        <time>2019-12-24T18:27:12Z</time>
      </trkpt>
      <trkpt lat="42.58909" lon="2.91845">
        <ele>44.1</ele>
        <time>2019-12-24T18:27:14Z</time>
      </trkpt>
      <trkpt lat="42.5896" lon="2.91834">
        <ele>43.4</ele>
        <time>2019-12-24T18:27:16Z</time>
      </trkpt>
      <trkpt lat="42.59013" lon="2.91836">
        <ele>42.6</ele>
        <time>2019-12-24T18:27:18Z</time>
      </trkpt>
      <trkpt lat="42.59033" lon="2.9184">
        <ele>42.8</ele>
        <time>2019-12-24T18:27:20Z</time>
      </trkpt>
      <trkpt lat="42.5908" lon="2.91856">
        <ele>42.6</ele>
        <time>2019-12-24T18:27:22Z</time>
      </trkpt>
      <trkpt lat="42.59161" lon="2.91884">
        <ele>40.8</ele>
        <time>2019-12-24T18:27:26Z</time>
      </trkpt>
      <trkpt lat="42.59232" lon="2.9191">
        <ele>37.4</ele>
        <time>2019-12-24T18:27:27Z</time>
      </trkpt>
      <trkpt lat="42.59302" lon="2.91939">
        <ele>36</ele>
        <time>2019-12-24T18:27:28Z</time>
      </trkpt>
      <trkpt lat="42.59439" lon="2.91992">
        <ele>28.9</ele>
        <time>2019-12-24T18:27:37Z</time>
      </trkpt>
      <trkpt lat="42.59531" lon="2.92024">
        <ele>26.9</ele>
        <time>2019-12-24T18:28:03Z</time>
      </trkpt>
      <trkpt lat="42.59592" lon="2.92031">
        <ele>25.2</ele>
        <time>2019-12-24T18:28:26Z</time>
      </trkpt>
      <trkpt lat="42.59678" lon="2.92026">
        <ele>25.4</ele>
        <time>2019-12-24T18:28:36Z</time>
      </trkpt>
      <trkpt lat="42.59793" lon="2.92025">
        <ele>23.3</ele>
        <time>2019-12-24T18:28:41Z</time>
      </trkpt>
      <trkpt lat="42.59838" lon="2.92026">
        <ele>22.3</ele>
        <time>2019-12-24T18:28:45Z</time>
      </trkpt>
      <trkpt lat="42.59881" lon="2.92041">
        <ele>22</ele>
        <time>2019-12-24T18:28:52Z</time>
      </trkpt>
      <trkpt lat="42.59912" lon="2.92057">
        <ele>21.9</ele>
        <time>2019-12-24T18:29:09Z</time>
      </trkpt>
      <trkpt lat="42.59966" lon="2.92085">
        <ele>20</ele>
        <time>2019-12-24T18:29:37Z</time>
      </trkpt>
      <trkpt lat="42.60114" lon="2.92167">
        <ele>19</ele>
        <time>2019-12-24T18:30:06Z</time>
      </trkpt>
      <trkpt lat="42.60217" lon="2.92223">
        <ele>17.4</ele>
        <time>2019-12-24T18:30:25Z</time>
      </trkpt>
      <trkpt lat="42.60261" lon="2.92245">
        <ele>16.7</ele>
        <time>2019-12-24T18:30:26Z</time>
      </trkpt>
      <trkpt lat="42.60347" lon="2.92277">
        <ele>16.3</ele>
        <time>2019-12-24T18:30:29Z</time>
      </trkpt>
      <trkpt lat="42.60427" lon="2.92307">
        <ele>16.5</ele>
        <time>2019-12-24T18:30:36Z</time>
      </trkpt>
      <trkpt lat="42.60596" lon="2.92371">
        <ele>14.8</ele>
        <time>2019-12-24T18:30:38Z</time>
      </trkpt>
      <trkpt lat="42.6062" lon="2.92383">
        <ele>14.8</ele>
        <time>2019-12-24T18:31:03Z</time>
      </trkpt>
      <trkpt lat="42.60642" lon="2.92391">
        <ele>14.8</ele>
        <time>2019-12-24T18:31:14Z</time>
      </trkpt>
      <trkpt lat="42.60613" lon="2.9243">
        <ele>14.2</ele>
        <time>2019-12-24T18:31:24Z</time>
      </trkpt>
      <trkpt lat="42.60642" lon="2.92391">
        <ele>14.8</ele>
        <time>2019-12-24T18:31:34Z</time>
      </trkpt>
      <trkpt lat="42.60695" lon="2.92412">
        <ele>14.8</ele>
        <time>2019-12-24T18:31:46Z</time>
      </trkpt>
      <trkpt lat="42.60741" lon="2.92429">
        <ele>14.9</ele>
        <time>2019-12-24T18:31:51Z</time>
      </trkpt>
      <trkpt lat="42.60746" lon="2.92439">
        <ele>15</ele>
        <time>2019-12-24T18:31:52Z</time>
      </trkpt>
      <trkpt lat="42.60757" lon="2.92447">
        <ele>15.9</ele>
        <time>2019-12-24T18:32:02Z</time>
      </trkpt>
      <trkpt lat="42.60768" lon="2.92445">
        <ele>15.9</ele>
        <time>2019-12-24T18:32:06Z</time>
      </trkpt>
      <trkpt lat="42.60775" lon="2.92438">
        <ele>16</ele>
        <time>2019-12-24T18:32:11Z</time>
      </trkpt>
      <trkpt lat="42.60788" lon="2.92444">
        <ele>16.2</ele>
        <time>2019-12-24T18:32:17Z</time>
      </trkpt>
      <trkpt lat="42.60808" lon="2.92452">
        <ele>16.4</ele>
        <time>2019-12-24T18:32:22Z</time>
      </trkpt>
      <trkpt lat="42.60817" lon="2.92453">
        <ele>16.5</ele>
        <time>2019-12-24T18:32:29Z</time>
      </trkpt>
      <trkpt lat="42.60822" lon="2.92455">
        <ele>16.5</ele>
        <time>2019-12-24T18:32:34Z</time>
      </trkpt>
      <trkpt lat="42.60866" lon="2.92474">
        <ele>18.8</ele>
        <time>2019-12-24T18:32:36Z</time>
      </trkpt>
      <trkpt lat="42.61009" lon="2.92533">
        <ele>21.2</ele>
        <time>2019-12-24T18:32:50Z</time>
      </trkpt>
      <trkpt lat="42.6113" lon="2.92587">
        <ele>14.5</ele>
        <time>2019-12-24T18:33:05Z</time>
      </trkpt>
      <trkpt lat="42.61189" lon="2.92601">
        <ele>12.5</ele>
        <time>2019-12-24T18:33:09Z</time>
      </trkpt>
      <trkpt lat="42.61216" lon="2.92603">
        <ele>12.5</ele>
        <time>2019-12-24T18:33:37Z</time>
      </trkpt>
      <trkpt lat="42.61235" lon="2.92596">
        <ele>12.6</ele>
        <time>2019-12-24T18:34:02Z</time>
      </trkpt>
      <trkpt lat="42.61271" lon="2.92572">
        <ele>14.1</ele>
        <time>2019-12-24T18:34:11Z</time>
      </trkpt>
      <trkpt lat="42.61361" lon="2.92526">
        <ele>16</ele>
        <time>2019-12-24T18:34:13Z</time>
      </trkpt>
      <trkpt lat="42.61505" lon="2.92449">
        <ele>16.9</ele>
        <time>2019-12-24T18:34:17Z</time>
      </trkpt>
      <trkpt lat="42.61658" lon="2.92369">
        <ele>12.3</ele>
        <time>2019-12-24T18:34:18Z</time>
      </trkpt>
      <trkpt lat="42.61748" lon="2.92322">
        <ele>11.7</ele>
        <time>2019-12-24T18:34:19Z</time>
      </trkpt>
      <trkpt lat="42.61758" lon="2.92316">
        <ele>11.5</ele>
        <time>2019-12-24T18:34:19Z</time>
      </trkpt>
      <trkpt lat="42.6177" lon="2.9231">
        <ele>11.4</ele>
        <time>2019-12-24T18:34:20Z</time>
      </trkpt>
      <trkpt lat="42.6181" lon="2.92288">
        <ele>11.3</ele>
        <time>2019-12-24T18:35:05Z</time>
      </trkpt>
      <trkpt lat="42.61828" lon="2.92278">
        <ele>11.4</ele>
        <time>2019-12-24T18:35:12Z</time>
      </trkpt>
      <trkpt lat="42.61948" lon="2.92217">
        <ele>14.2</ele>
        <time>2019-12-24T18:35:18Z</time>
      </trkpt>
      <trkpt lat="42.62011" lon="2.92192">
        <ele>14.6</ele>
        <time>2019-12-24T18:35:20Z</time>
      </trkpt>
      <trkpt lat="42.62064" lon="2.92181">
        <ele>14.1</ele>
        <time>2019-12-24T18:35:20Z</time>
      </trkpt>
      <trkpt lat="42.6212" lon="2.92168">
        <ele>13.4</ele>
        <time>2019-12-24T18:35:21Z</time>
      </trkpt>
      <trkpt lat="42.62186" lon="2.92147">
        <ele>13.2</ele>
        <time>2019-12-24T18:35:23Z</time>
      </trkpt>
      <trkpt lat="42.62213" lon="2.92147">
        <ele>13.3</ele>
        <time>2019-12-24T18:35:24Z</time>
      </trkpt>
      <trkpt lat="42.6222" lon="2.92146">
        <ele>13.4</ele>
        <time>2019-12-24T18:35:40Z</time>
      </trkpt>
      <trkpt lat="42.6226" lon="2.9214">
        <ele>13.8</ele>
        <time>2019-12-24T18:35:46Z</time>
      </trkpt>
      <trkpt lat="42.62294" lon="2.92134">
        <ele>13.8</ele>
        <time>2019-12-24T18:35:54Z</time>
      </trkpt>
      <trkpt lat="42.62322" lon="2.92131">
        <ele>13.9</ele>
        <time>2019-12-24T18:35:56Z</time>
      </trkpt>
      <trkpt lat="42.62351" lon="2.92128">
        <ele>14.2</ele>
        <time>2019-12-24T18:35:58Z</time>
      </trkpt>
      <trkpt lat="42.62382" lon="2.92121">
        <ele>14.2</ele>
        <time>2019-12-24T18:35:59Z</time>
      </trkpt>
      <trkpt lat="42.6242" lon="2.92115">
        <ele>14.4</ele>
        <time>2019-12-24T18:36:01Z</time>
      </trkpt>
      <trkpt lat="42.62444" lon="2.92112">
        <ele>14.5</ele>
        <time>2019-12-24T18:36:06Z</time>
      </trkpt>
      <trkpt lat="42.6246" lon="2.92108">
        <ele>14.5</ele>
        <time>2019-12-24T18:36:07Z</time>
      </trkpt>
      <trkpt lat="42.62504" lon="2.92095">
        <ele>13.9</ele>
        <time>2019-12-24T18:36:10Z</time>
      </trkpt>
      <trkpt lat="42.62538" lon="2.92102">
        <ele>13.6</ele>
        <time>2019-12-24T18:36:13Z</time>
      </trkpt>
      <trkpt lat="42.62616" lon="2.92152">
        <ele>11.5</ele>
        <time>2019-12-24T18:36:16Z</time>
      </trkpt>
      <trkpt lat="42.62641" lon="2.92154">
        <ele>11</ele>
        <time>2019-12-24T18:36:21Z</time>
      </trkpt>
      <trkpt lat="42.62794" lon="2.92127">
        <ele>10.7</ele>
        <time>2019-12-24T18:36:24Z</time>
      </trkpt>
      <trkpt lat="42.62935" lon="2.92104">
        <ele>11.6</ele>
        <time>2019-12-24T18:36:34Z</time>
      </trkpt>
      <trkpt lat="42.62984" lon="2.92096">
        <ele>12.2</ele>
        <time>2019-12-24T18:36:44Z</time>
      </trkpt>
      <trkpt lat="42.62994" lon="2.92093">
        <ele>12.5</ele>
        <time>2019-12-24T18:36:49Z</time>
      </trkpt>
      <trkpt lat="42.62994" lon="2.921">
        <ele>12.2</ele>
        <time>2019-12-24T18:36:54Z</time>
      </trkpt>
      <trkpt lat="42.62997" lon="2.92107">
        <ele>12.1</ele>
        <time>2019-12-24T18:36:57Z</time>
      </trkpt>
      <trkpt lat="42.63001" lon="2.92109">
        <ele>12.6</ele>
        <time>2019-12-24T18:36:59Z</time>
      </trkpt>
      <trkpt lat="42.63003" lon="2.92109">
        <ele>12.6</ele>
        <time>2019-12-24T18:37:00Z</time>
      </trkpt>
      <trkpt lat="42.63005" lon="2.9211">
        <ele>12.6</ele>
        <time>2019-12-24T18:37:02Z</time>
      </trkpt>
      <trkpt lat="42.63008" lon="2.92109">
        <ele>12.6</ele>
        <time>2019-12-24T18:37:06Z</time>
      </trkpt>
      <trkpt lat="42.63015" lon="2.92105">
        <ele>12.6</ele>
        <time>2019-12-24T18:37:15Z</time>
      </trkpt>
      <trkpt lat="42.63017" lon="2.92101">
        <ele>12.7</ele>
        <time>2019-12-24T18:37:18Z</time>
      </trkpt>
      <trkpt lat="42.63018" lon="2.92096">
        <ele>12.7</ele>
        <time>2019-12-24T18:37:19Z</time>
      </trkpt>
      <trkpt lat="42.63022" lon="2.92096">
        <ele>12.7</ele>
        <time>2019-12-24T18:37:24Z</time>
      </trkpt>
      <trkpt lat="42.63266" lon="2.92187">
        <ele>13.2</ele>
        <time>2019-12-24T18:37:28Z</time>
      </trkpt>
      <trkpt lat="42.63305" lon="2.92203">
        <ele>12.8</ele>
        <time>2019-12-24T18:37:30Z</time>
      </trkpt>
      <trkpt lat="42.63304" lon="2.9221">
        <ele>12.7</ele>
        <time>2019-12-24T18:37:36Z</time>
      </trkpt>
      <trkpt lat="42.63307" lon="2.9222">
        <ele>12.5</ele>
        <time>2019-12-24T18:37:47Z</time>
      </trkpt>
      <trkpt lat="42.63313" lon="2.92224">
        <ele>12.4</ele>
        <time>2019-12-24T18:37:53Z</time>
      </trkpt>
      <trkpt lat="42.63321" lon="2.92224">
        <ele>12.3</ele>
        <time>2019-12-24T18:37:55Z</time>
      </trkpt>
      <trkpt lat="42.63326" lon="2.9222">
        <ele>12.4</ele>
        <time>2019-12-24T18:37:57Z</time>
      </trkpt>
      <trkpt lat="42.63329" lon="2.92211">
        <ele>12.6</ele>
        <time>2019-12-24T18:37:57Z</time>
      </trkpt>
      <trkpt lat="42.63329" lon="2.92205">
        <ele>12.7</ele>
        <time>2019-12-24T18:37:58Z</time>
      </trkpt>
      <trkpt lat="42.63327" lon="2.92197">
        <ele>12.9</ele>
        <time>2019-12-24T18:37:59Z</time>
      </trkpt>
      <trkpt lat="42.63324" lon="2.92193">
        <ele>13</ele>
        <time>2019-12-24T18:37:59Z</time>
      </trkpt>
      <trkpt lat="42.63321" lon="2.92194">
        <ele>13</ele>
        <time>2019-12-24T18:38:00Z</time>
      </trkpt>
      <trkpt lat="42.63322" lon="2.92188">
        <ele>13.2</ele>
        <time>2019-12-24T18:38:00Z</time>
      </trkpt>
      <trkpt lat="42.63395" lon="2.92115">
        <ele>16.1</ele>
        <time>2019-12-24T18:38:01Z</time>
      </trkpt>
      <trkpt lat="42.63423" lon="2.92088">
        <ele>17.7</ele>
        <time>2019-12-24T18:38:01Z</time>
      </trkpt>
      <trkpt lat="42.63463" lon="2.9205">
        <ele>21.7</ele>
        <time>2019-12-24T18:38:02Z</time>
      </trkpt>
      <trkpt lat="42.63467" lon="2.92058">
        <ele>21.7</ele>
        <time>2019-12-24T18:38:03Z</time>
      </trkpt>
      <trkpt lat="42.63477" lon="2.92062">
        <ele>22</ele>
        <time>2019-12-24T18:38:03Z</time>
      </trkpt>
      <trkpt lat="42.63485" lon="2.92065">
        <ele>22.3</ele>
        <time>2019-12-24T18:38:06Z</time>
      </trkpt>
      <trkpt lat="42.63496" lon="2.92064">
        <ele>22.5</ele>
        <time>2019-12-24T18:38:14Z</time>
      </trkpt>
      <trkpt lat="42.63509" lon="2.92097">
        <ele>23.4</ele>
        <time>2019-12-24T18:38:22Z</time>
      </trkpt>
      <trkpt lat="42.63512" lon="2.92108">
        <ele>23.5</ele>
        <time>2019-12-24T18:38:31Z</time>
      </trkpt>
      <trkpt lat="42.63526" lon="2.92097">
        <ele>23.8</ele>
        <time>2019-12-24T18:38:38Z</time>
      </trkpt>
      <trkpt lat="42.63535" lon="2.92084">
        <ele>24.1</ele>
        <time>2019-12-24T18:38:41Z</time>
      </trkpt>
      <trkpt lat="42.63549" lon="2.92065">
        <ele>26.9</ele>
        <time>2019-12-24T18:38:45Z</time>
      </trkpt>
      <trkpt lat="42.63563" lon="2.92037">
        <ele>28.1</ele>
        <time>2019-12-24T18:38:51Z</time>
      </trkpt>
      <trkpt lat="42.63573" lon="2.92016">
        <ele>29.9</ele>
        <time>2019-12-24T18:39:01Z</time>
      </trkpt>
      <trkpt lat="42.63604" lon="2.91955">
        <ele>34.7</ele>
        <time>2019-12-24T18:39:11Z</time>
      </trkpt>
      <trkpt lat="42.63635" lon="2.91889">
        <ele>38.3</ele>
        <time>2019-12-24T18:39:25Z</time>
      </trkpt>
      <trkpt lat="42.63654" lon="2.91855">
        <ele>39.1</ele>
        <time>2019-12-24T18:39:26Z</time>
      </trkpt>
      <trkpt lat="42.63678" lon="2.91874">
        <ele>36.8</ele>
        <time>2019-12-24T18:39:40Z</time>
      </trkpt>
      <trkpt lat="42.63691" lon="2.91888">
        <ele>36.3</ele>
        <time>2019-12-24T18:39:45Z</time>
      </trkpt>
      <trkpt lat="42.63698" lon="2.919">
        <ele>36</ele>
        <time>2019-12-24T18:39:52Z</time>
      </trkpt>
      <trkpt lat="42.63702" lon="2.91903">
        <ele>35.9</ele>
        <time>2019-12-24T18:40:04Z</time>
      </trkpt>
      <trkpt lat="42.63713" lon="2.91904">
        <ele>35.6</ele>
        <time>2019-12-24T18:40:17Z</time>
      </trkpt>
      <trkpt lat="42.63726" lon="2.91878">
        <ele>35.8</ele>
        <time>2019-12-24T18:40:20Z</time>
      </trkpt>
      <trkpt lat="42.63754" lon="2.91822">
        <ele>35.4</ele>
        <time>2019-12-24T18:40:22Z</time>
      </trkpt>
      <trkpt lat="42.63762" lon="2.91802">
        <ele>35</ele>
        <time>2019-12-24T18:40:26Z</time>
      </trkpt>
      <trkpt lat="42.63765" lon="2.91795">
        <ele>35</ele>
        <time>2019-12-24T18:40:32Z</time>
      </trkpt>
      <trkpt lat="42.63779" lon="2.9176">
        <ele>35.1</ele>
        <time>2019-12-24T18:40:36Z</time>
      </trkpt>
      <trkpt lat="42.63787" lon="2.91735">
        <ele>35.3</ele>
        <time>2019-12-24T18:40:39Z</time>
      </trkpt>
      <trkpt lat="42.63793" lon="2.91719">
        <ele>35.1</ele>
        <time>2019-12-24T18:40:40Z</time>
      </trkpt>
      <trkpt lat="42.63803" lon="2.91679">
        <ele>34.8</ele>
        <time>2019-12-24T18:40:43Z</time>
      </trkpt>
      <trkpt lat="42.63826" lon="2.916">
        <ele>35.3</ele>
        <time>2019-12-24T18:41:02Z</time>
      </trkpt>
      <trkpt lat="42.63838" lon="2.91558">
        <ele>32.2</ele>
        <time>2019-12-24T18:41:04Z</time>
      </trkpt>
      <trkpt lat="42.63842" lon="2.91545">
        <ele>31.9</ele>
        <time>2019-12-24T18:41:06Z</time>
      </trkpt>
      <trkpt lat="42.63846" lon="2.91531">
        <ele>31.7</ele>
        <time>2019-12-24T18:41:13Z</time>
      </trkpt>
      <trkpt lat="42.63848" lon="2.91533">
        <ele>31.7</ele>
        <time>2019-12-24T18:41:18Z</time>
      </trkpt>
      <trkpt lat="42.63852" lon="2.91534">
        <ele>31.6</ele>
        <time>2019-12-24T18:41:30Z</time>
      </trkpt>
      <trkpt lat="42.63856" lon="2.91531">
        <ele>31.5</ele>
        <time>2019-12-24T18:41:42Z</time>
      </trkpt>
      <trkpt lat="42.6386" lon="2.91527">
        <ele>31.4</ele>
        <time>2019-12-24T18:42:10Z</time>
      </trkpt>
      <trkpt lat="42.63862" lon="2.91523">
        <ele>31.3</ele>
        <time>2019-12-24T18:42:19Z</time>
      </trkpt>
      <trkpt lat="42.63862" lon="2.91521">
        <ele>31.3</ele>
        <time>2019-12-24T18:42:28Z</time>
      </trkpt>
      <trkpt lat="42.63862" lon="2.91518">
        <ele>31.4</ele>
        <time>2019-12-24T18:43:06Z</time>
      </trkpt>
      <trkpt lat="42.63862" lon="2.91513">
        <ele>31.4</ele>
        <time>2019-12-24T18:43:20Z</time>
      </trkpt>
      <trkpt lat="42.63859" lon="2.91508">
        <ele>31.5</ele>
        <time>2019-12-24T18:43:26Z</time>
      </trkpt>
      <trkpt lat="42.63857" lon="2.91505">
        <ele>31.6</ele>
        <time>2019-12-24T18:43:32Z</time>
      </trkpt>
      <trkpt lat="42.63853" lon="2.91505">
        <ele>31.8</ele>
        <time>2019-12-24T18:44:06Z</time>
      </trkpt>
      <trkpt lat="42.63857" lon="2.91484">
        <ele>31.5</ele>
        <time>2019-12-24T18:44:18Z</time>
      </trkpt>
      <trkpt lat="42.6387" lon="2.91429">
        <ele>31.4</ele>
        <time>2019-12-24T18:44:22Z</time>
      </trkpt>
      <trkpt lat="42.63884" lon="2.91371">
        <ele>31.5</ele>
        <time>2019-12-24T18:45:29Z</time>
      </trkpt>
      <trkpt lat="42.63899" lon="2.91302">
        <ele>31</ele>
        <time>2019-12-24T18:45:36Z</time>
      </trkpt>
      <trkpt lat="42.6391" lon="2.91251">
        <ele>29.6</ele>
        <time>2019-12-24T18:45:42Z</time>
      </trkpt>
      <trkpt lat="42.63917" lon="2.9123">
        <ele>27.5</ele>
        <time>2019-12-24T18:45:50Z</time>
      </trkpt>
      <trkpt lat="42.63929" lon="2.91205">
        <ele>26.8</ele>
        <time>2019-12-24T18:45:56Z</time>
      </trkpt>
      <trkpt lat="42.63947" lon="2.91164">
        <ele>26.5</ele>
        <time>2019-12-24T18:47:10Z</time>
      </trkpt>
      <trkpt lat="42.63976" lon="2.91103">
        <ele>26.1</ele>
        <time>2019-12-24T18:47:21Z</time>
      </trkpt>
      <trkpt lat="42.64006" lon="2.91042">
        <ele>25.5</ele>
        <time>2019-12-24T18:47:28Z</time>
      </trkpt>
      <trkpt lat="42.64054" lon="2.90954">
        <ele>25.1</ele>
        <time>2019-12-24T18:47:31Z</time>
      </trkpt>
      <trkpt lat="42.64059" lon="2.90945">
        <ele>25.1</ele>
        <time>2019-12-24T18:47:41Z</time>
      </trkpt>
      <trkpt lat="42.64105" lon="2.90866">
        <ele>24.6</ele>
        <time>2019-12-24T18:47:50Z</time>
      </trkpt>
      <trkpt lat="42.64119" lon="2.9083">
        <ele>24.5</ele>
        <time>2019-12-24T18:47:55Z</time>
      </trkpt>
      <trkpt lat="42.64127" lon="2.9078">
        <ele>24.5</ele>
        <time>2019-12-24T18:47:59Z</time>
      </trkpt>
      <trkpt lat="42.64122" lon="2.90683">
        <ele>25.8</ele>
        <time>2019-12-24T18:48:03Z</time>
      </trkpt>
      <trkpt lat="42.64094" lon="2.90592">
        <ele>26.2</ele>
        <time>2019-12-24T18:48:07Z</time>
      </trkpt>
      <trkpt lat="42.64082" lon="2.90559">
        <ele>24.7</ele>
        <time>2019-12-24T18:48:09Z</time>
      </trkpt>
      <trkpt lat="42.64075" lon="2.90515">
        <ele>25.3</ele>
        <time>2019-12-24T18:48:11Z</time>
      </trkpt>
      <trkpt lat="42.6407" lon="2.90467">
        <ele>25.3</ele>
        <time>2019-12-24T18:48:12Z</time>
      </trkpt>
      <trkpt lat="42.64085" lon="2.90392">
        <ele>29.1</ele>
        <time>2019-12-24T18:48:14Z</time>
      </trkpt>
      <trkpt lat="42.64102" lon="2.90355">
        <ele>28.8</ele>
        <time>2019-12-24T18:48:17Z</time>
      </trkpt>
      <trkpt lat="42.64115" lon="2.90338">
        <ele>29</ele>
        <time>2019-12-24T18:48:19Z</time>
      </trkpt>
      <trkpt lat="42.64134" lon="2.90316">
        <ele>28.6</ele>
        <time>2019-12-24T18:48:21Z</time>
      </trkpt>
      <trkpt lat="42.64165" lon="2.90286">
        <ele>28.7</ele>
        <time>2019-12-24T18:48:24Z</time>
      </trkpt>
      <trkpt lat="42.64197" lon="2.90257">
        <ele>30.9</ele>
        <time>2019-12-24T18:48:39Z</time>
      </trkpt>
      <trkpt lat="42.64206" lon="2.90242">
        <ele>31.2</ele>
        <time>2019-12-24T18:48:45Z</time>
      </trkpt>
      <trkpt lat="42.64216" lon="2.9023">
        <ele>31.6</ele>
        <time>2019-12-24T18:48:47Z</time>
      </trkpt>
      <trkpt lat="42.64242" lon="2.90191">
        <ele>32.5</ele>
        <time>2019-12-24T18:48:48Z</time>
      </trkpt>
      <trkpt lat="42.64258" lon="2.9016">
        <ele>34.4</ele>
        <time>2019-12-24T18:48:52Z</time>
      </trkpt>
      <trkpt lat="42.64285" lon="2.90077">
        <ele>34</ele>
        <time>2019-12-24T18:48:57Z</time>
      </trkpt>
      <trkpt lat="42.64301" lon="2.89987">
        <ele>33.5</ele>
        <time>2019-12-24T18:49:03Z</time>
      </trkpt>
      <trkpt lat="42.64334" lon="2.8982">
        <ele>31.9</ele>
        <time>2019-12-24T18:49:12Z</time>
      </trkpt>
      <trkpt lat="42.64362" lon="2.89755">
        <ele>32.1</ele>
        <time>2019-12-24T18:49:20Z</time>
      </trkpt>
      <trkpt lat="42.64398" lon="2.89707">
        <ele>32.1</ele>
        <time>2019-12-24T18:49:22Z</time>
      </trkpt>
      <trkpt lat="42.64448" lon="2.89658">
        <ele>33.2</ele>
        <time>2019-12-24T18:49:23Z</time>
      </trkpt>
      <trkpt lat="42.64609" lon="2.89492">
        <ele>36.5</ele>
        <time>2019-12-24T18:49:24Z</time>
      </trkpt>
      <trkpt lat="42.64674" lon="2.89428">
        <ele>39</ele>
        <time>2019-12-24T18:49:25Z</time>
      </trkpt>
      <trkpt lat="42.64702" lon="2.89398">
        <ele>39.8</ele>
        <time>2019-12-24T18:49:26Z</time>
      </trkpt>
      <trkpt lat="42.64721" lon="2.89373">
        <ele>40.1</ele>
        <time>2019-12-24T18:49:27Z</time>
      </trkpt>
      <trkpt lat="42.64768" lon="2.89263">
        <ele>41</ele>
        <time>2019-12-24T18:49:28Z</time>
      </trkpt>
      <trkpt lat="42.64808" lon="2.89146">
        <ele>41.5</ele>
        <time>2019-12-24T18:49:29Z</time>
      </trkpt>
      <trkpt lat="42.64837" lon="2.89068">
        <ele>42.5</ele>
        <time>2019-12-24T18:49:30Z</time>
      </trkpt>
      <trkpt lat="42.6484" lon="2.89037">
        <ele>43.1</ele>
        <time>2019-12-24T18:49:31Z</time>
      </trkpt>
      <trkpt lat="42.6484" lon="2.89029">
        <ele>43.2</ele>
        <time>2019-12-24T18:49:32Z</time>
      </trkpt>
      <trkpt lat="42.64837" lon="2.89024">
        <ele>43.3</ele>
        <time>2019-12-24T18:49:33Z</time>
      </trkpt>
      <trkpt lat="42.64827" lon="2.89023">
        <ele>42.5</ele>
        <time>2019-12-24T18:49:34Z</time>
      </trkpt>
      <trkpt lat="42.64819" lon="2.89018">
        <ele>42.5</ele>
        <time>2019-12-24T18:49:35Z</time>
      </trkpt>
      <trkpt lat="42.64807" lon="2.89002">
        <ele>42.3</ele>
        <time>2019-12-24T18:49:36Z</time>
      </trkpt>
      <trkpt lat="42.64799" lon="2.88961">
        <ele>42.1</ele>
        <time>2019-12-24T18:49:38Z</time>
      </trkpt>
      <trkpt lat="42.64792" lon="2.88944">
        <ele>42</ele>
        <time>2019-12-24T18:49:44Z</time>
      </trkpt>
      <trkpt lat="42.64714" lon="2.88824">
        <ele>40.9</ele>
        <time>2019-12-24T18:49:50Z</time>
      </trkpt>
      <trkpt lat="42.64685" lon="2.88786">
        <ele>40.9</ele>
        <time>2019-12-24T18:49:52Z</time>
      </trkpt>
      <trkpt lat="42.64644" lon="2.88733">
        <ele>39.8</ele>
        <time>2019-12-24T18:50:05Z</time>
      </trkpt>
      <trkpt lat="42.64631" lon="2.88706">
        <ele>39.4</ele>
        <time>2019-12-24T18:50:10Z</time>
      </trkpt>
      <trkpt lat="42.64606" lon="2.88648">
        <ele>39.3</ele>
        <time>2019-12-24T18:50:13Z</time>
      </trkpt>
      <trkpt lat="42.64587" lon="2.88609">
        <ele>39.6</ele>
        <time>2019-12-24T18:50:22Z</time>
      </trkpt>
      <trkpt lat="42.64563" lon="2.88575">
        <ele>38.5</ele>
        <time>2019-12-24T18:50:22Z</time>
      </trkpt>
      <trkpt lat="42.64542" lon="2.88522">
        <ele>38.4</ele>
        <time>2019-12-24T18:50:27Z</time>
      </trkpt>
      <trkpt lat="42.64527" lon="2.88475">
        <ele>39.4</ele>
        <time>2019-12-24T18:50:30Z</time>
      </trkpt>
      <trkpt lat="42.6452" lon="2.88454">
        <ele>39.6</ele>
        <time>2019-12-24T18:50:32Z</time>
      </trkpt>
      <trkpt lat="42.64473" lon="2.88385">
        <ele>38.2</ele>
        <time>2019-12-24T18:50:34Z</time>
      </trkpt>
      <trkpt lat="42.6445" lon="2.88358">
        <ele>38</ele>
        <time>2019-12-24T18:50:42Z</time>
      </trkpt>
      <trkpt lat="42.64429" lon="2.88314">
        <ele>38.3</ele>
        <time>2019-12-24T18:50:44Z</time>
      </trkpt>
      <trkpt lat="42.64408" lon="2.88246">
        <ele>37.9</ele>
        <time>2019-12-24T18:50:44Z</time>
      </trkpt>
      <trkpt lat="42.64397" lon="2.8821">
        <ele>37.8</ele>
        <time>2019-12-24T18:50:47Z</time>
      </trkpt>
      <trkpt lat="42.64381" lon="2.8818">
        <ele>37.8</ele>
        <time>2019-12-24T18:50:57Z</time>
      </trkpt>
      <trkpt lat="42.64343" lon="2.88126">
        <ele>38.7</ele>
        <time>2019-12-24T18:51:03Z</time>
      </trkpt>
      <trkpt lat="42.64299" lon="2.88066">
        <ele>38.3</ele>
        <time>2019-12-24T18:51:05Z</time>
      </trkpt>
      <trkpt lat="42.64286" lon="2.88031">
        <ele>37.8</ele>
        <time>2019-12-24T18:51:07Z</time>
      </trkpt>
      <trkpt lat="42.64259" lon="2.87953">
        <ele>37.2</ele>
        <time>2019-12-24T18:51:08Z</time>
      </trkpt>
      <trkpt lat="42.6424" lon="2.87905">
        <ele>37.7</ele>
        <time>2019-12-24T18:51:10Z</time>
      </trkpt>
      <trkpt lat="42.64231" lon="2.87885">
        <ele>38.3</ele>
        <time>2019-12-24T18:51:11Z</time>
      </trkpt>
      <trkpt lat="42.64207" lon="2.87816">
        <ele>39.9</ele>
        <time>2019-12-24T18:51:13Z</time>
      </trkpt>
      <trkpt lat="42.64193" lon="2.87753">
        <ele>40.1</ele>
        <time>2019-12-24T18:51:14Z</time>
      </trkpt>
      <trkpt lat="42.64187" lon="2.87711">
        <ele>40.9</ele>
        <time>2019-12-24T18:51:18Z</time>
      </trkpt>
      <trkpt lat="42.64178" lon="2.87688">
        <ele>41</ele>
        <time>2019-12-24T18:51:19Z</time>
      </trkpt>
      <trkpt lat="42.64163" lon="2.87659">
        <ele>41.2</ele>
        <time>2019-12-24T18:51:23Z</time>
      </trkpt>
      <trkpt lat="42.64156" lon="2.87631">
        <ele>41.6</ele>
        <time>2019-12-24T18:51:28Z</time>
      </trkpt>
      <trkpt lat="42.64167" lon="2.87626">
        <ele>41.8</ele>
        <time>2019-12-24T18:51:34Z</time>
      </trkpt>
      <trkpt lat="42.64174" lon="2.87615">
        <ele>41.9</ele>
        <time>2019-12-24T18:51:37Z</time>
      </trkpt>
      <trkpt lat="42.64177" lon="2.87609">
        <ele>41.9</ele>
        <time>2019-12-24T18:51:40Z</time>
      </trkpt>
      <trkpt lat="42.6418" lon="2.87593">
        <ele>42</ele>
        <time>2019-12-24T18:53:49Z</time>
      </trkpt>
      <trkpt lat="42.64173" lon="2.87575">
        <ele>42.3</ele>
        <time>2019-12-24T18:53:55Z</time>
      </trkpt>
      <trkpt lat="42.64165" lon="2.87562">
        <ele>41.9</ele>
        <time>2019-12-24T18:54:00Z</time>
      </trkpt>
      <trkpt lat="42.64153" lon="2.87558">
        <ele>41.9</ele>
        <time>2019-12-24T18:54:03Z</time>
      </trkpt>
      <trkpt lat="42.64149" lon="2.87537">
        <ele>41.8</ele>
        <time>2019-12-24T18:54:10Z</time>
      </trkpt>
      <trkpt lat="42.64114" lon="2.87434">
        <ele>41.4</ele>
        <time>2019-12-24T18:54:28Z</time>
      </trkpt>
      <trkpt lat="42.64098" lon="2.87393">
        <ele>41.5</ele>
        <time>2019-12-24T18:54:37Z</time>
      </trkpt>
      <trkpt lat="42.64093" lon="2.87382">
        <ele>41.6</ele>
        <time>2019-12-24T18:54:41Z</time>
      </trkpt>
      <trkpt lat="42.64088" lon="2.87375">
        <ele>41.7</ele>
        <time>2019-12-24T18:54:43Z</time>
      </trkpt>
      <trkpt lat="42.64073" lon="2.87349">
        <ele>41.6</ele>
        <time>2019-12-24T18:54:50Z</time>
      </trkpt>
      <trkpt lat="42.64056" lon="2.87322">
        <ele>41.9</ele>
        <time>2019-12-24T18:54:57Z</time>
      </trkpt>
      <trkpt lat="42.64031" lon="2.87287">
        <ele>42</ele>
        <time>2019-12-24T18:55:00Z</time>
      </trkpt>
      <trkpt lat="42.64" lon="2.87239">
        <ele>42.3</ele>
        <time>2019-12-24T18:55:04Z</time>
      </trkpt>
      <trkpt lat="42.63967" lon="2.8719">
        <ele>42.9</ele>
        <time>2019-12-24T18:55:07Z</time>
      </trkpt>
      <trkpt lat="42.63964" lon="2.87176">
        <ele>43</ele>
        <time>2019-12-24T18:55:13Z</time>
      </trkpt>
      <trkpt lat="42.63968" lon="2.87175">
        <ele>42.9</ele>
        <time>2019-12-24T18:55:17Z</time>
      </trkpt>
      <trkpt lat="42.63972" lon="2.87172">
        <ele>42.9</ele>
        <time>2019-12-24T18:55:23Z</time>
      </trkpt>
      <trkpt lat="42.63975" lon="2.87164">
        <ele>43.6</ele>
        <time>2019-12-24T18:55:32Z</time>
      </trkpt>
      <trkpt lat="42.63975" lon="2.87155">
        <ele>43.7</ele>
        <time>2019-12-24T18:55:41Z</time>
      </trkpt>
      <trkpt lat="42.63974" lon="2.8715">
        <ele>43.8</ele>
        <time>2019-12-24T18:55:49Z</time>
      </trkpt>
      <trkpt lat="42.63971" lon="2.87143">
        <ele>43.8</ele>
        <time>2019-12-24T18:56:00Z</time>
      </trkpt>
      <trkpt lat="42.63966" lon="2.87142">
        <ele>43.9</ele>
        <time>2019-12-24T18:56:09Z</time>
      </trkpt>
      <trkpt lat="42.63959" lon="2.87145">
        <ele>43.9</ele>
        <time>2019-12-24T18:56:15Z</time>
      </trkpt>
      <trkpt lat="42.63954" lon="2.8715">
        <ele>43.9</ele>
        <time>2019-12-24T18:56:19Z</time>
      </trkpt>
      <trkpt lat="42.63953" lon="2.87157">
        <ele>43.9</ele>
        <time>2019-12-24T18:56:22Z</time>
      </trkpt>
      <trkpt lat="42.63949" lon="2.87156">
        <ele>43.9</ele>
        <time>2019-12-24T18:56:31Z</time>
      </trkpt>
      <trkpt lat="42.63941" lon="2.87152">
        <ele>43.9</ele>
        <time>2019-12-24T18:56:39Z</time>
      </trkpt>
      <trkpt lat="42.63937" lon="2.87148">
        <ele>43.9</ele>
        <time>2019-12-24T18:56:48Z</time>
      </trkpt>
      <trkpt lat="42.63935" lon="2.87144">
        <ele>44</ele>
        <time>2019-12-24T18:56:53Z</time>
      </trkpt>
      <trkpt lat="42.63927" lon="2.87134">
        <ele>44</ele>
        <time>2019-12-24T18:56:55Z</time>
      </trkpt>
      <trkpt lat="42.63903" lon="2.87097">
        <ele>44</ele>
        <time>2019-12-24T18:56:56Z</time>
      </trkpt>
      <trkpt lat="42.63882" lon="2.87066">
        <ele>44.5</ele>
        <time>2019-12-24T18:56:57Z</time>
      </trkpt>
      <trkpt lat="42.63873" lon="2.87055">
        <ele>44.6</ele>
        <time>2019-12-24T18:57:05Z</time>
      </trkpt>
      <trkpt lat="42.63823" lon="2.8698">
        <ele>46.4</ele>
        <time>2019-12-24T18:57:09Z</time>
      </trkpt>
      <trkpt lat="42.63807" lon="2.86948">
        <ele>46.9</ele>
        <time>2019-12-24T18:57:09Z</time>
      </trkpt>
      <trkpt lat="42.63799" lon="2.86938">
        <ele>46.9</ele>
        <time>2019-12-24T18:57:17Z</time>
      </trkpt>
      <trkpt lat="42.63803" lon="2.86909">
        <ele>48.7</ele>
        <time>2019-12-24T18:57:25Z</time>
      </trkpt>
      <trkpt lat="42.63797" lon="2.86882">
        <ele>48.9</ele>
        <time>2019-12-24T18:57:35Z</time>
      </trkpt>
      <trkpt lat="42.63789" lon="2.86862">
        <ele>49.2</ele>
        <time>2019-12-24T18:57:40Z</time>
      </trkpt>
      <trkpt lat="42.63789" lon="2.86834">
        <ele>49.5</ele>
        <time>2019-12-24T18:57:41Z</time>
      </trkpt>
      <trkpt lat="42.6378" lon="2.86808">
        <ele>51.2</ele>
        <time>2019-12-24T18:57:44Z</time>
      </trkpt>
      <trkpt lat="42.63787" lon="2.86797">
        <ele>51.4</ele>
        <time>2019-12-24T18:57:52Z</time>
      </trkpt>
      <trkpt lat="42.63777" lon="2.86755">
        <ele>51.8</ele>
        <time>2019-12-24T18:58:11Z</time>
      </trkpt>
      <trkpt lat="42.63752" lon="2.86678">
        <ele>53</ele>
        <time>2019-12-24T18:58:25Z</time>
      </trkpt>
      <trkpt lat="42.63704" lon="2.86684">
        <ele>51</ele>
        <time>2019-12-24T18:58:31Z</time>
      </trkpt>
      <trkpt lat="42.63699" lon="2.86682">
        <ele>50.9</ele>
        <time>2019-12-24T18:58:38Z</time>
      </trkpt>
      <trkpt lat="42.63689" lon="2.86644">
        <ele>51.5</ele>
        <time>2019-12-24T18:58:48Z</time>
      </trkpt>
      <trkpt lat="42.63679" lon="2.86597">
        <ele>51.5</ele>
        <time>2019-12-24T18:58:54Z</time>
      </trkpt>
      <trkpt lat="42.63673" lon="2.8658">
        <ele>51.5</ele>
        <time>2019-12-24T18:58:59Z</time>
      </trkpt>
      <trkpt lat="42.63661" lon="2.86565">
        <ele>50.8</ele>
        <time>2019-12-24T18:59:01Z</time>
      </trkpt>
      <trkpt lat="42.63626" lon="2.86532">
        <ele>50.6</ele>
        <time>2019-12-24T18:59:11Z</time>
      </trkpt>
      <trkpt lat="42.63601" lon="2.86516">
        <ele>50.3</ele>
        <time>2019-12-24T18:59:27Z</time>
      </trkpt>
      <trkpt lat="42.63564" lon="2.86477">
        <ele>50.4</ele>
        <time>2019-12-24T18:59:30Z</time>
      </trkpt>
      <trkpt lat="42.63544" lon="2.8645">
        <ele>50.6</ele>
        <time>2019-12-24T18:59:33Z</time>
      </trkpt>
      <trkpt lat="42.6353" lon="2.86429">
        <ele>50.7</ele>
        <time>2019-12-24T18:59:37Z</time>
      </trkpt>
      <trkpt lat="42.63512" lon="2.86399">
        <ele>51.3</ele>
        <time>2019-12-24T18:59:46Z</time>
      </trkpt>
      <trkpt lat="42.63501" lon="2.86364">
        <ele>51.2</ele>
        <time>2019-12-24T18:59:53Z</time>
      </trkpt>
      <trkpt lat="42.6349" lon="2.86316">
        <ele>49</ele>
        <time>2019-12-24T19:00:04Z</time>
      </trkpt>
      <trkpt lat="42.6348" lon="2.86281">
        <ele>49</ele>
        <time>2019-12-24T19:00:15Z</time>
      </trkpt>
      <trkpt lat="42.63465" lon="2.86224">
        <ele>49.9</ele>
        <time>2019-12-24T19:00:27Z</time>
      </trkpt>
      <trkpt lat="42.63452" lon="2.86181">
        <ele>49.6</ele>
        <time>2019-12-24T19:00:51Z</time>
      </trkpt>
      <trkpt lat="42.63445" lon="2.86145">
        <ele>50.6</ele>
        <time>2019-12-24T19:01:04Z</time>
      </trkpt>
      <trkpt lat="42.6344" lon="2.86103">
        <ele>51.2</ele>
        <time>2019-12-24T19:01:09Z</time>
      </trkpt>
      <trkpt lat="42.63427" lon="2.86025">
        <ele>53.5</ele>
        <time>2019-12-24T19:01:15Z</time>
      </trkpt>
      <trkpt lat="42.63424" lon="2.8601">
        <ele>53.8</ele>
        <time>2019-12-24T19:01:20Z</time>
      </trkpt>
      <trkpt lat="42.63416" lon="2.85995">
        <ele>53.7</ele>
        <time>2019-12-24T19:01:41Z</time>
      </trkpt>
      <trkpt lat="42.63407" lon="2.85976">
        <ele>53.1</ele>
        <time>2019-12-24T19:01:47Z</time>
      </trkpt>
      <trkpt lat="42.63383" lon="2.85947">
        <ele>52.5</ele>
        <time>2019-12-24T19:01:52Z</time>
      </trkpt>
      <trkpt lat="42.63363" lon="2.85931">
        <ele>52.1</ele>
        <time>2019-12-24T19:02:01Z</time>
      </trkpt>
      <trkpt lat="42.63324" lon="2.85912">
        <ele>51.2</ele>
        <time>2019-12-24T19:02:10Z</time>
      </trkpt>
      <trkpt lat="42.63275" lon="2.85888">
        <ele>51.4</ele>
        <time>2019-12-24T19:02:31Z</time>
      </trkpt>
      <trkpt lat="42.63257" lon="2.85873">
        <ele>51.5</ele>
        <time>2019-12-24T19:02:40Z</time>
      </trkpt>
      <trkpt lat="42.63233" lon="2.85848">
        <ele>51.7</ele>
        <time>2019-12-24T19:02:41Z</time>
      </trkpt>
      <trkpt lat="42.63211" lon="2.85815">
        <ele>52.6</ele>
        <time>2019-12-24T19:02:54Z</time>
      </trkpt>
      <trkpt lat="42.63198" lon="2.85783">
        <ele>52.8</ele>
        <time>2019-12-24T19:02:57Z</time>
      </trkpt>
      <trkpt lat="42.63189" lon="2.85758">
        <ele>52.9</ele>
        <time>2019-12-24T19:03:12Z</time>
      </trkpt>
      <trkpt lat="42.63179" lon="2.8571">
        <ele>53.7</ele>
        <time>2019-12-24T19:03:15Z</time>
      </trkpt>
      <trkpt lat="42.63155" lon="2.85575">
        <ele>55.6</ele>
        <time>2019-12-24T19:03:23Z</time>
      </trkpt>
      <trkpt lat="42.63143" lon="2.85504">
        <ele>56</ele>
        <time>2019-12-24T19:03:26Z</time>
      </trkpt>
      <trkpt lat="42.6314" lon="2.8548">
        <ele>55.9</ele>
        <time>2019-12-24T19:03:32Z</time>
      </trkpt>
      <trkpt lat="42.63141" lon="2.85459">
        <ele>55.8</ele>
        <time>2019-12-24T19:03:41Z</time>
      </trkpt>
      <trkpt lat="42.63144" lon="2.85409">
        <ele>56.6</ele>
        <time>2019-12-24T19:03:42Z</time>
      </trkpt>
      <trkpt lat="42.63147" lon="2.85357">
        <ele>56.9</ele>
        <time>2019-12-24T19:03:48Z</time>
      </trkpt>
      <trkpt lat="42.6314" lon="2.85338">
        <ele>57</ele>
        <time>2019-12-24T19:03:52Z</time>
      </trkpt>
      <trkpt lat="42.63127" lon="2.85312">
        <ele>57.6</ele>
        <time>2019-12-24T19:03:58Z</time>
      </trkpt>
      <trkpt lat="42.63111" lon="2.85294">
        <ele>57.5</ele>
        <time>2019-12-24T19:04:04Z</time>
      </trkpt>
      <trkpt lat="42.63082" lon="2.8528">
        <ele>56.2</ele>
        <time>2019-12-24T19:04:06Z</time>
      </trkpt>
      <trkpt lat="42.6306" lon="2.85266">
        <ele>56.3</ele>
        <time>2019-12-24T19:04:06Z</time>
      </trkpt>
      <trkpt lat="42.63036" lon="2.85234">
        <ele>57.4</ele>
        <time>2019-12-24T19:04:09Z</time>
      </trkpt>
      <trkpt lat="42.63005" lon="2.85185">
        <ele>57.4</ele>
        <time>2019-12-24T19:04:17Z</time>
      </trkpt>
      <trkpt lat="42.62969" lon="2.85132">
        <ele>57.5</ele>
        <time>2019-12-24T19:04:23Z</time>
      </trkpt>
      <trkpt lat="42.62944" lon="2.85084">
        <ele>57.6</ele>
        <time>2019-12-24T19:04:27Z</time>
      </trkpt>
      <trkpt lat="42.62901" lon="2.85019">
        <ele>58.2</ele>
        <time>2019-12-24T19:04:28Z</time>
      </trkpt>
      <trkpt lat="42.62874" lon="2.84959">
        <ele>59.5</ele>
        <time>2019-12-24T19:04:33Z</time>
      </trkpt>
      <trkpt lat="42.62859" lon="2.84919">
        <ele>59.2</ele>
        <time>2019-12-24T19:04:40Z</time>
      </trkpt>
      <trkpt lat="42.62856" lon="2.84889">
        <ele>60.1</ele>
        <time>2019-12-24T19:04:48Z</time>
      </trkpt>
      <trkpt lat="42.62856" lon="2.84865">
        <ele>60.1</ele>
        <time>2019-12-24T19:04:49Z</time>
      </trkpt>
      <trkpt lat="42.62862" lon="2.84799">
        <ele>61.9</ele>
        <time>2019-12-24T19:04:51Z</time>
      </trkpt>
      <trkpt lat="42.62864" lon="2.84735">
        <ele>65.1</ele>
        <time>2019-12-24T19:04:52Z</time>
      </trkpt>
      <trkpt lat="42.62871" lon="2.84667">
        <ele>66.8</ele>
        <time>2019-12-24T19:04:55Z</time>
      </trkpt>
      <trkpt lat="42.62876" lon="2.84633">
        <ele>67.8</ele>
        <time>2019-12-24T19:04:56Z</time>
      </trkpt>
      <trkpt lat="42.62877" lon="2.84616">
        <ele>67.7</ele>
        <time>2019-12-24T19:04:59Z</time>
      </trkpt>
      <trkpt lat="42.62877" lon="2.84612">
        <ele>67.7</ele>
        <time>2019-12-24T19:05:00Z</time>
      </trkpt>
      <trkpt lat="42.62875" lon="2.84603">
        <ele>67.7</ele>
        <time>2019-12-24T19:05:03Z</time>
      </trkpt>
      <trkpt lat="42.6284" lon="2.84559">
        <ele>67.7</ele>
        <time>2019-12-24T19:05:07Z</time>
      </trkpt>
      <trkpt lat="42.62827" lon="2.8454">
        <ele>67</ele>
        <time>2019-12-24T19:05:11Z</time>
      </trkpt>
      <trkpt lat="42.62826" lon="2.84537">
        <ele>67</ele>
        <time>2019-12-24T19:05:12Z</time>
      </trkpt>
      <trkpt lat="42.62791" lon="2.84496">
        <ele>67.1</ele>
        <time>2019-12-24T19:05:16Z</time>
      </trkpt>
      <trkpt lat="42.62765" lon="2.84455">
        <ele>67.2</ele>
        <time>2019-12-24T19:05:18Z</time>
      </trkpt>
      <trkpt lat="42.62737" lon="2.84384">
        <ele>67.6</ele>
        <time>2019-12-24T19:05:26Z</time>
      </trkpt>
      <trkpt lat="42.62725" lon="2.84351">
        <ele>67.8</ele>
        <time>2019-12-24T19:05:31Z</time>
      </trkpt>
      <trkpt lat="42.62725" lon="2.84344">
        <ele>67.8</ele>
        <time>2019-12-24T19:06:29Z</time>
      </trkpt>
      <trkpt lat="42.62718" lon="2.84324">
        <ele>68.7</ele>
        <time>2019-12-24T19:06:42Z</time>
      </trkpt>
      <trkpt lat="42.62698" lon="2.84264">
        <ele>68.7</ele>
        <time>2019-12-24T19:06:50Z</time>
      </trkpt>
      <trkpt lat="42.62653" lon="2.84137">
        <ele>68.4</ele>
        <time>2019-12-24T19:07:16Z</time>
      </trkpt>
      <trkpt lat="42.62619" lon="2.84036">
        <ele>68.6</ele>
        <time>2019-12-24T19:07:19Z</time>
      </trkpt>
      <trkpt lat="42.62608" lon="2.83992">
        <ele>68.5</ele>
        <time>2019-12-24T19:07:34Z</time>
      </trkpt>
      <trkpt lat="42.626" lon="2.83946">
        <ele>68.6</ele>
        <time>2019-12-24T19:07:38Z</time>
      </trkpt>
      <trkpt lat="42.62591" lon="2.83869">
        <ele>68.2</ele>
        <time>2019-12-24T19:07:40Z</time>
      </trkpt>
      <trkpt lat="42.62586" lon="2.8382">
        <ele>67.4</ele>
        <time>2019-12-24T19:07:43Z</time>
      </trkpt>
      <trkpt lat="42.62584" lon="2.83785">
        <ele>68.4</ele>
        <time>2019-12-24T19:07:57Z</time>
      </trkpt>
      <trkpt lat="42.62587" lon="2.83769">
        <ele>68.2</ele>
        <time>2019-12-24T19:07:58Z</time>
      </trkpt>
      <trkpt lat="42.62603" lon="2.83693">
        <ele>68.8</ele>
        <time>2019-12-24T19:08:07Z</time>
      </trkpt>
      <trkpt lat="42.62629" lon="2.83576">
        <ele>72</ele>
        <time>2019-12-24T19:08:15Z</time>
      </trkpt>
      <trkpt lat="42.62632" lon="2.83559">
        <ele>72.1</ele>
        <time>2019-12-24T19:08:17Z</time>
      </trkpt>
      <trkpt lat="42.6263" lon="2.83533">
        <ele>72.2</ele>
        <time>2019-12-24T19:08:24Z</time>
      </trkpt>
      <trkpt lat="42.62621" lon="2.83504">
        <ele>72.1</ele>
        <time>2019-12-24T19:08:27Z</time>
      </trkpt>
      <trkpt lat="42.62595" lon="2.83444">
        <ele>72.9</ele>
        <time>2019-12-24T19:08:31Z</time>
      </trkpt>
      <trkpt lat="42.62575" lon="2.83397">
        <ele>72.3</ele>
        <time>2019-12-24T19:08:31Z</time>
      </trkpt>
      <trkpt lat="42.6255" lon="2.83327">
        <ele>73.8</ele>
        <time>2019-12-24T19:08:35Z</time>
      </trkpt>
      <trkpt lat="42.62522" lon="2.83252">
        <ele>74.1</ele>
        <time>2019-12-24T19:08:36Z</time>
      </trkpt>
      <trkpt lat="42.62487" lon="2.83171">
        <ele>74.7</ele>
        <time>2019-12-24T19:08:39Z</time>
      </trkpt>
      <trkpt lat="42.62415" lon="2.83017">
        <ele>76.4</ele>
        <time>2019-12-24T19:08:43Z</time>
      </trkpt>
      <trkpt lat="42.6238" lon="2.82932">
        <ele>76.8</ele>
        <time>2019-12-24T19:08:47Z</time>
      </trkpt>
      <trkpt lat="42.6237" lon="2.82896">
        <ele>76.8</ele>
        <time>2019-12-24T19:08:52Z</time>
      </trkpt>
      <trkpt lat="42.62371" lon="2.82844">
        <ele>76.7</ele>
        <time>2019-12-24T19:08:54Z</time>
      </trkpt>
      <trkpt lat="42.62372" lon="2.82813">
        <ele>76.5</ele>
        <time>2019-12-24T19:08:55Z</time>
      </trkpt>
      <trkpt lat="42.62383" lon="2.82648">
        <ele>76.2</ele>
        <time>2019-12-24T19:08:57Z</time>
      </trkpt>
      <trkpt lat="42.62387" lon="2.82605">
        <ele>76.1</ele>
        <time>2019-12-24T19:09:00Z</time>
      </trkpt>
      <trkpt lat="42.62392" lon="2.82569">
        <ele>76.4</ele>
        <time>2019-12-24T19:09:02Z</time>
      </trkpt>
      <trkpt lat="42.62403" lon="2.82496">
        <ele>77.1</ele>
        <time>2019-12-24T19:09:05Z</time>
      </trkpt>
      <trkpt lat="42.62414" lon="2.82436">
        <ele>77.1</ele>
        <time>2019-12-24T19:09:06Z</time>
      </trkpt>
      <trkpt lat="42.62446" lon="2.82281">
        <ele>75.6</ele>
        <time>2019-12-24T19:09:06Z</time>
      </trkpt>
      <trkpt lat="42.62458" lon="2.82214">
        <ele>75.3</ele>
        <time>2019-12-24T19:09:07Z</time>
      </trkpt>
      <trkpt lat="42.62458" lon="2.82206">
        <ele>75.2</ele>
        <time>2019-12-24T19:09:13Z</time>
      </trkpt>
      <trkpt lat="42.62463" lon="2.82105">
        <ele>75</ele>
        <time>2019-12-24T19:09:17Z</time>
      </trkpt>
      <trkpt lat="42.62466" lon="2.8208">
        <ele>75.1</ele>
        <time>2019-12-24T19:09:19Z</time>
      </trkpt>
      <trkpt lat="42.62479" lon="2.8197">
        <ele>75.6</ele>
        <time>2019-12-24T19:09:21Z</time>
      </trkpt>
      <trkpt lat="42.62482" lon="2.81944">
        <ele>75.8</ele>
        <time>2019-12-24T19:09:23Z</time>
      </trkpt>
      <trkpt lat="42.62487" lon="2.81884">
        <ele>77.9</ele>
        <time>2019-12-24T19:09:25Z</time>
      </trkpt>
      <trkpt lat="42.62491" lon="2.8186">
        <ele>79.1</ele>
        <time>2019-12-24T19:09:27Z</time>
      </trkpt>
      <trkpt lat="42.625" lon="2.8182">
        <ele>82.5</ele>
        <time>2019-12-24T19:09:31Z</time>
      </trkpt>
      <trkpt lat="42.62516" lon="2.81757">
        <ele>84.5</ele>
        <time>2019-12-24T19:09:38Z</time>
      </trkpt>
      <trkpt lat="42.62518" lon="2.81748">
        <ele>86.7</ele>
        <time>2019-12-24T19:09:43Z</time>
      </trkpt>
      <trkpt lat="42.62529" lon="2.81701">
        <ele>88.6</ele>
        <time>2019-12-24T19:09:43Z</time>
      </trkpt>
      <trkpt lat="42.62532" lon="2.81676">
        <ele>89.2</ele>
        <time>2019-12-24T19:09:44Z</time>
      </trkpt>
      <trkpt lat="42.62537" lon="2.8164">
        <ele>92.6</ele>
        <time>2019-12-24T19:09:50Z</time>
      </trkpt>
      <trkpt lat="42.62541" lon="2.81609">
        <ele>93.4</ele>
        <time>2019-12-24T19:09:51Z</time>
      </trkpt>
      <trkpt lat="42.62543" lon="2.81595">
        <ele>93.7</ele>
        <time>2019-12-24T19:09:53Z</time>
      </trkpt>
      <trkpt lat="42.62549" lon="2.81549">
        <ele>96.5</ele>
        <time>2019-12-24T19:09:54Z</time>
      </trkpt>
      <trkpt lat="42.6255" lon="2.81524">
        <ele>97</ele>
        <time>2019-12-24T19:09:57Z</time>
      </trkpt>
      <trkpt lat="42.62552" lon="2.81508">
        <ele>97.4</ele>
        <time>2019-12-24T19:09:59Z</time>
      </trkpt>
      <trkpt lat="42.62554" lon="2.81498">
        <ele>99.6</ele>
        <time>2019-12-24T19:10:03Z</time>
      </trkpt>
      <trkpt lat="42.62556" lon="2.81477">
        <ele>99.9</ele>
        <time>2019-12-24T19:10:06Z</time>
      </trkpt>
      <trkpt lat="42.62555" lon="2.81471">
        <ele>100</ele>
        <time>2019-12-24T19:10:11Z</time>
      </trkpt>
      <trkpt lat="42.62559" lon="2.81444">
        <ele>100.8</ele>
        <time>2019-12-24T19:10:13Z</time>
      </trkpt>
      <trkpt lat="42.62558" lon="2.81439">
        <ele>101</ele>
        <time>2019-12-24T19:10:19Z</time>
      </trkpt>
      <trkpt lat="42.6256" lon="2.81417">
        <ele>101.6</ele>
        <time>2019-12-24T19:10:25Z</time>
      </trkpt>
      <trkpt lat="42.6256" lon="2.81388">
        <ele>103.9</ele>
        <time>2019-12-24T19:10:26Z</time>
      </trkpt>
      <trkpt lat="42.62538" lon="2.81379">
        <ele>103.6</ele>
        <time>2019-12-24T19:10:27Z</time>
      </trkpt>
      <trkpt lat="42.62531" lon="2.81375">
        <ele>103.5</ele>
        <time>2019-12-24T19:10:27Z</time>
      </trkpt>
      <trkpt lat="42.62514" lon="2.81362">
        <ele>103.6</ele>
        <time>2019-12-24T19:10:28Z</time>
      </trkpt>
      <trkpt lat="42.62505" lon="2.8135">
        <ele>103.8</ele>
        <time>2019-12-24T19:10:28Z</time>
      </trkpt>
      <trkpt lat="42.62467" lon="2.8131">
        <ele>101.9</ele>
        <time>2019-12-24T19:10:32Z</time>
      </trkpt>
      <trkpt lat="42.62445" lon="2.81288">
        <ele>101.4</ele>
        <time>2019-12-24T19:10:34Z</time>
      </trkpt>
      <trkpt lat="42.62433" lon="2.81281">
        <ele>101.2</ele>
        <time>2019-12-24T19:10:36Z</time>
      </trkpt>
      <trkpt lat="42.62418" lon="2.81275">
        <ele>101.1</ele>
        <time>2019-12-24T19:10:36Z</time>
      </trkpt>
      <trkpt lat="42.624" lon="2.81268">
        <ele>98.9</ele>
        <time>2019-12-24T19:10:38Z</time>
      </trkpt>
      <trkpt lat="42.62354" lon="2.81244">
        <ele>100</ele>
        <time>2019-12-24T19:10:40Z</time>
      </trkpt>
      <trkpt lat="42.62356" lon="2.81238">
        <ele>100.2</ele>
        <time>2019-12-24T19:10:43Z</time>
      </trkpt>
      <trkpt lat="42.62353" lon="2.81228">
        <ele>100.5</ele>
        <time>2019-12-24T19:10:45Z</time>
      </trkpt>
      <trkpt lat="42.62349" lon="2.81224">
        <ele>100.5</ele>
        <time>2019-12-24T19:10:47Z</time>
      </trkpt>
      <trkpt lat="42.62344" lon="2.81222">
        <ele>100.5</ele>
        <time>2019-12-24T19:10:50Z</time>
      </trkpt>
      <trkpt lat="42.62339" lon="2.81223">
        <ele>100.4</ele>
        <time>2019-12-24T19:11:03Z</time>
      </trkpt>
      <trkpt lat="42.62335" lon="2.81228">
        <ele>100</ele>
        <time>2019-12-24T19:11:07Z</time>
      </trkpt>
      <trkpt lat="42.62311" lon="2.81214">
        <ele>99.1</ele>
        <time>2019-12-24T19:11:09Z</time>
      </trkpt>
      <trkpt lat="42.62249" lon="2.81177">
        <ele>99.2</ele>
        <time>2019-12-24T19:11:13Z</time>
      </trkpt>
      <trkpt lat="42.62151" lon="2.81136">
        <ele>102</ele>
        <time>2019-12-24T19:11:18Z</time>
      </trkpt>
      <trkpt lat="42.62081" lon="2.81112">
        <ele>103.7</ele>
        <time>2019-12-24T19:11:21Z</time>
      </trkpt>
      <trkpt lat="42.62038" lon="2.81107">
        <ele>103.2</ele>
        <time>2019-12-24T19:11:27Z</time>
      </trkpt>
      <trkpt lat="42.6189" lon="2.81095">
        <ele>102.7</ele>
        <time>2019-12-24T19:11:28Z</time>
      </trkpt>
      <trkpt lat="42.61876" lon="2.81098">
        <ele>102.6</ele>
        <time>2019-12-24T19:11:36Z</time>
      </trkpt>
      <trkpt lat="42.61798" lon="2.81146">
        <ele>103.6</ele>
        <time>2019-12-24T19:11:41Z</time>
      </trkpt>
      <trkpt lat="42.61775" lon="2.81158">
        <ele>103.8</ele>
        <time>2019-12-24T19:11:49Z</time>
      </trkpt>
      <trkpt lat="42.61765" lon="2.81156">
        <ele>103.9</ele>
        <time>2019-12-24T19:11:53Z</time>
      </trkpt>
      <trkpt lat="42.61747" lon="2.81152">
        <ele>103.7</ele>
        <time>2019-12-24T19:11:57Z</time>
      </trkpt>
      <trkpt lat="42.61673" lon="2.81124">
        <ele>102.8</ele>
        <time>2019-12-24T19:12:00Z</time>
      </trkpt>
      <trkpt lat="42.61665" lon="2.81121">
        <ele>101</ele>
        <time>2019-12-24T19:12:14Z</time>
      </trkpt>
      <trkpt lat="42.61617" lon="2.81101">
        <ele>100.6</ele>
        <time>2019-12-24T19:12:39Z</time>
      </trkpt>
      <trkpt lat="42.61574" lon="2.81087">
        <ele>99.7</ele>
        <time>2019-12-24T19:12:47Z</time>
      </trkpt>
      <trkpt lat="42.61565" lon="2.81077">
        <ele>100.1</ele>
        <time>2019-12-24T19:12:54Z</time>
      </trkpt>
      <trkpt lat="42.61541" lon="2.81035">
        <ele>99.5</ele>
        <time>2019-12-24T19:12:57Z</time>
      </trkpt>
      <trkpt lat="42.61531" lon="2.81022">
        <ele>99.4</ele>
        <time>2019-12-24T19:13:04Z</time>
      </trkpt>
      <trkpt lat="42.61511" lon="2.81008">
        <ele>99.2</ele>
        <time>2019-12-24T19:13:08Z</time>
      </trkpt>
      <trkpt lat="42.61509" lon="2.81006">
        <ele>99.2</ele>
        <time>2019-12-24T19:13:12Z</time>
      </trkpt>
      <trkpt lat="42.61487" lon="2.81">
        <ele>97.9</ele>
        <time>2019-12-24T19:13:16Z</time>
      </trkpt>
      <trkpt lat="42.61483" lon="2.81003">
        <ele>97</ele>
        <time>2019-12-24T19:13:20Z</time>
      </trkpt>
      <trkpt lat="42.6147" lon="2.81017">
        <ele>95.9</ele>
        <time>2019-12-24T19:13:26Z</time>
      </trkpt>
      <trkpt lat="42.61451" lon="2.81038">
        <ele>95</ele>
        <time>2019-12-24T19:13:30Z</time>
      </trkpt>
      <trkpt lat="42.61433" lon="2.81058">
        <ele>94.4</ele>
        <time>2019-12-24T19:13:36Z</time>
      </trkpt>
      <trkpt lat="42.61415" lon="2.81077">
        <ele>92.4</ele>
        <time>2019-12-24T19:13:39Z</time>
      </trkpt>
      <trkpt lat="42.61408" lon="2.81065">
        <ele>91.5</ele>
        <time>2019-12-24T19:13:43Z</time>
      </trkpt>
      <trkpt lat="42.61403" lon="2.81062">
        <ele>91.3</ele>
        <time>2019-12-24T19:14:11Z</time>
      </trkpt>
      <trkpt lat="42.61391" lon="2.81062">
        <ele>90.9</ele>
        <time>2019-12-24T19:14:21Z</time>
      </trkpt>
      <trkpt lat="42.61373" lon="2.81056">
        <ele>90.3</ele>
        <time>2019-12-24T19:14:24Z</time>
      </trkpt>
      <trkpt lat="42.61364" lon="2.81053">
        <ele>90.1</ele>
        <time>2019-12-24T19:14:32Z</time>
      </trkpt>
      <trkpt lat="42.61347" lon="2.81046">
        <ele>89.6</ele>
        <time>2019-12-24T19:14:42Z</time>
      </trkpt>
      <trkpt lat="42.61341" lon="2.81047">
        <ele>89.6</ele>
        <time>2019-12-24T19:14:47Z</time>
      </trkpt>
      <trkpt lat="42.61338" lon="2.81045">
        <ele>89.5</ele>
        <time>2019-12-24T19:14:51Z</time>
      </trkpt>
      <trkpt lat="42.61335" lon="2.81045">
        <ele>89.5</ele>
        <time>2019-12-24T19:14:56Z</time>
      </trkpt>
      <trkpt lat="42.61304" lon="2.81026">
        <ele>86.8</ele>
        <time>2019-12-24T19:15:07Z</time>
      </trkpt>
      <trkpt lat="42.61309" lon="2.80997">
        <ele>86.4</ele>
        <time>2019-12-24T19:15:11Z</time>
      </trkpt>
      <trkpt lat="42.61311" lon="2.80981">
        <ele>86.3</ele>
        <time>2019-12-24T19:15:13Z</time>
      </trkpt>
      <trkpt lat="42.61309" lon="2.80965">
        <ele>86.2</ele>
        <time>2019-12-24T19:15:25Z</time>
      </trkpt>
      <trkpt lat="42.61304" lon="2.80951">
        <ele>86.1</ele>
        <time>2019-12-24T19:15:28Z</time>
      </trkpt>
      <trkpt lat="42.61298" lon="2.80939">
        <ele>86.1</ele>
        <time>2019-12-24T19:15:33Z</time>
      </trkpt>
      <trkpt lat="42.61288" lon="2.80928">
        <ele>86.5</ele>
        <time>2019-12-24T19:15:41Z</time>
      </trkpt>
      <trkpt lat="42.61269" lon="2.80912">
        <ele>88.4</ele>
        <time>2019-12-24T19:15:56Z</time>
      </trkpt>
      <trkpt lat="42.61238" lon="2.80885">
        <ele>92.6</ele>
        <time>2019-12-24T19:16:12Z</time>
      </trkpt>
      <trkpt lat="42.61216" lon="2.80866">
        <ele>93.8</ele>
        <time>2019-12-24T19:16:29Z</time>
      </trkpt>
      <trkpt lat="42.61213" lon="2.80863">
        <ele>93.9</ele>
        <time>2019-12-24T19:16:35Z</time>
      </trkpt>
      <trkpt lat="42.61209" lon="2.8086">
        <ele>94.1</ele>
        <time>2019-12-24T19:16:39Z</time>
      </trkpt>
      <trkpt lat="42.61181" lon="2.80837">
        <ele>96.1</ele>
        <time>2019-12-24T19:17:05Z</time>
      </trkpt>
      <trkpt lat="42.61177" lon="2.80833">
        <ele>96.9</ele>
        <time>2019-12-24T19:17:13Z</time>
      </trkpt>
      <trkpt lat="42.61164" lon="2.80822">
        <ele>97.6</ele>
        <time>2019-12-24T19:17:20Z</time>
      </trkpt>
      <trkpt lat="42.61163" lon="2.8082">
        <ele>97.6</ele>
        <time>2019-12-24T19:17:28Z</time>
      </trkpt>
      <trkpt lat="42.61148" lon="2.80811">
        <ele>97.3</ele>
        <time>2019-12-24T19:17:38Z</time>
      </trkpt>
      <trkpt lat="42.61135" lon="2.80802">
        <ele>97.2</ele>
        <time>2019-12-24T19:17:48Z</time>
      </trkpt>
      <trkpt lat="42.61113" lon="2.80791">
        <ele>97</ele>
        <time>2019-12-24T19:17:53Z</time>
      </trkpt>
      <trkpt lat="42.61112" lon="2.80774">
        <ele>96.6</ele>
        <time>2019-12-24T19:18:01Z</time>
      </trkpt>
      <trkpt lat="42.611" lon="2.80736">
        <ele>93.5</ele>
        <time>2019-12-24T19:18:25Z</time>
      </trkpt>
      <trkpt lat="42.61095" lon="2.80722">
        <ele>93</ele>
        <time>2019-12-24T19:18:32Z</time>
      </trkpt>
      <trkpt lat="42.61066" lon="2.80749">
        <ele>95</ele>
        <time>2019-12-24T19:18:42Z</time>
      </trkpt>
      <trkpt lat="42.61038" lon="2.80775">
        <ele>96.8</ele>
        <time>2019-12-24T19:18:54Z</time>
      </trkpt>
      <trkpt lat="42.61035" lon="2.80776">
        <ele>96.9</ele>
        <time>2019-12-24T19:18:59Z</time>
      </trkpt>
      <trkpt lat="42.61031" lon="2.80778">
        <ele>96.9</ele>
        <time>2019-12-24T19:19:06Z</time>
      </trkpt>
      <trkpt lat="42.6103" lon="2.80782">
        <ele>96.9</ele>
        <time>2019-12-24T19:19:20Z</time>
      </trkpt>
      <trkpt lat="42.6103" lon="2.80787">
        <ele>97</ele>
        <time>2019-12-24T19:19:24Z</time>
      </trkpt>
      <trkpt lat="42.61032" lon="2.8079">
        <ele>97</ele>
        <time>2019-12-24T19:19:38Z</time>
      </trkpt>
      <trkpt lat="42.61022" lon="2.80809">
        <ele>97.1</ele>
        <time>2019-12-24T19:19:46Z</time>
      </trkpt>
      <trkpt lat="42.61018" lon="2.80824">
        <ele>97.1</ele>
        <time>2019-12-24T19:19:46Z</time>
      </trkpt>
      <trkpt lat="42.61014" lon="2.8084">
        <ele>97.2</ele>
        <time>2019-12-24T19:19:49Z</time>
      </trkpt>
      <trkpt lat="42.61014" lon="2.80845">
        <ele>97.2</ele>
        <time>2019-12-24T19:19:52Z</time>
      </trkpt>
      <trkpt lat="42.61015" lon="2.80853">
        <ele>97.2</ele>
        <time>2019-12-24T19:19:53Z</time>
      </trkpt>
      <trkpt lat="42.61016" lon="2.8087">
        <ele>97.1</ele>
        <time>2019-12-24T19:19:55Z</time>
      </trkpt>
      <trkpt lat="42.61018" lon="2.80896">
        <ele>96.8</ele>
        <time>2019-12-24T19:20:00Z</time>
      </trkpt>
      <trkpt lat="42.61017" lon="2.8091">
        <ele>96.6</ele>
        <time>2019-12-24T19:20:04Z</time>
      </trkpt>
      <trkpt lat="42.61012" lon="2.80925">
        <ele>95.9</ele>
        <time>2019-12-24T19:20:05Z</time>
      </trkpt>
      <trkpt lat="42.61003" lon="2.80938">
        <ele>95.8</ele>
        <time>2019-12-24T19:20:07Z</time>
      </trkpt>
      <trkpt lat="42.60941" lon="2.80998">
        <ele>96.9</ele>
        <time>2019-12-24T19:20:08Z</time>
      </trkpt>
      <trkpt lat="42.60923" lon="2.8102">
        <ele>96.7</ele>
        <time>2019-12-24T19:20:12Z</time>
      </trkpt>
      <trkpt lat="42.60918" lon="2.81031">
        <ele>96.7</ele>
        <time>2019-12-24T19:20:14Z</time>
      </trkpt>
      <trkpt lat="42.60912" lon="2.81057">
        <ele>97.8</ele>
        <time>2019-12-24T19:20:17Z</time>
      </trkpt>
      <trkpt lat="42.60904" lon="2.81097">
        <ele>98.2</ele>
        <time>2019-12-24T19:20:21Z</time>
      </trkpt>
      <trkpt lat="42.60901" lon="2.8112">
        <ele>98.9</ele>
        <time>2019-12-24T19:20:23Z</time>
      </trkpt>
      <trkpt lat="42.60891" lon="2.81162">
        <ele>99.6</ele>
        <time>2019-12-24T19:20:25Z</time>
      </trkpt>
      <trkpt lat="42.6089" lon="2.8117">
        <ele>100.5</ele>
        <time>2019-12-24T19:20:26Z</time>
      </trkpt>
      <trkpt lat="42.60879" lon="2.81227">
        <ele>100.8</ele>
        <time>2019-12-24T19:20:30Z</time>
      </trkpt>
      <trkpt lat="42.60874" lon="2.81266">
        <ele>100.8</ele>
        <time>2019-12-24T19:20:33Z</time>
      </trkpt>
      <trkpt lat="42.6087" lon="2.81326">
        <ele>100.7</ele>
        <time>2019-12-24T19:20:34Z</time>
      </trkpt>
      <trkpt lat="42.60868" lon="2.81355">
        <ele>100</ele>
        <time>2019-12-24T19:20:34Z</time>
      </trkpt>
      <trkpt lat="42.60866" lon="2.8139">
        <ele>99.6</ele>
        <time>2019-12-24T19:20:38Z</time>
      </trkpt>
      <trkpt lat="42.6086" lon="2.81412">
        <ele>99.4</ele>
        <time>2019-12-24T19:20:39Z</time>
      </trkpt>
      <trkpt lat="42.60814" lon="2.81498">
        <ele>99</ele>
        <time>2019-12-24T19:20:42Z</time>
      </trkpt>
      <trkpt lat="42.60737" lon="2.81652">
        <ele>105.7</ele>
        <time>2019-12-24T19:20:43Z</time>
      </trkpt>
      <trkpt lat="42.60716" lon="2.81708">
        <ele>105.9</ele>
        <time>2019-12-24T19:20:45Z</time>
      </trkpt>
      <trkpt lat="42.60699" lon="2.81762">
        <ele>103.8</ele>
        <time>2019-12-24T19:20:46Z</time>
      </trkpt>
      <trkpt lat="42.6069" lon="2.8178">
        <ele>103.8</ele>
        <time>2019-12-24T19:20:48Z</time>
      </trkpt>
      <trkpt lat="42.60666" lon="2.81817">
        <ele>107.9</ele>
        <time>2019-12-24T19:20:50Z</time>
      </trkpt>
      <trkpt lat="42.60653" lon="2.8184">
        <ele>106</ele>
        <time>2019-12-24T19:20:53Z</time>
      </trkpt>
      <trkpt lat="42.60644" lon="2.81869">
        <ele>107.8</ele>
        <time>2019-12-24T19:20:55Z</time>
      </trkpt>
      <trkpt lat="42.60641" lon="2.81902">
        <ele>107.1</ele>
        <time>2019-12-24T19:20:59Z</time>
      </trkpt>
      <trkpt lat="42.60638" lon="2.81932">
        <ele>105.7</ele>
        <time>2019-12-24T19:21:00Z</time>
      </trkpt>
      <trkpt lat="42.60633" lon="2.81975">
        <ele>105.8</ele>
        <time>2019-12-24T19:21:08Z</time>
      </trkpt>
      <trkpt lat="42.60626" lon="2.82005">
        <ele>105.4</ele>
        <time>2019-12-24T19:21:10Z</time>
      </trkpt>
      <trkpt lat="42.60612" lon="2.82045">
        <ele>106</ele>
        <time>2019-12-24T19:21:11Z</time>
      </trkpt>
      <trkpt lat="42.60601" lon="2.82066">
        <ele>106.5</ele>
        <time>2019-12-24T19:21:12Z</time>
      </trkpt>
      <trkpt lat="42.60585" lon="2.82085">
        <ele>107.8</ele>
        <time>2019-12-24T19:21:14Z</time>
      </trkpt>
      <trkpt lat="42.60449" lon="2.82195">
        <ele>106.2</ele>
        <time>2019-12-24T19:21:15Z</time>
      </trkpt>
      <trkpt lat="42.60399" lon="2.82236">
        <ele>105.7</ele>
        <time>2019-12-24T19:21:17Z</time>
      </trkpt>
      <trkpt lat="42.6039" lon="2.82251">
        <ele>105</ele>
        <time>2019-12-24T19:21:20Z</time>
      </trkpt>
      <trkpt lat="42.60371" lon="2.82303">
        <ele>105.3</ele>
        <time>2019-12-24T19:21:22Z</time>
      </trkpt>
      <trkpt lat="42.60344" lon="2.82376">
        <ele>103.1</ele>
        <time>2019-12-24T19:21:24Z</time>
      </trkpt>
      <trkpt lat="42.60326" lon="2.82406">
        <ele>103.5</ele>
        <time>2019-12-24T19:21:25Z</time>
      </trkpt>
      <trkpt lat="42.6031" lon="2.82422">
        <ele>101.7</ele>
        <time>2019-12-24T19:21:27Z</time>
      </trkpt>
      <trkpt lat="42.60282" lon="2.82438">
        <ele>101.8</ele>
        <time>2019-12-24T19:21:28Z</time>
      </trkpt>
      <trkpt lat="42.60225" lon="2.82455">
        <ele>102.2</ele>
        <time>2019-12-24T19:21:32Z</time>
      </trkpt>
      <trkpt lat="42.60202" lon="2.8246">
        <ele>102.3</ele>
        <time>2019-12-24T19:21:38Z</time>
      </trkpt>
      <trkpt lat="42.6019" lon="2.82472">
        <ele>102</ele>
        <time>2019-12-24T19:21:39Z</time>
      </trkpt>
      <trkpt lat="42.60141" lon="2.82535">
        <ele>100.2</ele>
        <time>2019-12-24T19:21:41Z</time>
      </trkpt>
      <trkpt lat="42.60128" lon="2.82547">
        <ele>100.1</ele>
        <time>2019-12-24T19:21:44Z</time>
      </trkpt>
      <trkpt lat="42.60106" lon="2.82565">
        <ele>100.1</ele>
        <time>2019-12-24T19:21:47Z</time>
      </trkpt>
      <trkpt lat="42.60065" lon="2.8259">
        <ele>99.3</ele>
        <time>2019-12-24T19:21:47Z</time>
      </trkpt>
      <trkpt lat="42.59982" lon="2.82628">
        <ele>96.4</ele>
        <time>2019-12-24T19:21:48Z</time>
      </trkpt>
      <trkpt lat="42.59896" lon="2.82663">
        <ele>90.2</ele>
        <time>2019-12-24T19:21:49Z</time>
      </trkpt>
      <trkpt lat="42.59808" lon="2.8271">
        <ele>83.9</ele>
        <time>2019-12-24T19:21:52Z</time>
      </trkpt>
      <trkpt lat="42.59778" lon="2.82735">
        <ele>83.2</ele>
        <time>2019-12-24T19:22:00Z</time>
      </trkpt>
      <trkpt lat="42.59764" lon="2.82755">
        <ele>82.2</ele>
        <time>2019-12-24T19:22:08Z</time>
      </trkpt>
      <trkpt lat="42.59664" lon="2.82903">
        <ele>82.1</ele>
        <time>2019-12-24T19:22:14Z</time>
      </trkpt>
      <trkpt lat="42.59635" lon="2.82945">
        <ele>81.4</ele>
        <time>2019-12-24T19:22:20Z</time>
      </trkpt>
      <trkpt lat="42.59606" lon="2.82987">
        <ele>81.1</ele>
        <time>2019-12-24T19:22:32Z</time>
      </trkpt>
      <trkpt lat="42.59577" lon="2.8303">
        <ele>81.9</ele>
        <time>2019-12-24T19:22:32Z</time>
      </trkpt>
      <trkpt lat="42.59552" lon="2.83097">
        <ele>82.1</ele>
        <time>2019-12-24T19:22:37Z</time>
      </trkpt>
      <trkpt lat="42.5953" lon="2.83171">
        <ele>82.2</ele>
        <time>2019-12-24T19:23:01Z</time>
      </trkpt>
      <trkpt lat="42.59519" lon="2.832">
        <ele>82.2</ele>
        <time>2019-12-24T19:23:29Z</time>
      </trkpt>
      <trkpt lat="42.59491" lon="2.83249">
        <ele>82.3</ele>
        <time>2019-12-24T19:23:32Z</time>
      </trkpt>
      <trkpt lat="42.59407" lon="2.83393">
        <ele>83.2</ele>
        <time>2019-12-24T19:23:37Z</time>
      </trkpt>
      <trkpt lat="42.5938" lon="2.83435">
        <ele>83.4</ele>
        <time>2019-12-24T19:23:41Z</time>
      </trkpt>
      <trkpt lat="42.59336" lon="2.83475">
        <ele>84.2</ele>
        <time>2019-12-24T19:23:45Z</time>
      </trkpt>
      <trkpt lat="42.59277" lon="2.83531">
        <ele>84.3</ele>
        <time>2019-12-24T19:23:49Z</time>
      </trkpt>
      <trkpt lat="42.59253" lon="2.83549">
        <ele>84</ele>
        <time>2019-12-24T19:23:52Z</time>
      </trkpt>
      <trkpt lat="42.59215" lon="2.83559">
        <ele>82.4</ele>
        <time>2019-12-24T19:24:01Z</time>
      </trkpt>
      <trkpt lat="42.59138" lon="2.83574">
        <ele>80.6</ele>
        <time>2019-12-24T19:24:06Z</time>
      </trkpt>
      <trkpt lat="42.59116" lon="2.83583">
        <ele>80.7</ele>
        <time>2019-12-24T19:24:15Z</time>
      </trkpt>
      <trkpt lat="42.59045" lon="2.83628">
        <ele>80</ele>
        <time>2019-12-24T19:24:21Z</time>
      </trkpt>
      <trkpt lat="42.59009" lon="2.83659">
        <ele>80</ele>
        <time>2019-12-24T19:24:26Z</time>
      </trkpt>
      <trkpt lat="42.59008" lon="2.83663">
        <ele>80</ele>
        <time>2019-12-24T19:24:38Z</time>
      </trkpt>
      <trkpt lat="42.59001" lon="2.83682">
        <ele>79.9</ele>
        <time>2019-12-24T19:24:50Z</time>
      </trkpt>
      <trkpt lat="42.58993" lon="2.83702">
        <ele>81.1</ele>
        <time>2019-12-24T19:24:54Z</time>
      </trkpt>
      <trkpt lat="42.58989" lon="2.8371">
        <ele>81.2</ele>
        <time>2019-12-24T19:25:00Z</time>
      </trkpt>
      <trkpt lat="42.58983" lon="2.83721">
        <ele>81.3</ele>
        <time>2019-12-24T19:25:02Z</time>
      </trkpt>
      <trkpt lat="42.58961" lon="2.83748">
        <ele>81.8</ele>
        <time>2019-12-24T19:25:03Z</time>
      </trkpt>
      <trkpt lat="42.58945" lon="2.8377">
        <ele>83.6</ele>
        <time>2019-12-24T19:25:05Z</time>
      </trkpt>
      <trkpt lat="42.58941" lon="2.83777">
        <ele>83.8</ele>
        <time>2019-12-24T19:25:17Z</time>
      </trkpt>
      <trkpt lat="42.58934" lon="2.83789">
        <ele>84.1</ele>
        <time>2019-12-24T19:25:19Z</time>
      </trkpt>
      <trkpt lat="42.58934" lon="2.83796">
        <ele>84.3</ele>
        <time>2019-12-24T19:25:21Z</time>
      </trkpt>
      <trkpt lat="42.58915" lon="2.838">
        <ele>87.8</ele>
        <time>2019-12-24T19:25:25Z</time>
      </trkpt>
      <trkpt lat="42.58904" lon="2.83804">
        <ele>88.1</ele>
        <time>2019-12-24T19:25:53Z</time>
      </trkpt>
      <trkpt lat="42.58888" lon="2.83808">
        <ele>88.5</ele>
        <time>2019-12-24T19:25:54Z</time>
      </trkpt>
      <trkpt lat="42.58868" lon="2.83819">
        <ele>89.6</ele>
        <time>2019-12-24T19:26:02Z</time>
      </trkpt>
      <trkpt lat="42.58855" lon="2.83824">
        <ele>90.6</ele>
        <time>2019-12-24T19:26:13Z</time>
      </trkpt>
      <trkpt lat="42.58847" lon="2.83831">
        <ele>91.7</ele>
        <time>2019-12-24T19:26:18Z</time>
      </trkpt>
      <trkpt lat="42.58839" lon="2.83838">
        <ele>93</ele>
        <time>2019-12-24T19:26:28Z</time>
      </trkpt>
      <trkpt lat="42.58819" lon="2.83847">
        <ele>93.7</ele>
        <time>2019-12-24T19:26:42Z</time>
      </trkpt>
      <trkpt lat="42.58812" lon="2.83829">
        <ele>93.1</ele>
        <time>2019-12-24T19:26:48Z</time>
      </trkpt>
      <trkpt lat="42.58806" lon="2.83832">
        <ele>93.1</ele>
        <time>2019-12-24T19:26:51Z</time>
      </trkpt>
      <trkpt lat="42.58804" lon="2.83833">
        <ele>93.1</ele>
        <time>2019-12-24T19:26:59Z</time>
      </trkpt>
      <trkpt lat="42.58786" lon="2.83843">
        <ele>93.9</ele>
        <time>2019-12-24T19:27:07Z</time>
      </trkpt>
      <trkpt lat="42.58785" lon="2.8385">
        <ele>93.8</ele>
        <time>2019-12-24T19:27:19Z</time>
      </trkpt>
      <trkpt lat="42.58791" lon="2.83874">
        <ele>93.5</ele>
        <time>2019-12-24T19:27:26Z</time>
      </trkpt>
      <trkpt lat="42.58794" lon="2.83882">
        <ele>93.4</ele>
        <time>2019-12-24T19:27:31Z</time>
      </trkpt>
      <trkpt lat="42.58801" lon="2.83891">
        <ele>93.2</ele>
        <time>2019-12-24T19:27:52Z</time>
      </trkpt>
      <trkpt lat="42.58808" lon="2.83897">
        <ele>93.1</ele>
        <time>2019-12-24T19:28:03Z</time>
      </trkpt>
      <trkpt lat="42.58816" lon="2.83896">
        <ele>93</ele>
        <time>2019-12-24T19:28:10Z</time>
      </trkpt>
      <trkpt lat="42.58829" lon="2.83896">
        <ele>92.9</ele>
        <time>2019-12-24T19:28:13Z</time>
      </trkpt>
      <trkpt lat="42.58834" lon="2.83915">
        <ele>91.9</ele>
        <time>2019-12-24T19:28:28Z</time>
      </trkpt>
      <trkpt lat="42.58839" lon="2.83933">
        <ele>89.8</ele>
        <time>2019-12-24T19:28:29Z</time>
      </trkpt>
      <trkpt lat="42.58861" lon="2.83922">
        <ele>88.9</ele>
        <time>2019-12-24T19:28:32Z</time>
      </trkpt>
      <trkpt lat="42.58863" lon="2.83921">
        <ele>88.8</ele>
        <time>2019-12-24T19:28:41Z</time>
      </trkpt>
      <trkpt lat="42.58904" lon="2.83899">
        <ele>88.8</ele>
        <time>2019-12-24T19:28:42Z</time>
      </trkpt>
      <trkpt lat="42.58916" lon="2.83891">
        <ele>88.9</ele>
        <time>2019-12-24T19:28:43Z</time>
      </trkpt>
      <trkpt lat="42.5892" lon="2.83889">
        <ele>85.5</ele>
        <time>2019-12-24T19:28:46Z</time>
      </trkpt>
      <trkpt lat="42.58925" lon="2.83885">
        <ele>85.3</ele>
        <time>2019-12-24T19:28:50Z</time>
      </trkpt>
      <trkpt lat="42.58932" lon="2.83876">
        <ele>85.2</ele>
        <time>2019-12-24T19:28:54Z</time>
      </trkpt>
      <trkpt lat="42.58936" lon="2.83866">
        <ele>85.2</ele>
        <time>2019-12-24T19:28:55Z</time>
      </trkpt>
      <trkpt lat="42.58936" lon="2.83853">
        <ele>85.5</ele>
        <time>2019-12-24T19:28:57Z</time>
      </trkpt>
      <trkpt lat="42.58932" lon="2.83829">
        <ele>85.8</ele>
        <time>2019-12-24T19:28:58Z</time>
      </trkpt>
      <trkpt lat="42.58932" lon="2.83813">
        <ele>85</ele>
        <time>2019-12-24T19:29:02Z</time>
      </trkpt>
      <trkpt lat="42.58934" lon="2.83796">
        <ele>84.3</ele>
        <time>2019-12-24T19:29:09Z</time>
      </trkpt>
      <trkpt lat="42.58934" lon="2.83789">
        <ele>84.1</ele>
        <time>2019-12-24T19:29:12Z</time>
      </trkpt>
      <trkpt lat="42.58941" lon="2.83777">
        <ele>83.8</ele>
        <time>2019-12-24T19:29:15Z</time>
      </trkpt>
      <trkpt lat="42.58945" lon="2.8377">
        <ele>83.6</ele>
        <time>2019-12-24T19:29:16Z</time>
      </trkpt>
      <trkpt lat="42.58961" lon="2.83748">
        <ele>81.8</ele>
        <time>2019-12-24T19:29:17Z</time>
      </trkpt>
      <trkpt lat="42.58983" lon="2.83721">
        <ele>81.3</ele>
        <time>2019-12-24T19:29:17Z</time>
      </trkpt>
      <trkpt lat="42.58989" lon="2.8371">
        <ele>81.2</ele>
        <time>2019-12-24T19:29:24Z</time>
      </trkpt>
      <trkpt lat="42.58993" lon="2.83702">
        <ele>81.1</ele>
        <time>2019-12-24T19:29:28Z</time>
      </trkpt>
      <trkpt lat="42.59001" lon="2.83682">
        <ele>79.9</ele>
        <time>2019-12-24T19:29:30Z</time>
      </trkpt>
      <trkpt lat="42.59008" lon="2.83663">
        <ele>80</ele>
        <time>2019-12-24T19:29:37Z</time>
      </trkpt>
      <trkpt lat="42.59009" lon="2.83659">
        <ele>80</ele>
        <time>2019-12-24T19:29:43Z</time>
      </trkpt>
      <trkpt lat="42.59006" lon="2.83651">
        <ele>80</ele>
        <time>2019-12-24T19:29:49Z</time>
      </trkpt>
      <trkpt lat="42.59003" lon="2.83646">
        <ele>80</ele>
        <time>2019-12-24T19:29:54Z</time>
      </trkpt>
      <trkpt lat="42.5899" lon="2.83632">
        <ele>80.3</ele>
        <time>2019-12-24T19:29:59Z</time>
      </trkpt>
      <trkpt lat="42.58952" lon="2.83598">
        <ele>80.6</ele>
        <time>2019-12-24T19:30:03Z</time>
      </trkpt>
      <trkpt lat="42.58919" lon="2.8356">
        <ele>80.7</ele>
        <time>2019-12-24T19:30:06Z</time>
      </trkpt>
      <trkpt lat="42.58893" lon="2.83525">
        <ele>81.5</ele>
        <time>2019-12-24T19:30:09Z</time>
      </trkpt>
      <trkpt lat="42.58876" lon="2.83488">
        <ele>82</ele>
        <time>2019-12-24T19:30:12Z</time>
      </trkpt>
      <trkpt lat="42.58842" lon="2.83413">
        <ele>83.7</ele>
        <time>2019-12-24T19:30:23Z</time>
      </trkpt>
      <trkpt lat="42.5884" lon="2.83408">
        <ele>83.6</ele>
        <time>2019-12-24T19:30:25Z</time>
      </trkpt>
      <trkpt lat="42.58829" lon="2.83373">
        <ele>83.5</ele>
        <time>2019-12-24T19:30:30Z</time>
      </trkpt>
      <trkpt lat="42.58782" lon="2.83206">
        <ele>83.6</ele>
        <time>2019-12-24T19:30:55Z</time>
      </trkpt>
      <trkpt lat="42.5873" lon="2.83006">
        <ele>86.8</ele>
        <time>2019-12-24T19:31:11Z</time>
      </trkpt>
      <trkpt lat="42.58719" lon="2.82984">
        <ele>87</ele>
        <time>2019-12-24T19:31:20Z</time>
      </trkpt>
      <trkpt lat="42.58706" lon="2.82953">
        <ele>87.3</ele>
        <time>2019-12-24T19:31:28Z</time>
      </trkpt>
      <trkpt lat="42.58699" lon="2.82921">
        <ele>87.6</ele>
        <time>2019-12-24T19:31:36Z</time>
      </trkpt>
      <trkpt lat="42.58696" lon="2.82891">
        <ele>87.7</ele>
        <time>2019-12-24T19:31:43Z</time>
      </trkpt>
      <trkpt lat="42.58698" lon="2.82862">
        <ele>87.6</ele>
        <time>2019-12-24T19:31:46Z</time>
      </trkpt>
      <trkpt lat="42.587" lon="2.82836">
        <ele>87.7</ele>
        <time>2019-12-24T19:31:48Z</time>
      </trkpt>
      <trkpt lat="42.58706" lon="2.82768">
        <ele>87.9</ele>
        <time>2019-12-24T19:31:53Z</time>
      </trkpt>
      <trkpt lat="42.58706" lon="2.82732">
        <ele>88.3</ele>
        <time>2019-12-24T19:31:58Z</time>
      </trkpt>
      <trkpt lat="42.58698" lon="2.82662">
        <ele>88.9</ele>
        <time>2019-12-24T19:32:06Z</time>
      </trkpt>
      <trkpt lat="42.58689" lon="2.8262">
        <ele>89</ele>
        <time>2019-12-24T19:32:12Z</time>
      </trkpt>
      <trkpt lat="42.58678" lon="2.82586">
        <ele>89.5</ele>
        <time>2019-12-24T19:32:22Z</time>
      </trkpt>
      <trkpt lat="42.58631" lon="2.82519">
        <ele>90.7</ele>
        <time>2019-12-24T19:32:38Z</time>
      </trkpt>
      <trkpt lat="42.58587" lon="2.82454">
        <ele>91.9</ele>
        <time>2019-12-24T19:32:51Z</time>
      </trkpt>
      <trkpt lat="42.58569" lon="2.82429">
        <ele>92.1</ele>
        <time>2019-12-24T19:32:58Z</time>
      </trkpt>
      <trkpt lat="42.58542" lon="2.82407">
        <ele>91.7</ele>
        <time>2019-12-24T19:33:12Z</time>
      </trkpt>
      <trkpt lat="42.58535" lon="2.82395">
        <ele>91.5</ele>
        <time>2019-12-24T19:33:24Z</time>
      </trkpt>
      <trkpt lat="42.58533" lon="2.82385">
        <ele>91.5</ele>
        <time>2019-12-24T19:33:34Z</time>
      </trkpt>
      <trkpt lat="42.58534" lon="2.82367">
        <ele>91.4</ele>
        <time>2019-12-24T19:33:37Z</time>
      </trkpt>
      <trkpt lat="42.58549" lon="2.82284">
        <ele>91.6</ele>
        <time>2019-12-24T19:33:43Z</time>
      </trkpt>
      <trkpt lat="42.58549" lon="2.82269">
        <ele>91.7</ele>
        <time>2019-12-24T19:33:51Z</time>
      </trkpt>
      <trkpt lat="42.58541" lon="2.82255">
        <ele>91.7</ele>
        <time>2019-12-24T19:34:01Z</time>
      </trkpt>
      <trkpt lat="42.58526" lon="2.82227">
        <ele>92.4</ele>
        <time>2019-12-24T19:34:04Z</time>
      </trkpt>
      <trkpt lat="42.58427" lon="2.82068">
        <ele>94.3</ele>
        <time>2019-12-24T19:34:10Z</time>
      </trkpt>
      <trkpt lat="42.58423" lon="2.82056">
        <ele>94.8</ele>
        <time>2019-12-24T19:34:15Z</time>
      </trkpt>
      <trkpt lat="42.58419" lon="2.82">
        <ele>97.2</ele>
        <time>2019-12-24T19:34:19Z</time>
      </trkpt>
      <trkpt lat="42.58413" lon="2.81913">
        <ele>101</ele>
        <time>2019-12-24T19:34:23Z</time>
      </trkpt>
      <trkpt lat="42.58406" lon="2.81878">
        <ele>101.4</ele>
        <time>2019-12-24T19:34:34Z</time>
      </trkpt>
      <trkpt lat="42.58391" lon="2.81805">
        <ele>103.6</ele>
        <time>2019-12-24T19:34:45Z</time>
      </trkpt>
      <trkpt lat="42.58369" lon="2.81704">
        <ele>104.4</ele>
        <time>2019-12-24T19:34:48Z</time>
      </trkpt>
      <trkpt lat="42.58356" lon="2.8166">
        <ele>103.5</ele>
        <time>2019-12-24T19:34:49Z</time>
      </trkpt>
      <trkpt lat="42.58348" lon="2.81644">
        <ele>103.5</ele>
        <time>2019-12-24T19:34:51Z</time>
      </trkpt>
      <trkpt lat="42.5831" lon="2.816">
        <ele>104.5</ele>
        <time>2019-12-24T19:34:52Z</time>
      </trkpt>
      <trkpt lat="42.58281" lon="2.81562">
        <ele>106.6</ele>
        <time>2019-12-24T19:34:54Z</time>
      </trkpt>
      <trkpt lat="42.58232" lon="2.81495">
        <ele>109.6</ele>
        <time>2019-12-24T19:34:55Z</time>
      </trkpt>
      <trkpt lat="42.58204" lon="2.81454">
        <ele>111.1</ele>
        <time>2019-12-24T19:34:57Z</time>
      </trkpt>
      <trkpt lat="42.58184" lon="2.81433">
        <ele>111.5</ele>
        <time>2019-12-24T19:34:59Z</time>
      </trkpt>
      <trkpt lat="42.58085" lon="2.81339">
        <ele>117.4</ele>
        <time>2019-12-24T19:35:05Z</time>
      </trkpt>
      <trkpt lat="42.58038" lon="2.8129">
        <ele>119.6</ele>
        <time>2019-12-24T19:35:08Z</time>
      </trkpt>
      <trkpt lat="42.58008" lon="2.81258">
        <ele>121.1</ele>
        <time>2019-12-24T19:35:12Z</time>
      </trkpt>
      <trkpt lat="42.57994" lon="2.81243">
        <ele>122.9</ele>
        <time>2019-12-24T19:35:14Z</time>
      </trkpt>
      <trkpt lat="42.57911" lon="2.81244">
        <ele>125.1</ele>
        <time>2019-12-24T19:35:22Z</time>
      </trkpt>
      <trkpt lat="42.579" lon="2.81244">
        <ele>125.9</ele>
        <time>2019-12-24T19:35:26Z</time>
      </trkpt>
      <trkpt lat="42.57885" lon="2.81243">
        <ele>126.5</ele>
        <time>2019-12-24T19:35:26Z</time>
      </trkpt>
      <trkpt lat="42.57837" lon="2.81242">
        <ele>125.2</ele>
        <time>2019-12-24T19:35:27Z</time>
      </trkpt>
      <trkpt lat="42.57829" lon="2.81237">
        <ele>125.1</ele>
        <time>2019-12-24T19:35:30Z</time>
      </trkpt>
      <trkpt lat="42.57827" lon="2.81238">
        <ele>125</ele>
        <time>2019-12-24T19:35:31Z</time>
      </trkpt>
      <trkpt lat="42.57814" lon="2.81221">
        <ele>126</ele>
        <time>2019-12-24T19:35:32Z</time>
      </trkpt>
      <trkpt lat="42.57802" lon="2.81195">
        <ele>127.1</ele>
        <time>2019-12-24T19:35:32Z</time>
      </trkpt>
      <trkpt lat="42.5779" lon="2.81167">
        <ele>127.4</ele>
        <time>2019-12-24T19:35:37Z</time>
      </trkpt>
      <trkpt lat="42.57787" lon="2.81164">
        <ele>130.2</ele>
        <time>2019-12-24T19:35:39Z</time>
      </trkpt>
      <trkpt lat="42.57779" lon="2.81154">
        <ele>130</ele>
        <time>2019-12-24T19:35:48Z</time>
      </trkpt>
      <trkpt lat="42.57772" lon="2.81146">
        <ele>129.8</ele>
        <time>2019-12-24T19:35:55Z</time>
      </trkpt>
      <trkpt lat="42.57757" lon="2.81129">
        <ele>130</ele>
        <time>2019-12-24T19:35:57Z</time>
      </trkpt>
      <trkpt lat="42.5772" lon="2.8112">
        <ele>126.1</ele>
        <time>2019-12-24T19:35:57Z</time>
      </trkpt>
      <trkpt lat="42.57698" lon="2.81119">
        <ele>125.3</ele>
        <time>2019-12-24T19:35:58Z</time>
      </trkpt>
      <trkpt lat="42.57682" lon="2.81122">
        <ele>124.8</ele>
        <time>2019-12-24T19:36:00Z</time>
      </trkpt>
      <trkpt lat="42.57677" lon="2.81124">
        <ele>124.6</ele>
        <time>2019-12-24T19:36:01Z</time>
      </trkpt>
      <trkpt lat="42.57674" lon="2.81125">
        <ele>124.5</ele>
        <time>2019-12-24T19:36:07Z</time>
      </trkpt>
      <trkpt lat="42.57672" lon="2.81125">
        <ele>124.4</ele>
        <time>2019-12-24T19:36:07Z</time>
      </trkpt>
      <trkpt lat="42.57634" lon="2.81142">
        <ele>122</ele>
        <time>2019-12-24T19:36:12Z</time>
      </trkpt>
      <trkpt lat="42.57616" lon="2.81154">
        <ele>121.8</ele>
        <time>2019-12-24T19:36:15Z</time>
      </trkpt>
      <trkpt lat="42.57608" lon="2.81167">
        <ele>118.3</ele>
        <time>2019-12-24T19:36:19Z</time>
      </trkpt>
      <trkpt lat="42.57589" lon="2.8121">
        <ele>116.7</ele>
        <time>2019-12-24T19:36:24Z</time>
      </trkpt>
      <trkpt lat="42.5757" lon="2.81254">
        <ele>111.5</ele>
        <time>2019-12-24T19:36:27Z</time>
      </trkpt>
      <trkpt lat="42.57552" lon="2.81286">
        <ele>109.8</ele>
        <time>2019-12-24T19:36:27Z</time>
      </trkpt>
      <trkpt lat="42.57536" lon="2.81319">
        <ele>108.7</ele>
        <time>2019-12-24T19:36:29Z</time>
      </trkpt>
      <trkpt lat="42.57519" lon="2.81354">
        <ele>106.3</ele>
        <time>2019-12-24T19:36:35Z</time>
      </trkpt>
      <trkpt lat="42.57513" lon="2.81385">
        <ele>105.8</ele>
        <time>2019-12-24T19:36:45Z</time>
      </trkpt>
      <trkpt lat="42.57509" lon="2.81403">
        <ele>105.5</ele>
        <time>2019-12-24T19:36:51Z</time>
      </trkpt>
      <trkpt lat="42.57499" lon="2.81425">
        <ele>105.7</ele>
        <time>2019-12-24T19:36:57Z</time>
      </trkpt>
      <trkpt lat="42.57487" lon="2.81442">
        <ele>106.6</ele>
        <time>2019-12-24T19:37:03Z</time>
      </trkpt>
      <trkpt lat="42.57439" lon="2.81485">
        <ele>107.9</ele>
        <time>2019-12-24T19:37:07Z</time>
      </trkpt>
      <trkpt lat="42.57428" lon="2.81501">
        <ele>109.2</ele>
        <time>2019-12-24T19:37:10Z</time>
      </trkpt>
      <trkpt lat="42.57414" lon="2.81532">
        <ele>110.1</ele>
        <time>2019-12-24T19:37:11Z</time>
      </trkpt>
      <trkpt lat="42.57345" lon="2.81695">
        <ele>112.7</ele>
        <time>2019-12-24T19:37:16Z</time>
      </trkpt>
      <trkpt lat="42.57299" lon="2.81805">
        <ele>113.8</ele>
        <time>2019-12-24T19:37:21Z</time>
      </trkpt>
      <trkpt lat="42.57275" lon="2.81859">
        <ele>112.8</ele>
        <time>2019-12-24T19:37:39Z</time>
      </trkpt>
      <trkpt lat="42.57245" lon="2.81909">
        <ele>112.3</ele>
        <time>2019-12-24T19:37:41Z</time>
      </trkpt>
      <trkpt lat="42.57215" lon="2.8195">
        <ele>111.5</ele>
        <time>2019-12-24T19:37:45Z</time>
      </trkpt>
      <trkpt lat="42.57187" lon="2.81987">
        <ele>111.3</ele>
        <time>2019-12-24T19:37:49Z</time>
      </trkpt>
      <trkpt lat="42.5718" lon="2.82008">
        <ele>110.5</ele>
        <time>2019-12-24T19:37:53Z</time>
      </trkpt>
      <trkpt lat="42.57174" lon="2.82027">
        <ele>110.2</ele>
        <time>2019-12-24T19:37:56Z</time>
      </trkpt>
      <trkpt lat="42.57159" lon="2.82057">
        <ele>110</ele>
        <time>2019-12-24T19:38:01Z</time>
      </trkpt>
      <trkpt lat="42.57144" lon="2.82087">
        <ele>110.2</ele>
        <time>2019-12-24T19:38:05Z</time>
      </trkpt>
      <trkpt lat="42.57117" lon="2.82133">
        <ele>111.1</ele>
        <time>2019-12-24T19:38:15Z</time>
      </trkpt>
      <trkpt lat="42.5709" lon="2.82167">
        <ele>112.8</ele>
        <time>2019-12-24T19:38:25Z</time>
      </trkpt>
      <trkpt lat="42.57043" lon="2.82212">
        <ele>114.6</ele>
        <time>2019-12-24T19:38:36Z</time>
      </trkpt>
      <trkpt lat="42.5697" lon="2.82278">
        <ele>116.5</ele>
        <time>2019-12-24T19:38:46Z</time>
      </trkpt>
      <trkpt lat="42.56912" lon="2.82332">
        <ele>118</ele>
        <time>2019-12-24T19:38:57Z</time>
      </trkpt>
      <trkpt lat="42.56876" lon="2.82364">
        <ele>120.1</ele>
        <time>2019-12-24T19:39:04Z</time>
      </trkpt>
      <trkpt lat="42.56817" lon="2.82429">
        <ele>124.8</ele>
        <time>2019-12-24T19:39:12Z</time>
      </trkpt>
      <trkpt lat="42.56766" lon="2.82488">
        <ele>127.9</ele>
        <time>2019-12-24T19:39:18Z</time>
      </trkpt>
      <trkpt lat="42.56722" lon="2.82541">
        <ele>131.1</ele>
        <time>2019-12-24T19:39:21Z</time>
      </trkpt>
      <trkpt lat="42.5671" lon="2.82555">
        <ele>131.4</ele>
        <time>2019-12-24T19:39:34Z</time>
      </trkpt>
      <trkpt lat="42.56683" lon="2.82577">
        <ele>132.6</ele>
        <time>2019-12-24T19:39:36Z</time>
      </trkpt>
      <trkpt lat="42.56643" lon="2.82608">
        <ele>134.5</ele>
        <time>2019-12-24T19:39:57Z</time>
      </trkpt>
      <trkpt lat="42.56593" lon="2.82648">
        <ele>135.7</ele>
        <time>2019-12-24T19:40:04Z</time>
      </trkpt>
      <trkpt lat="42.56577" lon="2.82654">
        <ele>137</ele>
        <time>2019-12-24T19:40:10Z</time>
      </trkpt>
      <trkpt lat="42.56541" lon="2.8266">
        <ele>137.6</ele>
        <time>2019-12-24T19:40:14Z</time>
      </trkpt>
      <trkpt lat="42.56519" lon="2.8267">
        <ele>141.5</ele>
        <time>2019-12-24T19:40:36Z</time>
      </trkpt>
      <trkpt lat="42.56499" lon="2.82685">
        <ele>144</ele>
        <time>2019-12-24T19:40:51Z</time>
      </trkpt>
      <trkpt lat="42.56483" lon="2.82707">
        <ele>146.1</ele>
        <time>2019-12-24T19:40:52Z</time>
      </trkpt>
      <trkpt lat="42.56451" lon="2.82785">
        <ele>151.3</ele>
        <time>2019-12-24T19:40:54Z</time>
      </trkpt>
      <trkpt lat="42.5642" lon="2.82857">
        <ele>151.7</ele>
        <time>2019-12-24T19:40:56Z</time>
      </trkpt>
      <trkpt lat="42.56412" lon="2.82873">
        <ele>151.9</ele>
        <time>2019-12-24T19:40:57Z</time>
      </trkpt>
      <trkpt lat="42.56409" lon="2.82879">
        <ele>151.8</ele>
        <time>2019-12-24T19:40:58Z</time>
      </trkpt>
      <trkpt lat="42.56401" lon="2.82892">
        <ele>151.6</ele>
        <time>2019-12-24T19:41:19Z</time>
      </trkpt>
      <trkpt lat="42.56402" lon="2.82901">
        <ele>151.5</ele>
        <time>2019-12-24T19:41:20Z</time>
      </trkpt>
      <trkpt lat="42.564" lon="2.82914">
        <ele>151.4</ele>
        <time>2019-12-24T19:41:22Z</time>
      </trkpt>
      <trkpt lat="42.56399" lon="2.82918">
        <ele>149.9</ele>
        <time>2019-12-24T19:41:24Z</time>
      </trkpt>
      <trkpt lat="42.56392" lon="2.82933">
        <ele>149.4</ele>
        <time>2019-12-24T19:41:26Z</time>
      </trkpt>
      <trkpt lat="42.56386" lon="2.82944">
        <ele>149</ele>
        <time>2019-12-24T19:41:28Z</time>
      </trkpt>
      <trkpt lat="42.56395" lon="2.82992">
        <ele>147.7</ele>
        <time>2019-12-24T19:41:30Z</time>
      </trkpt>
      <trkpt lat="42.56391" lon="2.83015">
        <ele>143.9</ele>
        <time>2019-12-24T19:41:40Z</time>
      </trkpt>
      <trkpt lat="42.56382" lon="2.83038">
        <ele>142.7</ele>
        <time>2019-12-24T19:41:44Z</time>
      </trkpt>
      <trkpt lat="42.56378" lon="2.83054">
        <ele>142</ele>
        <time>2019-12-24T19:41:48Z</time>
      </trkpt>
      <trkpt lat="42.56408" lon="2.83104">
        <ele>136.8</ele>
        <time>2019-12-24T19:41:54Z</time>
      </trkpt>
      <trkpt lat="42.56396" lon="2.83123">
        <ele>135.5</ele>
        <time>2019-12-24T19:42:01Z</time>
      </trkpt>
      <trkpt lat="42.56393" lon="2.83126">
        <ele>135.4</ele>
        <time>2019-12-24T19:42:16Z</time>
      </trkpt>
      <trkpt lat="42.5639" lon="2.83125">
        <ele>135.4</ele>
        <time>2019-12-24T19:42:22Z</time>
      </trkpt>
      <trkpt lat="42.56373" lon="2.83116">
        <ele>135.6</ele>
        <time>2019-12-24T19:42:27Z</time>
      </trkpt>
      <trkpt lat="42.56369" lon="2.83116">
        <ele>135.6</ele>
        <time>2019-12-24T19:42:48Z</time>
      </trkpt>
      <trkpt lat="42.56364" lon="2.83117">
        <ele>135.6</ele>
        <time>2019-12-24T19:42:53Z</time>
      </trkpt>
      <trkpt lat="42.56361" lon="2.83119">
        <ele>135.5</ele>
        <time>2019-12-24T19:42:59Z</time>
      </trkpt>
      <trkpt lat="42.56347" lon="2.83153">
        <ele>132.9</ele>
        <time>2019-12-24T19:43:44Z</time>
      </trkpt>
      <trkpt lat="42.56343" lon="2.83161">
        <ele>131.9</ele>
        <time>2019-12-24T19:43:48Z</time>
      </trkpt>
      <trkpt lat="42.56386" lon="2.832">
        <ele>129.5</ele>
        <time>2019-12-24T19:43:51Z</time>
      </trkpt>
      <trkpt lat="42.56418" lon="2.8323">
        <ele>131</ele>
        <time>2019-12-24T19:43:55Z</time>
      </trkpt>
      <trkpt lat="42.56427" lon="2.83237">
        <ele>130.8</ele>
        <time>2019-12-24T19:43:56Z</time>
      </trkpt>
      <trkpt lat="42.56429" lon="2.83238">
        <ele>130.9</ele>
        <time>2019-12-24T19:43:57Z</time>
      </trkpt>
      <trkpt lat="42.56435" lon="2.83239">
        <ele>131.2</ele>
        <time>2019-12-24T19:44:00Z</time>
      </trkpt>
      <trkpt lat="42.56443" lon="2.83234">
        <ele>131.7</ele>
        <time>2019-12-24T19:44:04Z</time>
      </trkpt>
      <trkpt lat="42.56448" lon="2.83225">
        <ele>132.1</ele>
        <time>2019-12-24T19:44:11Z</time>
      </trkpt>
      <trkpt lat="42.56468" lon="2.83192">
        <ele>133.3</ele>
        <time>2019-12-24T19:44:18Z</time>
      </trkpt>
      <trkpt lat="42.56471" lon="2.83195">
        <ele>133.3</ele>
        <time>2019-12-24T19:44:30Z</time>
      </trkpt>
      <trkpt lat="42.56489" lon="2.83218">
        <ele>133.1</ele>
        <time>2019-12-24T19:44:32Z</time>
      </trkpt>
      <trkpt lat="42.56499" lon="2.83237">
        <ele>133</ele>
        <time>2019-12-24T19:44:35Z</time>
      </trkpt>
      <trkpt lat="42.56506" lon="2.83271">
        <ele>132.9</ele>
        <time>2019-12-24T19:44:42Z</time>
      </trkpt>
      <trkpt lat="42.56513" lon="2.83301">
        <ele>132</ele>
        <time>2019-12-24T19:44:49Z</time>
      </trkpt>
      <trkpt lat="42.56523" lon="2.83319">
        <ele>131.5</ele>
        <time>2019-12-24T19:44:56Z</time>
      </trkpt>
      <trkpt lat="42.56525" lon="2.83321">
        <ele>131.6</ele>
        <time>2019-12-24T19:45:09Z</time>
      </trkpt>
      <trkpt lat="42.56534" lon="2.83335">
        <ele>128.9</ele>
        <time>2019-12-24T19:45:10Z</time>
      </trkpt>
      <trkpt lat="42.56558" lon="2.83357">
        <ele>129.5</ele>
        <time>2019-12-24T19:45:11Z</time>
      </trkpt>
      <trkpt lat="42.56607" lon="2.83402">
        <ele>130.7</ele>
        <time>2019-12-24T19:45:15Z</time>
      </trkpt>
      <trkpt lat="42.56637" lon="2.8342">
        <ele>129.3</ele>
        <time>2019-12-24T19:45:21Z</time>
      </trkpt>
      <trkpt lat="42.5667" lon="2.83432">
        <ele>131.9</ele>
        <time>2019-12-24T19:45:22Z</time>
      </trkpt>
      <trkpt lat="42.56702" lon="2.83428">
        <ele>132.1</ele>
        <time>2019-12-24T19:45:28Z</time>
      </trkpt>
      <trkpt lat="42.56727" lon="2.83426">
        <ele>132.4</ele>
        <time>2019-12-24T19:45:33Z</time>
      </trkpt>
      <trkpt lat="42.56742" lon="2.83431">
        <ele>132.6</ele>
        <time>2019-12-24T19:45:34Z</time>
      </trkpt>
      <trkpt lat="42.56747" lon="2.83441">
        <ele>132.5</ele>
        <time>2019-12-24T19:45:36Z</time>
      </trkpt>
      <trkpt lat="42.56763" lon="2.83471">
        <ele>134.3</ele>
        <time>2019-12-24T19:45:36Z</time>
      </trkpt>
      <trkpt lat="42.56784" lon="2.83498">
        <ele>134.9</ele>
        <time>2019-12-24T19:45:38Z</time>
      </trkpt>
      <trkpt lat="42.56847" lon="2.83598">
        <ele>136</ele>
        <time>2019-12-24T19:45:39Z</time>
      </trkpt>
      <trkpt lat="42.56853" lon="2.83614">
        <ele>135.4</ele>
        <time>2019-12-24T19:45:40Z</time>
      </trkpt>
      <trkpt lat="42.56856" lon="2.83642">
        <ele>134.4</ele>
        <time>2019-12-24T19:45:43Z</time>
      </trkpt>
      <trkpt lat="42.5686" lon="2.83672">
        <ele>130.5</ele>
        <time>2019-12-24T19:45:44Z</time>
      </trkpt>
      <trkpt lat="42.56871" lon="2.83697">
        <ele>129.5</ele>
        <time>2019-12-24T19:45:49Z</time>
      </trkpt>
      <trkpt lat="42.56884" lon="2.83719">
        <ele>128.5</ele>
        <time>2019-12-24T19:45:59Z</time>
      </trkpt>
      <trkpt lat="42.56901" lon="2.83746">
        <ele>126.8</ele>
        <time>2019-12-24T19:46:00Z</time>
      </trkpt>
      <trkpt lat="42.56911" lon="2.83777">
        <ele>124.2</ele>
        <time>2019-12-24T19:46:00Z</time>
      </trkpt>
      <trkpt lat="42.56926" lon="2.83844">
        <ele>120.8</ele>
        <time>2019-12-24T19:46:05Z</time>
      </trkpt>
      <trkpt lat="42.56941" lon="2.8392">
        <ele>115.8</ele>
        <time>2019-12-24T19:46:16Z</time>
      </trkpt>
      <trkpt lat="42.56952" lon="2.84003">
        <ele>114.4</ele>
        <time>2019-12-24T19:46:25Z</time>
      </trkpt>
      <trkpt lat="42.56966" lon="2.84075">
        <ele>114.6</ele>
        <time>2019-12-24T19:46:34Z</time>
      </trkpt>
      <trkpt lat="42.56987" lon="2.8416">
        <ele>114</ele>
        <time>2019-12-24T19:46:43Z</time>
      </trkpt>
      <trkpt lat="42.56998" lon="2.84209">
        <ele>113.8</ele>
        <time>2019-12-24T19:46:45Z</time>
      </trkpt>
      <trkpt lat="42.57009" lon="2.84266">
        <ele>112.8</ele>
        <time>2019-12-24T19:46:49Z</time>
      </trkpt>
      <trkpt lat="42.57017" lon="2.8431">
        <ele>112.2</ele>
        <time>2019-12-24T19:46:59Z</time>
      </trkpt>
      <trkpt lat="42.57021" lon="2.84336">
        <ele>112.2</ele>
        <time>2019-12-24T19:47:01Z</time>
      </trkpt>
      <trkpt lat="42.57033" lon="2.84431">
        <ele>112.3</ele>
        <time>2019-12-24T19:47:04Z</time>
      </trkpt>
      <trkpt lat="42.57036" lon="2.84449">
        <ele>112.6</ele>
        <time>2019-12-24T19:47:12Z</time>
      </trkpt>
      <trkpt lat="42.57066" lon="2.84605">
        <ele>113.2</ele>
        <time>2019-12-24T19:47:18Z</time>
      </trkpt>
      <trkpt lat="42.57078" lon="2.84649">
        <ele>112.4</ele>
        <time>2019-12-24T19:47:19Z</time>
      </trkpt>
      <trkpt lat="42.57095" lon="2.84688">
        <ele>110.4</ele>
        <time>2019-12-24T19:47:31Z</time>
      </trkpt>
      <trkpt lat="42.57114" lon="2.84713">
        <ele>109.5</ele>
        <time>2019-12-24T19:47:35Z</time>
      </trkpt>
      <trkpt lat="42.57219" lon="2.84802">
        <ele>103.6</ele>
        <time>2019-12-24T19:47:39Z</time>
      </trkpt>
      <trkpt lat="42.57289" lon="2.84858">
        <ele>100</ele>
        <time>2019-12-24T19:47:41Z</time>
      </trkpt>
      <trkpt lat="42.57286" lon="2.84867">
        <ele>99.9</ele>
        <time>2019-12-24T19:47:44Z</time>
      </trkpt>
      <trkpt lat="42.57287" lon="2.84882">
        <ele>99.7</ele>
        <time>2019-12-24T19:47:47Z</time>
      </trkpt>
      <trkpt lat="42.57293" lon="2.84893">
        <ele>99.5</ele>
        <time>2019-12-24T19:47:51Z</time>
      </trkpt>
      <trkpt lat="42.57301" lon="2.84895">
        <ele>99.4</ele>
        <time>2019-12-24T19:47:54Z</time>
      </trkpt>
      <trkpt lat="42.57306" lon="2.84896">
        <ele>99.3</ele>
        <time>2019-12-24T19:47:58Z</time>
      </trkpt>
      <trkpt lat="42.57311" lon="2.85053">
        <ele>99.4</ele>
        <time>2019-12-24T19:48:06Z</time>
      </trkpt>
      <trkpt lat="42.57305" lon="2.85058">
        <ele>99.4</ele>
        <time>2019-12-24T19:48:08Z</time>
      </trkpt>
      <trkpt lat="42.57296" lon="2.85066">
        <ele>99.3</ele>
        <time>2019-12-24T19:48:11Z</time>
      </trkpt>
      <trkpt lat="42.57293" lon="2.85081">
        <ele>99.4</ele>
        <time>2019-12-24T19:48:15Z</time>
      </trkpt>
      <trkpt lat="42.57295" lon="2.85097">
        <ele>100.2</ele>
        <time>2019-12-24T19:48:20Z</time>
      </trkpt>
      <trkpt lat="42.57302" lon="2.85107">
        <ele>100.4</ele>
        <time>2019-12-24T19:48:24Z</time>
      </trkpt>
      <trkpt lat="42.57312" lon="2.85107">
        <ele>100.5</ele>
        <time>2019-12-24T19:48:28Z</time>
      </trkpt>
      <trkpt lat="42.57313" lon="2.85189">
        <ele>100.3</ele>
        <time>2019-12-24T19:48:35Z</time>
      </trkpt>
      <trkpt lat="42.57313" lon="2.85216">
        <ele>99.8</ele>
        <time>2019-12-24T19:48:41Z</time>
      </trkpt>
      <trkpt lat="42.57307" lon="2.85245">
        <ele>99.5</ele>
        <time>2019-12-24T19:48:45Z</time>
      </trkpt>
      <trkpt lat="42.5729" lon="2.85285">
        <ele>98.3</ele>
        <time>2019-12-24T19:48:49Z</time>
      </trkpt>
      <trkpt lat="42.5726" lon="2.85325">
        <ele>97.5</ele>
        <time>2019-12-24T19:48:53Z</time>
      </trkpt>
      <trkpt lat="42.57197" lon="2.85394">
        <ele>95.2</ele>
        <time>2019-12-24T19:48:58Z</time>
      </trkpt>
      <trkpt lat="42.57171" lon="2.85425">
        <ele>94.6</ele>
        <time>2019-12-24T19:49:01Z</time>
      </trkpt>
      <trkpt lat="42.57159" lon="2.85458">
        <ele>94.8</ele>
        <time>2019-12-24T19:49:05Z</time>
      </trkpt>
      <trkpt lat="42.57121" lon="2.8561">
        <ele>95.6</ele>
        <time>2019-12-24T19:49:19Z</time>
      </trkpt>
      <trkpt lat="42.57108" lon="2.85644">
        <ele>95.2</ele>
        <time>2019-12-24T19:49:30Z</time>
      </trkpt>
      <trkpt lat="42.57087" lon="2.85681">
        <ele>94.4</ele>
        <time>2019-12-24T19:49:35Z</time>
      </trkpt>
      <trkpt lat="42.56918" lon="2.85933">
        <ele>95</ele>
        <time>2019-12-24T19:49:37Z</time>
      </trkpt>
      <trkpt lat="42.56898" lon="2.85947">
        <ele>94.6</ele>
        <time>2019-12-24T19:49:42Z</time>
      </trkpt>
      <trkpt lat="42.56881" lon="2.85951">
        <ele>94.5</ele>
        <time>2019-12-24T19:49:46Z</time>
      </trkpt>
      <trkpt lat="42.56857" lon="2.85953">
        <ele>94.5</ele>
        <time>2019-12-24T19:49:52Z</time>
      </trkpt>
      <trkpt lat="42.56852" lon="2.85957">
        <ele>94.5</ele>
        <time>2019-12-24T19:49:57Z</time>
      </trkpt>
      <trkpt lat="42.56847" lon="2.85959">
        <ele>94.5</ele>
        <time>2019-12-24T19:50:02Z</time>
      </trkpt>
      <trkpt lat="42.5684" lon="2.85982">
        <ele>94.7</ele>
        <time>2019-12-24T19:50:09Z</time>
      </trkpt>
      <trkpt lat="42.56833" lon="2.86008">
        <ele>95.3</ele>
        <time>2019-12-24T19:50:15Z</time>
      </trkpt>
      <trkpt lat="42.56823" lon="2.86065">
        <ele>95.7</ele>
        <time>2019-12-24T19:50:17Z</time>
      </trkpt>
      <trkpt lat="42.56815" lon="2.86117">
        <ele>97.1</ele>
        <time>2019-12-24T19:50:25Z</time>
      </trkpt>
      <trkpt lat="42.56803" lon="2.862">
        <ele>99.1</ele>
        <time>2019-12-24T19:50:32Z</time>
      </trkpt>
      <trkpt lat="42.56799" lon="2.86219">
        <ele>99.3</ele>
        <time>2019-12-24T19:50:39Z</time>
      </trkpt>
      <trkpt lat="42.56792" lon="2.8624">
        <ele>99.5</ele>
        <time>2019-12-24T19:50:43Z</time>
      </trkpt>
      <trkpt lat="42.5677" lon="2.86283">
        <ele>101</ele>
        <time>2019-12-24T19:50:46Z</time>
      </trkpt>
      <trkpt lat="42.56749" lon="2.86325">
        <ele>103.5</ele>
        <time>2019-12-24T19:50:49Z</time>
      </trkpt>
      <trkpt lat="42.56725" lon="2.8637">
        <ele>106.1</ele>
        <time>2019-12-24T19:50:56Z</time>
      </trkpt>
      <trkpt lat="42.56684" lon="2.86449">
        <ele>111.4</ele>
        <time>2019-12-24T19:51:04Z</time>
      </trkpt>
      <trkpt lat="42.5668" lon="2.86454">
        <ele>111.7</ele>
        <time>2019-12-24T19:51:06Z</time>
      </trkpt>
      <trkpt lat="42.56674" lon="2.86463">
        <ele>112.3</ele>
        <time>2019-12-24T19:51:13Z</time>
      </trkpt>
      <trkpt lat="42.5666" lon="2.86483">
        <ele>112.8</ele>
        <time>2019-12-24T19:51:26Z</time>
      </trkpt>
      <trkpt lat="42.56635" lon="2.86517">
        <ele>117</ele>
        <time>2019-12-24T19:51:29Z</time>
      </trkpt>
      <trkpt lat="42.56637" lon="2.86523">
        <ele>117.2</ele>
        <time>2019-12-24T19:51:31Z</time>
      </trkpt>
      <trkpt lat="42.56656" lon="2.86564">
        <ele>119.9</ele>
        <time>2019-12-24T19:51:32Z</time>
      </trkpt>
      <trkpt lat="42.56673" lon="2.86594">
        <ele>121.9</ele>
        <time>2019-12-24T19:51:52Z</time>
      </trkpt>
      <trkpt lat="42.56674" lon="2.86603">
        <ele>121.5</ele>
        <time>2019-12-24T19:51:54Z</time>
      </trkpt>
      <trkpt lat="42.56675" lon="2.86612">
        <ele>121.2</ele>
        <time>2019-12-24T19:51:55Z</time>
      </trkpt>
      <trkpt lat="42.56677" lon="2.86618">
        <ele>121</ele>
        <time>2019-12-24T19:51:56Z</time>
      </trkpt>
      <trkpt lat="42.56682" lon="2.86624">
        <ele>120.9</ele>
        <time>2019-12-24T19:51:57Z</time>
      </trkpt>
      <trkpt lat="42.56687" lon="2.86625">
        <ele>120.7</ele>
        <time>2019-12-24T19:51:59Z</time>
      </trkpt>
      <trkpt lat="42.56683" lon="2.86634">
        <ele>120.8</ele>
        <time>2019-12-24T19:52:02Z</time>
      </trkpt>
      <trkpt lat="42.56673" lon="2.86652">
        <ele>121.6</ele>
        <time>2019-12-24T19:52:07Z</time>
      </trkpt>
      <trkpt lat="42.5667" lon="2.86657">
        <ele>122</ele>
        <time>2019-12-24T19:52:11Z</time>
      </trkpt>
      <trkpt lat="42.56651" lon="2.86687">
        <ele>120.4</ele>
        <time>2019-12-24T19:52:17Z</time>
      </trkpt>
      <trkpt lat="42.56615" lon="2.86747">
        <ele>117.8</ele>
        <time>2019-12-24T19:52:24Z</time>
      </trkpt>
      <trkpt lat="42.56617" lon="2.86749">
        <ele>117.9</ele>
        <time>2019-12-24T19:52:30Z</time>
      </trkpt>
      <trkpt lat="42.56615" lon="2.86747">
        <ele>117.8</ele>
        <time>2019-12-24T19:52:37Z</time>
      </trkpt>
      <trkpt lat="42.56599" lon="2.86717">
        <ele>118.1</ele>
        <time>2019-12-24T19:52:59Z</time>
      </trkpt>
      <trkpt lat="42.56551" lon="2.86771">
        <ele>111</ele>
        <time>2019-12-24T19:53:12Z</time>
      </trkpt>
      <trkpt lat="42.56512" lon="2.86814">
        <ele>106.9</ele>
        <time>2019-12-24T19:53:41Z</time>
      </trkpt>
      <trkpt lat="42.5647" lon="2.86854">
        <ele>98.3</ele>
        <time>2019-12-24T19:53:44Z</time>
      </trkpt>
      <trkpt lat="42.56427" lon="2.86897">
        <ele>94.7</ele>
        <time>2019-12-24T19:53:46Z</time>
      </trkpt>
      <trkpt lat="42.5642" lon="2.86907">
        <ele>93.1</ele>
        <time>2019-12-24T19:54:10Z</time>
      </trkpt>
      <trkpt lat="42.56403" lon="2.86928">
        <ele>89.5</ele>
        <time>2019-12-24T19:55:00Z</time>
      </trkpt>
      <trkpt lat="42.56365" lon="2.86979">
        <ele>87.3</ele>
        <time>2019-12-24T19:55:13Z</time>
      </trkpt>
      <trkpt lat="42.56353" lon="2.8699">
        <ele>86.4</ele>
        <time>2019-12-24T19:55:20Z</time>
      </trkpt>
      <trkpt lat="42.5634" lon="2.87003">
        <ele>84.6</ele>
        <time>2019-12-24T19:55:23Z</time>
      </trkpt>
      <trkpt lat="42.56306" lon="2.87041">
        <ele>81.6</ele>
        <time>2019-12-24T19:55:25Z</time>
      </trkpt>
      <trkpt lat="42.56278" lon="2.87063">
        <ele>80.4</ele>
        <time>2019-12-24T19:55:28Z</time>
      </trkpt>
      <trkpt lat="42.56271" lon="2.87063">
        <ele>80</ele>
        <time>2019-12-24T19:55:30Z</time>
      </trkpt>
      <trkpt lat="42.56208" lon="2.87081">
        <ele>78.1</ele>
        <time>2019-12-24T19:55:32Z</time>
      </trkpt>
      <trkpt lat="42.56183" lon="2.87088">
        <ele>76.4</ele>
        <time>2019-12-24T19:55:34Z</time>
      </trkpt>
      <trkpt lat="42.56162" lon="2.87094">
        <ele>76.2</ele>
        <time>2019-12-24T19:55:36Z</time>
      </trkpt>
      <trkpt lat="42.56151" lon="2.87095">
        <ele>75.9</ele>
        <time>2019-12-24T19:55:59Z</time>
      </trkpt>
      <trkpt lat="42.56133" lon="2.87095">
        <ele>75.3</ele>
        <time>2019-12-24T19:56:18Z</time>
      </trkpt>
      <trkpt lat="42.56119" lon="2.87083">
        <ele>76.1</ele>
        <time>2019-12-24T19:56:23Z</time>
      </trkpt>
      <trkpt lat="42.56096" lon="2.87071">
        <ele>75.4</ele>
        <time>2019-12-24T19:56:28Z</time>
      </trkpt>
      <trkpt lat="42.56081" lon="2.87072">
        <ele>74.6</ele>
        <time>2019-12-24T19:56:32Z</time>
      </trkpt>
      <trkpt lat="42.56063" lon="2.87085">
        <ele>74.1</ele>
        <time>2019-12-24T19:56:48Z</time>
      </trkpt>
      <trkpt lat="42.56025" lon="2.8712">
        <ele>74.1</ele>
        <time>2019-12-24T19:57:38Z</time>
      </trkpt>
      <trkpt lat="42.56012" lon="2.87127">
        <ele>74</ele>
        <time>2019-12-24T19:57:42Z</time>
      </trkpt>
      <trkpt lat="42.55999" lon="2.87127">
        <ele>73.5</ele>
        <time>2019-12-24T19:58:05Z</time>
      </trkpt>
      <trkpt lat="42.55975" lon="2.87122">
        <ele>73.4</ele>
        <time>2019-12-24T19:58:45Z</time>
      </trkpt>
      <trkpt lat="42.55952" lon="2.87109">
        <ele>73.4</ele>
        <time>2019-12-24T19:59:24Z</time>
      </trkpt>
      <trkpt lat="42.5593" lon="2.87094">
        <ele>73.6</ele>
        <time>2019-12-24T19:59:26Z</time>
      </trkpt>
      <trkpt lat="42.5591" lon="2.87072">
        <ele>74</ele>
        <time>2019-12-24T19:59:42Z</time>
      </trkpt>
      <trkpt lat="42.55886" lon="2.87036">
        <ele>74.4</ele>
        <time>2019-12-24T19:59:46Z</time>
      </trkpt>
      <trkpt lat="42.55865" lon="2.87001">
        <ele>74.4</ele>
        <time>2019-12-24T19:59:48Z</time>
      </trkpt>
      <trkpt lat="42.55849" lon="2.8698">
        <ele>76.6</ele>
        <time>2019-12-24T19:59:50Z</time>
      </trkpt>
      <trkpt lat="42.55831" lon="2.86963">
        <ele>74.6</ele>
        <time>2019-12-24T19:59:51Z</time>
      </trkpt>
      <trkpt lat="42.5581" lon="2.8694">
        <ele>74.9</ele>
        <time>2019-12-24T19:59:52Z</time>
      </trkpt>
      <trkpt lat="42.55789" lon="2.86916">
        <ele>77</ele>
        <time>2019-12-24T19:59:53Z</time>
      </trkpt>
      <trkpt lat="42.55779" lon="2.86901">
        <ele>76.9</ele>
        <time>2019-12-24T19:59:55Z</time>
      </trkpt>
      <trkpt lat="42.5576" lon="2.86889">
        <ele>76.8</ele>
        <time>2019-12-24T19:59:57Z</time>
      </trkpt>
      <trkpt lat="42.55682" lon="2.8685">
        <ele>75.9</ele>
        <time>2019-12-24T20:00:15Z</time>
      </trkpt>
      <trkpt lat="42.55626" lon="2.86824">
        <ele>75.1</ele>
        <time>2019-12-24T20:00:16Z</time>
      </trkpt>
      <trkpt lat="42.55603" lon="2.86809">
        <ele>74.1</ele>
        <time>2019-12-24T20:01:28Z</time>
      </trkpt>
      <trkpt lat="42.55589" lon="2.86797">
        <ele>74.1</ele>
        <time>2019-12-24T20:01:48Z</time>
      </trkpt>
      <trkpt lat="42.55571" lon="2.86775">
        <ele>70.7</ele>
        <time>2019-12-24T20:01:52Z</time>
      </trkpt>
      <trkpt lat="42.55556" lon="2.86749">
        <ele>72.8</ele>
        <time>2019-12-24T20:02:03Z</time>
      </trkpt>
      <trkpt lat="42.55537" lon="2.86714">
        <ele>72.9</ele>
        <time>2019-12-24T20:02:13Z</time>
      </trkpt>
      <trkpt lat="42.55523" lon="2.86682">
        <ele>73.1</ele>
        <time>2019-12-24T20:02:22Z</time>
      </trkpt>
      <trkpt lat="42.5551" lon="2.86643">
        <ele>75.3</ele>
        <time>2019-12-24T20:02:26Z</time>
      </trkpt>
      <trkpt lat="42.555" lon="2.86595">
        <ele>73.5</ele>
        <time>2019-12-24T20:02:27Z</time>
      </trkpt>
      <trkpt lat="42.55497" lon="2.86551">
        <ele>73.4</ele>
        <time>2019-12-24T20:02:29Z</time>
      </trkpt>
      <trkpt lat="42.55498" lon="2.86532">
        <ele>73.6</ele>
        <time>2019-12-24T20:02:32Z</time>
      </trkpt>
      <trkpt lat="42.55506" lon="2.8647">
        <ele>79.1</ele>
        <time>2019-12-24T20:02:34Z</time>
      </trkpt>
      <trkpt lat="42.55511" lon="2.86423">
        <ele>78</ele>
        <time>2019-12-24T20:02:53Z</time>
      </trkpt>
      <trkpt lat="42.55515" lon="2.86364">
        <ele>78.1</ele>
        <time>2019-12-24T20:02:55Z</time>
      </trkpt>
      <trkpt lat="42.55517" lon="2.86338">
        <ele>76.9</ele>
        <time>2019-12-24T20:03:03Z</time>
      </trkpt>
      <trkpt lat="42.5552" lon="2.86317">
        <ele>75.3</ele>
        <time>2019-12-24T20:03:03Z</time>
      </trkpt>
      <trkpt lat="42.55526" lon="2.86293">
        <ele>75.1</ele>
        <time>2019-12-24T20:03:03Z</time>
      </trkpt>
      <trkpt lat="42.55542" lon="2.86244">
        <ele>70.7</ele>
        <time>2019-12-24T20:03:11Z</time>
      </trkpt>
      <trkpt lat="42.55564" lon="2.86189">
        <ele>68.9</ele>
        <time>2019-12-24T20:03:13Z</time>
      </trkpt>
      <trkpt lat="42.55567" lon="2.86174">
        <ele>68.2</ele>
        <time>2019-12-24T20:03:32Z</time>
      </trkpt>
      <trkpt lat="42.55566" lon="2.86125">
        <ele>66.2</ele>
        <time>2019-12-24T20:03:34Z</time>
      </trkpt>
      <trkpt lat="42.5556" lon="2.86027">
        <ele>68</ele>
        <time>2019-12-24T20:03:35Z</time>
      </trkpt>
      <trkpt lat="42.55548" lon="2.86004">
        <ele>68.6</ele>
        <time>2019-12-24T20:03:37Z</time>
      </trkpt>
      <trkpt lat="42.55541" lon="2.85999">
        <ele>71.1</ele>
        <time>2019-12-24T20:03:41Z</time>
      </trkpt>
      <trkpt lat="42.55532" lon="2.85992">
        <ele>71.6</ele>
        <time>2019-12-24T20:03:42Z</time>
      </trkpt>
      <trkpt lat="42.55431" lon="2.85926">
        <ele>78</ele>
        <time>2019-12-24T20:03:45Z</time>
      </trkpt>
      <trkpt lat="42.55424" lon="2.85914">
        <ele>80.1</ele>
        <time>2019-12-24T20:03:52Z</time>
      </trkpt>
      <trkpt lat="42.55422" lon="2.85907">
        <ele>80.2</ele>
        <time>2019-12-24T20:03:53Z</time>
      </trkpt>
      <trkpt lat="42.55421" lon="2.85904">
        <ele>80.3</ele>
        <time>2019-12-24T20:04:10Z</time>
      </trkpt>
      <trkpt lat="42.55417" lon="2.85899">
        <ele>80.5</ele>
        <time>2019-12-24T20:04:18Z</time>
      </trkpt>
      <trkpt lat="42.55402" lon="2.85897">
        <ele>82.5</ele>
        <time>2019-12-24T20:04:21Z</time>
      </trkpt>
      <trkpt lat="42.55387" lon="2.85902">
        <ele>82.8</ele>
        <time>2019-12-24T20:04:23Z</time>
      </trkpt>
      <trkpt lat="42.55362" lon="2.85909">
        <ele>82.8</ele>
        <time>2019-12-24T20:04:24Z</time>
      </trkpt>
      <trkpt lat="42.55336" lon="2.8591">
        <ele>81.8</ele>
        <time>2019-12-24T20:04:26Z</time>
      </trkpt>
      <trkpt lat="42.55305" lon="2.85906">
        <ele>82.5</ele>
        <time>2019-12-24T20:05:51Z</time>
      </trkpt>
      <trkpt lat="42.55268" lon="2.85894">
        <ele>82.1</ele>
        <time>2019-12-24T20:05:59Z</time>
      </trkpt>
      <trkpt lat="42.55235" lon="2.85874">
        <ele>80.6</ele>
        <time>2019-12-24T20:06:04Z</time>
      </trkpt>
      <trkpt lat="42.55204" lon="2.85847">
        <ele>80.6</ele>
        <time>2019-12-24T20:06:06Z</time>
      </trkpt>
      <trkpt lat="42.55099" lon="2.85754">
        <ele>77.9</ele>
        <time>2019-12-24T20:06:09Z</time>
      </trkpt>
      <trkpt lat="42.55037" lon="2.85699">
        <ele>77.5</ele>
        <time>2019-12-24T20:06:13Z</time>
      </trkpt>
      <trkpt lat="42.54903" lon="2.85576">
        <ele>78.2</ele>
        <time>2019-12-24T20:06:18Z</time>
      </trkpt>
      <trkpt lat="42.54887" lon="2.85561">
        <ele>79</ele>
        <time>2019-12-24T20:06:18Z</time>
      </trkpt>
      <trkpt lat="42.5488" lon="2.85554">
        <ele>79.2</ele>
        <time>2019-12-24T20:06:26Z</time>
      </trkpt>
      <trkpt lat="42.54771" lon="2.85445">
        <ele>80.1</ele>
        <time>2019-12-24T20:06:31Z</time>
      </trkpt>
      <trkpt lat="42.54555" lon="2.85207">
        <ele>79.3</ele>
        <time>2019-12-24T20:06:37Z</time>
      </trkpt>
      <trkpt lat="42.54506" lon="2.85129">
        <ele>81.1</ele>
        <time>2019-12-24T20:06:39Z</time>
      </trkpt>
      <trkpt lat="42.54487" lon="2.85081">
        <ele>81.9</ele>
        <time>2019-12-24T20:06:40Z</time>
      </trkpt>
      <trkpt lat="42.54486" lon="2.8506">
        <ele>81.8</ele>
        <time>2019-12-24T20:06:42Z</time>
      </trkpt>
      <trkpt lat="42.54477" lon="2.85045">
        <ele>81.8</ele>
        <time>2019-12-24T20:06:44Z</time>
      </trkpt>
      <trkpt lat="42.54464" lon="2.8504">
        <ele>81.8</ele>
        <time>2019-12-24T20:06:45Z</time>
      </trkpt>
      <trkpt lat="42.54452" lon="2.85044">
        <ele>81.7</ele>
        <time>2019-12-24T20:06:47Z</time>
      </trkpt>
      <trkpt lat="42.54445" lon="2.85054">
        <ele>81.6</ele>
        <time>2019-12-24T20:06:50Z</time>
      </trkpt>
      <trkpt lat="42.5444" lon="2.85069">
        <ele>81.5</ele>
        <time>2019-12-24T20:06:52Z</time>
      </trkpt>
      <trkpt lat="42.54443" lon="2.85087">
        <ele>80.6</ele>
        <time>2019-12-24T20:06:53Z</time>
      </trkpt>
      <trkpt lat="42.54327" lon="2.85021">
        <ele>79.9</ele>
        <time>2019-12-24T20:06:56Z</time>
      </trkpt>
      <trkpt lat="42.54243" lon="2.84927">
        <ele>81.2</ele>
        <time>2019-12-24T20:06:57Z</time>
      </trkpt>
      <trkpt lat="42.54221" lon="2.84907">
        <ele>81.9</ele>
        <time>2019-12-24T20:07:00Z</time>
      </trkpt>
      <trkpt lat="42.54193" lon="2.84887">
        <ele>81.9</ele>
        <time>2019-12-24T20:07:02Z</time>
      </trkpt>
      <trkpt lat="42.54174" lon="2.84875">
        <ele>82</ele>
        <time>2019-12-24T20:07:06Z</time>
      </trkpt>
      <trkpt lat="42.54098" lon="2.84816">
        <ele>82.4</ele>
        <time>2019-12-24T20:07:10Z</time>
      </trkpt>
      <trkpt lat="42.53867" lon="2.84593">
        <ele>82</ele>
        <time>2019-12-24T20:07:12Z</time>
      </trkpt>
      <trkpt lat="42.53852" lon="2.84578">
        <ele>81.8</ele>
        <time>2019-12-24T20:07:16Z</time>
      </trkpt>
      <trkpt lat="42.53744" lon="2.84473">
        <ele>82.8</ele>
        <time>2019-12-24T20:07:20Z</time>
      </trkpt>
      <trkpt lat="42.53559" lon="2.84299">
        <ele>84.7</ele>
        <time>2019-12-24T20:07:24Z</time>
      </trkpt>
      <trkpt lat="42.53381" lon="2.8413">
        <ele>83.8</ele>
        <time>2019-12-24T20:07:27Z</time>
      </trkpt>
      <trkpt lat="42.53373" lon="2.84118">
        <ele>83.7</ele>
        <time>2019-12-24T20:07:32Z</time>
      </trkpt>
      <trkpt lat="42.53299" lon="2.84043">
        <ele>83.7</ele>
        <time>2019-12-24T20:07:37Z</time>
      </trkpt>
      <trkpt lat="42.53284" lon="2.84025">
        <ele>83.8</ele>
        <time>2019-12-24T20:07:44Z</time>
      </trkpt>
      <trkpt lat="42.53282" lon="2.84011">
        <ele>83.8</ele>
        <time>2019-12-24T20:07:52Z</time>
      </trkpt>
      <trkpt lat="42.53275" lon="2.84">
        <ele>84</ele>
        <time>2019-12-24T20:07:59Z</time>
      </trkpt>
      <trkpt lat="42.53268" lon="2.83996">
        <ele>84</ele>
        <time>2019-12-24T20:08:02Z</time>
      </trkpt>
      <trkpt lat="42.53262" lon="2.83995">
        <ele>84</ele>
        <time>2019-12-24T20:08:03Z</time>
      </trkpt>
      <trkpt lat="42.53259" lon="2.83996">
        <ele>84</ele>
        <time>2019-12-24T20:08:05Z</time>
      </trkpt>
      <trkpt lat="42.53247" lon="2.83992">
        <ele>83.8</ele>
        <time>2019-12-24T20:08:06Z</time>
      </trkpt>
      <trkpt lat="42.53239" lon="2.83984">
        <ele>83.6</ele>
        <time>2019-12-24T20:08:08Z</time>
      </trkpt>
      <trkpt lat="42.53154" lon="2.83911">
        <ele>83</ele>
        <time>2019-12-24T20:08:11Z</time>
      </trkpt>
      <trkpt lat="42.53145" lon="2.83909">
        <ele>83</ele>
        <time>2019-12-24T20:08:13Z</time>
      </trkpt>
      <trkpt lat="42.52812" lon="2.83595">
        <ele>77.8</ele>
        <time>2019-12-24T20:08:15Z</time>
      </trkpt>
      <trkpt lat="42.52722" lon="2.83514">
        <ele>83.9</ele>
        <time>2019-12-24T20:08:17Z</time>
      </trkpt>
      <trkpt lat="42.527" lon="2.83492">
        <ele>84.6</ele>
        <time>2019-12-24T20:08:20Z</time>
      </trkpt>
      <trkpt lat="42.52654" lon="2.83445">
        <ele>85.7</ele>
        <time>2019-12-24T20:08:27Z</time>
      </trkpt>
      <trkpt lat="42.52604" lon="2.83401">
        <ele>87.5</ele>
        <time>2019-12-24T20:08:34Z</time>
      </trkpt>
      <trkpt lat="42.52563" lon="2.83363">
        <ele>88.8</ele>
        <time>2019-12-24T20:08:35Z</time>
      </trkpt>
      <trkpt lat="42.52534" lon="2.83313">
        <ele>89.5</ele>
        <time>2019-12-24T20:08:47Z</time>
      </trkpt>
      <trkpt lat="42.52522" lon="2.83262">
        <ele>89.6</ele>
        <time>2019-12-24T20:09:00Z</time>
      </trkpt>
      <trkpt lat="42.52522" lon="2.83259">
        <ele>89.6</ele>
        <time>2019-12-24T20:09:10Z</time>
      </trkpt>
      <trkpt lat="42.52498" lon="2.83134">
        <ele>87.4</ele>
        <time>2019-12-24T20:09:23Z</time>
      </trkpt>
      <trkpt lat="42.5245" lon="2.8315">
        <ele>86.9</ele>
        <time>2019-12-24T20:09:33Z</time>
      </trkpt>
      <trkpt lat="42.52437" lon="2.83154">
        <ele>86.6</ele>
        <time>2019-12-24T20:09:51Z</time>
      </trkpt>
      <trkpt lat="42.52428" lon="2.83157">
        <ele>86.5</ele>
        <time>2019-12-24T20:10:40Z</time>
      </trkpt>
      <trkpt lat="42.52422" lon="2.83159">
        <ele>86.3</ele>
        <time>2019-12-24T20:10:44Z</time>
      </trkpt>
      <trkpt lat="42.52412" lon="2.83164">
        <ele>86</ele>
        <time>2019-12-24T20:10:47Z</time>
      </trkpt>
      <trkpt lat="42.52362" lon="2.83183">
        <ele>86.1</ele>
        <time>2019-12-24T20:10:49Z</time>
      </trkpt>
      <trkpt lat="42.5235" lon="2.83128">
        <ele>86</ele>
        <time>2019-12-24T20:10:53Z</time>
      </trkpt>
      <trkpt lat="42.52349" lon="2.83125">
        <ele>86</ele>
        <time>2019-12-24T20:10:59Z</time>
      </trkpt>
      <trkpt lat="42.5234" lon="2.83097">
        <ele>86</ele>
        <time>2019-12-24T20:11:04Z</time>
      </trkpt>
      <trkpt lat="42.52314" lon="2.83031">
        <ele>86.4</ele>
        <time>2019-12-24T20:11:14Z</time>
      </trkpt>
      <trkpt lat="42.5231" lon="2.83016">
        <ele>86.5</ele>
        <time>2019-12-24T20:12:39Z</time>
      </trkpt>
      <trkpt lat="42.52304" lon="2.82996">
        <ele>86.9</ele>
        <time>2019-12-24T20:13:05Z</time>
      </trkpt>
      <trkpt lat="42.52303" lon="2.82984">
        <ele>86.9</ele>
        <time>2019-12-24T20:14:04Z</time>
      </trkpt>
      <trkpt lat="42.52295" lon="2.82947">
        <ele>87.1</ele>
        <time>2019-12-24T20:14:14Z</time>
      </trkpt>
      <trkpt lat="42.52295" lon="2.82943">
        <ele>87.1</ele>
        <time>2019-12-24T20:14:26Z</time>
      </trkpt>
      <trkpt lat="42.52284" lon="2.829">
        <ele>87.6</ele>
        <time>2019-12-24T20:15:05Z</time>
      </trkpt>
      <trkpt lat="42.52279" lon="2.82877">
        <ele>87.7</ele>
        <time>2019-12-24T20:15:12Z</time>
      </trkpt>
      <trkpt lat="42.52268" lon="2.82829">
        <ele>88.5</ele>
        <time>2019-12-24T20:15:16Z</time>
      </trkpt>
      <trkpt lat="42.52254" lon="2.8277">
        <ele>89</ele>
        <time>2019-12-24T20:15:21Z</time>
      </trkpt>
      <trkpt lat="42.52246" lon="2.8273">
        <ele>89.4</ele>
        <time>2019-12-24T20:15:21Z</time>
      </trkpt>
      <trkpt lat="42.52243" lon="2.82719">
        <ele>89.6</ele>
        <time>2019-12-24T20:15:22Z</time>
      </trkpt>
      <trkpt lat="42.52243" lon="2.82713">
        <ele>89.8</ele>
        <time>2019-12-24T20:15:23Z</time>
      </trkpt>
      <trkpt lat="42.52236" lon="2.82675">
        <ele>90.4</ele>
        <time>2019-12-24T20:15:24Z</time>
      </trkpt>
      <trkpt lat="42.52232" lon="2.8263">
        <ele>91</ele>
        <time>2019-12-24T20:15:25Z</time>
      </trkpt>
      <trkpt lat="42.52226" lon="2.82572">
        <ele>91.3</ele>
        <time>2019-12-24T20:15:25Z</time>
      </trkpt>
      <trkpt lat="42.52224" lon="2.82535">
        <ele>91.5</ele>
        <time>2019-12-24T20:15:29Z</time>
      </trkpt>
      <trkpt lat="42.52222" lon="2.82518">
        <ele>91.6</ele>
        <time>2019-12-24T20:15:34Z</time>
      </trkpt>
      <trkpt lat="42.52218" lon="2.82494">
        <ele>92</ele>
        <time>2019-12-24T20:15:47Z</time>
      </trkpt>
      <trkpt lat="42.52212" lon="2.82471">
        <ele>92</ele>
        <time>2019-12-24T20:16:00Z</time>
      </trkpt>
      <trkpt lat="42.522" lon="2.82434">
        <ele>92</ele>
        <time>2019-12-24T20:26:11Z</time>
      </trkpt>
      <trkpt lat="42.52199" lon="2.8243">
        <ele>92</ele>
        <time>2019-12-24T20:26:13Z</time>
      </trkpt>
      <trkpt lat="42.52182" lon="2.82379">
        <ele>92.3</ele>
        <time>2019-12-24T20:26:14Z</time>
      </trkpt>
      <trkpt lat="42.52169" lon="2.82342">
        <ele>92.8</ele>
        <time>2019-12-24T20:26:18Z</time>
      </trkpt>
      <trkpt lat="42.52157" lon="2.82301">
        <ele>93.1</ele>
        <time>2019-12-24T20:26:19Z</time>
      </trkpt>
      <trkpt lat="42.5215" lon="2.82291">
        <ele>93.1</ele>
        <time>2019-12-24T20:26:19Z</time>
      </trkpt>
      <trkpt lat="42.52141" lon="2.82285">
        <ele>93.1</ele>
        <time>2019-12-24T20:26:22Z</time>
      </trkpt>
      <trkpt lat="42.5213" lon="2.82284">
        <ele>93.1</ele>
        <time>2019-12-24T20:26:24Z</time>
      </trkpt>
      <trkpt lat="42.52121" lon="2.82281">
        <ele>93</ele>
        <time>2019-12-24T20:26:28Z</time>
      </trkpt>
      <trkpt lat="42.52116" lon="2.82274">
        <ele>93</ele>
        <time>2019-12-24T20:26:29Z</time>
      </trkpt>
      <trkpt lat="42.52111" lon="2.82261">
        <ele>93.1</ele>
        <time>2019-12-24T20:26:30Z</time>
      </trkpt>
      <trkpt lat="42.52123" lon="2.82246">
        <ele>93.3</ele>
        <time>2019-12-24T20:26:31Z</time>
      </trkpt>
      <trkpt lat="42.52126" lon="2.82236">
        <ele>93.3</ele>
        <time>2019-12-24T20:26:32Z</time>
      </trkpt>
      <trkpt lat="42.52126" lon="2.82224">
        <ele>93.3</ele>
        <time>2019-12-24T20:26:33Z</time>
      </trkpt>
      <trkpt lat="42.5212" lon="2.82202">
        <ele>93.2</ele>
        <time>2019-12-24T20:26:34Z</time>
      </trkpt>
      <trkpt lat="42.52116" lon="2.82196">
        <ele>93.2</ele>
        <time>2019-12-24T20:26:38Z</time>
      </trkpt>
      <trkpt lat="42.52102" lon="2.82188">
        <ele>93.1</ele>
        <time>2019-12-24T20:26:48Z</time>
      </trkpt>
      <trkpt lat="42.52093" lon="2.82183">
        <ele>93.1</ele>
        <time>2019-12-24T20:26:55Z</time>
      </trkpt>
      <trkpt lat="42.52079" lon="2.82159">
        <ele>92.6</ele>
        <time>2019-12-24T20:26:57Z</time>
      </trkpt>
      <trkpt lat="42.52068" lon="2.82133">
        <ele>92</ele>
        <time>2019-12-24T20:27:02Z</time>
      </trkpt>
      <trkpt lat="42.52063" lon="2.82116">
        <ele>92.1</ele>
        <time>2019-12-24T20:27:03Z</time>
      </trkpt>
      <trkpt lat="42.5206" lon="2.82086">
        <ele>92.4</ele>
        <time>2019-12-24T20:27:07Z</time>
      </trkpt>
      <trkpt lat="42.52061" lon="2.82055">
        <ele>92.7</ele>
        <time>2019-12-24T20:27:09Z</time>
      </trkpt>
      <trkpt lat="42.52064" lon="2.82029">
        <ele>92.7</ele>
        <time>2019-12-24T20:27:11Z</time>
      </trkpt>
      <trkpt lat="42.52069" lon="2.82">
        <ele>93.1</ele>
        <time>2019-12-24T20:27:13Z</time>
      </trkpt>
      <trkpt lat="42.52076" lon="2.8197">
        <ele>92.6</ele>
        <time>2019-12-24T20:27:15Z</time>
      </trkpt>
      <trkpt lat="42.52087" lon="2.8193">
        <ele>92.7</ele>
        <time>2019-12-24T20:27:16Z</time>
      </trkpt>
      <trkpt lat="42.521" lon="2.81884">
        <ele>91.8</ele>
        <time>2019-12-24T20:27:17Z</time>
      </trkpt>
      <trkpt lat="42.52116" lon="2.81823">
        <ele>90.5</ele>
        <time>2019-12-24T20:27:18Z</time>
      </trkpt>
      <trkpt lat="42.5213" lon="2.81771">
        <ele>91</ele>
        <time>2019-12-24T20:27:30Z</time>
      </trkpt>
      <trkpt lat="42.52138" lon="2.81754">
        <ele>91.7</ele>
        <time>2019-12-24T20:27:31Z</time>
      </trkpt>
      <trkpt lat="42.52144" lon="2.81747">
        <ele>91.4</ele>
        <time>2019-12-24T20:27:33Z</time>
      </trkpt>
      <trkpt lat="42.52152" lon="2.81746">
        <ele>92.3</ele>
        <time>2019-12-24T20:27:34Z</time>
      </trkpt>
      <trkpt lat="42.52158" lon="2.81743">
        <ele>92.9</ele>
        <time>2019-12-24T20:27:36Z</time>
      </trkpt>
      <trkpt lat="42.52167" lon="2.81732">
        <ele>94.6</ele>
        <time>2019-12-24T20:27:39Z</time>
      </trkpt>
      <trkpt lat="42.52172" lon="2.8171">
        <ele>94.2</ele>
        <time>2019-12-24T20:27:43Z</time>
      </trkpt>
      <trkpt lat="42.52168" lon="2.81694">
        <ele>93.7</ele>
        <time>2019-12-24T20:27:52Z</time>
      </trkpt>
      <trkpt lat="42.52163" lon="2.81686">
        <ele>90.8</ele>
        <time>2019-12-24T20:27:54Z</time>
      </trkpt>
      <trkpt lat="42.52161" lon="2.81668">
        <ele>91.4</ele>
        <time>2019-12-24T20:28:02Z</time>
      </trkpt>
      <trkpt lat="42.52165" lon="2.81647">
        <ele>88</ele>
        <time>2019-12-24T20:28:17Z</time>
      </trkpt>
      <trkpt lat="42.5218" lon="2.81602">
        <ele>88.8</ele>
        <time>2019-12-24T20:28:25Z</time>
      </trkpt>
      <trkpt lat="42.52193" lon="2.81547">
        <ele>88.3</ele>
        <time>2019-12-24T20:28:38Z</time>
      </trkpt>
      <trkpt lat="42.52191" lon="2.81541">
        <ele>88.1</ele>
        <time>2019-12-24T20:28:42Z</time>
      </trkpt>
      <trkpt lat="42.52213" lon="2.81456">
        <ele>88.5</ele>
        <time>2019-12-24T20:28:46Z</time>
      </trkpt>
      <trkpt lat="42.52234" lon="2.81363">
        <ele>88.9</ele>
        <time>2019-12-24T20:28:52Z</time>
      </trkpt>
      <trkpt lat="42.52245" lon="2.81283">
        <ele>88.6</ele>
        <time>2019-12-24T20:29:08Z</time>
      </trkpt>
      <trkpt lat="42.52247" lon="2.81184">
        <ele>89.7</ele>
        <time>2019-12-24T20:29:30Z</time>
      </trkpt>
      <trkpt lat="42.5224" lon="2.81106">
        <ele>89.9</ele>
        <time>2019-12-24T20:29:35Z</time>
      </trkpt>
      <trkpt lat="42.52213" lon="2.80978">
        <ele>88.8</ele>
        <time>2019-12-24T20:29:37Z</time>
      </trkpt>
      <trkpt lat="42.52082" lon="2.80674">
        <ele>89.1</ele>
        <time>2019-12-24T20:29:40Z</time>
      </trkpt>
      <trkpt lat="42.52091" lon="2.80618">
        <ele>91.6</ele>
        <time>2019-12-24T20:29:43Z</time>
      </trkpt>
      <trkpt lat="42.52074" lon="2.80576">
        <ele>90.7</ele>
        <time>2019-12-24T20:29:46Z</time>
      </trkpt>
      <trkpt lat="42.52048" lon="2.80582">
        <ele>89.2</ele>
        <time>2019-12-24T20:29:50Z</time>
      </trkpt>
      <trkpt lat="42.52034" lon="2.80596">
        <ele>87.9</ele>
        <time>2019-12-24T20:29:53Z</time>
      </trkpt>
      <trkpt lat="42.51967" lon="2.8057">
        <ele>85.3</ele>
        <time>2019-12-24T20:29:58Z</time>
      </trkpt>
      <trkpt lat="42.5193" lon="2.80556">
        <ele>84.8</ele>
        <time>2019-12-24T20:30:00Z</time>
      </trkpt>
      <trkpt lat="42.51883" lon="2.80566">
        <ele>84.2</ele>
        <time>2019-12-24T20:30:03Z</time>
      </trkpt>
      <trkpt lat="42.51833" lon="2.80581">
        <ele>84</ele>
        <time>2019-12-24T20:30:14Z</time>
      </trkpt>
      <trkpt lat="42.51811" lon="2.8058">
        <ele>84.3</ele>
        <time>2019-12-24T20:30:21Z</time>
      </trkpt>
      <trkpt lat="42.51772" lon="2.80554">
        <ele>84.4</ele>
        <time>2019-12-24T20:30:26Z</time>
      </trkpt>
      <trkpt lat="42.51703" lon="2.80487">
        <ele>84.3</ele>
        <time>2019-12-24T20:30:30Z</time>
      </trkpt>
      <trkpt lat="42.51597" lon="2.80377">
        <ele>86.3</ele>
        <time>2019-12-24T20:30:34Z</time>
      </trkpt>
      <trkpt lat="42.51494" lon="2.80273">
        <ele>86</ele>
        <time>2019-12-24T20:30:39Z</time>
      </trkpt>
      <trkpt lat="42.5144" lon="2.80201">
        <ele>85.5</ele>
        <time>2019-12-24T20:30:42Z</time>
      </trkpt>
      <trkpt lat="42.51386" lon="2.80102">
        <ele>86.3</ele>
        <time>2019-12-24T20:30:44Z</time>
      </trkpt>
      <trkpt lat="42.51328" lon="2.79981">
        <ele>89.2</ele>
        <time>2019-12-24T20:30:46Z</time>
      </trkpt>
      <trkpt lat="42.51287" lon="2.79884">
        <ele>91.8</ele>
        <time>2019-12-24T20:30:50Z</time>
      </trkpt>
      <trkpt lat="42.51271" lon="2.79805">
        <ele>93.4</ele>
        <time>2019-12-24T20:30:54Z</time>
      </trkpt>
      <trkpt lat="42.5126" lon="2.79667">
        <ele>91.3</ele>
        <time>2019-12-24T20:30:57Z</time>
      </trkpt>
      <trkpt lat="42.51257" lon="2.79634">
        <ele>91.9</ele>
        <time>2019-12-24T20:30:58Z</time>
      </trkpt>
      <trkpt lat="42.51261" lon="2.79575">
        <ele>92.7</ele>
        <time>2019-12-24T20:30:59Z</time>
      </trkpt>
      <trkpt lat="42.51189" lon="2.79427">
        <ele>96.2</ele>
        <time>2019-12-24T20:31:00Z</time>
      </trkpt>
      <trkpt lat="42.51168" lon="2.79355">
        <ele>99.7</ele>
        <time>2019-12-24T20:31:01Z</time>
      </trkpt>
      <trkpt lat="42.51154" lon="2.79334">
        <ele>98.5</ele>
        <time>2019-12-24T20:31:01Z</time>
      </trkpt>
      <trkpt lat="42.51129" lon="2.79315">
        <ele>101.7</ele>
        <time>2019-12-24T20:31:02Z</time>
      </trkpt>
      <trkpt lat="42.51103" lon="2.79326">
        <ele>102.9</ele>
        <time>2019-12-24T20:31:03Z</time>
      </trkpt>
      <trkpt lat="42.51077" lon="2.79324">
        <ele>104.5</ele>
        <time>2019-12-24T20:31:05Z</time>
      </trkpt>
      <trkpt lat="42.51001" lon="2.79186">
        <ele>106.3</ele>
        <time>2019-12-24T20:31:10Z</time>
      </trkpt>
      <trkpt lat="42.50993" lon="2.79177">
        <ele>104.8</ele>
        <time>2019-12-24T20:31:14Z</time>
      </trkpt>
      <trkpt lat="42.51001" lon="2.79155">
        <ele>106.4</ele>
        <time>2019-12-24T20:31:18Z</time>
      </trkpt>
      <trkpt lat="42.51005" lon="2.79133">
        <ele>106.7</ele>
        <time>2019-12-24T20:31:26Z</time>
      </trkpt>
      <trkpt lat="42.50997" lon="2.79078">
        <ele>105.9</ele>
        <time>2019-12-24T20:31:30Z</time>
      </trkpt>
      <trkpt lat="42.50979" lon="2.7904">
        <ele>103.4</ele>
        <time>2019-12-24T20:31:35Z</time>
      </trkpt>
      <trkpt lat="42.50973" lon="2.7903">
        <ele>103.2</ele>
        <time>2019-12-24T20:31:37Z</time>
      </trkpt>
      <trkpt lat="42.51018" lon="2.7899">
        <ele>104.4</ele>
        <time>2019-12-24T20:31:41Z</time>
      </trkpt>
      <trkpt lat="42.51023" lon="2.78996">
        <ele>104.3</ele>
        <time>2019-12-24T20:31:45Z</time>
      </trkpt>
      <trkpt lat="42.51039" lon="2.78985">
        <ele>103.4</ele>
        <time>2019-12-24T20:31:48Z</time>
      </trkpt>
      <trkpt lat="42.51052" lon="2.78991">
        <ele>103.4</ele>
        <time>2019-12-24T20:31:50Z</time>
      </trkpt>
      <trkpt lat="42.51077" lon="2.78977">
        <ele>103</ele>
        <time>2019-12-24T20:31:53Z</time>
      </trkpt>
      <trkpt lat="42.51082" lon="2.78933">
        <ele>99.6</ele>
        <time>2019-12-24T20:31:58Z</time>
      </trkpt>
      <trkpt lat="42.51083" lon="2.78906">
        <ele>97.3</ele>
        <time>2019-12-24T20:32:04Z</time>
      </trkpt>
      <trkpt lat="42.51072" lon="2.78805">
        <ele>96.6</ele>
        <time>2019-12-24T20:32:11Z</time>
      </trkpt>
      <trkpt lat="42.51069" lon="2.78758">
        <ele>96.6</ele>
        <time>2019-12-24T20:32:17Z</time>
      </trkpt>
      <trkpt lat="42.51069" lon="2.78733">
        <ele>96.4</ele>
        <time>2019-12-24T20:32:22Z</time>
      </trkpt>
      <trkpt lat="42.51074" lon="2.78697">
        <ele>96.4</ele>
        <time>2019-12-24T20:32:32Z</time>
      </trkpt>
      <trkpt lat="42.51074" lon="2.78658">
        <ele>97.1</ele>
        <time>2019-12-24T20:32:37Z</time>
      </trkpt>
      <trkpt lat="42.51073" lon="2.78603">
        <ele>97.9</ele>
        <time>2019-12-24T20:32:40Z</time>
      </trkpt>
      <trkpt lat="42.51058" lon="2.7858">
        <ele>98.4</ele>
        <time>2019-12-24T20:32:44Z</time>
      </trkpt>
      <trkpt lat="42.5107" lon="2.78538">
        <ele>98.5</ele>
        <time>2019-12-24T20:32:46Z</time>
      </trkpt>
      <trkpt lat="42.51075" lon="2.78513">
        <ele>98.7</ele>
        <time>2019-12-24T20:32:49Z</time>
      </trkpt>
      <trkpt lat="42.51065" lon="2.78451">
        <ele>99.4</ele>
        <time>2019-12-24T20:32:50Z</time>
      </trkpt>
      <trkpt lat="42.51057" lon="2.78396">
        <ele>101</ele>
        <time>2019-12-24T20:32:56Z</time>
      </trkpt>
      <trkpt lat="42.51051" lon="2.7837">
        <ele>101.3</ele>
        <time>2019-12-24T20:33:00Z</time>
      </trkpt>
      <trkpt lat="42.51054" lon="2.78314">
        <ele>104.4</ele>
        <time>2019-12-24T20:33:12Z</time>
      </trkpt>
      <trkpt lat="42.51055" lon="2.78304">
        <ele>104.6</ele>
        <time>2019-12-24T20:33:31Z</time>
      </trkpt>
      <trkpt lat="42.51049" lon="2.78283">
        <ele>104.9</ele>
        <time>2019-12-24T20:33:36Z</time>
      </trkpt>
      <trkpt lat="42.51023" lon="2.78241">
        <ele>107.2</ele>
        <time>2019-12-24T20:33:38Z</time>
      </trkpt>
      <trkpt lat="42.51005" lon="2.78206">
        <ele>108.6</ele>
        <time>2019-12-24T20:33:46Z</time>
      </trkpt>
      <trkpt lat="42.50991" lon="2.78191">
        <ele>106.8</ele>
        <time>2019-12-24T20:33:56Z</time>
      </trkpt>
      <trkpt lat="42.50968" lon="2.78179">
        <ele>106.1</ele>
        <time>2019-12-24T20:34:05Z</time>
      </trkpt>
      <trkpt lat="42.50959" lon="2.78153">
        <ele>110.3</ele>
        <time>2019-12-24T20:34:12Z</time>
      </trkpt>
      <trkpt lat="42.50957" lon="2.78127">
        <ele>111.1</ele>
        <time>2019-12-24T20:34:33Z</time>
      </trkpt>
      <trkpt lat="42.50955" lon="2.78115">
        <ele>111.6</ele>
        <time>2019-12-24T20:34:56Z</time>
      </trkpt>
      <trkpt lat="42.50932" lon="2.78075">
        <ele>115.1</ele>
        <time>2019-12-24T20:35:06Z</time>
      </trkpt>
      <trkpt lat="42.5093" lon="2.78042">
        <ele>116.3</ele>
        <time>2019-12-24T20:35:11Z</time>
      </trkpt>
      <trkpt lat="42.50928" lon="2.78027">
        <ele>117</ele>
        <time>2019-12-24T20:35:17Z</time>
      </trkpt>
      <trkpt lat="42.50925" lon="2.78013">
        <ele>118</ele>
        <time>2019-12-24T20:35:23Z</time>
      </trkpt>
      <trkpt lat="42.50913" lon="2.77987">
        <ele>118.9</ele>
        <time>2019-12-24T20:35:28Z</time>
      </trkpt>
      <trkpt lat="42.50899" lon="2.77955">
        <ele>118.3</ele>
        <time>2019-12-24T20:35:36Z</time>
      </trkpt>
      <trkpt lat="42.50887" lon="2.7792">
        <ele>118.5</ele>
        <time>2019-12-24T20:35:45Z</time>
      </trkpt>
      <trkpt lat="42.50876" lon="2.77868">
        <ele>117.5</ele>
        <time>2019-12-24T20:35:51Z</time>
      </trkpt>
      <trkpt lat="42.50869" lon="2.77815">
        <ele>116</ele>
        <time>2019-12-24T20:35:56Z</time>
      </trkpt>
      <trkpt lat="42.5086" lon="2.77777">
        <ele>115.7</ele>
        <time>2019-12-24T20:36:27Z</time>
      </trkpt>
      <trkpt lat="42.50829" lon="2.77672">
        <ele>116.5</ele>
        <time>2019-12-24T20:36:30Z</time>
      </trkpt>
      <trkpt lat="42.50799" lon="2.77566">
        <ele>116.7</ele>
        <time>2019-12-24T20:36:38Z</time>
      </trkpt>
      <trkpt lat="42.50799" lon="2.77552">
        <ele>116.9</ele>
        <time>2019-12-24T20:36:41Z</time>
      </trkpt>
      <trkpt lat="42.50813" lon="2.77543">
        <ele>118.1</ele>
        <time>2019-12-24T20:36:48Z</time>
      </trkpt>
      <trkpt lat="42.50863" lon="2.77521">
        <ele>123.2</ele>
        <time>2019-12-24T20:36:54Z</time>
      </trkpt>
      <trkpt lat="42.50927" lon="2.77496">
        <ele>122</ele>
        <time>2019-12-24T20:37:01Z</time>
      </trkpt>
      <trkpt lat="42.50937" lon="2.77494">
        <ele>121.9</ele>
        <time>2019-12-24T20:37:19Z</time>
      </trkpt>
      <trkpt lat="42.50956" lon="2.77477">
        <ele>121.9</ele>
        <time>2019-12-24T20:37:28Z</time>
      </trkpt>
      <trkpt lat="42.50968" lon="2.77474">
        <ele>121.9</ele>
        <time>2019-12-24T20:37:47Z</time>
      </trkpt>
      <trkpt lat="42.50962" lon="2.77434">
        <ele>122.2</ele>
        <time>2019-12-24T20:38:02Z</time>
      </trkpt>
      <trkpt lat="42.50951" lon="2.77414">
        <ele>123</ele>
        <time>2019-12-24T20:38:16Z</time>
      </trkpt>
      <trkpt lat="42.50937" lon="2.77404">
        <ele>122.9</ele>
        <time>2019-12-24T20:38:31Z</time>
      </trkpt>
      <trkpt lat="42.50931" lon="2.774">
        <ele>122.8</ele>
        <time>2019-12-24T20:38:38Z</time>
      </trkpt>
      <trkpt lat="42.50914" lon="2.77364">
        <ele>122.6</ele>
        <time>2019-12-24T20:38:49Z</time>
      </trkpt>
      <trkpt lat="42.50848" lon="2.77217">
        <ele>123.8</ele>
        <time>2019-12-24T20:39:10Z</time>
      </trkpt>
      <trkpt lat="42.50805" lon="2.77116">
        <ele>123.9</ele>
        <time>2019-12-24T20:39:26Z</time>
      </trkpt>
      <trkpt lat="42.5076" lon="2.77015">
        <ele>127.3</ele>
        <time>2019-12-24T20:39:31Z</time>
      </trkpt>
      <trkpt lat="42.50709" lon="2.76901">
        <ele>127.9</ele>
        <time>2019-12-24T20:39:35Z</time>
      </trkpt>
      <trkpt lat="42.50623" lon="2.7671">
        <ele>128</ele>
        <time>2019-12-24T20:39:43Z</time>
      </trkpt>
      <trkpt lat="42.50554" lon="2.76561">
        <ele>131.7</ele>
        <time>2019-12-24T20:40:00Z</time>
      </trkpt>
      <trkpt lat="42.50519" lon="2.76477">
        <ele>131.9</ele>
        <time>2019-12-24T20:40:17Z</time>
      </trkpt>
      <trkpt lat="42.50521" lon="2.76459">
        <ele>132</ele>
        <time>2019-12-24T20:40:27Z</time>
      </trkpt>
      <trkpt lat="42.50519" lon="2.76445">
        <ele>131.8</ele>
        <time>2019-12-24T20:40:40Z</time>
      </trkpt>
      <trkpt lat="42.50512" lon="2.76431">
        <ele>131.6</ele>
        <time>2019-12-24T20:40:59Z</time>
      </trkpt>
      <trkpt lat="42.50483" lon="2.76395">
        <ele>130.5</ele>
        <time>2019-12-24T20:41:03Z</time>
      </trkpt>
      <trkpt lat="42.50442" lon="2.76308">
        <ele>130.2</ele>
        <time>2019-12-24T20:41:11Z</time>
      </trkpt>
      <trkpt lat="42.50377" lon="2.76165">
        <ele>131</ele>
        <time>2019-12-24T20:41:19Z</time>
      </trkpt>
      <trkpt lat="42.50306" lon="2.76004">
        <ele>133.7</ele>
        <time>2019-12-24T20:41:21Z</time>
      </trkpt>
      <trkpt lat="42.50253" lon="2.75888">
        <ele>133.8</ele>
        <time>2019-12-24T20:41:23Z</time>
      </trkpt>
      <trkpt lat="42.50251" lon="2.75885">
        <ele>133.8</ele>
        <time>2019-12-24T20:41:28Z</time>
      </trkpt>
      <trkpt lat="42.50217" lon="2.75807">
        <ele>135.4</ele>
        <time>2019-12-24T20:41:34Z</time>
      </trkpt>
      <trkpt lat="42.502" lon="2.75768">
        <ele>135.6</ele>
        <time>2019-12-24T20:41:39Z</time>
      </trkpt>
      <trkpt lat="42.50126" lon="2.75601">
        <ele>137.7</ele>
        <time>2019-12-24T20:41:43Z</time>
      </trkpt>
      <trkpt lat="42.50122" lon="2.75586">
        <ele>137.6</ele>
        <time>2019-12-24T20:41:44Z</time>
      </trkpt>
      <trkpt lat="42.50122" lon="2.75569">
        <ele>137.8</ele>
        <time>2019-12-24T20:41:45Z</time>
      </trkpt>
      <trkpt lat="42.50116" lon="2.75547">
        <ele>137.8</ele>
        <time>2019-12-24T20:41:47Z</time>
      </trkpt>
      <trkpt lat="42.50103" lon="2.75525">
        <ele>137.7</ele>
        <time>2019-12-24T20:41:47Z</time>
      </trkpt>
      <trkpt lat="42.5009" lon="2.75511">
        <ele>137.4</ele>
        <time>2019-12-24T20:41:48Z</time>
      </trkpt>
      <trkpt lat="42.50078" lon="2.75496">
        <ele>137.1</ele>
        <time>2019-12-24T20:41:52Z</time>
      </trkpt>
      <trkpt lat="42.50059" lon="2.75454">
        <ele>137.7</ele>
        <time>2019-12-24T20:42:00Z</time>
      </trkpt>
      <trkpt lat="42.50024" lon="2.75363">
        <ele>139.4</ele>
        <time>2019-12-24T20:42:08Z</time>
      </trkpt>
      <trkpt lat="42.50007" lon="2.75312">
        <ele>139</ele>
        <time>2019-12-24T20:42:15Z</time>
      </trkpt>
      <trkpt lat="42.49989" lon="2.75242">
        <ele>136.5</ele>
        <time>2019-12-24T20:42:20Z</time>
      </trkpt>
      <trkpt lat="42.49899" lon="2.74906">
        <ele>143.2</ele>
        <time>2019-12-24T20:42:24Z</time>
      </trkpt>
      <trkpt lat="42.49854" lon="2.74732">
        <ele>144.9</ele>
        <time>2019-12-24T20:42:27Z</time>
      </trkpt>
      <trkpt lat="42.49836" lon="2.74665">
        <ele>146</ele>
        <time>2019-12-24T20:42:35Z</time>
      </trkpt>
      <trkpt lat="42.49828" lon="2.74638">
        <ele>145.8</ele>
        <time>2019-12-24T20:42:47Z</time>
      </trkpt>
      <trkpt lat="42.49802" lon="2.74615">
        <ele>145.8</ele>
        <time>2019-12-24T20:42:59Z</time>
      </trkpt>
      <trkpt lat="42.49793" lon="2.74606">
        <ele>145.8</ele>
        <time>2019-12-24T20:43:03Z</time>
      </trkpt>
      <trkpt lat="42.49774" lon="2.74586">
        <ele>145.9</ele>
        <time>2019-12-24T20:43:07Z</time>
      </trkpt>
      <trkpt lat="42.49759" lon="2.74568">
        <ele>146.3</ele>
        <time>2019-12-24T20:43:17Z</time>
      </trkpt>
      <trkpt lat="42.49747" lon="2.74553">
        <ele>146.1</ele>
        <time>2019-12-24T20:43:20Z</time>
      </trkpt>
      <trkpt lat="42.49738" lon="2.7454">
        <ele>146.2</ele>
        <time>2019-12-24T20:43:28Z</time>
      </trkpt>
      <trkpt lat="42.49721" lon="2.7451">
        <ele>146.2</ele>
        <time>2019-12-24T20:43:35Z</time>
      </trkpt>
      <trkpt lat="42.49714" lon="2.74503">
        <ele>146.1</ele>
        <time>2019-12-24T20:43:40Z</time>
      </trkpt>
      <trkpt lat="42.49706" lon="2.74501">
        <ele>146</ele>
        <time>2019-12-24T20:43:50Z</time>
      </trkpt>
      <trkpt lat="42.49696" lon="2.74501">
        <ele>145.8</ele>
        <time>2019-12-24T20:43:51Z</time>
      </trkpt>
      <trkpt lat="42.49689" lon="2.74502">
        <ele>145.7</ele>
        <time>2019-12-24T20:43:52Z</time>
      </trkpt>
      <trkpt lat="42.4968" lon="2.74502">
        <ele>145.5</ele>
        <time>2019-12-24T20:43:52Z</time>
      </trkpt>
      <trkpt lat="42.4966" lon="2.74503">
        <ele>144.1</ele>
        <time>2019-12-24T20:43:53Z</time>
      </trkpt>
      <trkpt lat="42.49652" lon="2.74501">
        <ele>143.5</ele>
        <time>2019-12-24T20:43:53Z</time>
      </trkpt>
      <trkpt lat="42.49651" lon="2.74501">
        <ele>143.4</ele>
        <time>2019-12-24T20:43:54Z</time>
      </trkpt>
      <trkpt lat="42.49638" lon="2.74497">
        <ele>140.7</ele>
        <time>2019-12-24T20:43:55Z</time>
      </trkpt>
      <trkpt lat="42.49625" lon="2.7449">
        <ele>139.5</ele>
        <time>2019-12-24T20:43:56Z</time>
      </trkpt>
      <trkpt lat="42.49607" lon="2.74478">
        <ele>138.2</ele>
        <time>2019-12-24T20:43:57Z</time>
      </trkpt>
      <trkpt lat="42.49606" lon="2.74484">
        <ele>138.2</ele>
        <time>2019-12-24T20:43:58Z</time>
      </trkpt>
      <trkpt lat="42.49601" lon="2.74474">
        <ele>137.8</ele>
        <time>2019-12-24T20:43:59Z</time>
      </trkpt>
      <trkpt lat="42.49599" lon="2.7447">
        <ele>137.6</ele>
        <time>2019-12-24T20:44:00Z</time>
      </trkpt>
      <trkpt lat="42.49594" lon="2.74463">
        <ele>137.2</ele>
        <time>2019-12-24T20:44:04Z</time>
      </trkpt>
      <trkpt lat="42.49591" lon="2.7446">
        <ele>136.9</ele>
        <time>2019-12-24T20:44:14Z</time>
      </trkpt>
      <trkpt lat="42.49588" lon="2.74454">
        <ele>136.4</ele>
        <time>2019-12-24T20:44:19Z</time>
      </trkpt>
      <trkpt lat="42.49576" lon="2.74428">
        <ele>130.9</ele>
        <time>2019-12-24T20:44:25Z</time>
      </trkpt>
      <trkpt lat="42.49541" lon="2.74366">
        <ele>136.4</ele>
        <time>2019-12-24T20:44:32Z</time>
      </trkpt>
      <trkpt lat="42.49517" lon="2.74325">
        <ele>142.1</ele>
        <time>2019-12-24T20:44:35Z</time>
      </trkpt>
      <trkpt lat="42.49509" lon="2.74312">
        <ele>142.1</ele>
        <time>2019-12-24T20:44:39Z</time>
      </trkpt>
      <trkpt lat="42.49495" lon="2.74283">
        <ele>146.9</ele>
        <time>2019-12-24T20:44:45Z</time>
      </trkpt>
      <trkpt lat="42.4949" lon="2.74273">
        <ele>147</ele>
        <time>2019-12-24T20:44:51Z</time>
      </trkpt>
      <trkpt lat="42.49475" lon="2.74256">
        <ele>147.2</ele>
        <time>2019-12-24T20:44:56Z</time>
      </trkpt>
      <trkpt lat="42.49469" lon="2.74244">
        <ele>147.2</ele>
        <time>2019-12-24T20:45:06Z</time>
      </trkpt>
      <trkpt lat="42.49459" lon="2.74233">
        <ele>147.3</ele>
        <time>2019-12-24T20:45:14Z</time>
      </trkpt>
      <trkpt lat="42.49453" lon="2.74216">
        <ele>147.3</ele>
        <time>2019-12-24T20:45:20Z</time>
      </trkpt>
      <trkpt lat="42.49451" lon="2.74206">
        <ele>147.3</ele>
        <time>2019-12-24T20:45:24Z</time>
      </trkpt>
      <trkpt lat="42.49455" lon="2.74198">
        <ele>147.3</ele>
        <time>2019-12-24T20:45:27Z</time>
      </trkpt>
      <trkpt lat="42.49458" lon="2.74193">
        <ele>147.2</ele>
        <time>2019-12-24T20:45:31Z</time>
      </trkpt>
      <trkpt lat="42.4946" lon="2.74182">
        <ele>147.2</ele>
        <time>2019-12-24T20:45:37Z</time>
      </trkpt>
      <trkpt lat="42.49471" lon="2.74095">
        <ele>147</ele>
        <time>2019-12-24T20:45:52Z</time>
      </trkpt>
      <trkpt lat="42.49471" lon="2.74084">
        <ele>147</ele>
      </trkpt>
      <trkpt lat="42.49474" lon="2.74069">
        <ele>147.6</ele>
      </trkpt>
      <trkpt lat="42.49475" lon="2.74063">
        <ele>147.7</ele>
      </trkpt>
      <trkpt lat="42.49475" lon="2.74051">
        <ele>147.9</ele>
      </trkpt>
      <trkpt lat="42.49476" lon="2.74028">
        <ele>148.1</ele>
      </trkpt>
      <trkpt lat="42.49476" lon="2.73998">
        <ele>149.2</ele>
      </trkpt>
      <trkpt lat="42.49475" lon="2.7393">
        <ele>150.3</ele>
      </trkpt>
      <trkpt lat="42.49475" lon="2.73913">
        <ele>151.5</ele>
      </trkpt>
      <trkpt lat="42.49474" lon="2.73852">
        <ele>152.1</ele>
      </trkpt>
      <trkpt lat="42.49471" lon="2.73741">
        <ele>153</ele>
      </trkpt>
      <trkpt lat="42.49469" lon="2.73677">
        <ele>152.7</ele>
      </trkpt>
      <trkpt lat="42.49468" lon="2.73575">
        <ele>154.3</ele>
      </trkpt>
      <trkpt lat="42.49468" lon="2.73548">
        <ele>154.8</ele>
      </trkpt>
      <trkpt lat="42.4947" lon="2.73519">
        <ele>155</ele>
      </trkpt>
      <trkpt lat="42.49475" lon="2.73471">
        <ele>155.9</ele>
      </trkpt>
      <trkpt lat="42.49488" lon="2.73352">
        <ele>155.5</ele>
      </trkpt>
      <trkpt lat="42.49508" lon="2.73183">
        <ele>151.5</ele>
      </trkpt>
      <trkpt lat="42.49512" lon="2.73149">
        <ele>151.5</ele>
      </trkpt>
      <trkpt lat="42.49514" lon="2.73135">
        <ele>151.1</ele>
      </trkpt>
      <trkpt lat="42.49518" lon="2.73113">
        <ele>151</ele>
      </trkpt>
      <trkpt lat="42.49522" lon="2.73087">
        <ele>151.2</ele>
      </trkpt>
      <trkpt lat="42.49526" lon="2.73064">
        <ele>151.3</ele>
      </trkpt>
      <trkpt lat="42.49531" lon="2.73036">
        <ele>151.2</ele>
      </trkpt>
      <trkpt lat="42.49533" lon="2.73013">
        <ele>151.5</ele>
      </trkpt>
      <trkpt lat="42.49533" lon="2.72979">
        <ele>152.3</ele>
      </trkpt>
      <trkpt lat="42.49533" lon="2.72957">
        <ele>152.4</ele>
      </trkpt>
      <trkpt lat="42.49532" lon="2.72937">
        <ele>152.6</ele>
      </trkpt>
      <trkpt lat="42.49521" lon="2.72851">
        <ele>154.3</ele>
      </trkpt>
      <trkpt lat="42.49515" lon="2.72803">
        <ele>154.7</ele>
      </trkpt>
      <trkpt lat="42.49511" lon="2.72768">
        <ele>155.5</ele>
      </trkpt>
      <trkpt lat="42.49508" lon="2.72732">
        <ele>155.2</ele>
      </trkpt>
      <trkpt lat="42.49505" lon="2.72705">
        <ele>154.3</ele>
      </trkpt>
      <trkpt lat="42.49497" lon="2.72664">
        <ele>158</ele>
      </trkpt>
      <trkpt lat="42.49492" lon="2.72645">
        <ele>160.6</ele>
      </trkpt>
      <trkpt lat="42.49485" lon="2.72631">
        <ele>161.3</ele>
      </trkpt>
      <trkpt lat="42.49479" lon="2.72617">
        <ele>161.3</ele>
      </trkpt>
      <trkpt lat="42.49467" lon="2.72598">
        <ele>161.6</ele>
      </trkpt>
      <trkpt lat="42.49454" lon="2.72567">
        <ele>159.6</ele>
      </trkpt>
      <trkpt lat="42.4945" lon="2.72549">
        <ele>159.4</ele>
      </trkpt>
      <trkpt lat="42.49448" lon="2.72538">
        <ele>159.2</ele>
      </trkpt>
      <trkpt lat="42.49451" lon="2.72532">
        <ele>158.9</ele>
      </trkpt>
      <trkpt lat="42.49451" lon="2.72527">
        <ele>158.8</ele>
      </trkpt>
      <trkpt lat="42.4945" lon="2.72522">
        <ele>158.8</ele>
      </trkpt>
      <trkpt lat="42.49448" lon="2.72519">
        <ele>158.8</ele>
      </trkpt>
      <trkpt lat="42.49444" lon="2.72516">
        <ele>159</ele>
      </trkpt>
      <trkpt lat="42.49438" lon="2.72508">
        <ele>159.2</ele>
      </trkpt>
      <trkpt lat="42.49433" lon="2.72495">
        <ele>158</ele>
      </trkpt>
      <trkpt lat="42.4943" lon="2.7246">
        <ele>156.8</ele>
      </trkpt>
      <trkpt lat="42.4943" lon="2.72429">
        <ele>156.5</ele>
      </trkpt>
      <trkpt lat="42.49425" lon="2.72399">
        <ele>156</ele>
      </trkpt>
      <trkpt lat="42.49411" lon="2.72341">
        <ele>158.5</ele>
      </trkpt>
      <trkpt lat="42.494" lon="2.72312">
        <ele>159.6</ele>
      </trkpt>
      <trkpt lat="42.49394" lon="2.72277">
        <ele>159.6</ele>
      </trkpt>
      <trkpt lat="42.49396" lon="2.72261">
        <ele>158.7</ele>
      </trkpt>
      <trkpt lat="42.49401" lon="2.72234">
        <ele>159.7</ele>
      </trkpt>
      <trkpt lat="42.49402" lon="2.72203">
        <ele>161.3</ele>
      </trkpt>
      <trkpt lat="42.49399" lon="2.72181">
        <ele>160.8</ele>
      </trkpt>
      <trkpt lat="42.49396" lon="2.72163">
        <ele>164.2</ele>
      </trkpt>
      <trkpt lat="42.4939" lon="2.7214">
        <ele>167.6</ele>
      </trkpt>
      <trkpt lat="42.4939" lon="2.72103">
        <ele>168.2</ele>
      </trkpt>
      <trkpt lat="42.49392" lon="2.72059">
        <ele>175.5</ele>
      </trkpt>
      <trkpt lat="42.49396" lon="2.72009">
        <ele>175.8</ele>
      </trkpt>
      <trkpt lat="42.49407" lon="2.71962">
        <ele>186.1</ele>
      </trkpt>
      <trkpt lat="42.49418" lon="2.71926">
        <ele>172.4</ele>
      </trkpt>
      <trkpt lat="42.49442" lon="2.71858">
        <ele>169.8</ele>
      </trkpt>
      <trkpt lat="42.4945" lon="2.71824">
        <ele>166</ele>
      </trkpt>
      <trkpt lat="42.49451" lon="2.71804">
        <ele>164.1</ele>
      </trkpt>
      <trkpt lat="42.49442" lon="2.71773">
        <ele>162.7</ele>
      </trkpt>
      <trkpt lat="42.49436" lon="2.7176">
        <ele>162.8</ele>
      </trkpt>
      <trkpt lat="42.49424" lon="2.71741">
        <ele>161.2</ele>
      </trkpt>
      <trkpt lat="42.49424" lon="2.71736">
        <ele>160.5</ele>
      </trkpt>
      <trkpt lat="42.4944" lon="2.71694">
        <ele>157.9</ele>
      </trkpt>
      <trkpt lat="42.49444" lon="2.71665">
        <ele>159.4</ele>
      </trkpt>
      <trkpt lat="42.49463" lon="2.71576">
        <ele>162.3</ele>
      </trkpt>
      <trkpt lat="42.49493" lon="2.71436">
        <ele>166</ele>
      </trkpt>
      <trkpt lat="42.49496" lon="2.71399">
        <ele>167.2</ele>
      </trkpt>
      <trkpt lat="42.49494" lon="2.71381">
        <ele>168</ele>
      </trkpt>
      <trkpt lat="42.4949" lon="2.71323">
        <ele>167.8</ele>
      </trkpt>
      <trkpt lat="42.4948" lon="2.71249">
        <ele>168.3</ele>
      </trkpt>
      <trkpt lat="42.49482" lon="2.71177">
        <ele>168.8</ele>
      </trkpt>
      <trkpt lat="42.49492" lon="2.71128">
        <ele>172.9</ele>
      </trkpt>
      <trkpt lat="42.49535" lon="2.70982">
        <ele>179</ele>
      </trkpt>
      <trkpt lat="42.49577" lon="2.70815">
        <ele>180.7</ele>
      </trkpt>
      <trkpt lat="42.49596" lon="2.70744">
        <ele>176.3</ele>
      </trkpt>
      <trkpt lat="42.496" lon="2.70706">
        <ele>174.8</ele>
      </trkpt>
      <trkpt lat="42.49598" lon="2.7066">
        <ele>176.2</ele>
      </trkpt>
      <trkpt lat="42.49587" lon="2.70619">
        <ele>174</ele>
      </trkpt>
      <trkpt lat="42.49564" lon="2.70588">
        <ele>178.9</ele>
      </trkpt>
      <trkpt lat="42.4953" lon="2.70558">
        <ele>174.5</ele>
      </trkpt>
      <trkpt lat="42.49482" lon="2.70528">
        <ele>177.2</ele>
      </trkpt>
      <trkpt lat="42.49448" lon="2.70519">
        <ele>177.9</ele>
      </trkpt>
      <trkpt lat="42.49419" lon="2.70519">
        <ele>177.3</ele>
      </trkpt>
      <trkpt lat="42.49251" lon="2.70552">
        <ele>189.4</ele>
      </trkpt>
      <trkpt lat="42.49232" lon="2.70551">
        <ele>194.7</ele>
      </trkpt>
      <trkpt lat="42.49193" lon="2.70526">
        <ele>192.1</ele>
      </trkpt>
      <trkpt lat="42.49176" lon="2.70507">
        <ele>187.7</ele>
      </trkpt>
      <trkpt lat="42.49151" lon="2.70471">
        <ele>187.5</ele>
      </trkpt>
      <trkpt lat="42.4912" lon="2.7045">
        <ele>189.7</ele>
      </trkpt>
      <trkpt lat="42.49092" lon="2.70416">
        <ele>185.3</ele>
      </trkpt>
      <trkpt lat="42.49008" lon="2.70337">
        <ele>185.9</ele>
      </trkpt>
      <trkpt lat="42.48968" lon="2.70296">
        <ele>181.8</ele>
      </trkpt>
      <trkpt lat="42.48885" lon="2.70206">
        <ele>178.3</ele>
      </trkpt>
      <trkpt lat="42.48821" lon="2.70126">
        <ele>177</ele>
      </trkpt>
      <trkpt lat="42.48758" lon="2.7007">
        <ele>176.8</ele>
      </trkpt>
      <trkpt lat="42.48689" lon="2.69995">
        <ele>177.2</ele>
      </trkpt>
      <trkpt lat="42.48656" lon="2.69966">
        <ele>177.9</ele>
      </trkpt>
      <trkpt lat="42.48606" lon="2.69927">
        <ele>178.3</ele>
      </trkpt>
      <trkpt lat="42.48519" lon="2.69816">
        <ele>179.1</ele>
      </trkpt>
      <trkpt lat="42.48456" lon="2.69725">
        <ele>179.9</ele>
      </trkpt>
      <trkpt lat="42.48441" lon="2.69699">
        <ele>179.9</ele>
      </trkpt>
      <trkpt lat="42.48431" lon="2.69673">
        <ele>179.6</ele>
      </trkpt>
      <trkpt lat="42.48427" lon="2.69612">
        <ele>180.9</ele>
      </trkpt>
      <trkpt lat="42.48422" lon="2.6948">
        <ele>182.3</ele>
      </trkpt>
      <trkpt lat="42.48417" lon="2.69348">
        <ele>182.6</ele>
      </trkpt>
      <trkpt lat="42.4841" lon="2.69273">
        <ele>185.2</ele>
      </trkpt>
      <trkpt lat="42.48397" lon="2.69176">
        <ele>187.6</ele>
      </trkpt>
      <trkpt lat="42.48375" lon="2.69038">
        <ele>191.5</ele>
      </trkpt>
      <trkpt lat="42.4837" lon="2.69009">
        <ele>191.9</ele>
      </trkpt>
      <trkpt lat="42.48361" lon="2.68944">
        <ele>192</ele>
      </trkpt>
      <trkpt lat="42.48348" lon="2.68884">
        <ele>191.6</ele>
      </trkpt>
      <trkpt lat="42.48344" lon="2.68872">
        <ele>191.4</ele>
      </trkpt>
      <trkpt lat="42.4834" lon="2.68858">
        <ele>191.3</ele>
      </trkpt>
      <trkpt lat="42.48325" lon="2.68824">
        <ele>194.4</ele>
      </trkpt>
      <trkpt lat="42.48306" lon="2.6879">
        <ele>196.7</ele>
      </trkpt>
      <trkpt lat="42.48283" lon="2.68762">
        <ele>197.5</ele>
      </trkpt>
      <trkpt lat="42.48272" lon="2.68739">
        <ele>195.2</ele>
      </trkpt>
      <trkpt lat="42.48275" lon="2.68731">
        <ele>194.7</ele>
      </trkpt>
      <trkpt lat="42.48275" lon="2.68723">
        <ele>194.3</ele>
      </trkpt>
      <trkpt lat="42.48268" lon="2.68719">
        <ele>194.4</ele>
      </trkpt>
      <trkpt lat="42.48264" lon="2.68719">
        <ele>194.6</ele>
      </trkpt>
      <trkpt lat="42.48261" lon="2.6872">
        <ele>194.8</ele>
      </trkpt>
      <trkpt lat="42.48254" lon="2.68691">
        <ele>193.6</ele>
      </trkpt>
      <trkpt lat="42.4824" lon="2.68629">
        <ele>198.3</ele>
      </trkpt>
      <trkpt lat="42.48225" lon="2.68576">
        <ele>199.3</ele>
      </trkpt>
      <trkpt lat="42.48212" lon="2.68527">
        <ele>201.1</ele>
      </trkpt>
      <trkpt lat="42.48202" lon="2.68492">
        <ele>202.4</ele>
      </trkpt>
      <trkpt lat="42.48193" lon="2.68463">
        <ele>203.1</ele>
      </trkpt>
      <trkpt lat="42.48192" lon="2.68439">
        <ele>203.7</ele>
      </trkpt>
      <trkpt lat="42.48198" lon="2.68379">
        <ele>204.4</ele>
      </trkpt>
      <trkpt lat="42.48208" lon="2.68288">
        <ele>204.5</ele>
      </trkpt>
      <trkpt lat="42.48217" lon="2.68194">
        <ele>204.9</ele>
      </trkpt>
      <trkpt lat="42.48219" lon="2.68163">
        <ele>204.8</ele>
      </trkpt>
      <trkpt lat="42.48216" lon="2.68134">
        <ele>205</ele>
      </trkpt>
      <trkpt lat="42.48198" lon="2.6806">
        <ele>205</ele>
      </trkpt>
      <trkpt lat="42.48192" lon="2.68043">
        <ele>205.1</ele>
      </trkpt>
      <trkpt lat="42.48177" lon="2.67989">
        <ele>206.5</ele>
      </trkpt>
      <trkpt lat="42.48162" lon="2.67938">
        <ele>211.2</ele>
      </trkpt>
      <trkpt lat="42.4815" lon="2.67899">
        <ele>211.2</ele>
      </trkpt>
      <trkpt lat="42.48129" lon="2.67829">
        <ele>211.4</ele>
      </trkpt>
      <trkpt lat="42.4813" lon="2.67827">
        <ele>211.3</ele>
      </trkpt>
      <trkpt lat="42.48135" lon="2.6782">
        <ele>211</ele>
      </trkpt>
      <trkpt lat="42.48136" lon="2.67815">
        <ele>211</ele>
      </trkpt>
      <trkpt lat="42.48136" lon="2.67811">
        <ele>211</ele>
      </trkpt>
      <trkpt lat="42.48136" lon="2.67808">
        <ele>211</ele>
      </trkpt>
      <trkpt lat="42.48134" lon="2.67803">
        <ele>211.1</ele>
      </trkpt>
      <trkpt lat="42.48129" lon="2.67799">
        <ele>211.4</ele>
      </trkpt>
      <trkpt lat="42.48123" lon="2.67798">
        <ele>211.6</ele>
      </trkpt>
      <trkpt lat="42.48119" lon="2.67799">
        <ele>211.8</ele>
      </trkpt>
      <trkpt lat="42.48114" lon="2.67803">
        <ele>212.1</ele>
      </trkpt>
      <trkpt lat="42.48112" lon="2.67813">
        <ele>212.4</ele>
      </trkpt>
      <trkpt lat="42.48114" lon="2.67818">
        <ele>212.3</ele>
      </trkpt>
      <trkpt lat="42.48092" lon="2.67829">
        <ele>214.5</ele>
      </trkpt>
      <trkpt lat="42.4808" lon="2.67758">
        <ele>217.1</ele>
      </trkpt>
      <trkpt lat="42.48066" lon="2.67721">
        <ele>218.2</ele>
      </trkpt>
      <trkpt lat="42.48046" lon="2.67683">
        <ele>218.7</ele>
      </trkpt>
      <trkpt lat="42.48021" lon="2.67649">
        <ele>217.7</ele>
      </trkpt>
      <trkpt lat="42.48007" lon="2.67636">
        <ele>217.7</ele>
      </trkpt>
      <trkpt lat="42.47987" lon="2.67616">
        <ele>223.3</ele>
      </trkpt>
      <trkpt lat="42.47958" lon="2.67595">
        <ele>224.3</ele>
      </trkpt>
      <trkpt lat="42.47928" lon="2.67582">
        <ele>223</ele>
      </trkpt>
      <trkpt lat="42.47901" lon="2.67571">
        <ele>224.9</ele>
      </trkpt>
      <trkpt lat="42.47844" lon="2.67548">
        <ele>225.2</ele>
      </trkpt>
      <trkpt lat="42.47804" lon="2.67534">
        <ele>229.3</ele>
      </trkpt>
      <trkpt lat="42.47771" lon="2.67517">
        <ele>229.1</ele>
      </trkpt>
      <trkpt lat="42.47752" lon="2.67504">
        <ele>226.8</ele>
      </trkpt>
      <trkpt lat="42.47737" lon="2.67491">
        <ele>223.5</ele>
      </trkpt>
      <trkpt lat="42.4772" lon="2.67471">
        <ele>221.3</ele>
      </trkpt>
      <trkpt lat="42.47698" lon="2.67439">
        <ele>218.5</ele>
      </trkpt>
      <trkpt lat="42.47635" lon="2.67353">
        <ele>212.4</ele>
      </trkpt>
      <trkpt lat="42.47602" lon="2.67284">
        <ele>218</ele>
      </trkpt>
      <trkpt lat="42.47583" lon="2.67242">
        <ele>225.8</ele>
      </trkpt>
      <trkpt lat="42.47568" lon="2.67253">
        <ele>224.1</ele>
      </trkpt>
      <trkpt lat="42.47526" lon="2.67278">
        <ele>223.7</ele>
      </trkpt>
      <trkpt lat="42.4751" lon="2.67282">
        <ele>223.8</ele>
      </trkpt>
      <trkpt lat="42.47498" lon="2.67276">
        <ele>222.5</ele>
      </trkpt>
      <trkpt lat="42.47488" lon="2.67249">
        <ele>224.9</ele>
      </trkpt>
      <trkpt lat="42.47466" lon="2.67161">
        <ele>227.4</ele>
      </trkpt>
      <trkpt lat="42.47453" lon="2.67091">
        <ele>227.6</ele>
      </trkpt>
      <trkpt lat="42.47447" lon="2.67053">
        <ele>227.7</ele>
      </trkpt>
      <trkpt lat="42.47442" lon="2.67039">
        <ele>227.1</ele>
      </trkpt>
      <trkpt lat="42.4749" lon="2.66935">
        <ele>225.5</ele>
      </trkpt>
      <trkpt lat="42.47547" lon="2.66831">
        <ele>226.1</ele>
      </trkpt>
      <trkpt lat="42.47584" lon="2.66757">
        <ele>225.9</ele>
      </trkpt>
      <trkpt lat="42.47592" lon="2.66729">
        <ele>225.6</ele>
      </trkpt>
      <trkpt lat="42.47603" lon="2.66665">
        <ele>226.3</ele>
      </trkpt>
      <trkpt lat="42.47605" lon="2.66607">
        <ele>226.4</ele>
      </trkpt>
      <trkpt lat="42.47601" lon="2.66546">
        <ele>227.4</ele>
      </trkpt>
      <trkpt lat="42.47592" lon="2.66505">
        <ele>227.4</ele>
      </trkpt>
      <trkpt lat="42.47575" lon="2.6645">
        <ele>227.3</ele>
      </trkpt>
      <trkpt lat="42.47555" lon="2.66412">
        <ele>228.1</ele>
      </trkpt>
      <trkpt lat="42.47543" lon="2.6639">
        <ele>227.9</ele>
      </trkpt>
      <trkpt lat="42.47539" lon="2.66384">
        <ele>227.8</ele>
      </trkpt>
      <trkpt lat="42.47481" lon="2.66451">
        <ele>229.1</ele>
      </trkpt>
      <trkpt lat="42.47446" lon="2.66391">
        <ele>230.4</ele>
      </trkpt>
      <trkpt lat="42.47416" lon="2.66346">
        <ele>236.2</ele>
      </trkpt>
      <trkpt lat="42.47382" lon="2.66316">
        <ele>234.5</ele>
      </trkpt>
      <trkpt lat="42.47366" lon="2.66309">
        <ele>235.5</ele>
      </trkpt>
      <trkpt lat="42.47351" lon="2.66309">
        <ele>236.7</ele>
      </trkpt>
      <trkpt lat="42.47335" lon="2.66301">
        <ele>236.6</ele>
      </trkpt>
      <trkpt lat="42.47276" lon="2.66264">
        <ele>244.6</ele>
      </trkpt>
      <trkpt lat="42.47244" lon="2.66241">
        <ele>241.1</ele>
      </trkpt>
      <trkpt lat="42.47225" lon="2.66232">
        <ele>241.5</ele>
      </trkpt>
      <trkpt lat="42.47197" lon="2.6623">
        <ele>243</ele>
      </trkpt>
      <trkpt lat="42.47175" lon="2.66234">
        <ele>245.4</ele>
      </trkpt>
      <trkpt lat="42.47154" lon="2.66241">
        <ele>246.5</ele>
      </trkpt>
      <trkpt lat="42.47129" lon="2.66255">
        <ele>262.6</ele>
      </trkpt>
      <trkpt lat="42.4711" lon="2.6626">
        <ele>261.5</ele>
      </trkpt>
      <trkpt lat="42.47093" lon="2.66259">
        <ele>255.4</ele>
      </trkpt>
      <trkpt lat="42.47066" lon="2.66247">
        <ele>245</ele>
      </trkpt>
      <trkpt lat="42.47029" lon="2.66225">
        <ele>247.3</ele>
      </trkpt>
      <trkpt lat="42.4698" lon="2.66191">
        <ele>253.6</ele>
      </trkpt>
      <trkpt lat="42.46936" lon="2.66143">
        <ele>247.2</ele>
      </trkpt>
      <trkpt lat="42.46924" lon="2.66125">
        <ele>245.7</ele>
      </trkpt>
      <trkpt lat="42.46918" lon="2.66112">
        <ele>244.5</ele>
      </trkpt>
      <trkpt lat="42.46898" lon="2.66064">
        <ele>250.2</ele>
      </trkpt>
      <trkpt lat="42.46886" lon="2.66025">
        <ele>250.6</ele>
      </trkpt>
      <trkpt lat="42.46866" lon="2.6598">
        <ele>245.6</ele>
      </trkpt>
      <trkpt lat="42.46842" lon="2.65932">
        <ele>244.5</ele>
      </trkpt>
      <trkpt lat="42.46817" lon="2.65882">
        <ele>246.9</ele>
      </trkpt>
      <trkpt lat="42.46802" lon="2.65833">
        <ele>245.4</ele>
      </trkpt>
      <trkpt lat="42.46781" lon="2.65736">
        <ele>245.9</ele>
      </trkpt>
      <trkpt lat="42.46734" lon="2.6552">
        <ele>248.2</ele>
      </trkpt>
      <trkpt lat="42.46677" lon="2.65252">
        <ele>250.1</ele>
      </trkpt>
    </trkseg>
  </trk>
</gpx>